# Wetter Temperatur Luftdruck Luftfeuchtigkeit Sichtweite Windgeschwindigkeit Windrichtung Zeit
1 Clouds 23 1016 69 16093 1.5 280 09:20 08.04.2020
2 Clouds 23 1015 65 16093 2.6 240 08:59 08.04.2020
3 Clouds 23 1015 65 16093 2.6 240 08:59 08.04.2020
4 Clouds 23 1015 65 16093 2.6 240 08:40 08.04.2020
5 Clouds 23 1015 65 16093 2.6 240 08:21 08.04.2020
6 Clouds 24 1014 69 16093 2.6 200 07:43 08.04.2020
7 Clouds 24 1014 69 16093 2.6 200 07:22 08.04.2020
8 Clouds 25 1013 65 16093 4.6 230 06:41 08.04.2020
9 Clouds 26 1013 61 16093 5.7 230 05:30 08.04.2020
10 Clouds 27 1012 57 16093 6.7 220 03:21 08.04.2020
11 Clouds 27 1013 54 16093 6.7 220 02:38 08.04.2020
12 Clouds 27 1013 54 16093 6.7 220 02:18 08.04.2020
13 Clouds 27 1014 54 16093 6.2 210 01:28 08.04.2020
14 Clouds 27 1015 61 16093 5.7 220 00:50 08.04.2020
15 Clouds 27 1015 61 16093 5.7 220 00:32 08.04.2020
16 Clouds 27 1015 65 16093 5.7 220 23:57 07.04.2020
17 Clouds 26 1015 65 16093 5.7 220 23:38 07.04.2020
18 Clouds 26 1015 65 16093 5.7 220 23:19 07.04.2020
19 Clouds 26 1015 65 16093 5.7 220 23:19 07.04.2020
20 Clouds 26 1015 73 16093 3.6 200 22:56 07.04.2020
21 Clouds 26 1015 73 16093 3.6 200 22:38 07.04.2020
22 Clouds 25 1015 73 16093 3.6 200 22:18 07.04.2020
23 Clouds 24 1015 78 16093 2.1 220 21:43 07.04.2020
24 Clouds 24 1015 78 16093 2.1 220 21:23 07.04.2020
25 Clouds 24 1015 83 16093 2.83 257 20:59 07.04.2020
26 Clouds 23 1015 83 16093 2.83 257 20:41 07.04.2020
27 Clouds 23 1015 83 16093 2.83 257 20:21 07.04.2020
28 Clouds 21 1014 88 16093 2.83 257 19:58 07.04.2020
29 Clouds 21 1014 88 16093 2.83 257 19:38 07.04.2020
30 Clouds 21 1014 88 16093 2.83 257 19:20 07.04.2020
31 Clouds 21 1014 88 16093 2.83 257 18:59 07.04.2020
32 Clouds 21 1014 88 16093 2.83 257 18:40 07.04.2020
33 Clouds 21 1014 88 16093 2.83 257 18:40 07.04.2020
34 Clouds 21 1014 88 16093 3.03 248 18:21 07.04.2020
35 Clouds 20 1013 88 16093 1.5 30 17:47 07.04.2020
36 Clouds 20 1013 88 16093 1.5 30 17:24 07.04.2020
37 Clouds 20 1013 88 16093 3.03 248 16:58 07.04.2020
38 Rain 21 1013 88 16093 3.03 248 16:40 07.04.2020
39 Rain 21 1013 88 16093 3.03 248 16:22 07.04.2020
40 Clouds 21 1013 88 16093 1.5 340 15:43 07.04.2020
41 Clouds 21 1014 94 16093 2.07 235 15:24 07.04.2020
42 Clouds 21 1014 94 16093 2.07 235 14:43 07.04.2020
43 Clouds 21 1014 94 16093 2.6 227 14:23 07.04.2020
44 Clouds 22 1015 88 16093 2.6 227 13:58 07.04.2020
45 Clouds 22 1015 88 16093 2.6 227 13:39 07.04.2020
46 Clouds 22 1015 88 16093 2.6 227 13:19 07.04.2020
47 Rain 22 1015 83 11265 2.6 227 12:56 07.04.2020
48 Rain 22 1015 83 11265 2.6 227 12:37 07.04.2020
49 Rain 22 1015 83 11265 2.95 217 12:18 07.04.2020
50 Clouds 22 1015 88 16093 2.6 320 11:44 07.04.2020
51 Clouds 22 1015 88 16093 2.6 320 11:26 07.04.2020
52 Clouds 22 1015 88 16093 2.1 280 10:59 07.04.2020
53 Clouds 22 1015 88 16093 2.1 280 10:38 07.04.2020
54 Clouds 22 1015 88 16093 2.1 280 10:19 07.04.2020
55 Clouds 22 1014 88 16093 2.1 290 09:46 07.04.2020
56 Clouds 22 1014 88 16093 2.1 290 09:20 07.04.2020
57 Rain 23 1014 83 16093 1.5 260 08:57 07.04.2020
58 Rain 23 1014 83 16093 1.5 260 08:38 07.04.2020
59 Rain 23 1014 83 16093 1.5 260 08:19 07.04.2020
60 Rain 23 1013 88 16093 4.1 260 07:43 07.04.2020
61 Rain 23 1013 88 16093 4.1 260 07:25 07.04.2020
62 Rain 24 1012 83 16093 4.1 210 06:51 07.04.2020
63 Rain 24 1012 83 16093 4.1 210 06:25 07.04.2020
64 Clouds 25 1012 74 16093 5.7 220 05:46 07.04.2020
65 Clouds 25 1012 74 16093 5.7 220 05:22 07.04.2020
66 Rain 25 1012 94 16093 4.1 170 03:32 07.04.2020
67 Rain 25 1012 83 9656 6.2 200 02:59 07.04.2020
68 Clouds 26 1013 69 16093 4.1 170 01:58 07.04.2020
69 Clouds 26 1013 69 16093 4.1 170 01:32 07.04.2020
70 Rain 26 1014 74 16093 3.1 160 00:29 07.04.2020
71 Rain 26 1014 83 16093 4.1 150 23:57 06.04.2020
72 Rain 26 1014 83 16093 4.1 150 23:38 06.04.2020
73 Rain 26 1014 83 16093 4.1 150 23:20 06.04.2020
74 Clouds 25 1014 78 16093 4.1 150 22:41 06.04.2020
75 Clouds 25 1014 78 16093 4.1 150 22:22 06.04.2020
76 Clouds 24 1014 88 16093 3.6 130 21:58 06.04.2020
77 Clouds 24 1014 88 16093 3.6 130 21:40 06.04.2020
78 Clouds 24 1014 88 16093 3.6 130 21:19 06.04.2020
79 Clouds 24 1014 88 16093 3.6 130 21:19 06.04.2020
80 Rain 23 1014 94 16093 1.5 230 20:56 06.04.2020
81 Rain 22 1014 94 16093 1.5 230 20:38 06.04.2020
82 Rain 22 1013 88 4828 6.2 190 20:19 06.04.2020
83 Rain 22 1013 88 4828 6.2 190 19:42 06.04.2020
84 Rain 22 1013 88 4828 6.2 190 19:23 06.04.2020
85 Clouds 22 1013 83 16093 1.5 360 18:59 06.04.2020
86 Clouds 22 1013 83 16093 1.5 360 18:40 06.04.2020
87 Clouds 22 1012 78 16093 3.5 183 18:22 06.04.2020
88 Clouds 22 1012 78 16093 3.5 183 17:55 06.04.2020
89 Clouds 22 1012 78 16093 3.5 183 17:36 06.04.2020
90 Clouds 21 1012 83 16093 3.5 183 17:18 06.04.2020
91 Clouds 21 1012 83 16093 3.5 183 16:44 06.04.2020
92 Clouds 21 1012 83 16093 3.5 183 16:26 06.04.2020
93 Clouds 22 1013 78 16093 1.5 180 14:44 06.04.2020
94 Clouds 22 1013 78 16093 1.5 180 14:44 06.04.2020
95 Clouds 22 1013 78 16093 1.5 180 14:44 06.04.2020
96 Clouds 22 1013 78 16093 1.5 180 14:44 06.04.2020
97 Clouds 22 1014 78 16093 1.5 180 13:43 06.04.2020
98 Clouds 22 1014 78 16093 1.5 180 13:43 06.04.2020
99 Clouds 22 1014 78 16093 1.5 180 13:20 06.04.2020
100 Clouds 22 1014 78 16093 1.5 180 13:20 06.04.2020
101 Clouds 22 1014 78 16093 1.5 180 13:20 06.04.2020
102 Clouds 22 1014 78 16093 1.5 180 13:20 06.04.2020
103 Clouds 23 1014 83 16093 1.5 180 12:25 06.04.2020
104 Clouds 23 1014 83 16093 1.5 180 12:25 06.04.2020
105 Clouds 23 1014 83 16093 1.5 180 12:25 06.04.2020
106 Clouds 23 1014 83 16093 1.5 180 12:25 06.04.2020
107 Clouds 23 1015 78 16093 2.1 180 11:55 06.04.2020
108 Clouds 23 1015 78 16093 2.1 180 11:33 06.04.2020
109 Clouds 23 1015 78 16093 2.1 180 11:33 06.04.2020
110 Clouds 23 1015 78 16093 2.1 180 11:33 06.04.2020
111 Clouds 23 1015 78 16093 2.1 180 11:33 06.04.2020
112 Clouds 22 1014 83 16093 2.99 172 10:52 06.04.2020
113 Clouds 22 1014 83 16093 2.99 172 10:52 06.04.2020
114 Clouds 22 1014 83 16093 2.99 172 10:52 06.04.2020
115 Clouds 23 1014 83 16093 2.99 172 10:22 06.04.2020
116 Clouds 23 1014 83 16093 2.6 170 09:47 06.04.2020
117 Clouds 23 1014 83 16093 2.6 170 09:22 06.04.2020
118 Clouds 24 1014 78 16093 2.1 170 08:55 06.04.2020
119 Clouds 24 1014 78 16093 2.1 170 08:31 06.04.2020
120 Clouds 24 1013 69 16093 3.1 180 07:51 06.04.2020
121 Clouds 24 1013 69 16093 3.1 180 07:51 06.04.2020
122 Clouds 24 1013 69 16093 3.1 180 07:51 06.04.2020
123 Clouds 24 1013 69 16093 3.1 180 07:51 06.04.2020
124 Clouds 25 1012 74 16093 3.6 160 06:52 06.04.2020
125 Clouds 25 1012 74 16093 3.6 160 06:52 06.04.2020
126 Clouds 25 1012 74 16093 3.6 160 06:25 06.04.2020
127 Clouds 26 1012 65 16093 3.6 160 04:20 06.04.2020
128 Clouds 26 1012 65 16093 5.1 160 03:18 06.04.2020
129 Clouds 27 1013 65 16093 4.6 180 02:36 06.04.2020
130 Clouds 27 1014 61 16093 4.6 150 01:28 06.04.2020
131 Clouds 26 1015 61 16093 3.6 210 00:46 06.04.2020
132 Clouds 26 1015 61 16093 3.6 210 00:46 06.04.2020
133 Clouds 26 1015 61 16093 3.6 210 00:23 06.04.2020
134 Clouds 26 1015 61 16093 3.6 220 23:44 05.04.2020
135 Clouds 26 1015 61 16093 3.6 220 23:26 05.04.2020
136 Clouds 26 1015 61 16093 1.5 0 22:55 05.04.2020
137 Clouds 27 1015 61 16093 1.5 0 22:37 05.04.2020
138 Clouds 26 1015 61 16093 1.5 0 22:18 05.04.2020
139 Clouds 25 1015 69 16093 2.4 172 21:46 05.04.2020
140 Clouds 25 1015 69 16093 2.4 172 21:24 05.04.2020
141 Clouds 25 1015 69 16093 2.4 172 21:24 05.04.2020
142 Clouds 25 1015 69 16093 2.4 172 21:24 05.04.2020
143 Clouds 23 1015 78 16093 1.5 330 20:27 05.04.2020
144 -273 0 0 0 0 0 20:00 05.04.2020
145 Clouds 21 1015 78 16093 1.97 175 19:37 05.04.2020
146 Clouds 21 1015 78 16093 1.97 175 19:19 05.04.2020
147 Clouds 21 1014 77 16093 2.1 20 18:44 05.04.2020
148 Clouds 21 1014 77 16093 2.1 20 18:44 05.04.2020
149 Clouds 21 1014 77 16093 2.1 20 18:44 05.04.2020
150 Clouds 21 1014 77 16093 2.1 20 18:44 05.04.2020
151 Clouds 21 1014 77 16093 2.1 20 18:44 05.04.2020
152 Clouds 21 1014 78 16093 1.65 172 17:52 05.04.2020
153 Clouds 21 1014 78 16093 1.65 172 17:52 05.04.2020
154 Clouds 21 1014 78 16093 1.65 172 17:52 05.04.2020
155 Clouds 21 1014 78 16093 1.65 172 17:52 05.04.2020
156 Clouds 21 1014 78 16093 1.65 172 17:52 05.04.2020
157 Clouds 21 1014 78 16093 1.65 172 17:24 05.04.2020
158 Clouds 21 1014 78 16093 1.65 172 16:47 05.04.2020
159 Clouds 21 1014 78 16093 1.65 172 16:20 05.04.2020
160 Clouds 21 1014 78 16093 1.5 350 15:49 05.04.2020
161 Clouds 21 1014 78 16093 1.5 350 15:30 05.04.2020
162 Clouds 22 1014 73 16093 1.5 340 14:48 05.04.2020
163 Clouds 22 1014 73 16093 1.5 340 14:24 05.04.2020
164 Clouds 22 1015 73 16093 2.04 90 13:41 05.04.2020
165 Clouds 22 1016 73 16093 2.1 360 12:48 05.04.2020
166 Clouds 22 1016 73 16093 1.5 10 11:41 05.04.2020
167 Clouds 22 1016 73 16093 1.5 10 11:20 05.04.2020
168 Clouds 22 1016 73 16093 1.5 10 11:20 05.04.2020
169 Clouds 24 1016 69 16093 2.76 95 10:48 05.04.2020
170 Clouds 24 1016 69 16093 2.76 95 10:24 05.04.2020
171 Clouds 24 1016 69 16093 2.76 95 10:24 05.04.2020
172 Clouds 24 1015 61 16093 2.76 95 09:56 05.04.2020
173 Clouds 24 1015 61 16093 2.76 95 09:56 05.04.2020
174 Clouds 24 1015 61 16093 2.21 97 09:31 05.04.2020
175 Clouds 24 1015 61 16093 2.21 97 09:31 05.04.2020
176 Clouds 24 1015 61 16093 2.1 140 08:56 05.04.2020
177 Clouds 24 1015 61 16093 2.1 140 08:56 05.04.2020
178 Clouds 24 1015 61 16093 2.1 140 08:56 05.04.2020
179 Clouds 24 1015 61 16093 2.1 140 08:56 05.04.2020
180 Clouds 24 1015 61 16093 2.1 140 08:56 05.04.2020
181 Clouds 24 1014 61 16093 1.5 170 07:24 05.04.2020
182 Clouds 24 1014 61 16093 1.5 170 07:24 05.04.2020
183 Clouds 24 1014 61 16093 1.5 170 07:24 05.04.2020
184 Clouds 26 1013 61 16093 3.1 180 04:33 05.04.2020
185 Clouds 27 1014 61 16093 3.6 160 03:29 05.04.2020
186 Clouds 27 1014 61 16093 3.6 160 03:29 05.04.2020
187 Clouds 27 1015 61 16093 4.6 140 02:49 05.04.2020
188 Clouds 28 1015 58 16093 4.1 160 01:46 05.04.2020
189 Clouds 28 1015 58 16093 4.1 160 01:23 05.04.2020
190 Clouds 27 1016 57 16093 4.1 150 00:42 05.04.2020
191 Clouds 27 1016 57 16093 4.1 150 00:21 05.04.2020
192 Clouds 27 1016 57 16093 4.1 150 23:42 04.04.2020
193 Clouds 27 1016 57 16093 4.1 150 23:42 04.04.2020
194 Clouds 27 1016 57 16093 4.1 150 23:22 04.04.2020
195 Clouds 26 1017 61 16093 2.6 140 22:57 04.04.2020
196 Clouds 26 1017 61 16093 2.6 140 22:39 04.04.2020
197 Clouds 26 1017 61 16093 2.6 140 22:20 04.04.2020
198 Clouds 26 1016 65 16093 1.5 100 21:58 04.04.2020
199 Clouds 26 1016 65 16093 1.5 100 21:39 04.04.2020
200 Clouds 26 1016 65 16093 1.5 100 21:19 04.04.2020
201 Clouds 25 1016 73 16093 2.6 90 20:55 04.04.2020
202 Clouds 24 1016 73 16093 2.6 90 20:37 04.04.2020
203 Clouds 24 1016 73 16093 2.6 90 20:19 04.04.2020
204 Clouds 22 1015 83 16093 1.94 133 19:42 04.04.2020
205 Clouds 22 1015 83 16093 1.94 133 19:21 04.04.2020
206 Clouds 21 1015 83 16093 1.5 340 18:59 04.04.2020
207 Clouds 21 1015 83 16093 1.5 340 18:40 04.04.2020
208 Clouds 21 1015 83 16093 1.5 340 18:21 04.04.2020
209 Clouds 21 1014 83 16093 1.5 360 17:59 04.04.2020
210 Clouds 21 1014 83 16093 1.5 360 17:39 04.04.2020
211 Clouds 21 1014 83 16093 1.5 360 17:39 04.04.2020
212 Clouds 21 1014 83 16093 1.5 360 17:19 04.04.2020
213 Clouds 21 1014 83 16093 1.5 40 16:45 04.04.2020
214 Clouds 21 1014 83 16093 1.5 40 16:27 04.04.2020
215 Clouds 21 1015 83 16093 1.5 350 15:59 04.04.2020
216 Clouds 21 1015 83 16093 1.5 350 15:39 04.04.2020
217 Clouds 21 1015 83 16093 1.5 350 15:20 04.04.2020
218 Clouds 22 1015 83 16093 1.5 360 14:56 04.04.2020
219 Clouds 22 1015 83 16093 1.5 360 14:37 04.04.2020
220 Clouds 22 1015 83 16093 1.5 360 14:18 04.04.2020
221 Clouds 22 1016 83 16093 1.5 40 13:42 04.04.2020
222 Clouds 22 1016 83 16093 1.5 40 13:22 04.04.2020
223 Clouds 22 1016 78 16093 2.42 126 12:58 04.04.2020
224 Clouds 22 1016 78 16093 2.42 126 12:40 04.04.2020
225 Clouds 22 1016 78 16093 2.18 135 12:20 04.04.2020
226 Clouds 22 1016 78 16093 2.18 135 11:42 04.04.2020
227 Clouds 22 1016 78 16093 2.18 135 11:42 04.04.2020
228 Clouds 22 1016 78 16093 2.18 135 11:23 04.04.2020
229 Clouds 22 1016 78 16093 2.1 30 10:59 04.04.2020
230 Clouds 22 1016 78 16093 2.1 30 10:40 04.04.2020
231 Clouds 22 1016 78 16093 2.1 30 10:22 04.04.2020
232 Clouds 22 1015 73 16093 1.5 130 09:56 04.04.2020
233 Clouds 23 1015 73 16093 1.5 130 09:38 04.04.2020
234 Clouds 23 1015 73 16093 1.5 130 09:20 04.04.2020
235 Clouds 23 1015 73 16093 1.5 130 08:43 04.04.2020
236 Clouds 23 1015 73 16093 1.5 130 08:23 04.04.2020
237 Clouds 23 1014 73 16093 2.1 170 07:57 04.04.2020
238 Clouds 24 1014 73 16093 2.1 170 07:38 04.04.2020
239 Clouds 24 1014 73 16093 2.1 170 07:20 04.04.2020
240 Clouds 25 1014 73 16093 1.5 150 06:29 04.04.2020
241 Clouds 25 1013 65 16093 2.6 150 05:52 04.04.2020
242 Clouds 25 1013 65 16093 2.6 150 05:32 04.04.2020
243 Clouds 26 1013 69 16093 3.6 160 04:34 04.04.2020
244 Clouds 26 1013 57 16093 4.6 170 03:56 04.04.2020
245 Clouds 26 1013 57 16093 4.6 170 03:29 04.04.2020
246 Clouds 26 1014 65 16093 4.6 170 02:45 04.04.2020
247 Clouds 26 1014 65 16093 4.6 170 02:25 04.04.2020
248 Clouds 27 1015 57 16093 4.6 150 01:27 04.04.2020
249 Clouds 26 1015 65 16093 3.6 170 00:57 04.04.2020
250 Clouds 26 1015 65 16093 3.6 170 00:31 04.04.2020
251 Clouds 26 1015 61 16093 3.1 150 23:56 03.04.2020
252 Clouds 26 1015 61 16093 3.1 150 23:37 03.04.2020
253 Clouds 26 1015 61 16093 3.1 150 23:18 03.04.2020
254 Clouds 25 1015 69 16093 4.1 130 22:40 03.04.2020
255 Clouds 24 1015 69 16093 4.1 130 22:19 03.04.2020
256 Clouds 25 1015 73 16093 3.1 130 21:56 03.04.2020
257 Clouds 24 1015 73 16093 3.1 130 21:56 03.04.2020
258 Clouds 24 1015 73 16093 3.1 130 21:38 03.04.2020
259 Clouds 24 1015 73 16093 3.1 130 21:19 03.04.2020
260 Clouds 22 1015 78 16093 1.48 129 20:55 03.04.2020
261 Clouds 22 1015 78 16093 1.48 129 20:36 03.04.2020
262 Clouds 21 1015 78 16093 1.48 129 20:18 03.04.2020
263 Clouds 21 1014 77 16093 1.5 360 19:54 03.04.2020
264 Clouds 21 1014 77 16093 1.5 360 19:36 03.04.2020
265 Clouds 20 1014 77 16093 1.5 360 19:18 03.04.2020
266 Clouds 20 1014 77 16093 1.5 360 19:18 03.04.2020
267 Clouds 20 1014 77 16093 2.1 330 18:56 03.04.2020
268 Clouds 20 1014 77 16093 2.1 330 18:38 03.04.2020
269 Clouds 20 1014 77 16093 2.1 330 18:19 03.04.2020
270 Clouds 20 1013 77 16093 1.5 350 17:40 03.04.2020
271 Clouds 20 1013 77 16093 1.5 350 17:19 03.04.2020
272 Clouds 20 1013 77 16093 1.5 350 17:19 03.04.2020
273 Clouds 20 1013 77 16093 2.1 340 16:54 03.04.2020
274 Clouds 20 1013 77 16093 2.1 340 16:54 03.04.2020
275 Clouds 20 1013 77 16093 2.1 340 16:36 03.04.2020
276 Clouds 20 1013 77 16093 2.1 340 16:18 03.04.2020
277 Clouds 21 1013 78 16093 2.6 330 15:41 03.04.2020
278 Clouds 21 1013 78 16093 2.6 330 15:22 03.04.2020
279 Clouds 21 1013 78 16093 2.6 330 14:57 03.04.2020
280 Rain 21 1010 79 0 2.34 113 14:39 03.04.2020
281 Clouds 21 1014 78 16093 2.3 119 14:21 03.04.2020
282 Clouds 21 1014 78 16093 2.3 119 13:46 03.04.2020
283 Clouds 21 1014 78 16093 2.3 119 13:26 03.04.2020
284 Clouds 22 1015 73 16093 1.5 10 12:56 03.04.2020
285 Clouds 22 1015 73 16093 1.5 10 12:38 03.04.2020
286 Clouds 22 1015 73 16093 1.5 10 12:18 03.04.2020
287 Clouds 22 1015 73 16093 2.1 30 11:55 03.04.2020
288 Clouds 22 1015 73 16093 2.1 30 11:37 03.04.2020
289 Clouds 22 1015 73 16093 2.1 30 11:18 03.04.2020
290 Clouds 22 1015 73 16093 2.1 30 11:18 03.04.2020
291 Clouds 22 1015 73 16093 3.1 90 10:55 03.04.2020
292 Clouds 22 1015 73 16093 3.1 90 10:36 03.04.2020
293 Clouds 22 1015 73 16093 3.1 90 10:18 03.04.2020
294 Clouds 23 1014 69 16093 3.1 70 09:40 03.04.2020
295 Clouds 23 1014 69 16093 3.1 70 09:22 03.04.2020
296 Clouds 23 1014 69 16093 3.1 80 08:59 03.04.2020
297 Clouds 23 1014 69 16093 3.1 80 08:40 03.04.2020
298 Clouds 23 1014 69 16093 3.1 80 08:40 03.04.2020
299 Clouds 23 1014 69 16093 3.1 80 08:22 03.04.2020
300 Clouds 23 1013 65 16093 3.6 70 07:50 03.04.2020
301 Clouds 23 1013 65 16093 3.6 70 07:32 03.04.2020
302 Clouds 24 1013 69 16093 4.6 130 06:50 03.04.2020
303 Clouds 24 1013 69 16093 4.6 130 06:25 03.04.2020
304 Clouds 25 1012 61 16093 5.7 150 05:40 03.04.2020
305 Clouds 26 1012 57 16093 5.1 140 03:45 03.04.2020
306 Clouds 26 1012 57 16093 5.1 140 03:23 03.04.2020
307 Clouds 27 1012 54 16093 5.1 140 02:28 03.04.2020
308 Clouds 26 1013 57 16093 5.7 150 01:23 03.04.2020
309 Clouds 26 1014 54 16093 5.7 160 00:40 03.04.2020
310 Clouds 26 1014 54 16093 5.7 160 00:20 03.04.2020
311 Clouds 26 1014 57 16093 6.2 150 23:42 02.04.2020
312 Clouds 26 1014 57 16093 6.2 150 23:23 02.04.2020
313 Clouds 26 1014 65 16093 4.6 150 22:58 02.04.2020
314 Clouds 25 1014 65 16093 4.6 150 22:39 02.04.2020
315 Clouds 25 1014 65 16093 4.6 150 22:20 02.04.2020
316 Clouds 25 1014 69 16093 2.6 90 21:54 02.04.2020
317 Clouds 25 1014 69 16093 2.6 90 21:36 02.04.2020
318 Clouds 24 1014 69 16093 2.6 90 21:18 02.04.2020
319 Clouds 23 1014 78 16093 2.1 350 20:42 02.04.2020
320 Clouds 23 1014 78 16093 2.1 350 20:21 02.04.2020
321 Clouds 20 1014 88 16093 2.1 360 19:44 02.04.2020
322 Clouds 20 1014 88 16093 2.1 360 19:21 02.04.2020
323 Clouds 20 1014 88 16093 2.1 360 19:21 02.04.2020
324 Clouds 20 1013 88 16093 1.5 340 18:59 02.04.2020
325 Clouds 20 1013 88 16093 1.5 340 18:41 02.04.2020
326 Clouds 20 1013 88 16093 1.5 340 18:20 02.04.2020
327 Clouds 20 1013 88 16093 3.76 90 17:56 02.04.2020
328 Clouds 20 1013 88 16093 3.76 90 17:38 02.04.2020
329 Clouds 20 1013 88 16093 3.76 90 17:20 02.04.2020
330 Clouds 20 1013 82 16093 2.1 320 16:55 02.04.2020
331 Clouds 21 1013 82 16093 2.1 320 16:37 02.04.2020
332 Clouds 21 1013 82 16093 2.1 320 16:19 02.04.2020
333 Clouds 21 1013 88 16093 1.5 320 15:44 02.04.2020
334 Clouds 21 1013 88 16093 1.5 320 15:21 02.04.2020
335 Clouds 21 1014 83 16093 2.1 10 14:59 02.04.2020
336 Clouds 21 1014 83 16093 2.1 10 14:40 02.04.2020
337 Clouds 21 1014 83 16093 2.1 10 14:20 02.04.2020
338 Clouds 20 1014 83 16093 3.2 86 13:57 02.04.2020
339 Clouds 20 1014 83 16093 3.2 86 13:38 02.04.2020
340 Clouds 20 1014 83 16093 3.2 86 13:20 02.04.2020
341 Clouds 20 1015 77 16093 1.5 100 12:55 02.04.2020
342 Clouds 20 1015 77 16093 1.5 100 12:55 02.04.2020
343 Clouds 20 1015 77 16093 1.5 100 12:36 02.04.2020
344 Clouds 20 1015 77 16093 1.5 100 12:18 02.04.2020
345 Clouds 22 1015 78 16093 3.1 80 11:55 02.04.2020
346 Clouds 22 1015 78 16093 3.1 80 11:55 02.04.2020
347 Clouds 22 1015 78 16093 3.1 80 11:36 02.04.2020
348 Clouds 22 1015 78 16093 3.1 80 11:18 02.04.2020
349 Clouds 22 1015 78 16093 2.1 80 10:54 02.04.2020
350 Clouds 22 1015 78 16093 2.1 80 10:36 02.04.2020
351 Clouds 22 1015 78 16093 2.1 80 10:36 02.04.2020
352 Clouds 22 1015 78 16093 2.1 80 10:18 02.04.2020
353 Clouds 22 1015 73 16093 3.1 80 09:42 02.04.2020
354 Clouds 22 1015 73 16093 3.1 80 09:24 02.04.2020
355 Clouds 22 1014 73 16093 4.1 80 08:58 02.04.2020
356 Clouds 22 1014 73 16093 4.1 80 08:39 02.04.2020
357 Clouds 23 1014 73 16093 4.1 80 08:19 02.04.2020
358 Rain 23 1014 73 16093 3.1 80 07:42 02.04.2020
359 Rain 23 1014 73 16093 3.1 80 07:19 02.04.2020
360 Clouds 24 1014 73 16093 5.7 70 06:46 02.04.2020
361 Clouds 24 1014 73 16093 5.7 70 06:20 02.04.2020
362 Rain 24 1013 61 16093 4.1 150 05:41 02.04.2020
363 Rain 25 1014 57 16093 5.7 190 02:59 02.04.2020
364 Clouds 26 1014 61 16093 5.7 190 01:30 02.04.2020
365 Clouds 26 1015 61 16093 6.2 220 00:42 02.04.2020
366 Clouds 26 1015 61 16093 6.2 220 00:24 02.04.2020
367 Clouds 26 1015 51 16093 1.5 0 23:41 01.04.2020
368 Clouds 26 1015 51 16093 1.5 0 23:20 01.04.2020
369 Clouds 25 1016 57 16093 1.5 0 22:58 01.04.2020
370 Clouds 25 1016 57 16093 1.5 0 22:39 01.04.2020
371 Clouds 25 1016 57 16093 1.5 0 22:20 01.04.2020
372 Clouds 24 1016 69 16093 2.1 0 21:42 01.04.2020
373 Clouds 24 1016 69 16093 2.1 0 21:19 01.04.2020
374 Clouds 23 1016 73 16093 4.1 330 20:57 01.04.2020
375 Clouds 23 1016 73 16093 4.1 330 20:38 01.04.2020
376 Clouds 22 1016 73 16093 4.1 330 20:20 01.04.2020
377 Clouds 21 1015 82 16093 2.6 330 19:58 01.04.2020
378 Clouds 20 1015 82 16093 2.6 330 19:39 01.04.2020
379 Clouds 20 1015 82 16093 2.6 330 19:19 01.04.2020
380 Clouds 20 1015 82 16093 3.1 330 18:42 01.04.2020
381 Clouds 20 1015 82 16093 3.1 330 18:24 01.04.2020
382 Clouds 19 1015 82 16093 3.1 320 17:57 01.04.2020
383 Clouds 19 1015 82 16093 3.1 320 17:38 01.04.2020
384 Clouds 20 1015 82 16093 3.1 320 17:19 01.04.2020
385 Clouds 20 1015 82 16093 3.1 320 17:19 01.04.2020
386 Clouds 20 1015 77 16093 4.1 330 16:58 01.04.2020
387 Clouds 20 1015 77 16093 4.1 330 16:39 01.04.2020
388 Clouds 20 1015 77 16093 4.1 330 16:39 01.04.2020
389 Clouds 20 1015 77 16093 4.1 330 16:20 01.04.2020
390 Clouds 21 1015 77 16093 2.6 320 15:56 01.04.2020
391 Clouds 21 1015 77 16093 2.6 320 15:37 01.04.2020
392 Clouds 21 1015 77 16093 2.6 320 15:18 01.04.2020
393 Clouds 20 1016 77 16093 2.6 330 14:40 01.04.2020
394 Clouds 20 1016 77 16093 2.6 330 14:22 01.04.2020
395 Clouds 21 1016 77 16093 2.6 300 13:59 01.04.2020
396 Clouds 21 1016 77 16093 2.6 300 13:40 01.04.2020
397 Clouds 21 1016 77 16093 2.6 300 13:20 01.04.2020
398 Clouds 20 1017 77 16093 2.1 330 12:59 01.04.2020
399 Clouds 20 1017 77 16093 2.1 330 12:40 01.04.2020
400 Clouds 21 1017 77 16093 2.1 330 12:22 01.04.2020
401 Clouds 21 1017 73 16093 3.76 60 11:57 01.04.2020
402 Clouds 21 1017 73 16093 3.76 60 11:37 01.04.2020
403 Clouds 21 1017 73 16093 3.76 60 11:37 01.04.2020
404 Clouds 22 1017 73 16093 3.76 60 11:19 01.04.2020
405 Clouds 22 1017 69 16093 1.5 10 10:39 01.04.2020
406 Clouds 22 1017 69 16093 1.5 10 10:21 01.04.2020
407 Clouds 22 1017 69 16093 2.1 20 09:59 01.04.2020
408 Clouds 22 1017 69 16093 2.1 20 09:59 01.04.2020
409 Clouds 22 1017 69 16093 2.1 20 09:40 01.04.2020
410 Clouds 22 1017 69 16093 2.1 20 09:20 01.04.2020
411 Clouds 22 1016 69 16093 4.27 66 08:44 01.04.2020
412 Clouds 22 1016 69 16093 4.27 66 08:44 01.04.2020
413 Clouds 22 1016 69 16093 4.27 66 08:20 01.04.2020
414 Clouds 23 1016 64 16093 3.6 40 07:58 01.04.2020
415 Clouds 23 1016 64 16093 3.6 40 07:40 01.04.2020
416 Clouds 23 1016 64 16093 3.6 40 07:19 01.04.2020
417 Clouds 24 1016 57 16093 4.6 50 06:41 01.04.2020
418 Clouds 24 1016 57 16093 4.6 50 06:20 01.04.2020
419 Clouds 24 1015 57 16093 5.7 30 05:24 01.04.2020
420 Clouds 24 1015 57 16093 5.1 50 03:39 01.04.2020
421 Clouds 24 1016 54 16093 4.6 40 02:59 01.04.2020
422 Clouds 25 1016 54 16093 4.6 40 02:31 01.04.2020
423 Clouds 26 1016 51 16093 5.7 50 01:46 01.04.2020
424 Clouds 25 1016 51 16093 5.7 50 01:24 01.04.2020
425 Clouds 25 1016 57 16093 6.7 50 00:47 01.04.2020
426 Clouds 25 1016 57 16093 6.7 50 00:21 01.04.2020
427 Clouds 25 1017 57 16093 5.7 40 23:49 31.03.2020
428 Clouds 25 1017 57 16093 5.7 40 23:49 31.03.2020
429 Clouds 25 1017 57 16093 5.7 40 23:29 31.03.2020
430 Clouds 24 1017 57 16093 5.7 40 22:59 31.03.2020
431 Clouds 24 1017 69 16093 3.6 70 22:38 31.03.2020
432 Clouds 23 1017 69 16093 3.6 70 22:20 31.03.2020
433 Clouds 23 1017 69 16093 3.6 70 21:57 31.03.2020
434 Clouds 23 1018 69 16093 2.1 70 21:39 31.03.2020
435 Clouds 23 1018 69 16093 2.1 70 21:20 31.03.2020
436 Clouds 23 1017 69 16093 4.6 70 20:56 31.03.2020
437 Clouds 22 1017 69 16093 4.6 70 20:37 31.03.2020
438 Rain 22 1017 69 16093 4.6 70 20:18 31.03.2020
439 Rain 21 1017 73 16093 4.95 80 19:42 31.03.2020
440 Clouds 22 1017 73 16093 4.95 80 19:24 31.03.2020
441 Rain 22 1016 73 16093 4.6 80 18:59 31.03.2020
442 Rain 22 1016 73 16093 4.6 80 18:41 31.03.2020
443 Rain 22 1016 73 16093 4.6 80 18:19 31.03.2020
444 Clouds 22 1015 73 16093 6.7 80 17:55 31.03.2020
445 Clouds 22 1015 73 16093 6.7 80 17:37 31.03.2020
446 Clouds 22 1015 73 16093 6.7 80 17:37 31.03.2020
447 Clouds 22 1015 73 16093 6.7 80 17:37 31.03.2020
448 Clouds 21 1015 73 16093 6.7 80 17:19 31.03.2020
449 Clouds 22 1015 73 16093 2.1 20 16:41 31.03.2020
450 Clouds 21 1015 73 16093 2.1 20 16:20 31.03.2020
451 Clouds 22 1016 73 16093 4.1 70 15:58 31.03.2020
452 Clouds 22 1016 73 16093 4.1 70 15:40 31.03.2020
453 Clouds 22 1016 73 16093 4.1 70 15:22 31.03.2020
454 Rain 22 1017 73 16093 5.7 80 14:58 31.03.2020
455 Rain 22 1017 73 16093 5.7 80 14:58 31.03.2020
456 Rain 22 1017 73 16093 5.7 80 14:39 31.03.2020
457 Rain 22 1017 73 16093 5.7 80 14:21 31.03.2020
458 Rain 22 1018 69 16093 3.6 60 13:43 31.03.2020
459 Rain 22 1018 69 16093 3.6 60 13:20 31.03.2020
460 Rain 22 1018 69 16093 3.6 60 12:59 31.03.2020
461 Rain 22 1018 69 16093 3.6 60 12:40 31.03.2020
462 Rain 22 1018 69 16093 3.6 60 12:19 31.03.2020
463 Clouds 22 1018 69 16093 4.6 70 11:41 31.03.2020
464 Clouds 22 1018 69 16093 4.6 70 11:20 31.03.2020
465 Clouds 22 1018 69 16093 4.6 70 11:20 31.03.2020
466 Clouds 22 1018 69 16093 4.6 60 10:59 31.03.2020
467 Clouds 22 1018 69 16093 4.6 60 10:40 31.03.2020
468 Clouds 22 1018 69 16093 4.6 60 10:22 31.03.2020
469 Clouds 22 1018 73 16093 4.1 70 09:59 31.03.2020
470 Clouds 22 1018 73 16093 4.1 70 09:40 31.03.2020
471 Clouds 23 1018 73 16093 4.1 70 09:22 31.03.2020
472 Rain 23 1017 73 16093 6.2 70 08:57 31.03.2020
473 Rain 23 1017 73 16093 6.2 70 08:38 31.03.2020
474 Rain 23 1017 73 16093 6.2 70 08:19 31.03.2020
475 Rain 23 1017 69 16093 5.1 70 07:55 31.03.2020
476 Rain 23 1017 69 16093 5.1 70 07:55 31.03.2020
477 Rain 23 1017 69 16093 5.1 70 07:37 31.03.2020
478 Rain 23 1017 69 16093 5.1 70 07:18 31.03.2020
479 Clouds 23 1016 69 16093 6.7 80 06:42 31.03.2020
480 Clouds 23 1016 61 16093 6.7 60 05:57 31.03.2020
481 Rain 23 1016 61 16093 6.7 60 05:38 31.03.2020
482 Clouds 25 1016 54 16093 7.7 70 03:28 31.03.2020
483 Clouds 25 1017 54 16093 6.7 70 01:52 31.03.2020
484 Clouds 25 1017 54 16093 6.7 70 01:33 31.03.2020
485 Clouds 25 1017 54 16093 6.7 70 01:33 31.03.2020
486 Clouds 26 1018 54 16093 6.7 70 00:46 31.03.2020
487 Clouds 26 1018 54 16093 6.7 70 00:24 31.03.2020
488 Clouds 25 1018 57 16093 6.2 60 23:41 30.03.2020
489 Clouds 25 1018 57 16093 6.2 60 23:20 30.03.2020
490 Clouds 25 1018 57 16093 6.2 60 23:20 30.03.2020
491 Clouds 25 1018 57 16093 6.7 80 22:58 30.03.2020
492 Clouds 25 1018 57 16093 6.7 80 22:58 30.03.2020
493 Clouds 25 1018 57 16093 6.7 80 22:58 30.03.2020
494 Clouds 25 1018 57 16093 6.7 80 22:39 30.03.2020
495 Clouds 25 1018 57 16093 6.7 80 22:19 30.03.2020
496 Clouds 24 1018 69 16093 6.2 80 21:57 30.03.2020
497 Clouds 24 1018 69 16093 6.2 80 21:38 30.03.2020
498 Clouds 24 1018 69 16093 6.2 80 21:20 30.03.2020
499 Clouds 24 1018 69 16093 6.2 80 21:20 30.03.2020
500 Rain 23 1017 69 16093 4.6 60 20:58 30.03.2020
501 Rain 23 1017 69 16093 4.6 60 20:39 30.03.2020
502 Rain 23 1017 69 16093 4.6 60 20:20 30.03.2020
503 Rain 22 1017 73 16093 5.1 70 19:56 30.03.2020
504 Clouds 22 1017 73 16093 5.1 70 19:37 30.03.2020
505 Clouds 22 1017 73 16093 5.1 70 19:19 30.03.2020
506 Rain 22 1017 69 16093 4.6 70 18:42 30.03.2020
507 Rain 22 1017 69 16093 4.6 70 18:42 30.03.2020
508 Rain 21 1017 69 16093 4.6 70 18:24 30.03.2020
509 Rain 22 1016 73 16093 4.6 70 17:58 30.03.2020
510 Clouds 22 1016 73 16093 4.6 70 17:39 30.03.2020
511 Clouds 22 1016 73 16093 4.6 70 17:19 30.03.2020
512 Clouds 22 1016 69 16093 4.1 70 16:57 30.03.2020
513 Clouds 22 1016 69 16093 4.1 70 16:39 30.03.2020
514 Clouds 22 1016 69 16093 4.1 70 16:20 30.03.2020
515 Clouds 22 1016 69 16093 4.1 70 16:20 30.03.2020
516 Rain 22 1017 69 16093 5.1 70 15:55 30.03.2020
517 Rain 22 1017 69 16093 5.1 70 15:37 30.03.2020
518 Rain 22 1017 69 16093 5.1 70 15:19 30.03.2020
519 Clouds 22 1017 69 16093 3.6 70 14:55 30.03.2020
520 Clouds 22 1017 69 16093 3.6 70 14:36 30.03.2020
521 Clouds 22 1017 69 16093 3.6 70 14:18 30.03.2020
522 Clouds 22 1018 69 16093 4.6 60 13:44 30.03.2020
523 Clouds 22 1018 69 16093 4.6 60 13:21 30.03.2020
524 Clouds 22 1018 69 16093 6.2 60 12:59 30.03.2020
525 Clouds 22 1018 69 16093 6.2 60 12:41 30.03.2020
526 Clouds 22 1018 69 16093 6.2 60 12:19 30.03.2020
527 Clouds 22 1018 69 16093 5.1 70 11:57 30.03.2020
528 Rain 22 1018 69 16093 5.1 70 11:38 30.03.2020
529 Rain 22 1018 69 16093 5.1 70 11:20 30.03.2020
530 Clouds 23 1018 69 16093 4.6 60 10:40 30.03.2020
531 Clouds 23 1018 69 16093 4.6 60 10:22 30.03.2020
532 Clouds 23 1018 69 16093 4.6 70 09:56 30.03.2020
533 Clouds 23 1018 69 16093 4.6 70 09:38 30.03.2020
534 Clouds 23 1018 69 16093 4.6 70 09:19 30.03.2020
535 Clouds 23 1018 69 16093 4.6 70 09:19 30.03.2020
536 Clouds 23 1017 64 16093 6.2 80 08:42 30.03.2020
537 Clouds 23 1017 64 16093 6.2 80 08:22 30.03.2020
538 Clouds 23 1016 64 16093 5.7 70 07:49 30.03.2020
539 Clouds 23 1016 64 16093 5.7 70 07:31 30.03.2020
540 Clouds 23 1016 61 16093 7.7 70 06:57 30.03.2020
541 Clouds 24 1016 61 16093 7.7 70 06:32 30.03.2020
542 Clouds 24 1015 57 16093 6.7 70 05:53 30.03.2020
543 Clouds 25 1015 57 16093 6.7 70 05:22 30.03.2020
544 Clouds 25 1015 51 16093 8.2 70 04:23 30.03.2020
545 Clouds 25 1015 51 16093 8.7 80 03:38 30.03.2020
546 Clouds 26 1016 54 16093 6.2 60 02:38 30.03.2020
547 Clouds 26 1017 54 16093 7.7 80 01:35 30.03.2020
548 Clouds 26 1018 54 16093 6.2 80 00:47 30.03.2020
549 Clouds 26 1018 54 16093 6.2 80 00:21 30.03.2020
550 Rain 25 1018 61 16093 7.2 60 23:41 29.03.2020
551 Rain 25 1018 61 16093 7.2 60 23:23 29.03.2020
552 Rain 25 1018 61 16093 4.6 60 22:57 29.03.2020
553 Rain 25 1018 61 16093 4.6 60 22:37 29.03.2020
554 Rain 25 1018 61 16093 4.6 60 22:19 29.03.2020
555 Rain 23 1018 69 16093 4.6 90 21:40 29.03.2020
556 Rain 23 1018 69 16093 4.6 90 21:21 29.03.2020
557 Rain 23 1018 88 16093 2.1 0 20:56 29.03.2020
558 Rain 23 1018 88 16093 2.1 0 20:56 29.03.2020
559 Rain 22 1018 88 16093 2.1 0 20:38 29.03.2020
560 Rain 22 1018 88 16093 2.1 0 20:19 29.03.2020
561 Rain 22 1017 94 16093 2.6 40 19:59 29.03.2020
562 Clouds 21 1017 94 16093 2.6 40 19:41 29.03.2020
563 Clouds 21 1017 94 16093 2.6 40 19:23 29.03.2020
564 Rain 21 1017 94 16093 2.1 360 18:57 29.03.2020
565 Rain 21 1017 94 16093 2.1 360 18:39 29.03.2020
566 Rain 21 1017 94 16093 2.1 360 18:20 29.03.2020
567 Rain 21 1016 78 14484 4.1 80 17:56 29.03.2020
568 Rain 21 1016 78 14484 4.1 80 17:38 29.03.2020
569 Rain 21 1016 78 14484 4.1 80 17:19 29.03.2020
570 Rain 21 1016 78 16093 2.6 80 16:56 29.03.2020
571 Rain 21 1016 78 16093 2.6 80 16:38 29.03.2020
572 Rain 22 1016 78 16093 2.6 80 16:19 29.03.2020
573 Rain 22 1016 73 16093 2.1 50 15:41 29.03.2020
574 Rain 22 1016 73 16093 2.1 50 15:41 29.03.2020
575 Rain 22 1016 73 16093 2.1 50 15:23 29.03.2020
576 Clouds 22 1016 73 16093 4.6 70 14:58 29.03.2020
577 Clouds 22 1016 73 16093 4.6 70 14:40 29.03.2020
578 Clouds 22 1016 73 16093 4.6 70 14:20 29.03.2020
579 Clouds 22 1017 69 16093 3.6 70 13:57 29.03.2020
580 Clouds 22 1017 69 16093 3.6 70 13:39 29.03.2020
581 Clouds 22 1017 69 16093 3.6 70 13:19 29.03.2020
582 Clouds 22 1017 69 16093 3.6 70 12:55 29.03.2020
583 Rain 22 1017 73 16093 4.1 70 12:37 29.03.2020
584 Rain 22 1017 73 16093 4.1 70 12:18 29.03.2020
585 Clouds 22 1018 73 16093 3.1 80 11:40 29.03.2020
586 Clouds 22 1018 73 16093 3.1 80 11:21 29.03.2020
587 Clouds 22 1018 73 16093 4.1 70 10:59 29.03.2020
588 Clouds 22 1018 73 16093 4.1 70 10:38 29.03.2020
589 Clouds 22 1018 73 16093 4.1 70 10:18 29.03.2020
590 Rain 22 1017 69 16093 5.1 70 09:40 29.03.2020
591 Rain 22 1017 69 16093 5.1 70 09:20 29.03.2020
592 Clouds 22 1016 73 16093 6.7 70 08:54 29.03.2020
593 Clouds 22 1016 73 16093 6.7 70 08:30 29.03.2020
594 Rain 23 1015 69 16093 6.7 70 07:59 29.03.2020
595 Rain 23 1015 69 16093 6.7 70 07:40 29.03.2020
596 Rain 23 1015 69 16093 6.7 70 07:20 29.03.2020
597 Rain 25 1014 57 16093 6.7 70 04:59 29.03.2020
598 Clouds 25 1015 57 16093 5.7 50 03:55 29.03.2020
599 Clouds 25 1015 57 16093 5.7 50 03:26 29.03.2020
600 Clouds 25 1015 51 16093 7.7 60 01:51 29.03.2020
601 Clouds 26 1015 51 16093 7.7 60 01:23 29.03.2020
602 Clouds 25 1016 54 16093 6.7 60 00:55 29.03.2020
603 Clouds 26 1016 54 16093 6.7 60 00:31 29.03.2020
604 Clouds 25 1017 54 16093 8.2 80 23:42 28.03.2020
605 Clouds 25 1017 54 16093 8.2 80 23:23 28.03.2020
606 Rain 24 1018 73 16093 3.6 80 22:57 28.03.2020
607 Rain 24 1018 73 16093 3.6 80 22:37 28.03.2020
608 Rain 24 1018 73 16093 3.6 80 22:19 28.03.2020
609 Clouds 25 1018 57 16093 3.6 40 21:42 28.03.2020
610 Clouds 25 1018 57 16093 3.6 40 21:24 28.03.2020
611 Rain 24 1018 64 16093 3.6 60 20:58 28.03.2020
612 Rain 23 1018 64 16093 3.6 60 20:39 28.03.2020
613 Rain 24 1018 64 16093 3.6 60 20:21 28.03.2020
614 Clouds 24 1017 73 16093 4.1 70 19:56 28.03.2020
615 Clouds 24 1017 73 16093 4.1 70 19:56 28.03.2020
616 Clouds 23 1017 73 16093 4.1 70 19:37 28.03.2020
617 Clouds 23 1017 73 16093 4.1 70 19:18 28.03.2020
618 Clouds 22 1016 73 16093 3.6 70 18:47 28.03.2020
619 Clouds 22 1016 73 16093 3.6 70 18:23 28.03.2020
620 Clouds 21 1016 77 16093 3.1 70 17:58 28.03.2020
621 Clouds 21 1016 77 16093 3.1 70 17:38 28.03.2020
622 Clouds 21 1016 77 16093 3.1 70 17:19 28.03.2020
623 Clouds 20 1016 82 16093 4.47 84 16:42 28.03.2020
624 Clouds 20 1016 82 16093 4.47 84 16:20 28.03.2020
625 Clouds 20 1016 88 16093 1.5 10 15:56 28.03.2020
626 Clouds 21 1016 88 16093 1.5 10 15:37 28.03.2020
627 Clouds 21 1016 88 16093 1.5 10 15:37 28.03.2020
628 Clouds 21 1016 88 16093 1.5 10 15:18 28.03.2020
629 Clouds 21 1016 88 16093 4.47 84 14:42 28.03.2020
630 Clouds 21 1016 88 16093 4.64 89 14:22 28.03.2020
631 Clouds 21 1016 83 16093 4.64 89 13:46 28.03.2020
632 Clouds 21 1016 83 16093 4.64 89 13:26 28.03.2020
633 Rain 21 1017 77 16093 1.5 40 12:57 28.03.2020
634 Rain 21 1017 77 16093 1.5 40 12:37 28.03.2020
635 Rain 21 1017 77 16093 1.5 40 12:18 28.03.2020
636 Clouds 22 1018 73 16093 3.1 70 11:42 28.03.2020
637 Clouds 22 1018 73 16093 3.1 70 11:42 28.03.2020
638 Clouds 21 1018 83 16093 3.1 90 11:21 28.03.2020
639 Clouds 21 1018 83 16093 3.1 90 10:41 28.03.2020
640 Clouds 21 1018 83 16093 3.1 90 10:22 28.03.2020
641 Clouds 21 1018 73 16093 5.98 95 09:59 28.03.2020
642 Clouds 21 1018 73 16093 5.98 95 09:39 28.03.2020
643 Clouds 22 1018 73 16093 5.98 95 09:20 28.03.2020
644 Clouds 22 1017 78 16093 1.5 350 08:42 28.03.2020
645 Clouds 22 1017 78 16093 1.5 350 08:23 28.03.2020
646 Clouds 22 1017 69 16093 2.1 360 07:49 28.03.2020
647 Clouds 22 1017 69 16093 2.1 360 07:31 28.03.2020
648 Rain 22 1016 69 16093 4.1 60 06:42 28.03.2020
649 Rain 22 1016 69 16093 4.1 60 06:19 28.03.2020
650 Rain 22 1016 69 16093 5.1 70 05:24 28.03.2020
651 Rain 23 1015 57 16093 5.1 80 04:43 28.03.2020
652 Rain 24 1015 57 16093 5.1 80 04:20 28.03.2020
653 Rain 24 1016 69 16093 3.1 50 02:33 28.03.2020
654 Rain 23 1016 69 16093 4.6 40 01:45 28.03.2020
655 Rain 23 1016 69 16093 4.6 40 01:20 28.03.2020
656 Rain 23 1017 65 16093 7.2 70 00:46 28.03.2020
657 Rain 24 1017 65 16093 7.2 70 00:20 28.03.2020
658 Rain 23 1018 69 16093 6.2 60 23:42 27.03.2020
659 Rain 23 1018 69 16093 6.2 60 23:22 27.03.2020
660 Rain 24 1018 83 16093 6.2 70 22:56 27.03.2020
661 Rain 24 1018 83 16093 6.2 70 22:38 27.03.2020
662 Rain 24 1018 83 16093 6.2 70 22:20 27.03.2020
663 Rain 22 1018 94 16093 5.1 70 21:45 27.03.2020
664 Rain 22 1018 94 16093 5.1 70 21:26 27.03.2020
665 Rain 22 1019 94 8047 4.6 70 20:59 27.03.2020
666 Rain 22 1019 94 8047 4.6 70 20:41 27.03.2020
667 Rain 21 1019 94 8047 4.6 70 20:21 27.03.2020
668 Rain 21 1018 88 12874 2.6 70 19:58 27.03.2020
669 Rain 21 1018 88 12874 2.6 70 19:40 27.03.2020
670 Rain 21 1018 73 16093 3.6 60 19:21 27.03.2020
671 Rain 21 1017 77 16093 4.1 60 18:45 27.03.2020
672 Rain 21 1017 77 16093 4.1 60 18:25 27.03.2020
673 Rain 20 1017 77 14484 2.1 40 17:59 27.03.2020
674 Rain 21 1017 77 14484 2.1 40 17:39 27.03.2020
675 Rain 20 1017 77 14484 2.1 40 17:20 27.03.2020
676 Rain 21 1017 77 16093 4.6 60 16:44 27.03.2020
677 Rain 21 1017 77 16093 4.6 60 16:25 27.03.2020
678 Clouds 21 1017 77 16093 2.1 60 15:56 27.03.2020
679 Clouds 21 1017 77 16093 2.1 60 15:38 27.03.2020
680 Clouds 21 1017 77 16093 2.1 60 15:19 27.03.2020
681 Clouds 21 1017 77 16093 4.1 60 14:43 27.03.2020
682 Clouds 21 1017 77 16093 4.1 60 14:24 27.03.2020
683 Clouds 21 1018 73 16093 4.1 80 13:55 27.03.2020
684 Clouds 21 1018 73 16093 4.1 80 13:37 27.03.2020
685 Clouds 21 1018 73 16093 4.1 80 13:18 27.03.2020
686 Clouds 21 1018 68 16093 3.6 70 12:43 27.03.2020
687 Clouds 22 1018 68 16093 3.6 70 12:19 27.03.2020
688 Clouds 22 1019 68 16093 5.1 70 11:55 27.03.2020
689 Clouds 22 1019 68 16093 5.1 70 11:36 27.03.2020
690 Clouds 22 1019 68 16093 5.1 70 11:18 27.03.2020
691 Clouds 21 1020 68 16093 6.7 70 10:42 27.03.2020
692 Clouds 21 1020 68 16093 6.7 70 10:22 27.03.2020
693 Clouds 22 1020 64 16093 4.1 60 09:59 27.03.2020
694 Rain 22 1020 64 16093 4.1 60 09:40 27.03.2020
695 Rain 22 1020 64 16093 4.1 60 09:22 27.03.2020
696 Rain 22 1019 64 16093 5.7 60 08:59 27.03.2020
697 Rain 22 1019 64 16093 5.7 60 08:59 27.03.2020
698 Clouds 22 1019 64 16093 5.7 60 08:40 27.03.2020
699 Clouds 22 1019 64 16093 5.7 60 08:21 27.03.2020
700 Clouds 22 1019 64 16093 6.2 60 07:55 27.03.2020
701 Clouds 22 1019 64 16093 6.2 60 07:37 27.03.2020
702 Clouds 22 1019 64 16093 6.2 60 07:19 27.03.2020
703 Rain 22 1018 69 16093 7.7 70 06:38 27.03.2020
704 Clouds 22 1017 64 16093 7.7 60 05:44 27.03.2020
705 Clouds 23 1018 60 16093 8.2 60 02:52 27.03.2020
706 Clouds 24 1018 54 16093 8.2 50 01:54 27.03.2020
707 Clouds 24 1019 54 16093 7.2 60 00:56 27.03.2020
708 Clouds 24 1019 54 16093 7.2 60 00:32 27.03.2020
709 Clouds 24 1020 50 16093 11.8 60 23:45 26.03.2020
710 Clouds 24 1020 50 16093 11.8 60 23:25 26.03.2020
711 Rain 24 1021 60 16093 10.3 70 22:59 26.03.2020
712 Rain 23 1021 60 16093 10.3 70 22:39 26.03.2020
713 Rain 23 1021 60 16093 10.3 70 22:20 26.03.2020
714 Clouds 23 1021 60 16093 8.7 70 21:59 26.03.2020
715 Clouds 23 1021 60 16093 8.7 70 21:39 26.03.2020
716 Clouds 23 1021 60 16093 8.7 70 21:21 26.03.2020
717 Rain 23 1021 64 16093 7.7 70 20:58 26.03.2020
718 Rain 22 1021 64 16093 7.7 70 20:38 26.03.2020
719 Rain 22 1021 64 16093 7.7 70 20:20 26.03.2020
720 Rain 22 1020 68 16093 7.2 70 19:56 26.03.2020
721 Rain 21 1020 68 16093 7.2 70 19:38 26.03.2020
722 Rain 21 1020 68 16093 7.2 70 19:38 26.03.2020
723 Rain 21 1020 68 16093 7.2 70 19:20 26.03.2020
724 Rain 21 1020 68 16093 5.7 70 18:55 26.03.2020
725 Rain 21 1020 68 16093 5.7 70 18:55 26.03.2020
726 Rain 21 1020 68 16093 5.7 70 18:36 26.03.2020
727 Rain 21 1020 68 16093 5.7 70 18:18 26.03.2020
728 Rain 21 1020 73 16093 6.2 60 17:42 26.03.2020
729 Rain 21 1019 60 16093 8.2 70 17:19 26.03.2020
730 Clouds 21 1019 60 16093 8.2 70 16:45 26.03.2020
731 Clouds 21 1019 60 16093 8.2 70 16:27 26.03.2020
732 Clouds 21 1019 60 16093 7.2 50 15:58 26.03.2020
733 Clouds 21 1019 60 16093 7.2 50 15:40 26.03.2020
734 Clouds 21 1019 60 16093 7.2 50 15:21 26.03.2020
735 Clouds 21 1020 60 16093 6.2 60 14:57 26.03.2020
736 Clouds 21 1020 60 16093 6.2 60 14:38 26.03.2020
737 Clouds 22 1020 60 16093 6.2 60 14:18 26.03.2020
738 Clouds 21 1020 64 16093 7.2 60 13:41 26.03.2020
739 Clouds 22 1020 64 16093 7.2 60 13:23 26.03.2020
740 Clouds 21 1021 60 16093 7.2 60 12:56 26.03.2020
741 Clouds 21 1021 60 16093 7.2 60 12:37 26.03.2020
742 Clouds 22 1022 56 16093 6.2 60 12:18 26.03.2020
743 Clouds 22 1022 56 16093 6.2 60 11:44 26.03.2020
744 Clouds 22 1022 56 16093 6.2 60 11:20 26.03.2020
745 Clouds 22 1022 60 16093 6.7 60 10:55 26.03.2020
746 Clouds 22 1022 60 16093 6.7 60 10:36 26.03.2020
747 Clouds 22 1022 60 16093 6.7 60 10:18 26.03.2020
748 Clouds 21 1022 68 16093 7.7 60 09:42 26.03.2020
749 Clouds 22 1022 68 16093 7.7 60 09:19 26.03.2020
750 Rain 22 1022 64 16093 8.7 60 08:44 26.03.2020
751 Rain 22 1022 64 16093 8.7 60 08:26 26.03.2020
752 Rain 22 1021 64 16093 9.3 60 07:57 26.03.2020
753 Clouds 22 1021 64 16093 9.3 60 07:38 26.03.2020
754 Clouds 22 1021 64 16093 9.3 60 07:20 26.03.2020
755 Clouds 22 1021 60 16093 6.7 50 06:38 26.03.2020
756 Clouds 23 1020 57 16093 10.8 60 05:51 26.03.2020
757 Clouds 24 1020 47 16093 9.8 70 03:48 26.03.2020
758 Clouds 24 1020 47 16093 9.8 70 03:26 26.03.2020
759 Clouds 25 1021 47 16093 10.8 60 02:52 26.03.2020
760 Clouds 25 1021 47 16093 10.8 60 01:19 26.03.2020
761 Clouds 24 1022 53 16093 10.8 60 00:33 26.03.2020
762 Rain 24 1023 64 16093 9.8 50 23:44 25.03.2020
763 Rain 24 1023 64 16093 9.8 50 23:26 25.03.2020
764 Clouds 24 1023 57 16093 10.3 50 22:55 25.03.2020
765 Clouds 23 1023 57 16093 10.3 50 22:37 25.03.2020
766 Clouds 24 1023 57 16093 10.3 50 22:18 25.03.2020
767 Clouds 23 1024 64 16093 10.3 70 21:43 25.03.2020
768 Clouds 22 1024 64 16093 10.3 70 21:24 25.03.2020
769 Clouds 22 1024 69 16093 9.8 70 20:59 25.03.2020
770 Clouds 22 1024 69 16093 9.8 70 20:38 25.03.2020
771 Clouds 22 1024 69 16093 9.8 70 20:19 25.03.2020
772 Clouds 22 1023 78 16093 8.2 70 19:55 25.03.2020
773 Clouds 22 1023 78 16093 8.2 70 19:36 25.03.2020
774 Clouds 22 1023 78 16093 8.2 70 19:18 25.03.2020
775 Rain 21 1023 88 16093 7.7 60 18:42 25.03.2020
776 Rain 20 1023 88 16093 7.7 60 18:24 25.03.2020
777 Rain 20 1023 94 16093 5.1 80 17:58 25.03.2020
778 Rain 20 1023 94 16093 5.1 80 17:58 25.03.2020
779 Rain 20 1023 94 16093 5.1 80 17:40 25.03.2020
780 Rain 20 1023 94 16093 5.1 80 17:21 25.03.2020
781 Rain 20 1022 94 11265 6.2 70 16:55 25.03.2020
782 Rain 20 1022 94 11265 6.2 70 16:37 25.03.2020
783 Rain 20 1022 94 11265 6.2 70 16:19 25.03.2020
784 Rain 20 1022 94 16093 5.7 70 15:42 25.03.2020
785 Rain 20 1022 94 16093 5.7 70 15:20 25.03.2020
786 Rain 20 1022 83 16093 7.2 70 14:56 25.03.2020
787 Rain 20 1022 83 16093 7.2 70 14:37 25.03.2020
788 Rain 20 1022 83 16093 7.2 70 14:19 25.03.2020
789 Rain 20 1022 77 16093 6.7 50 13:42 25.03.2020
790 Rain 21 1022 77 16093 6.7 50 13:22 25.03.2020
791 Rain 21 1023 77 16093 8.2 70 12:38 25.03.2020
792 Clouds 21 1023 77 16093 8.2 70 12:20 25.03.2020
793 Rain 21 1022 73 16093 6.7 50 11:57 25.03.2020
794 Rain 21 1022 73 16093 6.7 50 11:39 25.03.2020
795 Rain 21 1022 73 16093 6.7 50 11:20 25.03.2020
796 Rain 21 1023 73 16093 8.2 50 10:57 25.03.2020
797 Rain 21 1023 73 16093 8.2 50 10:39 25.03.2020
798 Rain 21 1023 73 16093 8.2 50 10:18 25.03.2020
799 Rain 21 1023 83 16093 10.3 60 09:43 25.03.2020
800 Rain 21 1023 83 16093 10.3 60 09:25 25.03.2020
801 Rain 21 1022 83 16093 8.7 60 08:58 25.03.2020
802 Rain 21 1022 83 16093 8.7 60 08:58 25.03.2020
803 Rain 21 1022 83 16093 8.7 60 08:39 25.03.2020
804 Rain 21 1022 83 16093 8.7 60 08:19 25.03.2020
805 Rain 22 1022 73 12874 9.3 60 07:41 25.03.2020
806 Rain 22 1022 73 12874 9.3 60 07:23 25.03.2020
807 Rain 22 1021 64 16093 8.7 60 06:50 25.03.2020
808 Rain 22 1021 64 16093 8.7 60 06:28 25.03.2020
809 Clouds 22 1021 64 16093 11.8 70 05:57 25.03.2020
810 Clouds 23 1021 64 16093 11.8 70 05:37 25.03.2020
811 Clouds 23 1021 64 16093 6.7 60 04:40 25.03.2020
812 Rain 24 1021 61 16093 8.7 60 03:49 25.03.2020
813 Rain 24 1021 61 16093 8.7 60 03:28 25.03.2020
814 Clouds 24 1022 57 16093 9.8 60 01:23 25.03.2020
815 Clouds 23 1023 61 16093 8.7 40 00:49 25.03.2020
816 Clouds 23 1023 61 16093 8.7 40 00:24 25.03.2020
817 Clouds 24 1023 54 16093 8.7 60 23:45 24.03.2020
818 Clouds 23 1023 54 16093 8.7 60 23:26 24.03.2020
819 Rain 24 1024 54 16093 8.2 80 22:57 24.03.2020
820 Rain 24 1024 54 16093 8.2 80 22:38 24.03.2020
821 Rain 24 1024 54 16093 8.2 80 22:19 24.03.2020
822 Rain 24 1024 61 16093 8.2 60 21:56 24.03.2020
823 Rain 24 1024 61 16093 8.2 60 21:37 24.03.2020
824 Rain 23 1024 61 16093 8.2 60 21:18 24.03.2020
825 Clouds 24 1023 60 16093 6.2 50 20:56 24.03.2020
826 Clouds 23 1023 60 16093 6.2 50 20:38 24.03.2020
827 Clouds 23 1023 60 16093 6.2 50 20:19 24.03.2020
828 Clouds 22 1023 64 16093 4.6 80 19:41 24.03.2020
829 Clouds 23 1023 64 16093 4.6 80 19:19 24.03.2020
830 Clouds 22 1022 56 16093 6.7 70 18:56 24.03.2020
831 Clouds 22 1022 56 16093 6.7 70 18:37 24.03.2020
832 Clouds 22 1022 56 16093 6.7 70 18:18 24.03.2020
833 Clouds 22 1022 56 16093 8.7 60 18:18 24.03.2020
834 Clouds 22 1022 56 16093 8.7 60 17:42 24.03.2020
835 Clouds 22 1022 56 16093 8.7 60 17:23 24.03.2020
836 Clouds 22 1022 49 16093 8.2 70 16:58 24.03.2020
837 Clouds 22 1022 49 16093 8.2 70 16:40 24.03.2020
838 Clouds 22 1022 49 16093 8.2 70 16:22 24.03.2020
839 Clouds 22 1022 49 16093 7.2 70 15:58 24.03.2020
840 Clouds 21 1022 49 16093 7.2 70 15:37 24.03.2020
841 Clouds 21 1022 49 16093 7.2 70 15:19 24.03.2020
842 Clouds 21 1022 53 16093 6.7 60 14:43 24.03.2020
843 Clouds 21 1022 53 16093 6.7 60 14:19 24.03.2020
844 Rain 21 1023 64 16093 7.7 70 13:44 24.03.2020
845 Rain 21 1023 64 16093 7.7 70 13:24 24.03.2020
846 Clouds 22 1023 56 16093 7.2 60 12:57 24.03.2020
847 Clouds 22 1023 56 16093 7.2 60 12:37 24.03.2020
848 Clouds 22 1023 56 16093 7.2 60 12:37 24.03.2020
849 Clouds 22 1023 56 16093 7.2 60 12:19 24.03.2020
850 Clouds 22 1023 56 16093 10.8 50 11:40 24.03.2020
851 Clouds 22 1023 77 16093 3.6 70 11:20 24.03.2020
852 Clouds 22 1024 88 16093 5.7 60 10:43 24.03.2020
853 Clouds 22 1024 56 16093 8.2 60 10:20 24.03.2020
854 Drizzle 22 1024 82 16093 4.6 80 09:59 24.03.2020
855 Drizzle 22 1024 82 16093 4.6 80 09:40 24.03.2020
856 Rain 22 1023 64 16093 8.7 80 09:22 24.03.2020
857 Clouds 22 1023 56 16093 5.1 50 08:39 24.03.2020
858 Clouds 22 1023 56 16093 5.1 50 08:20 24.03.2020
859 Clouds 22 1022 56 16093 7.2 50 07:48 24.03.2020
860 Clouds 22 1022 56 16093 7.2 50 07:25 24.03.2020
861 Clouds 22 1021 53 16093 7.7 50 06:58 24.03.2020
862 Clouds 23 1021 53 16093 7.7 50 06:31 24.03.2020
863 Clouds 23 1020 53 16093 9.8 60 05:22 24.03.2020
864 Clouds 24 1020 54 16093 10.8 40 04:27 24.03.2020
865 Clouds 24 1020 54 16093 9.8 60 03:18 24.03.2020
866 Clouds 25 1020 51 16093 10.8 70 01:47 24.03.2020
867 Clouds 25 1021 44 16093 8.2 50 00:48 24.03.2020
868 Clouds 25 1021 44 16093 8.2 50 00:25 24.03.2020
869 Clouds 25 1021 51 16093 8.7 50 23:45 23.03.2020
870 Clouds 25 1021 51 16093 8.7 50 23:26 23.03.2020
871 Clouds 24 1022 54 16093 8.2 50 22:56 23.03.2020
872 Clouds 24 1022 54 16093 8.2 50 22:56 23.03.2020
873 Clouds 24 1022 54 16093 8.2 50 22:37 23.03.2020
874 Clouds 24 1022 54 16093 8.2 50 22:19 23.03.2020
875 Rain 23 1022 88 14484 3.6 70 21:44 23.03.2020
876 Rain 23 1022 88 14484 4.6 80 21:21 23.03.2020
877 Drizzle 22 1022 88 16093 2.1 110 20:58 23.03.2020
878 Drizzle 22 1022 88 16093 2.1 110 20:39 23.03.2020
879 Rain 22 1022 69 16093 7.2 60 20:21 23.03.2020
880 Clouds 21 1022 94 12874 2.6 90 19:46 23.03.2020
881 Clouds 21 1021 100 16093 1.5 80 19:27 23.03.2020
882 Rain 21 1021 73 16093 6.7 60 18:59 23.03.2020
883 Drizzle 21 1022 88 11265 3.1 100 18:41 23.03.2020
884 Rain 21 1021 73 16093 5.7 80 18:21 23.03.2020
885 Rain 21 1020 88 14484 4.1 80 17:44 23.03.2020
886 Rain 21 1020 88 14484 4.1 80 17:22 23.03.2020
887 Rain 21 1020 88 16093 3.1 100 16:59 23.03.2020
888 Clouds 21 1020 88 16093 3.1 100 16:41 23.03.2020
889 Clouds 21 1019 73 16093 6.2 60 16:23 23.03.2020
890 Clouds 21 1019 64 16093 8.7 60 15:42 23.03.2020
891 Clouds 22 1019 64 16093 8.7 60 15:20 23.03.2020
892 Clouds 22 1019 64 16093 7.7 50 14:55 23.03.2020
893 Clouds 22 1019 64 16093 7.7 50 14:36 23.03.2020
894 Clouds 22 1019 64 16093 7.7 50 14:18 23.03.2020
895 Clouds 22 1020 88 16093 4.52 67 13:40 23.03.2020
896 Clouds 22 1020 64 16093 8.7 50 13:21 23.03.2020
897 Clouds 22 1020 82 16093 3.57 67 12:46 23.03.2020
898 Clouds 22 1021 93 16093 2.1 270 12:26 23.03.2020
899 Clouds 22 1021 82 16093 3.57 67 11:59 23.03.2020
900 Clouds 22 1021 88 16093 3.57 67 11:40 23.03.2020
901 Clouds 22 1021 64 16093 6.7 60 11:20 23.03.2020
902 Clouds 22 1021 64 16093 6.7 60 10:58 23.03.2020
903 Clouds 22 1021 64 16093 6.7 60 10:38 23.03.2020
904 Clouds 22 1021 64 16093 6.7 60 10:38 23.03.2020
905 Clouds 22 1021 64 16093 6.7 60 10:20 23.03.2020
906 Clouds 22 1022 88 16093 1.5 110 09:44 23.03.2020
907 Clouds 22 1022 88 16093 1.5 110 09:21 23.03.2020
908 Clouds 22 1020 64 16093 6.2 60 08:57 23.03.2020
909 Clouds 23 1020 64 16093 6.2 60 08:36 23.03.2020
910 Clouds 23 1020 64 16093 6.2 60 08:18 23.03.2020
911 Clouds 23 1020 64 16093 5.1 90 07:45 23.03.2020
912 Clouds 23 1020 64 16093 5.1 90 07:27 23.03.2020
913 Rain 23 1019 64 16093 7.7 80 06:52 23.03.2020
914 Clouds 23 1019 94 16093 5.13 75 05:54 23.03.2020
915 Clouds 23 1019 94 16093 5.13 75 05:29 23.03.2020
916 Clouds 24 1018 83 16093 4.1 80 03:29 23.03.2020
917 Rain 24 1018 54 16093 8.2 70 01:51 23.03.2020
918 Rain 25 1018 54 16093 8.2 70 01:33 23.03.2020
919 Rain 25 1019 78 16093 5.1 60 00:39 23.03.2020
920 Rain 26 1019 73 16093 6.2 70 23:47 22.03.2020
921 Rain 26 1019 83 12874 5.1 60 23:26 22.03.2020
922 Clouds 26 1020 54 16093 7.2 60 22:45 22.03.2020
923 Clouds 26 1020 54 16093 7.2 60 22:24 22.03.2020
924 Clouds 25 1021 78 16093 5.1 100 21:56 22.03.2020
925 Clouds 26 1020 69 16093 6.7 70 21:37 22.03.2020
926 Clouds 26 1020 69 16093 6.7 70 21:19 22.03.2020
927 Clouds 25 1020 61 16093 6.2 50 20:46 22.03.2020
928 Clouds 25 1020 61 16093 6.2 50 20:25 22.03.2020
929 Clouds 24 1020 64 16093 4.1 70 19:58 22.03.2020
930 Clouds 23 1020 64 16093 4.1 70 19:40 22.03.2020
931 Clouds 23 1020 64 16093 4.1 70 19:20 22.03.2020
932 Clouds 23 1019 69 16093 4.6 50 18:59 22.03.2020
933 Clouds 23 1019 69 16093 4.6 50 18:41 22.03.2020
934 Clouds 23 1019 69 16093 4.6 50 18:22 22.03.2020
935 Clouds 22 1018 69 16093 4.6 60 17:58 22.03.2020
936 Clouds 22 1018 69 16093 4.6 60 17:38 22.03.2020
937 Clouds 22 1018 69 16093 4.6 60 17:20 22.03.2020
938 Clouds 22 1018 93 16093 1.5 320 16:57 22.03.2020
939 Clouds 22 1018 93 16093 1.5 320 16:39 22.03.2020
940 Clouds 22 1018 69 16093 4.6 50 16:21 22.03.2020
941 Clouds 22 1018 88 16093 2.6 79 15:44 22.03.2020
942 Clouds 22 1018 88 16093 2.6 79 15:26 22.03.2020
943 Clear 22 1018 69 16093 4.1 50 14:46 22.03.2020
944 Clear 22 1018 69 16093 4.1 50 14:19 22.03.2020
945 Clouds 22 1018 93 16093 1.94 84 13:45 22.03.2020
946 Clear 22 1018 64 16093 4.6 70 13:21 22.03.2020
947 Clouds 22 1018 64 16093 4.1 90 12:59 22.03.2020
948 Clouds 22 1018 64 16093 4.1 90 12:41 22.03.2020
949 Clouds 22 1018 64 16093 4.1 90 12:19 22.03.2020
950 Clouds 22 1019 88 16093 1.65 85 11:43 22.03.2020
951 Clouds 22 1019 69 16093 4.6 90 11:25 22.03.2020
952 Clouds 22 1019 69 16093 3.1 80 10:58 22.03.2020
953 Clouds 22 1020 69 16093 5.7 60 10:40 22.03.2020
954 Clouds 22 1020 69 16093 5.7 60 10:22 22.03.2020
955 Clouds 22 1020 69 16093 5.7 60 10:22 22.03.2020
956 Clouds 22 1019 69 16093 5.1 60 09:46 22.03.2020
957 Clouds 22 1019 69 16093 5.1 60 09:46 22.03.2020
958 Clouds 22 1019 69 16093 5.1 60 09:27 22.03.2020
959 Clouds 23 1019 64 16093 5.1 60 08:48 22.03.2020
960 Clouds 23 1019 64 16093 5.1 60 08:48 22.03.2020
961 Clouds 23 1019 64 16093 5.1 60 08:30 22.03.2020
962 Clouds 23 1019 94 16093 2.2 84 07:55 22.03.2020
963 Clouds 23 1018 69 16093 4.6 60 07:37 22.03.2020
964 Clouds 23 1018 69 16093 5.7 60 06:41 22.03.2020
965 Clouds 24 1017 65 16093 5.7 60 05:47 22.03.2020
966 Clouds 24 1017 88 16093 2.6 70 04:39 22.03.2020
967 Clouds 26 1017 65 16093 6.2 60 01:45 22.03.2020
968 Rain 26 1018 88 3219 2.24 78 00:50 22.03.2020
969 Rain 26 1018 58 16093 3.1 70 00:31 22.03.2020
970 Rain 26 1019 83 16093 1.5 100 23:45 21.03.2020
971 Clouds 26 1019 74 16093 5.7 150 23:22 21.03.2020
972 Clouds 26 1020 74 16093 1.63 73 22:58 21.03.2020
973 Clouds 26 1020 74 16093 1.63 73 22:37 21.03.2020
974 Clouds 26 1020 74 16093 1.63 73 22:19 21.03.2020
975 Rain 25 1019 74 16093 4.6 90 21:57 21.03.2020
976 Rain 25 1019 74 16093 4.6 90 21:38 21.03.2020
977 Rain 25 1020 78 16093 3.1 160 21:18 21.03.2020
978 Clouds 24 1019 74 16093 3.6 100 20:42 21.03.2020
979 Clouds 24 1019 78 16093 3.1 120 20:21 21.03.2020
980 Clouds 23 1018 83 16093 1.2 97 19:54 21.03.2020
981 Clouds 23 1018 83 16093 1.2 97 19:36 21.03.2020
982 Clouds 22 1018 88 16093 1.2 97 19:18 21.03.2020
983 Clouds 21 1018 88 16093 1.2 97 18:40 21.03.2020
984 Clouds 21 1018 88 16093 1.2 97 18:20 21.03.2020
985 Clouds 21 1018 88 16093 2.6 30 17:58 21.03.2020
986 Clouds 21 1017 88 16093 1.5 50 17:39 21.03.2020
987 Clouds 21 1017 88 16093 1.5 50 17:21 21.03.2020
988 Clouds 21 1017 88 16093 1.5 30 16:42 21.03.2020
989 Clouds 21 1017 88 16093 1.5 30 16:23 21.03.2020
990 Clouds 22 1017 94 16093 2.1 20 15:58 21.03.2020
991 Clouds 22 1017 94 16093 2.1 20 15:39 21.03.2020
992 Clouds 22 1017 94 16093 2.1 20 15:21 21.03.2020
993 Clouds 22 1017 94 16093 1.09 96 14:55 21.03.2020
994 Clouds 22 1017 94 16093 1.09 96 14:37 21.03.2020
995 Clouds 22 1017 88 16093 1.18 101 14:18 21.03.2020
996 Rain 22 1018 88 14484 1.18 101 13:57 21.03.2020
997 Rain 22 1018 88 14484 1.18 101 13:38 21.03.2020
998 Rain 22 1018 88 14484 1.18 101 13:19 21.03.2020
999 Clouds 22 1019 88 16093 0.83 130 12:41 21.03.2020
1000 Clouds 22 1019 88 16093 0.83 130 12:20 21.03.2020
1001 Rain 22 1018 83 16093 3.1 110 11:59 21.03.2020
1002 Rain 23 1018 83 16093 3.1 110 11:39 21.03.2020
1003 Rain 23 1018 83 16093 3.1 110 11:39 21.03.2020
1004 Rain 23 1018 83 16093 3.1 110 11:20 21.03.2020
1005 Rain 23 1018 83 16093 3.6 120 10:58 21.03.2020
1006 Clouds 23 1020 83 16093 2.1 240 10:39 21.03.2020
1007 Clouds 23 1020 83 16093 2.1 240 10:21 21.03.2020
1008 Clouds 23 1020 100 16093 0.9 21 09:59 21.03.2020
1009 Clouds 23 1020 100 16093 0.9 21 09:39 21.03.2020
1010 Clouds 23 1020 100 16093 0.9 21 09:39 21.03.2020
1011 Rain 23 1019 83 16093 2.6 240 09:20 21.03.2020
1012 Clouds 23 1019 94 16093 1.5 300 08:55 21.03.2020
1013 Clouds 23 1019 94 16093 1.5 300 08:37 21.03.2020
1014 Rain 23 1019 83 16093 2.6 230 08:18 21.03.2020
1015 Rain 23 1019 83 16093 2.6 240 07:37 21.03.2020
1016 Rain 24 1018 83 16093 2.1 220 07:18 21.03.2020
1017 Rain 24 1018 94 16093 2.1 340 06:42 21.03.2020
1018 Rain 24 1018 94 16093 2.6 330 06:23 21.03.2020
1019 Rain 25 1016 74 16093 2.1 30 05:39 21.03.2020
1020 Clouds 25 1017 88 16093 2.1 200 03:39 21.03.2020
1021 Clouds 26 1015 69 16093 4.1 80 02:36 21.03.2020
1022 Drizzle 25 1017 83 16093 2.6 160 01:43 21.03.2020
1023 Clouds 26 1017 74 16093 4.1 190 01:23 21.03.2020
1024 Clouds 26 1018 74 16093 4.1 180 00:39 21.03.2020
1025 Clouds 26 1018 74 16093 4.1 180 00:20 21.03.2020
1026 Clouds 26 1018 78 16093 3.1 180 23:41 20.03.2020
1027 Clouds 26 1018 74 16093 4.6 170 23:20 20.03.2020
1028 Clouds 26 1019 83 16093 3.6 140 22:44 20.03.2020
1029 Clouds 26 1019 83 16093 3.6 140 22:24 20.03.2020
1030 Clouds 25 1019 88 16093 2.6 140 21:58 20.03.2020
1031 Clouds 25 1019 88 16093 2.6 140 21:39 20.03.2020
1032 Clouds 25 1019 88 16093 3.6 130 21:19 20.03.2020
1033 Clouds 24 1019 88 16093 2.6 130 20:57 20.03.2020
1034 Clouds 24 1019 88 16093 2.6 130 20:39 20.03.2020
1035 Clouds 24 1018 83 16093 1.62 157 20:18 20.03.2020
1036 Clouds 23 1018 94 16093 2.1 140 19:46 20.03.2020
1037 Clouds 22 1018 94 16093 1.62 157 19:19 20.03.2020
1038 Clouds 21 1018 100 16093 1.62 157 18:56 20.03.2020
1039 Clouds 21 1017 83 16093 1.62 157 18:37 20.03.2020
1040 Clouds 21 1017 83 16093 1.62 157 18:19 20.03.2020
1041 Clouds 20 1017 100 16093 1.62 157 17:40 20.03.2020
1042 Clouds 20 1017 100 16093 1.93 168 17:22 20.03.2020
1043 Clouds 20 1016 88 16093 1.93 168 16:59 20.03.2020
1044 Clouds 20 1016 88 16093 1.93 168 16:41 20.03.2020
1045 Clouds 20 1016 88 16093 1.93 168 16:41 20.03.2020
1046 Clouds 20 1017 88 16093 1.93 168 16:20 20.03.2020
1047 Clouds 20 1017 88 16093 1.93 168 16:20 20.03.2020
1048 Clouds 20 1017 88 16093 1.93 168 15:43 20.03.2020
1049 Clouds 20 1017 88 16093 1.93 168 15:22 20.03.2020
1050 Clouds 21 1017 83 16093 1.5 360 14:57 20.03.2020
1051 Clouds 21 1017 83 16093 1.5 360 14:38 20.03.2020
1052 Clouds 21 1017 83 16093 1.5 360 14:19 20.03.2020
1053 Clouds 21 1017 83 16093 2.1 350 13:46 20.03.2020
1054 Clouds 21 1017 83 16093 2.1 350 13:20 20.03.2020
1055 Clouds 21 1018 83 16093 2.1 10 12:54 20.03.2020
1056 Clouds 21 1018 83 16093 2.1 10 12:36 20.03.2020
1057 Clouds 21 1018 83 16093 2.1 10 12:18 20.03.2020
1058 Clouds 21 1018 100 16093 1.28 193 11:39 20.03.2020
1059 Clouds 21 1018 100 16093 1.82 87 11:20 20.03.2020
1060 Clouds 22 1018 83 16093 1.5 20 10:43 20.03.2020
1061 Clouds 22 1018 83 16093 1.5 20 10:21 20.03.2020
1062 Clouds 22 1018 83 16093 1.5 20 10:21 20.03.2020
1063 Clouds 21 1018 100 16093 1.5 170 10:00 20.03.2020
1064 Clouds 21 1018 100 16093 1.5 170 09:41 20.03.2020
1065 Clouds 22 1018 83 16093 2.6 80 09:19 20.03.2020
1066 Clouds 22 1018 83 16093 3.1 100 08:43 20.03.2020
1067 Clouds 22 1018 83 16093 3.1 100 08:22 20.03.2020
1068 Clouds 22 1017 78 16093 5.1 100 07:57 20.03.2020
1069 Clouds 22 1017 78 16093 5.1 100 07:38 20.03.2020
1070 Clouds 22 1017 78 16093 5.1 100 07:19 20.03.2020
1071 Clouds 23 1016 69 16093 5.7 130 06:41 20.03.2020
1072 Clouds 23 1015 73 16093 6.2 120 04:54 20.03.2020
1073 Clouds 24 1015 78 16093 6.2 130 03:50 20.03.2020
1074 Clouds 24 1016 78 16093 2.1 0 02:21 20.03.2020
1075 Clouds 24 1017 73 16093 2.6 0 01:33 20.03.2020
1076 Clouds 24 1017 83 16093 3.6 160 00:33 20.03.2020
1077 Clouds 24 1019 94 16093 4.1 180 23:49 19.03.2020
1078 Clouds 24 1019 94 16093 4.1 180 23:30 19.03.2020
1079 Drizzle 23 1020 94 16093 2.1 170 22:58 19.03.2020
1080 Clouds 24 1020 69 16093 2.6 180 22:38 19.03.2020
1081 Clouds 23 1020 69 16093 2.6 180 22:20 19.03.2020
1082 Clouds 23 1019 73 16093 1.5 0 21:55 19.03.2020
1083 Clouds 23 1019 73 16093 1.5 0 21:37 19.03.2020
1084 Clouds 23 1019 73 16093 1.5 0 21:18 19.03.2020
1085 Clouds 23 1019 73 16093 3.6 270 20:42 19.03.2020
1086 Clouds 23 1019 73 16093 4.6 70 20:23 19.03.2020
1087 Clouds 22 1018 78 16093 2.6 190 19:56 19.03.2020
1088 Clouds 22 1018 78 16093 2.6 190 19:38 19.03.2020
1089 Clouds 22 1019 73 16093 2.1 360 19:19 19.03.2020
1090 Clouds 22 1018 73 16093 2.39 94 18:56 19.03.2020
1091 Clouds 21 1018 78 16093 2.39 94 18:38 19.03.2020
1092 Clouds 21 1018 78 16093 2.39 94 18:19 19.03.2020
1093 Clouds 21 1017 78 16093 3.1 80 17:41 19.03.2020
1094 Clouds 21 1017 83 16093 2.6 310 17:19 19.03.2020
1095 Clouds 21 1017 83 16093 2.6 310 16:45 19.03.2020
1096 Clouds 22 1017 83 16093 2.6 310 16:24 19.03.2020
1097 Clouds 21 1016 83 16093 2.6 240 15:54 19.03.2020
1098 Clouds 21 1016 83 16093 2.6 240 15:36 19.03.2020
1099 Clouds 21 1016 83 16093 2.6 240 15:18 19.03.2020
1100 Clouds 21 1016 78 16093 3.24 95 14:42 19.03.2020
1101 Clouds 21 1016 78 16093 2.25 71 14:20 19.03.2020
1102 Clouds 21 1016 78 16093 5.7 50 13:41 19.03.2020
1103 Clouds 21 1016 78 16093 5.7 50 13:19 19.03.2020
1104 Clouds 21 1017 78 16093 2.6 80 12:56 19.03.2020
1105 Clouds 20 1017 100 16093 1.19 92 12:38 19.03.2020
1106 Clouds 21 1017 100 16093 1.19 92 12:19 19.03.2020
1107 Clouds 21 1018 78 16093 3.1 70 11:42 19.03.2020
1108 Clouds 21 1019 83 16093 2.1 280 11:23 19.03.2020
1109 Clouds 21 1019 83 16093 2.1 280 10:56 19.03.2020
1110 Clouds 21 1019 83 16093 2.1 280 10:36 19.03.2020
1111 Clouds 21 1019 83 16093 2.1 280 10:18 19.03.2020
1112 Clouds 21 1019 78 16093 2.1 130 09:44 19.03.2020
1113 Clouds 21 1019 78 16093 2.1 130 09:26 19.03.2020
1114 Rain 21 1019 77 16093 2.1 40 08:57 19.03.2020
1115 Rain 21 1019 77 16093 2.1 40 08:37 19.03.2020
1116 Rain 21 1019 77 16093 2.1 40 08:18 19.03.2020
1117 Rain 21 1017 83 16093 3.1 360 07:42 19.03.2020
1118 Rain 21 1017 83 16093 3.1 360 07:22 19.03.2020
1119 Rain 21 1018 88 16093 4.1 350 06:27 19.03.2020
1120 Rain 21 1017 87 4023 2.1 290 05:25 19.03.2020
1121 Rain 21 1018 88 3219 7.7 340 04:51 19.03.2020
1122 Rain 22 1017 83 9656 6.7 340 04:21 19.03.2020
1123 Rain 25 1017 94 16093 5.1 330 01:58 19.03.2020
1124 Rain 26 1017 88 16093 5.1 320 00:53 19.03.2020
1125 Clouds 26 1018 78 16093 1.31 165 00:19 19.03.2020
1126 Clouds 26 1018 78 16093 2.6 180 23:43 18.03.2020
1127 Clouds 26 1018 78 16093 2.6 180 23:23 18.03.2020
1128 Clouds 26 1019 78 16093 3.1 0 22:43 18.03.2020
1129 Clouds 26 1019 78 16093 3.1 0 22:23 18.03.2020
1130 Clouds 26 1019 74 16093 2.1 0 21:57 18.03.2020
1131 Clouds 26 1019 74 16093 2.1 0 21:39 18.03.2020
1132 Clouds 26 1019 74 16093 2.1 0 21:20 18.03.2020
1133 Clouds 25 1018 69 16093 2.97 134 20:55 18.03.2020
1134 Clouds 25 1018 69 16093 2.97 134 20:37 18.03.2020
1135 Clouds 25 1018 69 16093 0.82 134 20:19 18.03.2020
1136 Clouds 23 1017 83 16093 2.1 350 19:41 18.03.2020
1137 Clouds 22 1017 83 16093 2.1 350 19:21 18.03.2020
1138 Clouds 22 1017 83 16093 2.1 350 19:21 18.03.2020
1139 Clouds 22 1016 88 16093 1.5 250 18:58 18.03.2020
1140 Clouds 22 1016 88 16093 1.5 250 18:58 18.03.2020
1141 Clouds 21 1016 88 16093 1.5 250 18:39 18.03.2020
1142 Clouds 21 1016 88 16093 1.5 250 18:19 18.03.2020
1143 Clouds 21 1016 88 16093 2.1 300 17:55 18.03.2020
1144 Clouds 21 1015 88 16093 1.5 340 17:37 18.03.2020
1145 Clouds 21 1015 88 16093 1.5 340 17:19 18.03.2020
1146 Clouds 21 1014 78 16093 2.97 155 16:42 18.03.2020
1147 Clouds 22 1014 78 16093 2.97 155 16:20 18.03.2020
1148 Clouds 21 1014 78 16093 2.97 155 16:20 18.03.2020
1149 Clouds 21 1014 83 16093 1.5 0 15:57 18.03.2020
1150 Clouds 21 1014 83 16093 1.5 0 15:38 18.03.2020
1151 Clouds 21 1015 88 16093 2.97 155 15:19 18.03.2020
1152 Clouds 22 1014 78 16093 2.6 110 14:42 18.03.2020
1153 Clouds 22 1015 88 16093 2.97 155 14:21 18.03.2020
1154 Clouds 22 1016 100 16093 1.5 160 13:41 18.03.2020
1155 Clouds 22 1016 100 16093 1.5 160 13:19 18.03.2020
1156 Rain 22 1017 83 16093 2.6 110 12:55 18.03.2020
1157 Rain 22 1017 83 16093 2.6 110 12:37 18.03.2020
1158 Rain 22 1017 83 16093 2.6 110 12:18 18.03.2020
1159 Rain 22 1017 83 16093 2.6 110 12:18 18.03.2020
1160 Clouds 22 1017 88 16093 4.6 120 11:38 18.03.2020
1161 Clouds 22 1017 83 14484 1.5 0 11:19 18.03.2020
1162 Clouds 22 1017 83 14484 1.5 0 10:56 18.03.2020
1163 Clouds 22 1017 78 16093 3.6 120 10:37 18.03.2020
1164 Rain 22 1017 78 16093 3.6 120 10:18 18.03.2020
1165 Rain 22 1017 78 16093 3.6 120 10:18 18.03.2020
1166 Rain 22 1017 78 16093 3.6 120 10:18 18.03.2020
1167 Rain 22 1018 83 16093 5.1 120 09:42 18.03.2020
1168 Clouds 22 1018 83 16093 4.6 110 09:23 18.03.2020
1169 Clouds 22 1018 83 16093 5.1 110 08:55 18.03.2020
1170 Clouds 22 1018 83 16093 5.1 110 08:55 18.03.2020
1171 Clouds 22 1017 83 16093 4.6 120 08:36 18.03.2020
1172 Clouds 22 1017 83 16093 4.6 120 08:18 18.03.2020
1173 Rain 22 1016 88 16093 7.2 110 07:40 18.03.2020
1174 Rain 22 1016 88 16093 7.2 110 07:22 18.03.2020
1175 Rain 22 1017 88 16093 6.2 100 06:42 18.03.2020
1176 Rain 22 1017 88 16093 5.1 120 05:47 18.03.2020
1177 Clouds 22 1015 78 16093 1.89 98 05:18 18.03.2020
1178 Rain 21 1015 83 16093 2.6 110 03:21 18.03.2020
1179 Rain 22 1016 88 16093 2.6 100 02:37 18.03.2020
1180 Rain 22 1016 88 16093 2.6 100 02:37 18.03.2020
1181 Rain 22 1016 88 16093 2.6 100 02:37 18.03.2020
1182 Rain 21 1016 94 16093 2.1 80 01:45 18.03.2020
1183 Rain 22 1016 94 16093 1.5 40 01:20 18.03.2020
1184 Rain 21 1017 94 8047 3.6 300 00:22 18.03.2020
1185 Rain 21 1018 88 6437 5.7 270 23:43 17.03.2020
1186 Rain 21 1018 94 16093 5.1 240 23:22 17.03.2020
1187 Rain 21 1018 94 6437 5.1 270 22:47 17.03.2020
1188 Rain 21 1018 94 6437 5.1 270 22:28 17.03.2020
1189 Rain 22 1018 94 3219 6.7 270 21:57 17.03.2020
1190 Rain 22 1017 94 805 13.4 260 21:36 17.03.2020
1191 Rain 22 1017 94 805 13.4 260 21:18 17.03.2020
1192 Rain 23 1017 88 8047 4.1 280 20:38 17.03.2020
1193 Rain 23 1016 83 16093 2.1 330 20:20 17.03.2020
1194 Clouds 22 1016 100 16093 2.6 180 19:42 17.03.2020
1195 Rain 22 1015 83 16093 1.5 70 19:22 17.03.2020
1196 Clouds 22 1015 100 16093 2.1 140 18:59 17.03.2020
1197 Clouds 22 1015 100 16093 2.1 160 18:40 17.03.2020
1198 Clouds 22 1015 100 16093 2.1 160 18:22 17.03.2020
1199 Clouds 22 1014 83 16093 1.98 135 17:56 17.03.2020
1200 Drizzle 22 1014 100 16093 1.5 150 17:38 17.03.2020
1201 Drizzle 22 1014 100 16093 1.5 150 17:19 17.03.2020
1202 Rain 22 1014 100 16093 1.5 160 16:42 17.03.2020
1203 Rain 22 1014 100 8047 2.6 60 16:19 17.03.2020
1204 Rain 22 1014 83 9656 3.1 120 15:47 17.03.2020
1205 Rain 22 1014 83 9656 3.1 120 15:23 17.03.2020
1206 Drizzle 23 1013 100 16093 1.5 160 14:47 17.03.2020
1207 Rain 23 1014 83 11265 4.1 110 14:27 17.03.2020
1208 Clouds 23 1013 73 16093 2.98 146 13:58 17.03.2020
1209 Clouds 23 1013 73 16093 2.98 146 13:40 17.03.2020
1210 Clouds 23 1015 73 16093 4.6 110 13:22 17.03.2020
1211 Clouds 23 1015 73 16093 1.5 20 12:47 17.03.2020
1212 Clouds 23 1015 73 16093 1.5 20 12:25 17.03.2020
1213 Clouds 23 1015 73 16093 3.6 100 11:56 17.03.2020
1214 Clouds 23 1015 73 16093 3.6 100 11:38 17.03.2020
1215 Clouds 23 1015 100 16093 2.1 137 11:20 17.03.2020
1216 Clouds 23 1015 100 16093 2.1 137 10:54 17.03.2020
1217 Clouds 23 1015 78 16093 1.5 100 10:36 17.03.2020
1218 Clouds 23 1015 78 16093 1.5 100 10:18 17.03.2020
1219 Clouds 23 1015 100 16093 2.6 190 09:44 17.03.2020
1220 Clouds 23 1015 78 16093 2.6 80 09:20 17.03.2020
1221 Clouds 23 1016 78 16093 2.6 100 08:51 17.03.2020
1222 Clouds 23 1016 78 16093 2.6 100 08:24 17.03.2020
1223 Clouds 23 1015 74 16093 5.7 110 07:58 17.03.2020
1224 Clouds 23 1016 100 16093 2.6 180 07:39 17.03.2020
1225 Rain 23 1016 100 16093 2.6 180 07:19 17.03.2020
1226 Rain 22 1015 100 16093 1.5 180 06:40 17.03.2020
1227 Clouds 23 1014 100 16093 2.6 140 06:19 17.03.2020
1228 Rain 23 1014 100 3017 5.1 140 04:40 17.03.2020
1229 Rain 23 1013 100 3621 3.1 170 02:56 17.03.2020
1230 Rain 24 1014 83 2816 6.2 130 01:49 17.03.2020
1231 Rain 24 1014 83 16093 6.2 140 01:25 17.03.2020
1232 Drizzle 24 1014 94 14484 3.1 140 00:47 17.03.2020
1233 Clouds 25 1015 69 16093 6.2 140 23:51 16.03.2020
1234 Clouds 24 1015 100 16093 4.1 150 23:32 16.03.2020
1235 Rain 23 1014 78 16093 3.6 150 22:43 16.03.2020
1236 Rain 23 1016 100 2615 6.2 160 22:25 16.03.2020
1237 Rain 24 1016 83 8047 6.7 170 21:58 16.03.2020
1238 Rain 24 1016 83 8047 6.7 170 21:40 16.03.2020
1239 Rain 24 1015 78 8047 4.1 130 21:22 16.03.2020
1240 Rain 23 1016 100 16093 2.6 140 20:56 16.03.2020
1241 Clouds 23 1016 83 16093 4.6 120 20:37 16.03.2020
1242 Rain 23 1016 83 16093 4.6 120 20:19 16.03.2020
1243 Rain 23 1015 83 16093 6.7 140 19:41 16.03.2020
1244 -273 0 0 0 0 0 19:21 16.03.2020
1245 Rain 23 1015 100 16093 4.1 160 18:43 16.03.2020
1246 Rain 23 1014 83 3219 3.18 167 18:22 16.03.2020
1247 Rain 22 1015 100 16093 3.1 160 17:56 16.03.2020
1248 Rain 23 1014 100 16093 2.6 170 17:37 16.03.2020
1249 Rain 23 1014 100 16093 2.6 170 17:18 16.03.2020
1250 Rain 22 1014 100 16093 3.1 160 16:45 16.03.2020
1251 Rain 23 1014 83 16093 5.7 140 16:27 16.03.2020
1252 Drizzle 23 1014 100 16093 3.1 160 15:46 16.03.2020
1253 Rain 23 1013 83 16093 2.1 120 15:28 16.03.2020
1254 Drizzle 23 1014 100 16093 3.6 160 14:49 16.03.2020
1255 Clouds 23 1015 83 16093 5.7 130 14:28 16.03.2020
1256 Rain 23 1014 83 16093 1.5 160 13:59 16.03.2020
1257 Rain 23 1014 83 16093 1.5 160 13:41 16.03.2020
1258 Drizzle 23 1015 100 2816 1.5 150 13:22 16.03.2020
1259 Clouds 23 1015 100 12874 2.1 150 12:45 16.03.2020
1260 Clouds 23 1016 100 16093 1.5 120 12:24 16.03.2020
1261 Rain 23 1016 100 11265 2.1 130 11:47 16.03.2020
1262 Rain 23 1016 83 11265 3.6 140 11:28 16.03.2020
1263 Rain 22 1016 100 16093 2.39 169 10:56 16.03.2020
1264 Rain 22 1016 100 16093 2.39 169 10:37 16.03.2020
1265 Rain 23 1016 83 16093 2.1 90 10:18 16.03.2020
1266 Rain 22 1017 100 9656 2.1 180 09:42 16.03.2020
1267 Rain 23 1017 83 16093 2.6 100 09:21 16.03.2020
1268 Clouds 23 1016 78 16093 3.1 80 08:52 16.03.2020
1269 Clouds 23 1016 78 16093 3.1 80 08:25 16.03.2020
1270 Rain 23 1016 100 16093 2.1 200 07:48 16.03.2020
1271 Rain 23 1016 78 16093 3.6 110 07:25 16.03.2020
1272 Rain 23 1016 94 16093 1.53 107 06:52 16.03.2020
1273 Clouds 24 1015 69 16093 3.1 130 06:24 16.03.2020
1274 Rain 24 1015 83 16093 2.1 160 04:54 16.03.2020
1275 Rain 25 1015 83 16093 3.1 170 02:41 16.03.2020
1276 Rain 24 1015 83 4828 3.1 140 00:52 16.03.2020
1277 Rain 25 1016 78 8047 3.6 100 00:32 16.03.2020
1278 Rain 26 1016 78 6437 2.6 80 23:46 15.03.2020
1279 Rain 26 1017 69 16093 6.7 150 23:20 15.03.2020
1280 Clouds 25 1017 74 16093 2.33 64 22:42 15.03.2020
1281 Clouds 25 1018 78 16093 2.33 64 22:22 15.03.2020
1282 Clouds 25 1018 69 16093 2.6 210 21:55 15.03.2020
1283 Clouds 25 1018 69 16093 2.6 210 21:37 15.03.2020
1284 Clouds 26 1018 69 16093 2.6 210 21:18 15.03.2020
1285 Clouds 26 1017 69 16093 4.1 60 20:42 15.03.2020
1286 Clouds 25 1018 69 16093 1.5 0 20:20 15.03.2020
1287 Clouds 24 1018 88 16093 1.5 320 19:56 15.03.2020
1288 Clouds 24 1018 88 16093 1.5 320 19:38 15.03.2020
1289 Clouds 23 1018 100 16093 2.1 360 19:19 15.03.2020
1290 Clouds 23 1017 83 16093 4.6 330 18:55 15.03.2020
1291 Clouds 22 1017 83 16093 4.6 330 18:36 15.03.2020
1292 Clouds 22 1017 83 16093 4.6 330 18:18 15.03.2020
1293 Clouds 21 1016 78 16093 3.6 320 17:40 15.03.2020
1294 Clouds 21 1016 78 16093 3.6 320 17:20 15.03.2020
1295 Clouds 21 1016 100 16093 2.1 300 16:56 15.03.2020
1296 Clouds 22 1016 100 16093 2.1 300 16:37 15.03.2020
1297 Clouds 22 1016 83 16093 2.1 10 16:18 15.03.2020
1298 Clouds 22 1015 74 16093 4.6 60 15:43 15.03.2020
1299 Clouds 22 1016 83 16093 3.6 330 15:25 15.03.2020
1300 Clouds 23 1017 78 16093 1.5 340 14:47 15.03.2020
1301 Clouds 23 1017 78 16093 1.5 340 14:28 15.03.2020
1302 Clouds 22 1017 78 16093 3.1 320 13:59 15.03.2020
1303 Clouds 22 1017 78 16093 3.1 320 13:39 15.03.2020
1304 Clouds 22 1017 78 16093 3.1 320 13:21 15.03.2020
1305 Rain 23 1017 78 16093 5.1 60 12:57 15.03.2020
1306 Clouds 23 1017 73 16093 2.1 320 12:38 15.03.2020
1307 Clouds 23 1017 73 16093 2.1 320 12:20 15.03.2020
1308 Clouds 23 1017 69 16093 3.6 70 11:40 15.03.2020
1309 Clouds 23 1017 69 16093 3.6 70 11:22 15.03.2020
1310 Clouds 23 1019 73 16093 2.6 340 10:56 15.03.2020
1311 Clouds 23 1019 73 16093 2.6 340 10:37 15.03.2020
1312 Clouds 23 1019 73 16093 2.6 340 10:19 15.03.2020
1313 Clouds 23 1019 100 16093 2.6 320 09:40 15.03.2020
1314 Clouds 23 1019 69 16093 1.5 10 09:22 15.03.2020
1315 Clouds 23 1019 94 16093 3.6 310 08:44 15.03.2020
1316 Clouds 23 1019 94 16093 2.6 310 08:21 15.03.2020
1317 Clouds 22 1017 69 16093 5.1 50 07:51 15.03.2020
1318 Clouds 22 1017 73 16093 4.1 10 07:31 15.03.2020
1319 Clouds 23 1017 69 16093 6.2 50 06:53 15.03.2020
1320 Clouds 24 1016 69 16093 5.1 50 05:50 15.03.2020
1321 Clouds 24 1016 69 16093 5.1 50 05:18 15.03.2020
1322 Clouds 25 1016 57 16093 5.7 50 04:43 15.03.2020
1323 Clouds 25 1016 57 16093 5.7 50 04:24 15.03.2020
1324 Clouds 24 1016 88 16093 4.1 330 03:38 15.03.2020
1325 Clouds 25 1016 83 16093 3.6 60 02:37 15.03.2020
1326 Drizzle 26 1016 78 16093 2.1 180 01:34 15.03.2020
1327 Clouds 26 1016 73 16093 3.1 330 00:45 15.03.2020
1328 Clouds 26 1016 61 16093 2.1 150 00:22 15.03.2020
1329 Clouds 26 1017 73 16093 2.15 70 23:42 14.03.2020
1330 Clouds 26 1017 73 16093 2.74 63 23:22 14.03.2020
1331 Clouds 26 1018 73 16093 3.1 290 22:58 14.03.2020
1332 Clouds 26 1018 73 16093 3.1 290 22:40 14.03.2020
1333 Clouds 26 1018 54 16093 2.1 60 22:22 14.03.2020
1334 Clouds 26 1018 73 16093 2.6 60 21:56 14.03.2020
1335 Clouds 25 1018 73 16093 2.6 60 21:36 14.03.2020
1336 Clouds 26 1018 73 16093 2.6 60 21:18 14.03.2020
1337 Clouds 24 1018 69 16093 2.1 350 20:58 14.03.2020
1338 Clouds 24 1018 69 16093 2.1 350 20:39 14.03.2020
1339 Clouds 24 1018 69 16093 2.1 350 20:18 14.03.2020
1340 Clouds 23 1017 69 16093 3.6 330 19:42 14.03.2020
1341 Clouds 23 1017 69 16093 3.6 330 19:24 14.03.2020
1342 Clouds 21 1016 78 16093 2.36 49 18:41 14.03.2020
1343 Clouds 20 1016 78 16093 2.36 49 18:22 14.03.2020
1344 Clouds 21 1016 77 16093 2.1 330 17:44 14.03.2020
1345 Clouds 21 1016 77 16093 2.1 330 17:24 14.03.2020
1346 Clouds 21 1015 77 16093 3.6 330 17:00 14.03.2020
1347 Clouds 21 1015 77 16093 3.6 330 16:40 14.03.2020
1348 Clouds 21 1015 77 16093 3.6 330 16:21 14.03.2020
1349 Clouds 21 1015 77 16093 3.6 330 16:21 14.03.2020
1350 Clouds 21 1016 73 16093 2.6 310 15:51 14.03.2020
1351 Clouds 21 1016 73 16093 2.6 310 15:25 14.03.2020
1352 Clouds 21 1015 78 16093 1.74 57 14:45 14.03.2020
1353 Clouds 21 1015 78 16093 1.74 57 14:23 14.03.2020
1354 Clouds 21 1015 73 16093 1.5 150 13:57 14.03.2020
1355 Clouds 21 1016 68 16093 3.1 340 13:39 14.03.2020
1356 Clouds 21 1016 68 16093 3.1 340 13:20 14.03.2020
1357 Clouds 21 1016 73 16093 3.1 320 12:45 14.03.2020
1358 Clouds 21 1016 73 16093 3.1 320 12:26 14.03.2020
1359 Clouds 21 1017 73 16093 2.6 340 11:48 14.03.2020
1360 Clouds 21 1017 73 16093 2.6 340 11:48 14.03.2020
1361 Clouds 21 1017 73 16093 2.6 340 11:28 14.03.2020
1362 Clouds 21 1017 73 16093 2.6 340 10:59 14.03.2020
1363 Clear 21 1017 73 16093 4.1 340 10:41 14.03.2020
1364 Clear 21 1017 73 16093 4.1 340 10:23 14.03.2020
1365 Clear 21 1017 69 16093 2.6 350 09:44 14.03.2020
1366 Clear 22 1017 69 16093 2.6 350 09:24 14.03.2020
1367 Clouds 21 1017 88 16093 2.6 340 08:48 14.03.2020
1368 Clouds 21 1016 78 16093 4.1 350 08:29 14.03.2020
1369 Rain 22 1016 69 16093 3.1 340 07:55 14.03.2020
1370 Rain 22 1016 69 16093 3.1 340 07:37 14.03.2020
1371 Rain 22 1016 69 16093 3.1 340 07:18 14.03.2020
1372 Clouds 22 1016 94 16093 2.6 290 06:40 14.03.2020
1373 Clouds 22 1014 78 11265 2.1 300 05:19 14.03.2020
1374 Rain 23 1013 73 16093 3.6 20 03:43 14.03.2020
1375 Rain 24 1013 65 16093 3.6 30 03:23 14.03.2020
1376 Clouds 25 1013 61 16093 4.6 40 02:20 14.03.2020
1377 Clouds 26 1014 65 16093 4.1 160 00:42 14.03.2020
1378 Clouds 25 1015 83 16093 4.6 320 23:45 13.03.2020
1379 Clouds 25 1015 83 16093 4.6 320 23:26 13.03.2020
1380 Clouds 25 1016 83 16093 3.6 300 22:47 13.03.2020
1381 Clouds 25 1015 61 16093 2.54 32 22:25 13.03.2020
1382 Clouds 24 1015 69 16093 3.6 350 21:43 13.03.2020
1383 Clouds 24 1015 69 16093 3.6 350 21:21 13.03.2020
1384 Clouds 24 1015 69 16093 2.6 350 20:57 13.03.2020
1385 Clouds 23 1015 73 16093 1.5 360 20:38 13.03.2020
1386 Clouds 23 1015 73 16093 1.5 360 20:19 13.03.2020
1387 Clouds 21 1015 100 16093 3.1 330 19:42 13.03.2020
1388 Clouds 21 1015 100 16093 3.1 330 19:42 13.03.2020
1389 Clouds 20 1015 100 16093 3.1 330 19:23 13.03.2020
1390 Clouds 20 1015 100 16093 3.1 330 19:23 13.03.2020
1391 Clouds 20 1014 78 16093 1.11 28 18:44 13.03.2020
1392 Clouds 20 1014 88 16093 1.11 28 18:25 13.03.2020
1393 Clouds 20 1013 83 16093 1.5 350 17:55 13.03.2020
1394 Clouds 20 1013 83 16093 1.5 350 17:37 13.03.2020
1395 Clouds 20 1013 88 16093 0.54 344 17:18 13.03.2020
1396 Clouds 20 1013 88 16093 0.54 344 16:40 13.03.2020
1397 Clouds 20 1013 88 16093 0.54 344 16:22 13.03.2020
1398 Clouds 20 1015 100 12874 2.1 330 15:54 13.03.2020
1399 Clouds 20 1013 88 16093 0.54 344 15:36 13.03.2020
1400 Clouds 20 1013 88 16093 0.54 344 15:18 13.03.2020
1401 Clouds 21 1014 88 16093 0.54 344 14:40 13.03.2020
1402 Clouds 20 1013 88 16093 0.4 97 14:22 13.03.2020
1403 Clouds 20 1014 83 16093 0.4 97 13:55 13.03.2020
1404 Clouds 20 1014 83 16093 0.4 97 13:36 13.03.2020
1405 Clouds 20 1014 83 16093 0.97 168 13:18 13.03.2020
1406 Clouds 21 1014 88 16093 0.97 168 12:39 13.03.2020
1407 Clouds 21 1014 88 16093 0.97 168 12:39 13.03.2020
1408 Clouds 21 1014 88 16093 0.97 168 12:20 13.03.2020
1409 Clouds 21 1014 88 16093 0.97 168 11:57 13.03.2020
1410 Rain 21 1014 88 16093 2.1 10 11:37 13.03.2020
1411 Rain 21 1015 100 16093 1.39 183 11:19 13.03.2020
1412 Rain 21 1015 100 16093 1.39 183 10:47 13.03.2020
1413 Rain 21 1015 100 16093 1.39 183 10:26 13.03.2020
1414 Clouds 21 1015 83 16093 1.5 10 09:49 13.03.2020
1415 Clouds 22 1015 83 16093 1.5 10 09:30 13.03.2020
1416 Clouds 21 1015 100 16093 1.39 183 08:59 13.03.2020
1417 Clouds 21 1015 100 16093 1.39 183 08:41 13.03.2020
1418 Clouds 22 1014 83 16093 2.1 30 08:22 13.03.2020
1419 Clouds 22 1015 88 16093 1.92 189 07:44 13.03.2020
1420 Clouds 21 1014 100 16093 1.5 90 07:25 13.03.2020
1421 Clouds 21 1014 94 16093 1.5 120 06:46 13.03.2020
1422 Clouds 21 1014 94 16093 1.5 120 06:46 13.03.2020
1423 Clouds 21 1014 94 16093 1.5 120 06:23 13.03.2020
1424 Rain 21 1013 94 16093 1.5 110 05:46 13.03.2020
1425 Rain 22 1013 100 16093 2.1 140 04:57 13.03.2020
1426 Rain 22 1013 83 4828 4.6 160 04:26 13.03.2020
1427 Clouds 24 1012 88 16093 2.6 150 02:43 13.03.2020
1428 Rain 24 1013 73 16093 2.1 0 01:37 13.03.2020
1429 Rain 24 1013 73 16093 2.1 0 01:18 13.03.2020
1430 Clouds 23 1013 94 16093 2.6 140 00:41 13.03.2020
1431 Clouds 23 1013 94 16093 2.6 140 00:19 13.03.2020
1432 Rain 22 1015 100 16093 4.1 150 23:38 12.03.2020
1433 Rain 22 1015 100 16093 4.1 150 23:19 12.03.2020
1434 Rain 23 1014 73 4828 2.74 189 22:46 12.03.2020
1435 Rain 23 1015 94 16093 2.6 120 22:27 12.03.2020
1436 Clouds 23 1015 94 16093 1.5 110 21:56 12.03.2020
1437 Rain 22 1015 94 16093 1.5 110 21:38 12.03.2020
1438 Rain 22 1015 83 16093 3.1 0 21:20 12.03.2020
1439 Drizzle 22 1015 100 12874 2.1 140 20:42 12.03.2020
1440 Rain 22 1015 78 16093 1.5 0 20:20 12.03.2020
1441 Rain 21 1015 94 2816 1.5 30 19:42 12.03.2020
1442 Rain 21 1015 88 4828 0.77 117 19:21 12.03.2020
1443 Clouds 20 1014 100 16093 0.77 117 18:58 12.03.2020
1444 Clouds 20 1014 100 14484 0.77 117 18:39 12.03.2020
1445 Rain 20 1014 83 16093 2.1 350 18:21 12.03.2020
1446 Rain 20 1014 88 16093 2.1 10 17:41 12.03.2020
1447 Rain 20 1014 88 16093 2.1 10 17:22 12.03.2020
1448 Rain 20 1014 100 16093 1.04 111 16:58 12.03.2020
1449 Rain 20 1013 88 16093 1.5 40 16:40 12.03.2020
1450 Rain 20 1013 88 16093 1.5 40 16:21 12.03.2020
1451 Rain 20 1014 93 16093 1.04 111 15:48 12.03.2020
1452 Rain 20 1014 93 16093 1.04 111 15:28 12.03.2020
1453 Rain 20 1014 93 16093 1.04 111 15:28 12.03.2020
1454 Rain 19 1014 73 16093 1.04 111 14:54 12.03.2020
1455 Rain 20 1014 73 16093 1.04 111 14:54 12.03.2020
1456 Rain 20 1014 73 16093 1.04 111 14:54 12.03.2020
1457 Rain 20 1014 73 16093 1.04 111 14:36 12.03.2020
1458 Rain 20 1014 73 16093 0.69 33 14:18 12.03.2020
1459 Clouds 20 1014 78 16093 1.5 340 13:38 12.03.2020
1460 Clouds 20 1014 78 16093 1.5 340 13:20 12.03.2020
1461 Clouds 21 1015 78 16093 0.8 73 12:43 12.03.2020
1462 Clouds 21 1015 78 16093 0.8 73 12:23 12.03.2020
1463 Clouds 21 1015 78 16093 0.8 73 11:59 12.03.2020
1464 Clouds 21 1015 78 16093 0.8 73 11:39 12.03.2020
1465 Clouds 21 1015 78 16093 0.8 73 11:21 12.03.2020
1466 -273 0 0 0 0 0 11:21 12.03.2020
1467 Clouds 21 1016 73 16093 1.5 0 10:59 12.03.2020
1468 Clouds 21 1016 73 16093 1.5 0 10:41 12.03.2020
1469 Clouds 21 1016 73 16093 1.5 0 10:22 12.03.2020
1470 Rain 21 1016 69 16093 2.6 320 09:48 12.03.2020
1471 Rain 21 1016 69 16093 2.6 320 09:28 12.03.2020
1472 Rain 21 1016 69 16093 2.6 320 09:28 12.03.2020
1473 Rain 21 1015 78 8047 3.1 60 08:54 12.03.2020
1474 Rain 22 1016 69 16093 2.1 330 08:36 12.03.2020
1475 Rain 21 1016 69 16093 2.1 330 08:18 12.03.2020
1476 Rain 22 1015 78 9656 1.03 6 07:45 12.03.2020
1477 Rain 21 1015 83 2414 3.1 130 07:21 12.03.2020
1478 Clouds 23 1015 69 16093 2.6 50 05:57 12.03.2020
1479 Rain 24 1014 61 16093 2.1 0 05:27 12.03.2020
1480 Clouds 27 1013 57 16093 3.1 40 02:43 12.03.2020
1481 Rain 26 1015 54 16093 8.7 220 01:38 12.03.2020
1482 Rain 26 1015 54 16093 8.7 220 01:20 12.03.2020
1483 Clouds 27 1015 57 16093 2.1 40 00:41 12.03.2020
1484 Clouds 26 1017 57 16093 6.2 210 23:56 11.03.2020
1485 Clouds 26 1017 57 16093 6.2 210 23:26 11.03.2020
1486 Clouds 26 1017 69 16093 2.71 305 22:55 11.03.2020
1487 Clouds 25 1017 69 16093 1.5 300 22:37 11.03.2020
1488 Clouds 25 1017 69 16093 1.5 300 22:18 11.03.2020
1489 Clouds 25 1018 73 16093 2.71 305 21:41 11.03.2020
1490 Clouds 25 1018 69 16093 3.6 280 21:23 11.03.2020
1491 Clouds 24 1017 78 16093 1.5 200 20:59 11.03.2020
1492 Clouds 24 1017 69 16093 3.6 310 20:40 11.03.2020
1493 Clouds 24 1017 69 16093 3.6 310 20:20 11.03.2020
1494 Clouds 23 1018 69 16093 2.1 310 19:57 11.03.2020
1495 Clouds 22 1017 78 16093 2.6 350 19:38 11.03.2020
1496 Clouds 22 1017 78 16093 2.6 350 19:38 11.03.2020
1497 Clouds 21 1017 78 16093 2.6 350 19:20 11.03.2020
1498 Clouds 19 1016 82 16093 1.5 340 18:43 11.03.2020
1499 Clouds 19 1016 82 16093 1.5 340 18:24 11.03.2020
1500 Clouds 19 1016 82 16093 1.06 232 17:59 11.03.2020
1501 Clouds 19 1016 82 16093 1.06 232 17:39 11.03.2020
1502 Clouds 19 1016 82 16093 0.55 248 17:20 11.03.2020
1503 Clouds 19 1016 88 16093 1.5 20 16:47 11.03.2020
1504 Clouds 19 1016 82 16093 0.55 248 16:23 11.03.2020
1505 Clouds 19 1016 82 16093 2.1 340 15:59 11.03.2020
1506 Clouds 19 1016 82 16093 2.1 340 15:40 11.03.2020
1507 Clouds 19 1016 82 16093 2.1 340 15:21 11.03.2020
1508 Clear 19 1016 82 16093 2.1 340 14:42 11.03.2020
1509 Clear 19 1016 82 16093 2.1 340 14:22 11.03.2020
1510 Clear 18 1016 82 16093 0.87 119 13:45 11.03.2020
1511 Clear 18 1016 82 16093 0.87 119 13:27 11.03.2020
1512 Clouds 20 1017 73 16093 1.5 340 12:58 11.03.2020
1513 Clouds 20 1017 73 16093 1.5 340 12:40 11.03.2020
1514 Clouds 20 1017 73 16093 1.5 340 12:19 11.03.2020
1515 Clouds 20 1017 73 16093 1.5 340 12:19 11.03.2020
1516 Clouds 20 1018 73 16093 2.1 360 11:42 11.03.2020
1517 Clouds 20 1018 73 16093 2.1 360 11:24 11.03.2020
1518 Clouds 20 1018 77 16093 2.1 10 10:59 11.03.2020
1519 Clouds 20 1018 77 16093 2.1 10 10:41 11.03.2020
1520 Clouds 20 1018 77 16093 2.1 10 10:18 11.03.2020
1521 Clouds 21 1017 73 16093 1.02 81 09:42 11.03.2020
1522 Clouds 21 1017 73 16093 1.02 81 09:24 11.03.2020
1523 Clouds 21 1018 69 16093 1.02 81 08:45 11.03.2020
1524 Clouds 21 1018 69 16093 1.02 81 08:27 11.03.2020
1525 Clouds 22 1017 69 16093 1.5 20 07:56 11.03.2020
1526 Clouds 22 1017 69 16093 1.5 20 07:37 11.03.2020
1527 Clouds 22 1017 69 16093 1.5 20 07:18 11.03.2020
1528 Clouds 22 1016 73 16093 1.5 300 06:37 11.03.2020
1529 Clouds 23 1016 60 16093 1.5 220 05:33 11.03.2020
1530 Drizzle 24 1015 78 16093 2.1 320 03:39 11.03.2020
1531 Clouds 25 1016 69 16093 2.6 180 01:57 11.03.2020
1532 Clouds 25 1015 57 16093 4.6 80 01:25 11.03.2020
1533 Clouds 26 1016 65 16093 3.1 210 00:45 11.03.2020
1534 Clouds 25 1018 57 16093 4.1 160 23:51 10.03.2020
1535 Clouds 25 1018 57 16093 4.1 160 23:51 10.03.2020
1536 Clouds 25 1018 57 16093 4.1 160 23:29 10.03.2020
1537 Clouds 25 1018 57 16093 3.6 200 22:59 10.03.2020
1538 Clouds 25 1018 57 16093 3.6 200 22:38 10.03.2020
1539 Clouds 25 1018 57 16093 3.6 200 22:19 10.03.2020
1540 Clouds 25 1018 57 16093 3.6 200 22:19 10.03.2020
1541 Clouds 25 1018 69 16093 2.1 100 21:56 10.03.2020
1542 Clouds 25 1018 69 16093 2.1 100 21:38 10.03.2020
1543 Clouds 25 1018 69 16093 2.1 100 21:19 10.03.2020
1544 Clouds 23 1018 69 16093 1.5 300 20:54 10.03.2020
1545 Clouds 23 1018 69 16093 1.5 300 20:36 10.03.2020
1546 Clouds 23 1018 69 16093 1.5 300 20:18 10.03.2020
1547 Clear 21 1018 100 16093 2.17 88 19:42 10.03.2020
1548 Clear 21 1018 100 16093 2.17 88 19:42 10.03.2020
1549 Clear 21 1018 100 16093 2.17 88 19:23 10.03.2020
1550 Clouds 20 1017 82 16093 2.6 350 18:58 10.03.2020
1551 Clouds 19 1017 82 16093 2.6 350 18:40 10.03.2020
1552 Clouds 19 1017 82 16093 2.6 350 18:21 10.03.2020
1553 Clouds 19 1017 82 16093 1.5 360 17:56 10.03.2020
1554 Clouds 19 1017 82 16093 1.5 360 17:37 10.03.2020
1555 Clouds 19 1017 82 16093 1.5 360 17:18 10.03.2020
1556 Clouds 20 1016 77 16093 1.62 84 16:38 10.03.2020
1557 Clouds 20 1016 77 16093 1.62 84 16:18 10.03.2020
1558 Clouds 20 1016 77 16093 1.62 84 16:18 10.03.2020
1559 Clouds 20 1016 77 16093 1.62 84 15:42 10.03.2020
1560 Clouds 20 1016 77 16093 1.62 84 15:20 10.03.2020
1561 Rain 20 1016 77 16093 2.1 320 14:59 10.03.2020
1562 Rain 20 1016 77 16093 2.1 320 14:40 10.03.2020
1563 Rain 20 1016 77 16093 2.1 320 14:19 10.03.2020
1564 Rain 20 1017 73 16093 2.06 89 13:44 10.03.2020
1565 Rain 20 1017 73 16093 2.06 89 13:25 10.03.2020
1566 Clouds 20 1017 73 16093 1.99 88 12:55 10.03.2020
1567 Clouds 20 1017 73 16093 1.99 88 12:37 10.03.2020
1568 Clouds 20 1017 73 16093 1.99 88 12:18 10.03.2020
1569 Rain 21 1018 68 16093 2.6 50 11:42 10.03.2020
1570 Rain 21 1018 68 16093 2.6 50 11:24 10.03.2020
1571 Rain 21 1018 68 16093 2.6 50 11:24 10.03.2020
1572 Rain 21 1018 77 16093 3.1 80 10:56 10.03.2020
1573 Rain 21 1018 77 16093 3.1 80 10:38 10.03.2020
1574 Clouds 21 1018 77 16093 3.1 80 10:19 10.03.2020
1575 Clouds 21 1018 68 16093 3.1 70 09:45 10.03.2020
1576 Clouds 21 1018 68 16093 3.1 70 09:20 10.03.2020
1577 Clouds 21 1018 68 16093 5.1 50 08:54 10.03.2020
1578 Clouds 21 1018 68 16093 5.1 50 08:36 10.03.2020
1579 Rain 21 1017 68 16093 5.1 70 07:58 10.03.2020
1580 Rain 21 1017 68 16093 5.1 70 07:40 10.03.2020
1581 Rain 21 1017 68 16093 5.1 70 07:19 10.03.2020
1582 Rain 21 1017 88 16093 2.1 70 06:37 10.03.2020
1583 Clouds 22 1017 82 16093 3.75 74 05:42 10.03.2020
1584 Clouds 22 1016 82 16093 2.6 70 04:59 10.03.2020
1585 Clouds 22 1016 77 16093 4.1 70 04:29 10.03.2020
1586 Rain 23 1016 77 16093 3.6 60 02:58 10.03.2020
1587 Rain 24 1017 60 16093 6.2 80 01:32 10.03.2020
1588 Rain 23 1018 54 16093 5.7 60 00:50 10.03.2020
1589 Rain 23 1018 54 16093 5.7 60 00:28 10.03.2020
1590 Rain 23 1018 54 16093 5.7 60 00:28 10.03.2020
1591 Rain 24 1019 94 16093 4.6 60 23:42 09.03.2020
1592 Rain 23 1019 94 16093 4.6 60 23:22 09.03.2020
1593 Drizzle 22 1020 94 9656 2.1 20 22:57 09.03.2020
1594 Drizzle 23 1020 88 11265 3.1 60 22:37 09.03.2020
1595 Drizzle 23 1020 88 11265 3.1 60 22:18 09.03.2020
1596 Clouds 22 1020 93 16093 3.1 80 21:43 09.03.2020
1597 Rain 22 1020 69 16093 3.6 350 21:22 09.03.2020
1598 Clouds 21 1020 93 16093 1.5 310 20:58 09.03.2020
1599 Rain 21 1019 93 16093 1.5 310 20:40 09.03.2020
1600 Rain 21 1019 93 16093 1.5 310 20:20 09.03.2020
1601 Drizzle 20 1019 93 16093 2.1 350 19:45 09.03.2020
1602 Rain 20 1018 78 6437 4.6 70 19:26 09.03.2020
1603 Clouds 20 1019 93 16093 1.5 360 18:59 09.03.2020
1604 Clouds 20 1018 69 16093 6.2 40 18:40 09.03.2020
1605 Clouds 20 1018 69 16093 6.2 40 18:20 09.03.2020
1606 Clouds 20 1018 73 16093 3.1 340 17:58 09.03.2020
1607 Clouds 20 1018 73 16093 3.1 340 17:38 09.03.2020
1608 Clouds 20 1018 60 16093 3.6 40 17:20 09.03.2020
1609 Clouds 21 1018 60 16093 3.6 40 16:58 09.03.2020
1610 Clouds 21 1018 60 16093 3.6 40 16:40 09.03.2020
1611 Drizzle 21 1018 88 16093 2.6 350 16:22 09.03.2020
1612 Drizzle 21 1018 88 16093 2.6 350 15:58 09.03.2020
1613 Clouds 21 1018 60 16093 3.1 30 15:39 09.03.2020
1614 Clouds 21 1018 60 16093 3.1 30 15:20 09.03.2020
1615 Clouds 21 1018 60 16093 3.6 30 14:55 09.03.2020
1616 Clouds 21 1018 60 16093 3.6 30 14:37 09.03.2020
1617 Clouds 21 1018 60 16093 3.6 30 14:18 09.03.2020
1618 Clouds 21 1019 60 16093 2.6 30 13:55 09.03.2020
1619 Clouds 21 1019 60 16093 2.6 30 13:37 09.03.2020
1620 Clouds 21 1019 60 16093 2.6 30 13:18 09.03.2020
1621 Clouds 21 1019 60 16093 2.6 30 13:18 09.03.2020
1622 Clouds 21 1019 60 16093 2.6 30 13:18 09.03.2020
1623 Clouds 21 1019 60 16093 4.1 20 12:42 09.03.2020
1624 Clouds 21 1019 60 16093 4.1 20 12:22 09.03.2020
1625 Clouds 21 1019 60 16093 4.1 20 12:22 09.03.2020
1626 Clouds 21 1020 56 16093 5.1 60 11:42 09.03.2020
1627 Clouds 22 1020 56 16093 5.1 60 11:22 09.03.2020
1628 Clouds 22 1020 56 16093 6.7 50 10:59 09.03.2020
1629 Clouds 22 1020 56 16093 6.7 50 10:40 09.03.2020
1630 Clouds 22 1020 56 16093 6.7 50 10:40 09.03.2020
1631 Clouds 22 1020 56 16093 6.7 50 10:20 09.03.2020
1632 Clouds 21 1020 72 16093 5.1 40 09:57 09.03.2020
1633 Clouds 22 1020 72 16093 5.1 40 09:37 09.03.2020
1634 Clouds 22 1020 72 16093 5.1 40 09:19 09.03.2020
1635 Clouds 21 1020 72 16093 3.1 10 08:42 09.03.2020
1636 Clouds 21 1020 72 16093 3.1 10 08:23 09.03.2020
1637 Clouds 21 1019 53 16093 8.2 50 07:41 09.03.2020
1638 Clouds 21 1019 53 16093 8.2 50 07:21 09.03.2020
1639 Clouds 21 1019 53 16093 6.2 50 06:43 09.03.2020
1640 Clouds 21 1019 53 16093 6.2 50 06:24 09.03.2020
1641 Clouds 22 1019 47 16093 8.7 60 05:47 09.03.2020
1642 Clouds 22 1019 47 16093 8.7 60 05:20 09.03.2020
1643 Clouds 23 1018 47 16093 6.7 40 04:40 09.03.2020
1644 Clouds 23 1018 47 16093 6.7 40 04:21 09.03.2020
1645 Clouds 24 1019 47 16093 8.2 60 02:58 09.03.2020
1646 Clouds 23 1019 53 16093 5.1 30 01:18 09.03.2020
1647 Clouds 23 1020 64 16093 7.2 70 00:37 09.03.2020
1648 Clouds 24 1020 64 16093 7.2 70 00:19 09.03.2020
1649 Clouds 24 1022 44 16093 8.2 60 23:42 08.03.2020
1650 Clouds 24 1022 44 16093 8.2 60 23:21 08.03.2020
1651 Clouds 23 1022 44 16093 7.7 70 22:55 08.03.2020
1652 Clouds 23 1022 44 16093 7.7 70 22:37 08.03.2020
1653 Clouds 23 1022 44 16093 7.7 70 22:18 08.03.2020
1654 Clouds 23 1022 41 16093 6.2 40 21:42 08.03.2020
1655 Clouds 23 1022 41 16093 6.2 40 21:42 08.03.2020
1656 Clouds 23 1022 41 16093 6.2 40 21:23 08.03.2020
1657 Clouds 23 1022 49 16093 7.7 50 20:58 08.03.2020
1658 Clouds 23 1022 49 16093 7.7 50 20:38 08.03.2020
1659 Clouds 23 1022 49 16093 7.7 50 20:20 08.03.2020
1660 Clouds 22 1022 46 16093 4.6 60 19:40 08.03.2020
1661 Clouds 22 1022 46 16093 4.6 60 19:20 08.03.2020
1662 Clouds 21 1021 53 16093 4.6 40 18:57 08.03.2020
1663 Clouds 21 1021 53 16093 4.6 40 18:38 08.03.2020
1664 Clouds 21 1021 53 16093 4.6 40 18:20 08.03.2020
1665 Clouds 21 1017 67 0 7.3 67 17:41 08.03.2020
1666 Clouds 21 1021 49 16093 5.7 50 17:22 08.03.2020
1667 Clouds 21 1021 49 16093 5.7 50 16:59 08.03.2020
1668 Clouds 21 1021 49 16093 5.7 50 16:40 08.03.2020
1669 Clouds 21 1021 49 16093 5.7 50 16:22 08.03.2020
1670 Clouds 21 1021 46 16093 7.7 70 15:41 08.03.2020
1671 Clouds 21 1021 46 16093 7.7 70 15:22 08.03.2020
1672 Clouds 21 1021 46 16093 6.7 60 14:59 08.03.2020
1673 Clouds 21 1021 46 16093 6.7 60 14:38 08.03.2020
1674 Clouds 21 1021 46 16093 6.7 60 14:19 08.03.2020
1675 Clouds 22 1022 53 16093 5.1 50 13:42 08.03.2020
1676 Clouds 22 1022 53 16093 5.1 50 13:42 08.03.2020
1677 Clouds 22 1022 53 16093 5.1 50 13:21 08.03.2020
1678 Clouds 22 1022 53 16093 5.1 50 12:57 08.03.2020
1679 Clouds 21 1022 49 16093 6.7 30 12:37 08.03.2020
1680 Clouds 22 1022 49 16093 6.7 30 12:18 08.03.2020
1681 Clouds 21 1023 53 16093 5.7 60 11:41 08.03.2020
1682 Clouds 22 1023 60 16093 4.6 60 11:21 08.03.2020
1683 Clouds 22 1023 60 16093 4.6 60 10:57 08.03.2020
1684 Clouds 22 1023 60 16093 4.6 60 10:39 08.03.2020
1685 Clouds 22 1023 60 16093 4.6 60 10:20 08.03.2020
1686 Drizzle 22 1023 77 16093 4.6 50 09:38 08.03.2020
1687 Clouds 22 1023 60 16093 9.3 60 09:20 08.03.2020
1688 Clouds 22 1023 56 16093 5.7 50 08:42 08.03.2020
1689 Clouds 22 1023 56 16093 5.7 50 08:21 08.03.2020
1690 Clouds 22 1023 56 16093 7.2 60 07:45 08.03.2020
1691 Clouds 22 1023 56 16093 7.2 60 07:45 08.03.2020
1692 Clouds 22 1023 56 16093 7.2 60 07:26 08.03.2020
1693 Clouds 22 1022 56 16093 6.2 70 06:43 08.03.2020
1694 Clouds 22 1022 56 16093 6.2 70 06:24 08.03.2020
1695 Clouds 22 1022 50 16093 8.7 70 05:43 08.03.2020
1696 Clouds 24 1022 44 16093 9.8 60 03:52 08.03.2020
1697 Clouds 24 1022 36 16093 10.3 50 02:38 08.03.2020
1698 Clouds 25 1022 39 16093 9.3 60 01:35 08.03.2020
1699 Clouds 25 1022 39 16093 9.3 60 00:58 08.03.2020
1700 Clouds 25 1023 41 16093 9.3 60 00:28 08.03.2020
1701 Clouds 23 1024 44 16093 10.3 50 23:48 07.03.2020
1702 Clouds 24 1024 44 16093 10.3 50 23:26 07.03.2020
1703 Clouds 24 1024 44 16093 10.3 50 22:56 07.03.2020
1704 Clouds 24 1024 47 16093 6.7 50 22:37 07.03.2020
1705 Clouds 24 1024 47 16093 6.7 50 22:19 07.03.2020
1706 Clouds 23 1025 82 16093 5.1 60 21:43 07.03.2020
1707 Rain 23 1024 57 16093 9.8 50 21:19 07.03.2020
1708 Rain 23 1024 60 16093 7.7 60 20:41 07.03.2020
1709 Rain 23 1024 60 16093 7.7 60 20:21 07.03.2020
1710 Rain 21 1024 93 11265 1.5 170 19:41 07.03.2020
1711 Rain 21 1024 93 11265 1.5 170 19:22 07.03.2020
1712 Drizzle 21 1024 88 16093 8.79 68 18:58 07.03.2020
1713 Rain 21 1023 68 16093 7.7 70 18:39 07.03.2020
1714 Rain 21 1023 68 16093 7.7 70 18:20 07.03.2020
1715 Rain 21 1023 88 16093 8.79 68 17:41 07.03.2020
1716 Rain 21 1023 88 16093 8.01 68 17:19 07.03.2020
1717 Drizzle 21 1022 88 16093 8.01 68 16:56 07.03.2020
1718 Rain 20 1022 68 16093 6.2 60 16:38 07.03.2020
1719 Rain 21 1022 68 16093 6.2 60 16:19 07.03.2020
1720 Drizzle 21 1022 88 16093 8.01 68 15:41 07.03.2020
1721 Rain 21 1022 68 16093 7.2 60 15:22 07.03.2020
1722 Drizzle 20 1022 88 16093 3.1 40 14:59 07.03.2020
1723 Drizzle 20 1022 88 16093 3.1 40 14:40 07.03.2020
1724 Rain 21 1022 68 16093 5.1 60 14:22 07.03.2020
1725 Drizzle 21 1023 88 16093 3.6 40 13:42 07.03.2020
1726 Rain 21 1022 73 16093 7.7 60 13:21 07.03.2020
1727 Rain 21 1022 69 16093 8.7 70 12:55 07.03.2020
1728 Rain 21 1022 73 9656 4.6 90 12:37 07.03.2020
1729 Rain 21 1022 73 9656 4.6 90 12:18 07.03.2020
1730 Rain 22 1023 61 16093 5.7 80 11:41 07.03.2020
1731 Rain 22 1023 61 16093 5.7 80 11:23 07.03.2020
1732 Rain 22 1023 93 16093 2.6 340 10:56 07.03.2020
1733 Rain 22 1023 68 16093 8.2 60 10:36 07.03.2020
1734 Rain 22 1023 68 16093 8.2 60 10:18 07.03.2020
1735 Rain 22 1023 88 12874 10.3 60 09:40 07.03.2020
1736 Rain 22 1023 88 12874 10.3 60 09:19 07.03.2020
1737 Rain 22 1022 64 16093 8.2 50 08:56 07.03.2020
1738 Rain 22 1022 64 16093 8.2 50 08:38 07.03.2020
1739 Rain 22 1022 64 16093 8.2 50 08:19 07.03.2020
1740 Rain 22 1023 93 11265 5.7 80 07:44 07.03.2020
1741 Clear 22 1019 75 0 9.28 73 07:21 07.03.2020
1742 Clear 22 1018 74 0 0.45 76 06:38 07.03.2020
1743 Clear 22 1018 72 0 0.45 354 05:57 07.03.2020
1744 Drizzle 21 1021 88 14484 4.6 70 05:35 07.03.2020
1745 Rain 24 1017 75 0 9.56 71 02:58 07.03.2020
1746 Rain 23 1016 76 0 9.56 71 02:39 07.03.2020
1747 Rain 24 1020 57 16093 8.2 60 01:47 07.03.2020
1748 Rain 25 1021 88 11265 5.7 70 00:42 07.03.2020
1749 Rain 26 1021 54 16093 9.8 60 00:23 07.03.2020
1750 Drizzle 25 1021 94 14484 8.2 70 23:56 06.03.2020
1751 Drizzle 25 1022 94 14484 5.7 70 23:38 06.03.2020
1752 Drizzle 25 1022 94 14484 5.7 70 23:19 06.03.2020
1753 Rain 24 1022 65 16093 10.3 50 22:42 06.03.2020
1754 Rain 24 1022 65 16093 10.3 50 22:18 06.03.2020
1755 Rain 23 1022 94 6437 3.6 100 21:45 06.03.2020
1756 Rain 23 1022 73 4828 7.7 90 21:19 06.03.2020
1757 Rain 22 1021 69 6437 6.2 90 20:40 06.03.2020
1758 Rain 22 1021 69 6437 6.2 90 20:21 06.03.2020
1759 Rain 22 1021 78 16093 6.7 60 19:54 06.03.2020
1760 Rain 22 1021 78 16093 6.7 60 19:34 06.03.2020
1761 Rain 21 1021 78 16093 6.7 60 18:59 06.03.2020
1762 Rain 21 1020 73 16093 6.2 50 18:41 06.03.2020
1763 Rain 21 1020 73 16093 6.2 50 18:19 06.03.2020
1764 Rain 21 1020 73 16093 6.2 50 18:19 06.03.2020
1765 Rain 21 1020 73 16093 6.2 50 17:55 06.03.2020
1766 Rain 21 1020 93 16093 3.6 50 17:36 06.03.2020
1767 Rain 21 1019 73 16093 5.7 70 17:18 06.03.2020
1768 Rain 21 1019 73 16093 5.7 70 16:42 06.03.2020
1769 Rain 21 1019 73 16093 5.7 70 16:20 06.03.2020
1770 Drizzle 21 1019 100 16093 1.5 330 15:45 06.03.2020
1771 Rain 21 1018 78 16093 6.7 50 15:25 06.03.2020
1772 Rain 21 1019 78 16093 4.1 50 14:55 06.03.2020
1773 Rain 21 1019 78 16093 4.1 50 14:37 06.03.2020
1774 Rain 21 1019 78 16093 4.1 50 14:19 06.03.2020
1775 Clouds 21 1019 100 16093 5.58 69 13:43 06.03.2020
1776 Drizzle 22 1019 100 16093 5.57 68 13:22 06.03.2020
1777 Clouds 21 1019 100 16093 5.57 68 12:57 06.03.2020
1778 Drizzle 21 1020 100 16093 5.57 68 12:38 06.03.2020
1779 Drizzle 22 1020 100 16093 5.57 68 12:19 06.03.2020
1780 Drizzle 22 1020 94 16093 3.6 80 11:57 06.03.2020
1781 Drizzle 22 1020 94 16093 3.6 80 11:38 06.03.2020
1782 Drizzle 22 1020 94 16093 3.6 80 11:38 06.03.2020
1783 Drizzle 22 1020 94 16093 3.6 80 11:19 06.03.2020
1784 Clouds 22 1020 73 16093 8.7 60 10:38 06.03.2020
1785 Clouds 22 1020 73 16093 8.7 60 10:20 06.03.2020
1786 Clouds 22 1020 94 16093 6.29 73 09:54 06.03.2020
1787 Clouds 22 1020 94 16093 6.29 73 09:36 06.03.2020
1788 Rain 22 1020 94 16093 6.29 73 09:18 06.03.2020
1789 Rain 22 1019 69 16093 4.1 50 08:41 06.03.2020
1790 Rain 22 1019 69 16093 4.1 50 08:23 06.03.2020
1791 Rain 22 1018 73 16093 5.7 20 07:47 06.03.2020
1792 Rain 23 1018 73 16093 5.7 20 07:26 06.03.2020
1793 Clouds 23 1017 69 16093 7.7 50 06:51 06.03.2020
1794 Clouds 23 1017 69 16093 7.7 50 06:33 06.03.2020
1795 Rain 23 1017 69 16093 5.1 50 05:42 06.03.2020
1796 Rain 23 1017 69 16093 5.1 50 05:21 06.03.2020
1797 Rain 23 1017 83 16093 2.1 50 04:53 06.03.2020
1798 Clouds 26 1016 65 16093 5.7 70 01:56 06.03.2020
1799 Rain 26 1016 73 16093 5.1 80 01:38 06.03.2020
1800 Rain 26 1016 73 16093 5.1 80 01:18 06.03.2020
1801 Drizzle 25 1017 73 16093 3.1 130 00:32 06.03.2020
1802 Clouds 27 1018 54 16093 4.1 170 23:47 05.03.2020
1803 Drizzle 27 1017 78 16093 4.1 320 23:29 05.03.2020
1804 Clouds 26 1018 73 16093 3.1 320 22:57 05.03.2020
1805 Clouds 26 1018 54 16093 4.1 180 22:38 05.03.2020
1806 Clouds 26 1018 54 16093 4.1 180 22:19 05.03.2020
1807 Clouds 26 1018 57 16093 0.53 36 21:56 05.03.2020
1808 Clouds 26 1018 57 16093 0.53 36 21:37 05.03.2020
1809 Clouds 26 1018 57 16093 0.53 36 21:19 05.03.2020
1810 Clouds 25 1018 69 16093 1.5 320 20:55 05.03.2020
1811 Clouds 25 1018 69 16093 1.5 320 20:36 05.03.2020
1812 Clouds 24 1018 69 16093 1.5 320 20:18 05.03.2020
1813 Clouds 21 1017 83 16093 1.5 330 19:40 05.03.2020
1814 Clouds 21 1017 83 16093 1.5 330 19:22 05.03.2020
1815 Clouds 20 1017 88 16093 2.1 340 19:00 05.03.2020
1816 Clouds 19 1017 88 16093 2.1 340 18:38 05.03.2020
1817 Clouds 19 1017 88 16093 2.1 340 18:19 05.03.2020
1818 Clouds 19 1016 82 16093 1.5 320 17:57 05.03.2020
1819 Clouds 19 1016 82 16093 1.5 320 17:39 05.03.2020
1820 Clouds 19 1016 82 16093 1.5 320 17:21 05.03.2020
1821 Clear 19 1016 88 16093 2.1 340 16:42 05.03.2020
1822 Clear 19 1016 88 16093 2.1 340 16:24 05.03.2020
1823 Clear 19 1016 88 16093 1.5 350 15:58 05.03.2020
1824 Clear 19 1016 88 16093 1.5 350 15:58 05.03.2020
1825 Clear 19 1016 88 16093 1.5 350 15:38 05.03.2020
1826 Clear 19 1016 88 16093 1.5 350 15:20 05.03.2020
1827 Clear 20 1016 82 16093 2.1 330 14:42 05.03.2020
1828 Clear 19 1016 82 16093 2.1 330 14:23 05.03.2020
1829 Clear 20 1016 77 16093 1.5 350 13:58 05.03.2020
1830 Clear 20 1016 77 16093 1.5 350 13:40 05.03.2020
1831 Clear 20 1016 77 16093 1.5 350 13:21 05.03.2020
1832 Clouds 20 1017 77 16093 0.96 30 12:55 05.03.2020
1833 Clouds 20 1017 77 16093 0.96 30 12:37 05.03.2020
1834 Clouds 20 1017 77 16093 0.96 30 12:18 05.03.2020
1835 Clouds 21 1017 78 16093 2.1 330 11:56 05.03.2020
1836 Clouds 21 1017 78 16093 2.1 330 11:36 05.03.2020
1837 Clouds 21 1017 78 16093 2.1 330 11:18 05.03.2020
1838 Clouds 21 1017 78 16093 0.62 20 10:55 05.03.2020
1839 Clouds 21 1017 78 16093 0.62 20 10:37 05.03.2020
1840 Clouds 21 1017 78 16093 0.62 20 10:19 05.03.2020
1841 Clouds 22 1017 78 16093 1.5 300 09:41 05.03.2020
1842 Clouds 22 1017 78 16093 1.5 300 09:22 05.03.2020
1843 Clouds 23 1017 78 16093 2.1 320 08:43 05.03.2020
1844 Clouds 23 1017 78 16093 2.1 320 08:24 05.03.2020
1845 Clouds 23 1016 65 16093 3.6 350 07:45 05.03.2020
1846 Clouds 23 1016 65 16093 3.6 350 07:22 05.03.2020
1847 Clouds 24 1015 74 16093 5.7 20 06:46 05.03.2020
1848 Clouds 24 1015 74 16093 5.7 20 06:46 05.03.2020
1849 Clouds 24 1015 74 16093 5.7 20 06:21 05.03.2020
1850 Rain 25 1015 74 6437 3.6 40 05:38 05.03.2020
1851 Clouds 25 1014 69 16093 1.5 350 04:25 05.03.2020
1852 Clouds 26 1014 69 16093 1.46 25 03:58 05.03.2020
1853 Clouds 27 1014 69 16093 1.46 25 03:18 05.03.2020
1854 Clouds 27 1015 61 16093 4.1 30 01:28 05.03.2020
1855 Clouds 27 1016 65 16093 3.6 40 00:56 05.03.2020
1856 Clouds 27 1017 65 16093 6.7 210 23:58 04.03.2020
1857 Clouds 27 1017 65 16093 6.7 210 23:58 04.03.2020
1858 Clouds 27 1017 65 16093 6.7 210 23:40 04.03.2020
1859 Clouds 27 1017 65 16093 6.7 210 23:21 04.03.2020
1860 Clouds 27 1018 74 16093 4.6 190 22:56 04.03.2020
1861 Clouds 27 1018 74 16093 4.6 190 22:37 04.03.2020
1862 Clouds 26 1018 74 16093 4.6 190 22:19 04.03.2020
1863 Clouds 26 1018 69 16093 3.1 350 21:55 04.03.2020
1864 Clouds 26 1018 69 16093 3.1 350 21:37 04.03.2020
1865 Clouds 26 1018 69 16093 3.1 350 21:18 04.03.2020
1866 Clouds 24 1018 78 16093 3.1 350 20:40 04.03.2020
1867 Clouds 24 1018 78 16093 3.1 350 20:40 04.03.2020
1868 Clouds 24 1018 78 16093 3.1 350 20:22 04.03.2020
1869 Clouds 22 1018 88 16093 2.6 350 19:57 04.03.2020
1870 Clouds 21 1018 88 16093 2.6 350 19:38 04.03.2020
1871 Clouds 21 1018 88 16093 2.6 350 19:20 04.03.2020
1872 Clouds 20 1017 83 16093 1.5 0 18:42 04.03.2020
1873 Clouds 20 1017 83 16093 1.5 0 18:23 04.03.2020
1874 Clouds 20 1017 83 16093 2.1 310 17:59 04.03.2020
1875 Clouds 20 1017 83 16093 2.1 310 17:39 04.03.2020
1876 Clouds 20 1017 83 16093 2.1 310 17:20 04.03.2020
1877 Clouds 20 1016 83 16093 1.5 0 16:55 04.03.2020
1878 Clouds 20 1016 83 16093 1.5 0 16:55 04.03.2020
1879 Clouds 20 1016 83 16093 1.5 0 16:36 04.03.2020
1880 Clouds 20 1016 83 16093 1.5 0 16:18 04.03.2020
1881 Clear 19 1016 83 16093 0.22 155 15:42 04.03.2020
1882 Clear 20 1016 83 16093 0.22 155 15:23 04.03.2020
1883 Clouds 20 1017 100 16093 0.22 155 14:57 04.03.2020
1884 Clouds 20 1017 100 16093 0.22 155 14:38 04.03.2020
1885 Clouds 20 1017 100 16093 1.36 90 14:19 04.03.2020
1886 Clear 21 1017 78 16093 1.5 350 13:57 04.03.2020
1887 Clear 20 1017 78 16093 1.5 350 13:39 04.03.2020
1888 Clear 20 1017 78 16093 1.5 350 13:39 04.03.2020
1889 Clear 21 1017 78 16093 1.5 350 13:20 04.03.2020
1890 Clouds 21 1017 93 16093 1.53 89 12:45 04.03.2020
1891 Clouds 21 1016 95 16093 3.6 120 12:27 04.03.2020
1892 Clouds 21 1017 95 16093 4.6 110 11:59 04.03.2020
1893 Clouds 22 1017 95 16093 3.1 100 11:41 04.03.2020
1894 Clouds 22 1017 94 16093 3.1 100 11:22 04.03.2020
1895 Clouds 22 1018 73 16093 1.6 92 10:57 04.03.2020
1896 Clouds 22 1018 73 16093 1.6 92 10:38 04.03.2020
1897 Clouds 22 1018 73 16093 1.6 92 10:18 04.03.2020
1898 Clouds 22 1018 94 16093 3.6 90 09:42 04.03.2020
1899 Clouds 22 1018 94 16093 3.6 90 09:21 04.03.2020
1900 Clouds 23 1018 94 16093 3.1 90 08:46 04.03.2020
1901 Clouds 23 1018 94 16093 3.1 90 08:26 04.03.2020
1902 Clouds 23 1017 65 16093 4.1 80 07:56 04.03.2020
1903 Clouds 23 1017 65 16093 4.1 80 07:37 04.03.2020
1904 Clouds 23 1017 65 16093 4.1 80 07:18 04.03.2020
1905 Clouds 24 1017 86 16093 3.1 90 06:41 04.03.2020
1906 Clouds 24 1017 61 16093 2.6 30 06:23 04.03.2020
1907 Clouds 24 1016 86 16093 2.6 90 05:47 04.03.2020
1908 Clouds 25 1016 61 16093 3.1 210 04:21 04.03.2020
1909 Clouds 26 1015 63 16093 3.1 60 03:38 04.03.2020
1910 Clouds 26 1016 61 16093 3.1 80 03:00 04.03.2020
1911 Clouds 26 1015 63 16093 3.6 40 02:37 04.03.2020
1912 Clouds 26 1015 49 16093 3.6 40 02:18 04.03.2020
1913 Clouds 26 1016 49 16093 4.1 40 01:50 04.03.2020
1914 Clouds 27 1016 56 16093 3.1 20 00:44 04.03.2020
1915 Clouds 27 1017 56 16093 2.1 20 00:24 04.03.2020
1916 Clouds 26 1018 57 16093 4.1 190 23:45 03.03.2020
1917 Clouds 26 1018 57 16093 4.1 190 23:27 03.03.2020
1918 Clouds 26 1019 57 16093 2.6 360 22:56 03.03.2020
1919 Clouds 26 1019 57 16093 2.6 360 22:38 03.03.2020
1920 Clouds 26 1019 57 16093 2.6 360 22:19 03.03.2020
1921 Clouds 25 1019 78 16093 2.1 300 21:56 03.03.2020
1922 Clouds 25 1019 78 16093 2.1 300 21:36 03.03.2020
1923 Clouds 25 1019 78 16093 2.1 300 21:18 03.03.2020
1924 Clouds 24 1019 65 16093 2.98 82 20:40 03.03.2020
1925 Clouds 24 1019 65 16093 3.42 83 20:20 03.03.2020
1926 Clouds 23 1018 78 16093 2.1 330 19:58 03.03.2020
1927 Clouds 22 1018 78 16093 2.1 330 19:37 03.03.2020
1928 Clouds 22 1018 78 16093 2.1 330 19:19 03.03.2020
1929 Clouds 20 1018 77 16093 2.1 330 18:58 03.03.2020
1930 Clouds 20 1018 77 16093 2.1 330 18:40 03.03.2020
1931 Clouds 20 1018 77 16093 2.1 330 18:20 03.03.2020
1932 Clouds 20 1017 77 16093 2.1 320 17:55 03.03.2020
1933 Clouds 20 1017 77 16093 2.1 320 17:37 03.03.2020
1934 Clouds 20 1017 77 16093 2.1 320 17:19 03.03.2020
1935 Rain 20 1017 78 16093 2.6 10 16:55 03.03.2020
1936 Rain 21 1017 78 16093 2.6 10 16:36 03.03.2020
1937 Rain 20 1017 78 16093 2.6 10 16:18 03.03.2020
1938 Rain 20 1017 78 16093 2.6 10 16:18 03.03.2020
1939 Clouds 20 1017 83 16093 2.1 350 15:43 03.03.2020
1940 Clouds 20 1017 83 16093 2.1 350 15:21 03.03.2020
1941 Clouds 20 1018 100 16093 2.01 85 14:55 03.03.2020
1942 Clouds 20 1017 83 16093 1.75 77 14:37 03.03.2020
1943 Clouds 20 1017 83 16093 1.47 83 14:18 03.03.2020
1944 Rain 20 1018 77 16093 1.5 300 13:42 03.03.2020
1945 Rain 21 1018 77 16093 1.5 300 13:24 03.03.2020
1946 Rain 21 1017 92 16093 1.47 83 12:55 03.03.2020
1947 Rain 21 1018 92 14484 1.5 310 12:37 03.03.2020
1948 Rain 21 1018 92 14484 1.5 310 12:18 03.03.2020
1949 Rain 21 1018 92 9656 2.6 280 11:39 03.03.2020
1950 Rain 21 1018 95 9656 2.6 280 11:20 03.03.2020
1951 Clouds 21 1019 95 16093 1.5 260 10:57 03.03.2020
1952 Clouds 21 1019 77 16093 2.1 340 10:39 03.03.2020
1953 Clouds 21 1019 77 16093 2.1 340 10:19 03.03.2020
1954 Clouds 20 1019 95 16093 1.41 107 09:45 03.03.2020
1955 Clouds 21 1019 77 16093 2.6 340 09:23 03.03.2020
1956 Clouds 21 1019 73 16093 2.1 330 08:59 03.03.2020
1957 Clouds 21 1019 73 16093 2.1 330 08:40 03.03.2020
1958 Clouds 21 1019 73 16093 2.1 330 08:22 03.03.2020
1959 Clouds 21 1019 93 16093 1.5 310 07:44 03.03.2020
1960 Clouds 20 1019 93 16093 1.5 310 07:24 03.03.2020
1961 Rain 21 1019 93 16093 3.1 320 06:54 03.03.2020
1962 Rain 22 1018 69 16093 4.1 20 06:27 03.03.2020
1963 Rain 23 1018 88 16093 3.1 50 05:48 03.03.2020
1964 Rain 23 1018 65 16093 4.1 70 05:30 03.03.2020
1965 Rain 24 1017 61 16093 5.7 80 04:38 03.03.2020
1966 Rain 24 1016 73 16093 5.1 90 01:41 03.03.2020
1967 Rain 23 1017 64 16093 3.6 80 00:59 03.03.2020
1968 Rain 23 1018 88 16093 4.6 70 00:37 03.03.2020
1969 Rain 23 1018 88 16093 4.6 70 00:18 03.03.2020
1970 Rain 24 1019 83 11265 4.1 50 23:41 02.03.2020
1971 Rain 23 1019 83 16093 2.6 40 23:22 02.03.2020
1972 Rain 23 1020 83 16093 3.1 80 22:55 02.03.2020
1973 Rain 23 1020 64 16093 5.1 70 22:37 02.03.2020
1974 Rain 23 1020 64 16093 5.1 70 22:19 02.03.2020
1975 Clouds 23 1021 78 16093 8.2 90 21:42 02.03.2020
1976 Clouds 22 1020 60 16093 4.6 80 21:24 02.03.2020
1977 Clouds 22 1020 60 16093 4.6 80 21:24 02.03.2020
1978 Rain 21 1020 88 16093 1.5 70 20:59 02.03.2020
1979 Rain 21 1020 88 16093 1.5 70 20:41 02.03.2020
1980 Drizzle 21 1020 88 16093 5.66 78 20:21 02.03.2020
1981 Rain 21 1019 68 16093 6.2 70 19:57 02.03.2020
1982 Rain 21 1020 69 16093 5.7 80 19:39 02.03.2020
1983 Rain 21 1020 69 16093 5.7 80 19:20 02.03.2020
1984 Clouds 21 1019 68 16093 5.7 60 18:54 02.03.2020
1985 Clouds 21 1019 68 16093 5.7 60 18:36 02.03.2020
1986 Clouds 21 1019 68 16093 5.7 60 18:18 02.03.2020
1987 Clouds 21 1019 77 16093 5.7 20 17:54 02.03.2020
1988 Clouds 21 1018 68 16093 6.2 50 17:36 02.03.2020
1989 Clouds 21 1018 68 16093 6.2 50 17:18 02.03.2020
1990 Clouds 21 1018 68 16093 5.7 60 16:39 02.03.2020
1991 Clouds 21 1018 68 16093 5.7 60 16:20 02.03.2020
1992 Clouds 21 1019 88 16093 1.5 190 15:45 02.03.2020
1993 Rain 21 1019 88 16093 5.7 60 15:21 02.03.2020
1994 Rain 20 1019 93 16093 6.23 70 14:56 02.03.2020
1995 Rain 21 1019 93 16093 6.23 70 14:37 02.03.2020
1996 Rain 21 1019 93 16093 6.23 70 14:37 02.03.2020
1997 Clouds 21 1019 93 16093 5.75 72 14:18 02.03.2020
1998 Clouds 21 1020 82 16093 1.5 320 13:40 02.03.2020
1999 Clouds 21 1020 82 16093 1.5 320 13:19 02.03.2020
2000 Rain 21 1020 72 16093 6.83 73 12:55 02.03.2020
2001 Clouds 21 1020 64 16093 7.2 60 12:36 02.03.2020
2002 Clouds 21 1020 64 16093 7.2 60 12:18 02.03.2020
2003 Clouds 21 1021 82 16093 2.1 260 11:38 02.03.2020
2004 Clouds 21 1021 82 16093 2.1 260 11:19 02.03.2020
2005 Clouds 21 1021 82 16093 2.1 260 11:19 02.03.2020
2006 Clouds 21 1022 93 16093 1.5 250 10:55 02.03.2020
2007 Rain 21 1021 68 16093 6.2 50 10:36 02.03.2020
2008 Rain 21 1021 68 16093 6.2 50 10:18 02.03.2020
2009 Rain 21 1021 88 16093 6.93 73 09:44 02.03.2020
2010 Rain 21 1020 64 16093 5.7 80 09:25 02.03.2020
2011 Clouds 22 1020 64 16093 7.2 80 08:47 02.03.2020
2012 Clouds 22 1020 64 16093 7.2 80 08:22 02.03.2020
2013 Rain 22 1022 82 16093 1.5 80 07:44 02.03.2020
2014 Rain 22 1021 82 16093 3.6 90 07:20 02.03.2020
2015 Clouds 22 1020 82 16093 6.2 70 06:47 02.03.2020
2016 Rain 22 1020 82 16093 4.6 60 05:55 02.03.2020
2017 Rain 23 1020 77 16093 2.6 60 04:26 02.03.2020
2018 Clouds 23 1019 50 16093 10.3 70 03:23 02.03.2020
2019 Rain 23 1019 50 16093 12.3 60 02:49 02.03.2020
2020 Rain 23 1020 88 8047 6.7 60 01:52 02.03.2020
2021 Rain 23 1020 82 4828 9.3 70 01:31 02.03.2020
2022 Rain 23 1020 64 11265 8.7 60 00:24 02.03.2020
2023 Clouds 24 1020 60 16093 9.3 70 23:58 01.03.2020
2024 Rain 24 1021 54 16093 7.2 50 23:40 01.03.2020
2025 Rain 24 1021 54 16093 7.2 50 23:20 01.03.2020
2026 Clouds 24 1022 83 12874 6.2 70 22:43 01.03.2020
2027 Drizzle 24 1022 78 16093 7.7 60 22:20 01.03.2020
2028 Clouds 23 1022 83 12874 6.7 60 21:56 01.03.2020
2029 Clouds 23 1022 83 16093 7.7 50 21:38 01.03.2020
2030 Clouds 23 1022 83 16093 7.7 50 21:19 01.03.2020
2031 Rain 22 1023 88 16093 4.1 40 20:43 01.03.2020
2032 Rain 22 1022 64 16093 7.2 90 20:25 01.03.2020
2033 Rain 21 1023 88 16093 4.1 50 19:55 01.03.2020
2034 Rain 21 1022 73 16093 3.6 70 19:36 01.03.2020
2035 Rain 20 1022 73 16093 3.6 70 19:18 01.03.2020
2036 Rain 20 1022 78 6437 6.2 80 18:40 01.03.2020
2037 Rain 20 1022 78 6437 6.2 80 18:20 01.03.2020
2038 Clouds 21 1021 68 16093 7.2 60 17:57 01.03.2020
2039 Clouds 21 1021 68 16093 7.2 60 17:39 01.03.2020
2040 Clouds 21 1021 68 16093 7.2 60 17:20 01.03.2020
2041 Rain 21 1021 64 16093 3.1 0 16:57 01.03.2020
2042 Rain 21 1021 64 16093 3.1 0 16:38 01.03.2020
2043 Rain 21 1021 64 16093 3.1 0 16:18 01.03.2020
2044 Rain 21 1021 88 16093 1.5 340 15:56 01.03.2020
2045 Rain 21 1021 68 16093 7.2 50 15:37 01.03.2020
2046 Rain 21 1021 68 16093 7.2 50 15:19 01.03.2020
2047 Rain 20 1022 88 16093 4.6 70 14:56 01.03.2020
2048 Drizzle 20 1022 82 16093 4.6 80 14:38 01.03.2020
2049 Drizzle 21 1022 82 16093 4.6 80 14:19 01.03.2020
2050 Clouds 20 1021 68 16093 3.6 50 13:54 01.03.2020
2051 Clouds 20 1021 68 16093 3.6 50 13:54 01.03.2020
2052 Clouds 20 1021 68 16093 3.6 50 13:36 01.03.2020
2053 Clouds 20 1021 68 16093 3.6 50 13:18 01.03.2020
2054 Rain 21 1022 68 16093 5.7 40 12:41 01.03.2020
2055 Rain 21 1022 68 16093 5.7 40 12:21 01.03.2020
2056 Rain 21 1023 88 16093 4.1 50 11:42 01.03.2020
2057 Rain 21 1023 68 16093 5.7 50 11:24 01.03.2020
2058 Rain 20 1023 77 16093 3.6 30 10:57 01.03.2020
2059 Rain 21 1024 88 16093 3.1 20 10:38 01.03.2020
2060 Rain 21 1024 88 16093 3.1 20 10:20 01.03.2020
2061 Rain 21 1023 82 16093 4.6 60 09:55 01.03.2020
2062 Rain 21 1023 82 16093 5.1 50 09:37 01.03.2020
2063 Rain 21 1023 82 16093 5.1 50 09:18 01.03.2020
2064 Rain 22 1023 77 16093 9.8 50 08:41 01.03.2020
2065 Rain 22 1023 82 16093 6.7 60 08:20 01.03.2020
2066 Drizzle 21 1022 82 16093 6.2 60 07:42 01.03.2020
2067 Rain 22 1021 68 16093 8.7 40 07:24 01.03.2020
2068 Rain 22 1021 68 16093 8.7 40 07:24 01.03.2020
2069 Clouds 21 1022 77 16093 5.1 70 06:54 01.03.2020
2070 Drizzle 21 1022 82 16093 6.2 70 06:36 01.03.2020
2071 Clouds 24 1020 50 16093 9.3 60 04:26 01.03.2020
2072 Rain 24 1021 69 16093 7.7 70 02:54 01.03.2020
2073 Rain 24 1021 82 8047 4.6 80 01:53 01.03.2020
2074 Clouds 25 1020 44 16093 12.9 50 01:22 01.03.2020
2075 Rain 24 1022 73 16093 7.2 90 00:43 01.03.2020
2076 Rain 24 1021 47 16093 13.9 60 00:21 01.03.2020
2077 Rain 24 1021 68 16093 10.3 60 23:49 29.02.2020
2078 Rain 24 1022 68 14484 7.2 70 23:31 29.02.2020
2079 Rain 22 1023 68 16093 10.8 70 22:44 29.02.2020
2080 Rain 22 1023 68 16093 10.8 70 22:44 29.02.2020
2081 Rain 22 1023 68 16093 10.8 70 22:24 29.02.2020
2082 Drizzle 23 1023 77 16093 8.7 40 21:43 29.02.2020
2083 Clouds 23 1023 64 16093 8.7 50 21:25 29.02.2020
2084 Clouds 22 1022 60 16093 7.7 60 20:44 29.02.2020
2085 Rain 22 1022 60 16093 7.7 60 20:22 29.02.2020
2086 -273 0 0 0 0 0 19:57 29.02.2020
2087 Rain 21 1022 82 16093 4.6 50 19:38 29.02.2020
2088 Rain 20 1022 82 16093 4.6 50 19:20 29.02.2020
2089 Rain 20 1022 82 16093 4.6 50 19:20 29.02.2020
2090 Rain 20 1022 77 16093 6.2 50 18:43 29.02.2020
2091 Rain 20 1022 77 16093 6.2 50 18:25 29.02.2020
2092 Rain 20 1021 88 16093 3.6 20 17:58 29.02.2020
2093 Drizzle 21 1021 82 16093 2.1 10 17:40 29.02.2020
2094 Drizzle 21 1021 82 16093 2.1 10 17:21 29.02.2020
2095 Rain 21 1021 82 16093 4.1 50 16:54 29.02.2020
2096 Rain 21 1020 60 16093 8.7 50 16:36 29.02.2020
2097 Rain 21 1020 60 16093 8.7 50 16:18 29.02.2020
2098 Clouds 21 1020 56 16093 8.7 50 15:41 29.02.2020
2099 Clouds 21 1020 56 16093 8.7 50 15:23 29.02.2020
2100 Clouds 21 1021 56 16093 10.3 50 14:42 29.02.2020
2101 Clouds 21 1021 56 16093 10.3 50 14:24 29.02.2020
2102 Rain 21 1021 60 16093 8.2 50 13:57 29.02.2020
2103 Rain 21 1021 60 16093 8.2 50 13:38 29.02.2020
2104 Rain 21 1021 60 16093 8.2 50 13:20 29.02.2020
2105 Clouds 21 1022 56 16093 8.2 70 12:42 29.02.2020
2106 Clouds 21 1022 56 16093 8.2 70 12:22 29.02.2020
2107 Clouds 21 1022 56 16093 6.2 50 11:56 29.02.2020
2108 Clouds 21 1022 56 16093 6.2 50 11:38 29.02.2020
2109 Clouds 21 1022 56 16093 6.2 50 11:20 29.02.2020
2110 Clouds 22 1022 53 16093 5.7 60 10:46 29.02.2020
2111 Clouds 22 1022 53 16093 5.7 60 10:28 29.02.2020
2112 Rain 22 1022 72 16093 4.1 40 09:48 29.02.2020
2113 Clouds 21 1023 82 16093 4.6 40 09:25 29.02.2020
2114 Clouds 21 1022 77 16093 5.7 40 08:42 29.02.2020
2115 Clouds 22 1022 53 16093 8.2 40 08:23 29.02.2020
2116 Rain 21 1021 60 16093 7.7 50 07:58 29.02.2020
2117 Rain 21 1021 60 16093 7.7 50 07:40 29.02.2020
2118 Rain 21 1021 60 16093 7.7 50 07:18 29.02.2020
2119 Rain 22 1021 68 16093 8.2 40 06:44 29.02.2020
2120 Rain 22 1021 68 16093 8.2 40 06:23 29.02.2020
2121 Rain 22 1020 60 16093 11.3 60 05:46 29.02.2020
2122 Rain 24 1021 68 16093 6.7 50 04:46 29.02.2020
2123 Clouds 24 1019 44 16093 9.3 50 03:40 29.02.2020
2124 Clouds 24 1019 44 16093 9.3 50 03:21 29.02.2020
2125 Clouds 24 1020 44 16093 7.2 50 02:37 29.02.2020
2126 Clouds 24 1020 44 16093 7.2 50 02:37 29.02.2020
2127 Clouds 23 1020 77 12874 6.7 40 00:58 29.02.2020
2128 Clouds 24 1020 57 16093 9.8 40 00:36 29.02.2020
2129 Drizzle 23 1021 60 16093 8.7 60 23:43 28.02.2020
2130 Drizzle 23 1021 60 16093 8.7 60 23:25 28.02.2020
2131 Rain 23 1021 53 16093 7.7 70 22:54 28.02.2020
2132 Rain 23 1021 53 16093 7.7 70 22:36 28.02.2020
2133 Rain 23 1021 53 16093 7.7 70 22:18 28.02.2020
2134 Clouds 23 1022 68 16093 5.7 60 21:41 28.02.2020
2135 Clouds 23 1022 68 16093 5.7 60 21:41 28.02.2020
2136 Clouds 23 1022 68 16093 5.7 60 21:20 28.02.2020
2137 Clouds 23 1022 68 16093 5.7 60 21:20 28.02.2020
2138 Rain 22 1021 64 16093 6.2 60 20:40 28.02.2020
2139 Rain 22 1021 64 16093 6.2 60 20:22 28.02.2020
2140 Rain 21 1021 68 16093 5.7 50 19:59 28.02.2020
2141 Rain 21 1020 60 16093 8.2 50 19:39 28.02.2020
2142 Rain 22 1020 60 16093 8.2 50 19:20 28.02.2020
2143 Rain 21 1020 77 16093 5.1 60 18:55 28.02.2020
2144 Rain 21 1020 82 16093 3.6 50 18:37 28.02.2020
2145 Rain 21 1020 82 16093 3.6 50 18:19 28.02.2020
2146 Drizzle 21 1020 77 16093 4.1 50 17:40 28.02.2020
2147 Drizzle 21 1020 77 16093 4.1 50 17:40 28.02.2020
2148 Drizzle 21 1020 77 16093 4.1 50 17:22 28.02.2020
2149 Rain 21 1019 82 16093 2.1 60 16:44 28.02.2020
2150 Rain 21 1019 82 16093 2.1 60 16:20 28.02.2020
2151 Rain 21 1019 82 16093 3.1 50 15:58 28.02.2020
2152 Rain 21 1019 82 16093 3.1 50 15:58 28.02.2020
2153 Clouds 21 1019 82 16093 4.6 70 15:40 28.02.2020
2154 Clouds 21 1019 82 16093 4.6 70 15:19 28.02.2020
2155 Rain 20 1019 64 16093 5.7 40 14:57 28.02.2020
2156 Rain 20 1019 64 16093 5.7 40 14:57 28.02.2020
2157 Rain 20 1019 64 16093 5.7 40 14:38 28.02.2020
2158 Rain 20 1019 64 16093 5.7 40 14:18 28.02.2020
2159 Rain 21 1019 88 16093 4.6 50 13:41 28.02.2020
2160 Rain 21 1019 88 16093 4.6 50 13:20 28.02.2020
2161 Rain 21 1020 72 16093 1.5 30 12:58 28.02.2020
2162 Rain 21 1020 60 16093 8.2 60 12:39 28.02.2020
2163 Rain 21 1020 60 16093 8.2 60 12:21 28.02.2020
2164 Clouds 21 1021 53 16093 8.2 50 11:41 28.02.2020
2165 Clouds 21 1021 53 16093 8.2 50 11:22 28.02.2020
2166 Rain 21 1022 77 16093 4.6 50 10:55 28.02.2020
2167 Rain 21 1021 77 16093 6.2 40 10:36 28.02.2020
2168 Rain 21 1021 77 16093 6.2 40 10:18 28.02.2020
2169 Clouds 22 1021 53 16093 8.7 70 09:42 28.02.2020
2170 Clouds 22 1021 53 16093 8.7 70 09:20 28.02.2020
2171 Clouds 22 1021 49 16093 9.3 50 08:42 28.02.2020
2172 Clouds 22 1021 49 16093 9.3 50 08:21 28.02.2020
2173 Clouds 22 1020 53 16093 6.7 50 07:47 28.02.2020
2174 Clouds 22 1020 53 16093 6.7 50 07:27 28.02.2020
2175 Clouds 22 1020 77 16093 5.7 30 06:59 28.02.2020
2176 Clouds 22 1020 53 16093 8.7 50 06:38 28.02.2020
2177 Clouds 23 1020 50 16093 8.7 40 05:31 28.02.2020
2178 Clouds 24 1020 56 16093 6.7 60 04:32 28.02.2020
2179 Clouds 24 1019 39 16093 7.2 40 03:22 28.02.2020
2180 Drizzle 25 1019 60 16093 8.2 60 02:34 28.02.2020
2181 Rain 24 1020 60 16093 7.7 50 01:48 28.02.2020
2182 Clouds 25 1020 50 16093 5.1 60 00:32 28.02.2020
2183 Clouds 23 1021 77 16093 5.7 70 23:47 27.02.2020
2184 Clouds 23 1021 77 16093 5.7 70 23:23 27.02.2020
2185 Clouds 23 1022 47 16093 5.1 40 22:58 27.02.2020
2186 Clouds 24 1022 47 16093 5.1 40 22:39 27.02.2020
2187 Clouds 24 1022 47 16093 5.1 40 22:21 27.02.2020
2188 Clouds 24 1022 50 16093 8.2 50 21:42 27.02.2020
2189 Clouds 24 1022 50 16093 8.2 50 21:23 27.02.2020
2190 Rain 23 1022 60 16093 6.7 50 20:59 27.02.2020
2191 Rain 24 1022 60 16093 6.7 50 20:41 27.02.2020
2192 Rain 23 1022 60 16093 6.7 50 20:21 27.02.2020
2193 Rain 22 1022 93 16093 1.5 100 19:57 27.02.2020
2194 Rain 22 1022 88 16093 6.1 59 19:39 27.02.2020
2195 Rain 22 1021 64 16093 6.2 50 19:20 27.02.2020
2196 Clouds 21 1021 68 16093 6.7 60 18:54 27.02.2020
2197 Clouds 21 1021 68 16093 6.7 60 18:36 27.02.2020
2198 Clouds 21 1021 68 16093 6.7 60 18:18 27.02.2020
2199 Rain 21 1021 68 16093 6.2 80 17:40 27.02.2020
2200 Rain 21 1021 68 16093 6.2 80 17:40 27.02.2020
2201 Rain 21 1021 68 16093 6.2 80 17:20 27.02.2020
2202 Rain 21 1020 68 16093 5.7 50 16:59 27.02.2020
2203 Rain 21 1020 68 16093 5.7 50 16:39 27.02.2020
2204 Rain 21 1020 68 16093 5.7 50 16:19 27.02.2020
2205 Clouds 21 1021 77 16093 2.1 40 15:58 27.02.2020
2206 Clouds 22 1020 60 16093 5.7 60 15:37 27.02.2020
2207 Clouds 22 1020 60 16093 5.7 60 15:18 27.02.2020
2208 Clouds 22 1020 88 16093 2.1 40 14:56 27.02.2020
2209 Rain 22 1020 77 16093 3.1 10 14:37 27.02.2020
2210 Rain 22 1020 77 16093 3.1 10 14:18 27.02.2020
2211 Clouds 22 1021 77 16093 4.6 50 13:42 27.02.2020
2212 Clouds 22 1021 77 16093 4.6 50 13:42 27.02.2020
2213 Drizzle 22 1021 77 16093 3.6 50 13:21 27.02.2020
2214 Drizzle 22 1021 77 16093 3.6 50 13:21 27.02.2020
2215 Clouds 22 1022 56 16093 9.3 50 12:48 27.02.2020
2216 Clouds 22 1022 56 16093 9.3 50 12:25 27.02.2020
2217 Clouds 22 1022 73 16093 6.2 40 11:59 27.02.2020
2218 Clouds 22 1022 73 16093 6.2 40 11:41 27.02.2020
2219 Drizzle 22 1022 73 16093 6.7 40 11:21 27.02.2020
2220 Clouds 22 1022 57 16093 7.7 60 10:43 27.02.2020
2221 Clouds 22 1022 57 16093 7.7 60 10:23 27.02.2020
2222 Clouds 22 1022 60 16093 5.7 60 09:48 27.02.2020
2223 Clouds 22 1022 60 16093 5.7 60 09:29 27.02.2020
2224 Clouds 22 1022 57 16093 6.7 50 08:57 27.02.2020
2225 Clouds 23 1022 57 16093 6.7 50 08:39 27.02.2020
2226 Clouds 23 1022 57 16093 6.7 50 08:21 27.02.2020
2227 Clouds 22 1021 60 16093 7.2 50 07:44 27.02.2020
2228 Clouds 22 1021 60 16093 7.2 50 07:25 27.02.2020
2229 Clouds 23 1020 53 16093 7.7 60 06:45 27.02.2020
2230 Clouds 23 1020 53 16093 8.2 50 05:34 27.02.2020
2231 Rain 23 1020 64 12874 7.2 40 03:35 27.02.2020
2232 Clouds 26 1020 47 16093 9.3 70 02:20 27.02.2020
2233 Clouds 24 1021 69 16093 4.1 80 00:44 27.02.2020
2234 Clouds 25 1021 47 16093 6.2 60 00:24 27.02.2020
2235 Clouds 25 1022 44 16093 6.7 50 23:39 26.02.2020
2236 Clouds 25 1022 44 16093 6.7 50 23:18 26.02.2020
2237 Clouds 25 1023 44 16093 10.8 60 22:56 26.02.2020
2238 Clouds 25 1023 44 16093 10.8 60 22:38 26.02.2020
2239 Clouds 25 1023 44 16093 10.8 60 22:19 26.02.2020
2240 Clouds 25 1022 44 16093 8.2 50 21:40 26.02.2020
2241 Clouds 25 1022 44 16093 8.2 50 21:20 26.02.2020
2242 Clouds 24 1022 50 16093 8.7 60 20:57 26.02.2020
2243 Clouds 24 1022 50 16093 8.7 60 20:38 26.02.2020
2244 Clouds 24 1022 50 16093 8.7 60 20:19 26.02.2020
2245 Clouds 23 1022 60 16093 7.2 70 19:56 26.02.2020
2246 Clouds 23 1022 60 16093 7.2 70 19:37 26.02.2020
2247 Clouds 23 1022 60 16093 7.2 70 19:19 26.02.2020
2248 Clouds 22 1021 60 16093 8.7 50 18:56 26.02.2020
2249 Clouds 22 1021 60 16093 8.7 50 18:37 26.02.2020
2250 Clouds 22 1021 60 16093 8.7 50 18:19 26.02.2020
2251 Clouds 22 1021 64 16093 6.2 50 17:41 26.02.2020
2252 Clouds 22 1021 64 16093 6.2 50 17:19 26.02.2020
2253 Clouds 22 1020 64 16093 7.7 50 16:56 26.02.2020
2254 Clouds 22 1020 64 16093 7.7 50 16:56 26.02.2020
2255 Clouds 22 1020 64 16093 7.7 50 16:38 26.02.2020
2256 Clouds 22 1020 64 16093 7.7 50 16:38 26.02.2020
2257 Clouds 22 1020 64 16093 7.7 50 16:20 26.02.2020
2258 Clouds 22 1020 64 16093 4.6 70 15:44 26.02.2020
2259 Clouds 22 1020 64 16093 4.6 70 15:44 26.02.2020
2260 Clouds 22 1020 64 16093 4.6 70 15:26 26.02.2020
2261 Clouds 22 1020 77 16093 4.6 30 14:43 26.02.2020
2262 Clouds 22 1020 77 16093 4.6 30 14:24 26.02.2020
2263 Clouds 22 1021 82 16093 3.1 60 13:57 26.02.2020
2264 Clouds 22 1021 82 16093 3.1 60 13:57 26.02.2020
2265 Clouds 22 1021 82 16093 3.1 80 13:39 26.02.2020
2266 Clouds 22 1021 82 16093 3.1 80 13:18 26.02.2020
2267 Clouds 22 1021 60 16093 5.7 60 12:38 26.02.2020
2268 Clouds 23 1021 60 16093 5.7 60 12:19 26.02.2020
2269 Rain 22 1022 60 16093 6.2 50 11:43 26.02.2020
2270 Rain 22 1022 60 16093 6.2 50 11:23 26.02.2020
2271 Rain 22 1022 64 16093 8.2 60 10:59 26.02.2020
2272 Rain 22 1022 64 16093 8.2 60 10:39 26.02.2020
2273 Rain 22 1022 64 16093 8.2 60 10:21 26.02.2020
2274 Clear 23 1022 60 16093 7.2 50 09:44 26.02.2020
2275 Clear 23 1022 60 16093 7.2 50 09:23 26.02.2020
2276 Clouds 23 1022 60 16093 8.2 50 08:58 26.02.2020
2277 Clouds 23 1022 60 16093 8.2 50 08:37 26.02.2020
2278 Clouds 23 1022 60 16093 8.2 50 08:18 26.02.2020
2279 Clouds 23 1021 64 16093 5.1 40 07:42 26.02.2020
2280 Clouds 23 1021 64 16093 5.1 40 07:23 26.02.2020
2281 Clouds 23 1021 77 16093 1.5 300 06:50 26.02.2020
2282 Clouds 23 1021 73 16093 3.1 110 06:31 26.02.2020
2283 Clouds 23 1021 73 16093 3.1 40 05:49 26.02.2020
2284 Clouds 24 1020 54 16093 6.7 70 05:20 26.02.2020
2285 Clouds 24 1019 60 16093 5.7 50 03:57 26.02.2020
2286 Clouds 26 1019 45 16093 7.7 60 02:20 26.02.2020
2287 Clouds 26 1020 51 16093 9.3 50 01:38 26.02.2020
2288 Clouds 26 1021 51 16093 7.2 60 00:47 26.02.2020
2289 Clouds 26 1021 51 16093 7.2 60 00:21 26.02.2020
2290 Clouds 26 1021 51 16093 7.2 60 00:21 26.02.2020
2291 Clouds 25 1022 65 16093 4.6 60 23:43 25.02.2020
2292 Clouds 25 1022 69 16093 6.7 80 23:25 25.02.2020
2293 Clouds 25 1022 51 16093 7.2 40 22:57 25.02.2020
2294 Clouds 25 1022 51 16093 7.2 40 22:39 25.02.2020
2295 Clouds 25 1022 51 16093 7.2 40 22:19 25.02.2020
2296 Rain 24 1022 61 16093 7.7 70 21:38 25.02.2020
2297 Rain 24 1022 61 16093 7.7 70 21:20 25.02.2020
2298 Drizzle 23 1023 83 16093 6.2 80 20:57 25.02.2020
2299 Clouds 23 1023 83 16093 2.6 50 20:39 25.02.2020
2300 Clouds 23 1023 83 16093 2.6 50 20:20 25.02.2020
2301 Drizzle 22 1022 100 16093 2.1 40 19:57 25.02.2020
2302 Rain 22 1022 69 16093 3.6 70 19:38 25.02.2020
2303 Rain 22 1022 69 16093 3.6 70 19:19 25.02.2020
2304 Clouds 21 1022 100 16093 4.9 72 18:41 25.02.2020
2305 Clouds 21 1022 100 16093 2.1 320 18:21 25.02.2020
2306 Clouds 21 1022 100 16093 2.1 320 18:21 25.02.2020
2307 Clouds 21 1022 93 16093 4.9 72 17:57 25.02.2020
2308 Drizzle 21 1022 93 16093 4.9 72 17:37 25.02.2020
2309 Drizzle 21 1022 93 16093 3.98 69 17:19 25.02.2020
2310 Drizzle 21 1022 93 16093 3.98 69 17:19 25.02.2020
2311 Clouds 21 1021 100 16093 1.5 350 16:57 25.02.2020
2312 Clouds 22 1021 64 16093 5.1 60 16:38 25.02.2020
2313 Clouds 22 1021 64 16093 5.1 60 16:20 25.02.2020
2314 Clouds 21 1021 100 16093 1.5 320 15:55 25.02.2020
2315 Clouds 21 1021 100 16093 3.98 69 15:36 25.02.2020
2316 Clouds 21 1021 100 16093 3.98 69 15:18 25.02.2020
2317 Drizzle 21 1021 100 16093 1.5 310 14:40 25.02.2020
2318 Drizzle 21 1021 100 16093 1.5 310 14:19 25.02.2020
2319 Drizzle 21 1021 100 16093 1.5 310 14:19 25.02.2020
2320 Drizzle 21 1021 100 16093 1.5 310 14:19 25.02.2020
2321 Drizzle 21 1021 93 16093 4.07 69 13:59 25.02.2020
2322 Drizzle 21 1021 93 16093 4.07 69 13:41 25.02.2020
2323 Rain 21 1021 69 16093 4.6 50 13:21 25.02.2020
2324 Rain 22 1022 69 16093 4.6 50 12:59 25.02.2020
2325 Rain 22 1022 69 16093 4.6 50 12:39 25.02.2020
2326 Clouds 22 1022 69 16093 4.6 50 12:20 25.02.2020
2327 Rain 21 1022 94 16093 3.1 60 11:56 25.02.2020
2328 Drizzle 21 1022 94 16093 3.44 72 11:37 25.02.2020
2329 Drizzle 21 1022 94 16093 4.18 68 11:18 25.02.2020
2330 Drizzle 22 1023 83 16093 4.18 68 10:42 25.02.2020
2331 Clouds 22 1022 69 16093 5.7 50 10:23 25.02.2020
2332 Clouds 22 1022 73 16093 5.1 80 09:56 25.02.2020
2333 Drizzle 22 1023 77 16093 3.1 80 09:38 25.02.2020
2334 Drizzle 22 1023 77 16093 3.1 80 09:18 25.02.2020
2335 Clouds 23 1022 64 16093 5.1 60 08:42 25.02.2020
2336 Clouds 23 1022 64 16093 5.1 60 08:24 25.02.2020
2337 Clouds 23 1021 64 16093 5.1 50 07:49 25.02.2020
2338 Clouds 23 1021 64 16093 5.1 50 07:23 25.02.2020
2339 Clouds 23 1021 60 16093 5.1 50 06:55 25.02.2020
2340 Clouds 24 1020 50 16093 5.7 40 05:51 25.02.2020
2341 Clouds 24 1020 50 16093 5.7 40 05:19 25.02.2020
2342 Clouds 26 1019 57 16093 5.1 230 02:34 25.02.2020
2343 Clouds 26 1020 54 16093 1.76 125 00:58 25.02.2020
2344 Clouds 25 1020 54 16093 1.76 125 00:31 25.02.2020
2345 Clouds 26 1021 64 16093 4.1 360 23:48 24.02.2020
2346 Clouds 26 1021 69 16093 4.1 30 23:29 24.02.2020
2347 Clouds 26 1022 51 16093 2.1 0 22:56 24.02.2020
2348 Clouds 26 1022 51 16093 2.1 0 22:37 24.02.2020
2349 Clouds 26 1022 51 16093 2.1 0 22:18 24.02.2020
2350 Clouds 25 1022 69 16093 3.1 340 21:54 24.02.2020
2351 Clouds 25 1022 69 16093 3.6 340 21:36 24.02.2020
2352 Clouds 25 1022 69 16093 3.6 340 21:18 24.02.2020
2353 Clear 23 1022 64 16093 3.1 330 20:41 24.02.2020
2354 Clear 23 1022 64 16093 3.1 330 20:20 24.02.2020
2355 Clear 22 1021 77 16093 2.1 330 19:59 24.02.2020
2356 Clear 21 1021 77 16093 2.1 330 19:40 24.02.2020
2357 Clear 21 1021 77 16093 2.1 330 19:22 24.02.2020
2358 Clear 20 1021 88 16093 2.1 330 18:56 24.02.2020
2359 Clear 20 1021 88 16093 2.1 330 18:38 24.02.2020
2360 Clear 19 1021 88 16093 2.1 330 18:19 24.02.2020
2361 Clear 19 1021 88 16093 2.1 330 18:19 24.02.2020
2362 Clouds 19 1020 82 16093 2.1 330 17:42 24.02.2020
2363 Clouds 19 1020 82 16093 2.1 330 17:21 24.02.2020
2364 Clouds 19 1020 82 16093 2.6 340 16:59 24.02.2020
2365 Clouds 19 1020 82 16093 2.6 340 16:40 24.02.2020
2366 Clouds 18 1020 82 16093 2.6 340 16:21 24.02.2020
2367 Clouds 18 1020 82 16093 1.5 330 15:59 24.02.2020
2368 Clouds 18 1020 82 16093 1.5 330 15:59 24.02.2020
2369 Clouds 18 1020 82 16093 1.5 330 15:40 24.02.2020
2370 Clouds 18 1020 82 16093 1.5 330 15:40 24.02.2020
2371 Clouds 18 1020 82 16093 1.5 330 15:21 24.02.2020
2372 Clear 18 1020 82 16093 2.6 340 14:58 24.02.2020
2373 Clear 18 1020 82 16093 2.6 340 14:58 24.02.2020
2374 Clear 19 1020 82 16093 2.6 340 14:39 24.02.2020
2375 Clear 19 1020 82 16093 2.6 340 14:19 24.02.2020
2376 Clouds 19 1021 77 16093 1.5 340 13:56 24.02.2020
2377 Clouds 19 1021 77 16093 1.5 340 13:36 24.02.2020
2378 Clouds 19 1021 77 16093 1.5 340 13:18 24.02.2020
2379 Clouds 19 1021 77 16093 1.5 340 13:18 24.02.2020
2380 Clouds 20 1021 73 16093 3.6 320 12:43 24.02.2020
2381 Clouds 20 1021 73 16093 3.6 320 12:43 24.02.2020
2382 Clouds 20 1021 73 16093 3.6 320 12:24 24.02.2020
2383 Clouds 20 1021 77 16093 2.6 320 11:56 24.02.2020
2384 Clouds 20 1021 77 16093 2.6 320 11:38 24.02.2020
2385 Clouds 21 1021 77 16093 2.6 320 11:19 24.02.2020
2386 Clouds 21 1021 68 16093 2.6 340 10:41 24.02.2020
2387 Clouds 21 1021 68 16093 2.6 340 10:22 24.02.2020
2388 Clouds 21 1022 93 16093 1.5 350 09:40 24.02.2020
2389 Clouds 21 1022 93 16093 1.5 350 09:19 24.02.2020
2390 Clouds 22 1021 64 16093 3.6 360 08:53 24.02.2020
2391 Clouds 22 1021 64 16093 3.6 360 08:29 24.02.2020
2392 Clouds 22 1020 60 16093 3.1 30 07:56 24.02.2020
2393 Clouds 23 1020 60 16093 3.1 30 07:33 24.02.2020
2394 Clouds 23 1019 57 16093 4.6 330 06:53 24.02.2020
2395 Clouds 23 1019 57 16093 4.6 330 06:26 24.02.2020
2396 Clouds 24 1019 51 16093 4.6 350 05:45 24.02.2020
2397 Clouds 24 1019 51 16093 4.6 350 05:25 24.02.2020
2398 Clouds 26 1018 51 16093 6.7 230 02:58 24.02.2020
2399 Clouds 27 1018 51 16093 6.7 230 02:18 24.02.2020
2400 Clouds 27 1019 54 16093 7.2 220 01:31 24.02.2020
2401 Clouds 27 1019 54 16093 7.2 220 01:31 24.02.2020
2402 Clouds 26 1019 65 16093 5.1 210 00:44 24.02.2020
2403 Clouds 27 1019 65 16093 5.1 210 00:20 24.02.2020
2404 Clouds 26 1020 61 16093 4.6 220 23:45 23.02.2020
2405 Clouds 26 1020 61 16093 4.6 220 23:24 23.02.2020
2406 Clouds 25 1020 78 16093 3.6 340 22:59 23.02.2020
2407 Clouds 25 1020 78 16093 3.6 340 22:41 23.02.2020
2408 Clouds 25 1021 73 16093 1.5 300 22:21 23.02.2020
2409 Clouds 24 1021 73 16093 2.55 251 21:54 23.02.2020
2410 Clouds 25 1021 73 16093 2.1 130 21:36 23.02.2020
2411 Clouds 24 1021 73 16093 2.1 130 21:18 23.02.2020
2412 Clouds 24 1020 69 16093 2.1 290 20:55 23.02.2020
2413 Clouds 24 1020 69 16093 2.1 290 20:36 23.02.2020
2414 Clouds 23 1020 69 16093 2.1 290 20:18 23.02.2020
2415 Clouds 22 1020 78 16093 1.5 340 19:41 23.02.2020
2416 Clouds 21 1020 78 16093 1.5 340 19:20 23.02.2020
2417 Clouds 20 1020 88 16093 2.6 330 18:59 23.02.2020
2418 Clouds 19 1020 88 16093 2.6 330 18:40 23.02.2020
2419 Clouds 19 1020 88 16093 2.6 330 18:20 23.02.2020
2420 Clouds 19 1019 82 16093 2.6 320 17:58 23.02.2020
2421 Clouds 19 1019 82 16093 2.6 320 17:39 23.02.2020
2422 Clouds 18 1019 82 16093 2.6 320 17:21 23.02.2020
2423 Clouds 19 1018 82 16093 0.79 300 16:56 23.02.2020
2424 Clouds 19 1018 82 16093 0.79 300 16:36 23.02.2020
2425 Clouds 19 1018 82 16093 0.79 300 16:18 23.02.2020
2426 Clouds 18 1018 77 16093 2.1 330 15:40 23.02.2020
2427 Clouds 19 1018 77 16093 2.1 330 15:21 23.02.2020
2428 Clouds 19 1019 82 16093 2.1 360 14:59 23.02.2020
2429 Clouds 19 1019 82 16093 2.1 360 14:59 23.02.2020
2430 Clouds 19 1019 82 16093 2.1 360 14:41 23.02.2020
2431 Clouds 19 1019 82 16093 2.1 360 14:23 23.02.2020
2432 Clouds 19 1019 83 16093 2.6 330 13:58 23.02.2020
2433 Clouds 19 1019 83 16093 2.6 330 13:39 23.02.2020
2434 Clouds 19 1019 83 16093 2.6 330 13:21 23.02.2020
2435 Clouds 20 1019 77 16093 1.5 330 12:43 23.02.2020
2436 Clouds 21 1019 77 16093 1.5 330 12:23 23.02.2020
2437 Clouds 21 1018 73 16093 4.6 120 11:58 23.02.2020
2438 Clouds 20 1019 77 16093 0.59 135 11:37 23.02.2020
2439 Clouds 20 1019 77 16093 1.67 92 11:18 23.02.2020
2440 Clouds 21 1020 88 16093 1.5 40 10:55 23.02.2020
2441 Clouds 22 1020 73 16093 1.5 300 10:37 23.02.2020
2442 Clouds 22 1020 73 16093 1.5 300 10:19 23.02.2020
2443 Clouds 22 1020 73 16093 1.5 100 09:40 23.02.2020
2444 Clouds 22 1020 73 16093 1.5 100 09:21 23.02.2020
2445 Clouds 21 1019 69 16093 2.1 80 08:56 23.02.2020
2446 Clouds 21 1019 69 16093 2.1 80 08:36 23.02.2020
2447 Clouds 21 1019 69 16093 2.1 80 08:18 23.02.2020
2448 Clouds 22 1019 64 16093 4.6 70 07:40 23.02.2020
2449 Clouds 23 1018 64 16093 3.6 30 06:39 23.02.2020
2450 Clouds 24 1018 54 16093 6.2 40 05:48 23.02.2020
2451 Clouds 25 1018 69 16093 3.1 70 04:42 23.02.2020
2452 Clouds 26 1018 57 16093 5.1 140 03:21 23.02.2020
2453 Clouds 26 1018 48 16093 5.1 130 02:26 23.02.2020
2454 Clouds 26 1018 57 16093 6.7 140 01:24 23.02.2020
2455 Clouds 26 1019 51 16093 2.6 0 00:47 23.02.2020
2456 Clouds 25 1019 51 16093 2.6 0 00:25 23.02.2020
2457 Clouds 25 1019 73 16093 5.7 110 23:45 22.02.2020
2458 Clouds 25 1020 88 16093 4.6 80 23:27 22.02.2020
2459 Clouds 25 1021 88 16093 2.1 110 22:57 22.02.2020
2460 Rain 24 1021 57 16093 5.1 110 22:38 22.02.2020
2461 Rain 25 1021 57 16093 5.1 110 22:18 22.02.2020
2462 Rain 24 1021 61 16093 2.6 140 21:40 22.02.2020
2463 Rain 23 1021 61 16093 2.6 140 21:22 22.02.2020
2464 Clouds 22 1021 94 16093 4.11 97 20:46 22.02.2020
2465 Rain 23 1021 83 16093 1.5 60 20:24 22.02.2020
2466 Clouds 22 1020 93 16093 3.45 99 19:56 22.02.2020
2467 Rain 21 1020 77 16093 1.5 330 19:37 22.02.2020
2468 Rain 21 1020 77 16093 1.5 330 19:18 22.02.2020
2469 Clouds 20 1019 77 16093 2.1 350 18:39 22.02.2020
2470 Clouds 20 1019 77 16093 2.1 350 18:21 22.02.2020
2471 Clouds 20 1019 73 16093 1.5 70 17:57 22.02.2020
2472 Clouds 20 1019 73 16093 1.5 70 17:38 22.02.2020
2473 Clouds 20 1019 73 16093 1.5 70 17:19 22.02.2020
2474 Clouds 19 1019 68 16093 2.1 60 16:56 22.02.2020
2475 Clouds 20 1019 68 16093 2.1 60 16:38 22.02.2020
2476 Clouds 20 1019 68 16093 2.1 60 16:19 22.02.2020
2477 Clouds 20 1019 68 16093 2.1 40 15:43 22.02.2020
2478 Clouds 20 1019 68 16093 2.1 40 15:24 22.02.2020
2479 Clouds 20 1019 100 16093 1.5 310 14:43 22.02.2020
2480 Clouds 20 1019 100 16093 1.5 310 14:43 22.02.2020
2481 Clouds 20 1019 68 16093 3.6 70 14:23 22.02.2020
2482 Clouds 21 1020 68 16093 3.1 80 13:57 22.02.2020
2483 Clouds 21 1020 68 16093 3.1 80 13:39 22.02.2020
2484 Clouds 21 1020 68 16093 3.1 80 13:18 22.02.2020
2485 Clouds 22 1020 65 16093 4.6 80 12:42 22.02.2020
2486 Clouds 22 1020 65 16093 4.6 80 12:23 22.02.2020
2487 Clouds 21 1021 64 16093 5.7 60 11:46 22.02.2020
2488 Clouds 22 1021 64 16093 5.7 60 11:28 22.02.2020
2489 Clouds 22 1021 64 16093 4.1 90 10:57 22.02.2020
2490 Clouds 22 1021 64 16093 4.1 90 10:39 22.02.2020
2491 Clouds 22 1021 64 16093 4.1 90 10:19 22.02.2020
2492 Clouds 22 1021 69 16093 3.1 60 09:57 22.02.2020
2493 Clouds 23 1021 69 16093 3.1 60 09:38 22.02.2020
2494 Clouds 22 1021 69 16093 3.1 60 09:19 22.02.2020
2495 Clouds 22 1021 64 16093 3.1 60 08:46 22.02.2020
2496 Clouds 23 1021 64 16093 3.1 60 08:27 22.02.2020
2497 Clouds 22 1020 64 16093 5.1 50 07:45 22.02.2020
2498 Clouds 23 1020 64 16093 5.1 50 07:19 22.02.2020
2499 Clouds 22 1020 77 16093 1.5 90 06:47 22.02.2020
2500 Clouds 23 1020 64 16093 4.1 50 06:26 22.02.2020
2501 Clouds 24 1018 69 16093 4.6 80 04:30 22.02.2020
2502 Clouds 25 1019 45 16093 8.7 80 02:46 22.02.2020
2503 Clouds 26 1019 45 16093 8.7 80 02:21 22.02.2020
2504 Clouds 25 1019 47 16093 8.2 80 01:41 22.02.2020
2505 Clouds 26 1019 47 16093 8.2 80 01:22 22.02.2020
2506 Clouds 26 1020 42 16093 8.7 60 00:40 22.02.2020
2507 Clouds 26 1020 42 16093 8.7 60 00:19 22.02.2020
2508 Clouds 25 1021 44 16093 7.7 70 23:41 21.02.2020
2509 Clouds 25 1021 44 16093 7.7 70 23:20 21.02.2020
2510 Clouds 25 1022 69 16093 6.7 90 22:42 21.02.2020
2511 Clouds 24 1022 73 16093 3.1 130 22:24 21.02.2020
2512 Clouds 24 1022 57 16093 8.7 50 21:56 21.02.2020
2513 Clouds 24 1022 57 16093 8.7 50 21:37 21.02.2020
2514 Clouds 24 1022 57 16093 8.7 50 21:19 21.02.2020
2515 Clouds 23 1021 53 16093 8.2 60 20:46 21.02.2020
2516 Clouds 23 1021 53 16093 8.2 60 20:27 21.02.2020
2517 Clouds 22 1021 64 16093 5.7 70 19:40 21.02.2020
2518 Clouds 22 1021 64 16093 5.7 70 19:22 21.02.2020
2519 Clouds 21 1021 77 16093 4.1 80 18:44 21.02.2020
2520 Clouds 21 1020 68 16093 5.7 50 18:24 21.02.2020
2521 Rain 20 1020 100 16093 5.22 80 17:57 21.02.2020
2522 Drizzle 20 1020 100 16093 1.5 290 17:38 21.02.2020
2523 Drizzle 20 1020 100 16093 1.5 290 17:19 21.02.2020
2524 Clouds 20 1020 100 16093 1.5 330 16:54 21.02.2020
2525 Rain 20 1019 68 16093 7.2 60 16:36 21.02.2020
2526 Rain 20 1019 68 16093 7.2 60 16:18 21.02.2020
2527 Rain 20 1020 68 16093 5.7 60 15:39 21.02.2020
2528 Rain 20 1020 68 16093 5.7 60 15:19 21.02.2020
2529 Clouds 20 1020 93 16093 1.5 240 14:43 21.02.2020
2530 Rain 20 1020 73 16093 8.2 60 14:22 21.02.2020
2531 Clouds 20 1020 88 16093 1.5 340 13:59 21.02.2020
2532 Clouds 21 1021 68 16093 6.7 70 13:39 21.02.2020
2533 Clouds 21 1021 68 16093 6.7 70 13:39 21.02.2020
2534 Clouds 21 1021 68 16093 6.7 70 13:20 21.02.2020
2535 Drizzle 21 1021 82 16093 2.6 130 12:43 21.02.2020
2536 Clouds 21 1022 68 16093 5.7 80 12:24 21.02.2020
2537 Clouds 21 1022 68 16093 3.6 80 11:56 21.02.2020
2538 Clouds 21 1022 68 16093 3.6 80 11:37 21.02.2020
2539 Clouds 21 1022 68 16093 3.6 80 11:19 21.02.2020
2540 Rain 21 1022 82 16093 5.1 90 10:42 21.02.2020
2541 Rain 21 1022 82 16093 5.1 90 10:42 21.02.2020
2542 Rain 21 1022 68 16093 8.7 70 10:20 21.02.2020
2543 Rain 21 1022 78 16093 5.1 110 09:58 21.02.2020
2544 Clouds 21 1022 64 16093 9.3 70 09:38 21.02.2020
2545 Clouds 22 1022 64 16093 9.3 70 09:20 21.02.2020
2546 Clouds 22 1022 77 16093 6.2 50 08:45 21.02.2020
2547 Clouds 22 1022 64 16093 7.7 70 08:23 21.02.2020
2548 Rain 22 1021 73 16093 3.6 70 07:59 21.02.2020
2549 Rain 22 1021 73 16093 3.6 70 07:41 21.02.2020
2550 Rain 22 1021 73 16093 3.6 50 07:20 21.02.2020
2551 Clouds 22 1020 64 16093 5.1 60 06:55 21.02.2020
2552 Clouds 22 1020 64 16093 5.1 60 06:31 21.02.2020
2553 Clouds 22 1020 77 16093 4.1 140 05:52 21.02.2020
2554 Clouds 23 1020 68 16093 4.6 50 04:39 21.02.2020
2555 Clouds 24 1020 68 16093 4.6 50 04:20 21.02.2020
2556 Clouds 24 1020 64 16093 5.1 90 03:42 21.02.2020
2557 Clouds 24 1020 73 16093 8.2 90 02:58 21.02.2020
2558 Clouds 24 1021 73 16093 6.2 60 01:25 21.02.2020
2559 Clouds 23 1022 83 16093 5.7 70 00:46 21.02.2020
2560 Clouds 23 1022 54 16093 9.8 50 00:23 21.02.2020
2561 Clouds 24 1023 69 16093 5.1 60 23:46 20.02.2020
2562 Clouds 24 1023 69 16093 5.1 60 23:26 20.02.2020
2563 Clouds 24 1024 54 16093 9.8 70 22:57 20.02.2020
2564 Clouds 24 1024 54 16093 9.8 70 22:38 20.02.2020
2565 Clouds 24 1024 54 16093 9.8 70 22:20 20.02.2020
2566 Clouds 24 1024 54 16093 9.8 70 22:20 20.02.2020
2567 Clouds 23 1024 77 16093 7.2 80 21:56 20.02.2020
2568 Clouds 23 1024 77 16093 7.2 80 21:56 20.02.2020
2569 Rain 23 1024 77 14484 7.7 70 21:37 20.02.2020
2570 Rain 23 1024 77 14484 7.7 70 21:19 20.02.2020
2571 Clouds 23 1024 77 16093 3.6 50 20:54 20.02.2020
2572 Clouds 23 1024 77 16093 3.6 50 20:54 20.02.2020
2573 Clouds 23 1023 53 16093 8.7 60 20:36 20.02.2020
2574 Clouds 23 1023 53 16093 8.7 60 20:18 20.02.2020
2575 Clouds 23 1023 53 16093 8.7 60 19:57 20.02.2020
2576 Clouds 22 1023 53 16093 8.7 60 19:39 20.02.2020
2577 Clouds 22 1023 53 16093 8.7 60 19:20 20.02.2020
2578 Clouds 22 1022 49 16093 8.7 60 18:39 20.02.2020
2579 Clouds 22 1022 49 16093 8.7 60 18:20 20.02.2020
2580 Clouds 21 1022 56 16093 8.7 70 17:42 20.02.2020
2581 Clouds 21 1022 56 16093 8.7 70 17:23 20.02.2020
2582 Clouds 21 1022 56 16093 8.7 70 17:22 20.02.2020
2583 Clouds 21 1022 56 16093 8.7 70 16:59 20.02.2020
2584 Clouds 21 1022 64 16093 3.6 80 16:40 20.02.2020
2585 Clouds 21 1022 64 16093 3.6 80 16:21 20.02.2020
2586 Clouds 21 1022 77 16093 3.1 70 15:59 20.02.2020
2587 Clouds 21 1022 77 16093 3.1 70 15:41 20.02.2020
2588 Drizzle 21 1022 88 16093 2.1 60 15:20 20.02.2020
2589 Clouds 21 1022 88 16093 1.5 320 14:54 20.02.2020
2590 Rain 22 1021 64 16093 9.8 50 14:36 20.02.2020
2591 Rain 22 1021 64 16093 9.8 50 14:18 20.02.2020
2592 Rain 21 1022 100 16093 5.1 80 13:43 20.02.2020
2593 Rain 21 1022 73 16093 8.2 70 13:19 20.02.2020
2594 Rain 21 1022 78 16093 10.3 60 12:43 20.02.2020
2595 Rain 21 1022 78 16093 10.3 60 12:22 20.02.2020
2596 Rain 21 1023 94 12874 3.6 50 11:59 20.02.2020
2597 Rain 21 1023 94 12874 3.1 50 11:41 20.02.2020
2598 Rain 21 1023 94 12874 3.1 50 11:22 20.02.2020
2599 Rain 21 1023 78 16093 8.7 70 10:57 20.02.2020
2600 Rain 21 1023 78 16093 8.7 70 10:38 20.02.2020
2601 Rain 21 1023 78 16093 8.7 70 10:20 20.02.2020
2602 Rain 21 1022 83 14484 8.7 50 09:45 20.02.2020
2603 Rain 21 1022 83 14484 8.7 50 09:24 20.02.2020
2604 Rain 21 1022 73 16093 7.2 60 08:57 20.02.2020
2605 Rain 21 1022 73 16093 7.2 60 08:38 20.02.2020
2606 Rain 21 1022 73 16093 7.2 60 08:19 20.02.2020
2607 Rain 21 1022 94 16093 3.1 10 07:44 20.02.2020
2608 Rain 21 1022 94 16093 3.1 10 07:44 20.02.2020
2609 Rain 21 1022 73 14484 9.3 70 07:20 20.02.2020
2610 Rain 22 1021 94 11265 4.6 60 06:44 20.02.2020
2611 Rain 22 1021 94 11265 4.6 60 06:20 20.02.2020
2612 Rain 22 1019 83 6437 6.7 90 05:43 20.02.2020
2613 Drizzle 23 1020 78 16093 4.6 50 04:50 20.02.2020
2614 Drizzle 24 1020 73 16093 5.1 50 03:47 20.02.2020
2615 Clouds 25 1020 78 16093 5.1 60 02:48 20.02.2020
2616 Clouds 25 1020 83 16093 4.6 90 01:33 20.02.2020
2617 Clouds 24 1021 94 16093 5.7 100 00:47 20.02.2020
2618 Rain 24 1021 94 8047 6.2 70 00:25 20.02.2020
2619 Rain 23 1021 83 14484 5.1 90 23:48 19.02.2020
2620 Rain 23 1021 69 16093 7.7 90 23:19 19.02.2020
2621 Rain 24 1022 94 16093 5.7 100 22:43 19.02.2020
2622 Rain 24 1022 88 12874 2.1 60 22:25 19.02.2020
2623 Rain 23 1022 100 4828 9.53 77 21:59 19.02.2020
2624 Rain 23 1022 78 6437 7.7 80 21:40 19.02.2020
2625 Rain 23 1022 78 6437 7.7 80 21:19 19.02.2020
2626 Rain 22 1022 83 16093 9.3 90 20:57 19.02.2020
2627 Rain 22 1022 83 16093 9.3 90 20:38 19.02.2020
2628 Rain 21 1021 83 16093 8.2 60 20:19 19.02.2020
2629 Rain 21 1021 83 16093 8.2 60 19:57 19.02.2020
2630 Rain 21 1021 83 16093 8.2 60 19:37 19.02.2020
2631 Rain 21 1021 83 16093 8.2 60 19:19 19.02.2020
2632 Rain 21 1021 78 8047 7.7 70 18:57 19.02.2020
2633 Rain 21 1021 78 8047 7.7 70 18:39 19.02.2020
2634 Rain 21 1021 78 8047 7.7 70 18:20 19.02.2020
2635 Clouds 21 1021 83 16093 8.2 60 17:44 19.02.2020
2636 Rain 21 1020 78 14484 6.2 60 17:20 19.02.2020
2637 Drizzle 21 1020 82 16093 5.7 60 16:56 19.02.2020
2638 Drizzle 21 1020 82 16093 5.7 60 16:37 19.02.2020
2639 Drizzle 21 1020 82 16093 5.7 60 16:37 19.02.2020
2640 Drizzle 22 1020 82 16093 5.7 60 16:18 19.02.2020
2641 Rain 22 1020 88 16093 4.1 70 15:41 19.02.2020
2642 Rain 21 1020 88 16093 2.6 70 15:23 19.02.2020
2643 Rain 21 1020 88 16093 4.1 70 14:56 19.02.2020
2644 Rain 21 1020 88 16093 4.1 70 14:56 19.02.2020
2645 Clouds 21 1020 88 16093 4.6 40 14:37 19.02.2020
2646 Clouds 21 1020 88 16093 4.6 40 14:37 19.02.2020
2647 Rain 21 1020 88 16093 4.6 40 14:19 19.02.2020
2648 Rain 21 1020 77 16093 4.6 70 13:41 19.02.2020
2649 Rain 21 1020 77 16093 4.6 70 13:21 19.02.2020
2650 Clouds 22 1021 77 16093 4.6 60 12:42 19.02.2020
2651 Clouds 22 1021 69 16093 6.2 50 12:19 19.02.2020
2652 Clouds 22 1021 69 16093 6.2 50 12:19 19.02.2020
2653 Clouds 22 1021 69 16093 6.2 50 12:19 19.02.2020
2654 Clouds 22 1021 77 16093 5.7 50 11:59 19.02.2020
2655 Clouds 22 1021 69 16093 5.7 50 11:38 19.02.2020
2656 Clouds 22 1021 69 16093 5.7 50 11:20 19.02.2020
2657 Drizzle 21 1021 88 16093 3.1 50 10:58 19.02.2020
2658 Rain 22 1021 69 16093 3.1 0 10:38 19.02.2020
2659 Rain 22 1021 69 16093 3.1 0 10:38 19.02.2020
2660 Rain 22 1021 69 16093 3.1 0 10:19 19.02.2020
2661 Rain 23 1020 69 11265 1.5 0 09:58 19.02.2020
2662 Rain 22 1020 69 11265 1.5 0 09:37 19.02.2020
2663 Rain 22 1020 69 11265 1.5 0 09:18 19.02.2020
2664 Rain 22 1020 69 11265 1.5 0 09:18 19.02.2020
2665 Drizzle 22 1021 77 16093 2.6 10 08:45 19.02.2020
2666 Rain 22 1020 69 11265 6.2 80 08:24 19.02.2020
2667 Rain 21 1020 88 16093 3.6 10 07:42 19.02.2020
2668 Rain 21 1020 73 11265 1.5 0 07:42 19.02.2020
2669 Rain 22 1020 73 11265 1.5 0 07:21 19.02.2020
2670 Drizzle 22 1020 83 16093 3.1 10 06:53 19.02.2020
2671 Drizzle 22 1020 83 16093 3.1 10 06:53 19.02.2020
2672 Rain 22 1019 73 11265 5.7 60 06:23 19.02.2020
2673 Clouds 24 1018 54 16093 8.7 70 04:21 19.02.2020
2674 Clouds 25 1018 48 16093 9.8 50 02:56 19.02.2020
2675 Clouds 25 1018 48 16093 9.8 50 02:30 19.02.2020
2676 Clouds 25 1019 51 16093 8.7 50 01:24 19.02.2020
2677 Clouds 25 1019 88 16093 5.7 90 00:49 19.02.2020
2678 Rain 25 1019 54 16093 8.7 60 00:29 19.02.2020
2679 Rain 24 1020 94 9656 4.1 80 23:44 18.02.2020
2680 Rain 24 1020 65 16093 7.2 50 23:21 18.02.2020
2681 Rain 23 1020 94 14484 3.6 100 22:57 18.02.2020
2682 Drizzle 23 1021 94 6437 3.1 80 22:39 18.02.2020
2683 Drizzle 23 1021 94 6437 3.1 80 22:19 18.02.2020
2684 Rain 22 1020 78 16093 6.7 60 21:55 18.02.2020
2685 Rain 22 1020 78 16093 6.7 60 21:37 18.02.2020
2686 Rain 23 1020 78 16093 6.7 60 21:18 18.02.2020
2687 Rain 23 1020 73 16093 6.2 40 20:56 18.02.2020
2688 Rain 23 1020 73 16093 6.2 40 20:56 18.02.2020
2689 Rain 23 1020 73 16093 6.2 40 20:56 18.02.2020
2690 Rain 23 1020 73 16093 6.2 40 20:38 18.02.2020
2691 Rain 23 1020 73 16093 6.2 40 20:38 18.02.2020
2692 Rain 22 1020 73 16093 6.2 40 20:19 18.02.2020
2693 Rain 22 1019 64 16093 8.2 70 19:42 18.02.2020
2694 Rain 22 1019 64 16093 8.2 70 19:20 18.02.2020
2695 Clouds 22 1018 56 16093 7.7 70 18:59 18.02.2020
2696 Clouds 22 1018 56 16093 7.7 70 18:59 18.02.2020
2697 Clouds 22 1018 56 16093 7.7 70 18:40 18.02.2020
2698 Clouds 22 1018 56 16093 7.7 70 18:20 18.02.2020
2699 Clouds 22 1018 60 16093 5.7 50 17:55 18.02.2020
2700 Clouds 22 1018 60 16093 5.7 50 17:36 18.02.2020
2701 Clouds 22 1018 60 16093 5.7 50 17:18 18.02.2020
2702 Clouds 22 1017 56 16093 5.7 40 16:39 18.02.2020
2703 Clouds 22 1017 56 16093 5.7 40 16:19 18.02.2020
2704 Clouds 22 1017 56 16093 7.2 60 15:40 18.02.2020
2705 Clouds 22 1017 56 16093 7.2 60 15:20 18.02.2020
2706 Clouds 22 1017 56 16093 4.1 60 14:57 18.02.2020
2707 Clouds 22 1017 56 16093 4.1 60 14:38 18.02.2020
2708 Clouds 22 1017 56 16093 4.1 60 14:20 18.02.2020
2709 Clouds 22 1018 60 16093 5.7 40 13:41 18.02.2020
2710 Clouds 22 1018 60 16093 5.7 40 13:22 18.02.2020
2711 Clouds 22 1018 60 16093 5.1 30 12:56 18.02.2020
2712 Clouds 22 1018 60 16093 5.1 30 12:38 18.02.2020
2713 Clouds 22 1018 60 16093 5.1 30 12:19 18.02.2020
2714 Clouds 22 1019 64 16093 5.7 60 11:44 18.02.2020
2715 Clouds 22 1019 64 16093 5.7 60 11:26 18.02.2020
2716 Rain 22 1019 69 16093 7.2 50 10:57 18.02.2020
2717 Rain 22 1019 69 16093 7.2 50 10:38 18.02.2020
2718 Rain 22 1019 69 16093 7.2 50 10:18 18.02.2020
2719 Rain 22 1019 82 16093 3.6 320 09:56 18.02.2020
2720 Clouds 22 1019 88 16093 1.5 350 09:37 18.02.2020
2721 Clouds 22 1019 88 16093 1.5 350 09:18 18.02.2020
2722 Drizzle 22 1018 88 16093 2.1 180 08:43 18.02.2020
2723 Drizzle 22 1018 82 16093 5.72 70 08:21 18.02.2020
2724 Clouds 22 1018 88 16093 2.1 360 07:56 18.02.2020
2725 Clouds 22 1017 60 16093 8.2 70 07:33 18.02.2020
2726 Rain 22 1017 69 16093 9.8 60 06:57 18.02.2020
2727 Rain 22 1017 69 16093 9.8 60 06:39 18.02.2020
2728 Rain 21 1017 69 16093 9.8 60 06:19 18.02.2020
2729 Clouds 22 1016 57 16093 7.2 60 05:33 18.02.2020
2730 Clouds 23 1016 83 16093 2.6 80 04:26 18.02.2020
2731 Drizzle 24 1016 78 16093 3.6 80 02:59 18.02.2020
2732 Clouds 24 1016 88 12874 1.5 80 01:59 18.02.2020
2733 Drizzle 24 1017 83 16093 4.1 40 00:54 18.02.2020
2734 Clouds 24 1017 47 16093 8.2 30 00:22 18.02.2020
2735 Rain 24 1018 78 16093 4.6 50 23:45 17.02.2020
2736 Clouds 25 1018 51 16093 7.7 70 23:26 17.02.2020
2737 Clouds 24 1019 83 16093 2.6 60 22:59 17.02.2020
2738 Clouds 25 1019 51 16093 8.2 60 22:41 17.02.2020
2739 Clouds 25 1019 51 16093 8.2 60 22:20 17.02.2020
2740 Drizzle 23 1019 83 16093 6.75 69 21:56 17.02.2020
2741 Rain 23 1018 64 16093 5.7 60 21:37 17.02.2020
2742 Drizzle 23 1019 77 12874 3.6 60 21:18 17.02.2020
2743 Rain 22 1018 88 16093 6.75 69 20:40 17.02.2020
2744 Rain 22 1018 88 16093 4.9 72 20:21 17.02.2020
2745 Drizzle 21 1018 88 16093 4.9 72 19:57 17.02.2020
2746 Rain 21 1017 64 16093 7.2 70 19:38 17.02.2020
2747 Rain 22 1017 64 16093 7.2 70 19:19 17.02.2020
2748 Rain 21 1017 64 16093 7.2 70 19:19 17.02.2020
2749 Drizzle 21 1017 93 16093 4.9 72 18:37 17.02.2020
2750 Drizzle 21 1017 93 16093 4.9 72 18:19 17.02.2020
2751 Rain 21 1017 88 16093 4.9 72 17:57 17.02.2020
2752 Rain 21 1017 93 16093 4.9 72 17:36 17.02.2020
2753 Rain 21 1017 93 16093 5.07 67 17:18 17.02.2020
2754 Drizzle 21 1017 82 16093 3.6 80 16:43 17.02.2020
2755 Rain 21 1017 82 16093 2.6 110 16:23 17.02.2020
2756 Rain 21 1017 69 16093 6.2 60 15:59 17.02.2020
2757 Rain 21 1017 69 16093 6.2 60 15:40 17.02.2020
2758 Rain 21 1017 69 16093 6.2 60 15:22 17.02.2020
2759 Clouds 21 1017 88 16093 2.1 60 14:46 17.02.2020
2760 Drizzle 21 1017 93 16093 5.07 67 14:27 17.02.2020
2761 Drizzle 21 1017 93 16093 6.05 62 13:59 17.02.2020
2762 Clouds 21 1017 88 16093 6.05 62 13:39 17.02.2020
2763 Clouds 21 1017 88 16093 5.36 63 13:19 17.02.2020
2764 Clouds 21 1018 88 16093 5.36 63 12:47 17.02.2020
2765 Clouds 22 1018 64 16093 7.7 60 12:26 17.02.2020
2766 Clouds 21 1018 88 16093 3.1 70 11:59 17.02.2020
2767 Clouds 22 1018 64 16093 6.7 70 11:41 17.02.2020
2768 Clouds 22 1018 64 16093 6.7 70 11:21 17.02.2020
2769 Clouds 21 1018 88 16093 5.4 62 10:55 17.02.2020
2770 Clouds 22 1018 64 16093 7.2 50 10:37 17.02.2020
2771 Clouds 22 1018 64 16093 7.2 50 10:19 17.02.2020
2772 Clouds 23 1018 88 16093 2.1 30 09:42 17.02.2020
2773 Rain 22 1018 88 16093 2.1 30 09:23 17.02.2020
2774 Rain 22 1018 69 16093 5.7 40 08:59 17.02.2020
2775 Rain 22 1018 69 16093 5.7 40 08:40 17.02.2020
2776 Rain 22 1018 69 16093 5.7 40 08:20 17.02.2020
2777 Clouds 22 1018 88 16093 2.1 50 07:47 17.02.2020
2778 Drizzle 22 1018 82 16093 2.6 10 07:24 17.02.2020
2779 Clouds 23 1017 60 16093 5.1 50 06:52 17.02.2020
2780 Clouds 23 1017 60 16093 5.1 50 06:32 17.02.2020
2781 Clouds 23 1016 57 16093 5.1 60 05:58 17.02.2020
2782 Clouds 23 1016 57 16093 5.1 60 05:38 17.02.2020
2783 Drizzle 24 1016 78 16093 3.6 70 03:22 17.02.2020
2784 Clouds 25 1015 61 16093 6.2 80 01:58 17.02.2020
2785 Clouds 25 1016 64 16093 7.2 70 00:48 17.02.2020
2786 Clouds 25 1017 51 16093 7.2 40 00:22 17.02.2020
2787 Clouds 25 1017 51 16093 7.2 40 00:21 17.02.2020
2788 Clouds 25 1018 69 16093 6.2 80 23:53 16.02.2020
2789 Clouds 25 1018 64 16093 6.2 80 23:30 16.02.2020
2790 Clouds 25 1018 69 16093 7.2 70 22:57 16.02.2020
2791 Rain 24 1018 61 16093 5.7 60 22:39 16.02.2020
2792 Rain 24 1018 61 16093 5.7 60 22:20 16.02.2020
2793 Clouds 24 1019 69 16093 6.2 100 21:57 16.02.2020
2794 Rain 23 1019 60 16093 9.8 60 21:39 16.02.2020
2795 Rain 23 1019 60 16093 9.8 60 21:20 16.02.2020
2796 Clouds 24 1018 78 16093 3.1 90 20:57 16.02.2020
2797 Clouds 24 1018 78 16093 3.1 90 20:57 16.02.2020
2798 Clouds 24 1018 73 16093 2.6 70 20:38 16.02.2020
2799 Clouds 24 1018 73 16093 2.6 70 20:20 16.02.2020
2800 Clouds 23 1017 64 16093 5.7 60 19:57 16.02.2020
2801 Clouds 23 1017 64 16093 5.7 60 19:37 16.02.2020
2802 Clouds 22 1017 64 16093 5.7 60 19:18 16.02.2020
2803 Clouds 22 1017 60 16093 6.2 70 18:42 16.02.2020
2804 Clouds 22 1017 60 16093 6.2 70 18:23 16.02.2020
2805 Clouds 22 1017 64 16093 9.3 60 17:47 16.02.2020
2806 Clouds 22 1017 64 16093 9.3 60 17:21 16.02.2020
2807 Clouds 22 1016 60 16093 8.7 70 16:59 16.02.2020
2808 Clouds 23 1016 60 16093 8.7 70 16:39 16.02.2020
2809 Clouds 23 1016 60 16093 8.7 70 16:21 16.02.2020
2810 Clouds 23 1016 60 16093 7.2 60 15:59 16.02.2020
2811 Clouds 22 1016 60 16093 7.2 60 15:38 16.02.2020
2812 Clouds 22 1016 60 16093 7.2 60 15:20 16.02.2020
2813 Clouds 22 1016 64 16093 5.7 80 14:41 16.02.2020
2814 Clouds 22 1016 64 16093 5.7 80 14:23 16.02.2020
2815 Clouds 23 1017 77 16093 2.6 120 13:48 16.02.2020
2816 Clouds 23 1017 64 16093 7.7 70 13:25 16.02.2020
2817 Clouds 22 1017 77 16093 4.98 77 12:58 16.02.2020
2818 Clouds 22 1017 64 16093 8.7 70 12:38 16.02.2020
2819 Clouds 22 1017 64 16093 8.7 70 12:19 16.02.2020
2820 Clouds 23 1018 64 16093 6.2 60 11:40 16.02.2020
2821 Clouds 23 1018 64 16093 6.2 60 11:19 16.02.2020
2822 Clouds 23 1018 60 16093 8.2 70 10:57 16.02.2020
2823 Clouds 23 1018 60 16093 8.2 70 10:39 16.02.2020
2824 Clouds 23 1018 60 16093 8.2 70 10:21 16.02.2020
2825 Clouds 23 1018 64 16093 6.7 60 09:57 16.02.2020
2826 Clouds 23 1018 64 16093 6.7 60 09:37 16.02.2020
2827 Clouds 23 1018 64 16093 6.7 60 09:37 16.02.2020
2828 Clouds 23 1018 64 16093 6.7 60 09:19 16.02.2020
2829 Clouds 23 1018 73 16093 2.6 90 08:46 16.02.2020
2830 Clouds 23 1018 60 16093 6.7 60 08:21 16.02.2020
2831 Clouds 23 1018 60 16093 6.7 60 08:21 16.02.2020
2832 Clouds 23 1018 73 16093 2.1 70 07:55 16.02.2020
2833 Clouds 23 1018 73 16093 3.6 90 07:34 16.02.2020
2834 Clouds 23 1017 60 16093 6.7 60 06:35 16.02.2020
2835 Clouds 25 1016 54 16093 6.7 60 04:45 16.02.2020
2836 Clouds 25 1015 54 16093 6.2 50 03:33 16.02.2020
2837 Clouds 26 1015 45 16093 8.7 60 02:32 16.02.2020
2838 Clouds 26 1015 45 16093 9.3 50 01:43 16.02.2020
2839 Clouds 26 1015 45 16093 9.3 50 01:23 16.02.2020
2840 Clouds 26 1016 61 16093 5.1 120 00:53 16.02.2020
2841 Clouds 26 1016 61 16093 5.7 100 00:33 16.02.2020
2842 Clouds 26 1017 48 16093 6.2 90 23:58 15.02.2020
2843 Clouds 26 1017 48 16093 6.2 90 23:40 15.02.2020
2844 Clouds 26 1017 48 16093 6.2 90 23:40 15.02.2020
2845 Clouds 26 1017 48 16093 6.2 90 23:21 15.02.2020
2846 Clouds 25 1018 51 16093 5.7 70 22:41 15.02.2020
2847 Clouds 26 1018 51 16093 5.7 70 22:22 15.02.2020
2848 Clouds 25 1018 78 16093 3.6 100 21:59 15.02.2020
2849 Clouds 25 1018 78 16093 3.6 100 21:41 15.02.2020
2850 Clouds 25 1018 57 16093 5.7 70 21:21 15.02.2020
2851 Clouds 24 1018 78 16093 2.6 120 20:41 15.02.2020
2852 Clouds 24 1018 78 16093 3.1 130 20:21 15.02.2020
2853 Clouds 23 1018 83 16093 2.6 120 19:44 15.02.2020
2854 Clouds 23 1018 83 16093 2.6 120 19:24 15.02.2020
2855 Clouds 23 1018 83 16093 2.6 120 19:24 15.02.2020
2856 Clouds 22 1017 94 16093 2.1 110 18:55 15.02.2020
2857 Clouds 22 1017 94 16093 2.1 160 18:37 15.02.2020
2858 Clouds 22 1017 94 16093 2.1 160 18:18 15.02.2020
2859 Clouds 22 1017 94 16093 4.79 93 17:43 15.02.2020
2860 Clouds 22 1016 73 16093 5.7 60 17:22 15.02.2020
2861 Drizzle 21 1016 94 16093 3.41 87 16:59 15.02.2020
2862 Rain 21 1015 78 16093 7.2 60 16:39 15.02.2020
2863 Rain 21 1015 78 16093 7.2 60 16:19 15.02.2020
2864 Clouds 22 1016 73 16093 5.1 70 15:43 15.02.2020
2865 Clouds 22 1016 73 16093 5.1 70 15:24 15.02.2020
2866 Clouds 23 1016 73 16093 6.7 80 14:45 15.02.2020
2867 Clouds 23 1015 73 16093 5.1 80 14:24 15.02.2020
2868 Clouds 23 1016 69 16093 4.1 60 13:58 15.02.2020
2869 Clouds 23 1016 69 16093 4.1 60 13:39 15.02.2020
2870 Clouds 23 1016 69 16093 4.1 60 13:20 15.02.2020
2871 Clouds 23 1017 94 16093 2.38 80 12:44 15.02.2020
2872 Clouds 23 1017 69 16093 3.1 40 12:26 15.02.2020
2873 Clouds 22 1017 94 16093 2.38 80 11:55 15.02.2020
2874 Clouds 23 1017 73 16093 1.5 20 11:36 15.02.2020
2875 Clouds 23 1017 73 16093 1.5 20 11:18 15.02.2020
2876 Clouds 23 1018 69 16093 1.5 30 10:39 15.02.2020
2877 Clouds 22 1018 69 16093 1.5 30 10:20 15.02.2020
2878 Clouds 22 1018 93 16093 1.5 280 09:44 15.02.2020
2879 Clouds 23 1018 69 16093 2.1 30 09:25 15.02.2020
2880 Clouds 23 1017 73 16093 5.7 90 08:46 15.02.2020
2881 Clouds 23 1018 83 16093 3.23 90 08:26 15.02.2020
2882 Clouds 22 1017 94 16093 2.65 88 07:59 15.02.2020
2883 Clouds 23 1016 64 16093 4.1 60 07:39 15.02.2020
2884 Clouds 23 1016 64 16093 4.1 60 07:21 15.02.2020
2885 Clouds 23 1015 65 16093 4.1 50 06:38 15.02.2020
2886 Clouds 24 1015 73 16093 4.6 90 05:56 15.02.2020
2887 Clouds 25 1014 57 16093 8.2 60 04:49 15.02.2020
2888 Clouds 25 1014 57 16093 8.2 60 04:24 15.02.2020
2889 Clouds 25 1014 73 16093 6.7 80 02:58 15.02.2020
2890 Clouds 25 1014 73 16093 6.7 80 02:24 15.02.2020
2891 Clouds 26 1014 65 16093 5.7 80 01:45 15.02.2020
2892 Clouds 27 1015 54 16093 6.7 30 00:58 15.02.2020
2893 Clouds 26 1015 54 16093 4.1 150 00:28 15.02.2020
2894 Clouds 27 1016 54 16093 4.6 20 23:45 14.02.2020
2895 Clouds 27 1016 54 16093 4.6 20 23:21 14.02.2020
2896 Clouds 27 1017 69 16093 3.6 120 22:55 14.02.2020
2897 Clouds 27 1016 65 16093 4.6 90 22:36 14.02.2020
2898 Clouds 27 1016 65 16093 4.6 90 22:18 14.02.2020
2899 Clouds 26 1017 69 16093 3.6 80 21:41 14.02.2020
2900 Clouds 26 1017 57 16093 4.6 90 21:23 14.02.2020
2901 Clouds 25 1016 65 16093 5.1 80 20:44 14.02.2020
2902 Clouds 25 1017 61 16093 5.1 60 20:20 14.02.2020
2903 Clouds 24 1017 78 16093 3.1 150 19:58 14.02.2020
2904 Clouds 24 1016 61 16093 5.7 70 19:40 14.02.2020
2905 Clouds 24 1016 61 16093 5.7 70 19:40 14.02.2020
2906 Clouds 24 1016 61 16093 5.7 70 19:20 14.02.2020
2907 Clouds 23 1016 83 16093 3.6 160 18:56 14.02.2020
2908 Clouds 23 1015 69 16093 6.2 70 18:38 14.02.2020
2909 Clouds 23 1015 69 16093 6.2 70 18:19 14.02.2020
2910 Clouds 23 1015 69 16093 4.6 70 17:42 14.02.2020
2911 Clouds 23 1015 69 16093 4.6 70 17:21 14.02.2020
2912 Clouds 23 1014 73 16093 6.2 70 16:58 14.02.2020
2913 Clouds 23 1014 73 16093 6.2 70 16:39 14.02.2020
2914 Clouds 23 1014 73 16093 6.2 70 16:21 14.02.2020
2915 Clouds 23 1015 73 16093 6.7 50 15:56 14.02.2020
2916 Clouds 23 1015 73 16093 6.7 50 15:37 14.02.2020
2917 Clouds 23 1015 73 16093 6.7 50 15:37 14.02.2020
2918 Clouds 23 1015 73 16093 6.7 50 15:37 14.02.2020
2919 Clouds 23 1015 73 16093 6.7 50 15:37 14.02.2020
2920 Clouds 23 1015 73 16093 6.7 50 15:19 14.02.2020
2921 Clouds 24 1015 88 16093 4.1 90 14:56 14.02.2020
2922 Clouds 24 1015 88 16093 4.1 90 14:38 14.02.2020
2923 Clouds 24 1015 88 16093 4.1 90 14:19 14.02.2020
2924 Clouds 24 1015 69 16093 6.2 90 13:40 14.02.2020
2925 Clouds 23 1015 69 16093 6.2 90 13:21 14.02.2020
2926 Clouds 23 1016 69 16093 4.1 90 12:58 14.02.2020
2927 Clouds 23 1016 69 16093 4.1 90 12:39 14.02.2020
2928 Clouds 23 1016 69 16093 4.1 90 12:20 14.02.2020
2929 Clouds 23 1016 69 16093 4.1 90 12:20 14.02.2020
2930 Clouds 23 1016 69 16093 4.1 90 12:20 14.02.2020
2931 Clouds 24 1016 69 16093 6.2 100 11:58 14.02.2020
2932 Clouds 23 1016 69 16093 6.2 100 11:40 14.02.2020
2933 Clouds 24 1016 69 16093 6.2 100 11:20 14.02.2020
2934 Clouds 24 1017 83 16093 2.1 80 10:46 14.02.2020
2935 Clouds 24 1017 83 16093 2.1 80 10:28 14.02.2020
2936 Rain 24 1017 83 16093 4.2 85 09:57 14.02.2020
2937 Rain 24 1017 83 16093 4.2 85 09:57 14.02.2020
2938 Rain 24 1016 73 16093 6.7 80 09:38 14.02.2020
2939 Rain 24 1016 73 16093 6.7 80 09:19 14.02.2020
2940 Rain 24 1016 73 16093 5.7 80 08:40 14.02.2020
2941 Rain 24 1016 73 16093 5.7 80 08:22 14.02.2020
2942 Clouds 24 1017 83 16093 2.22 53 07:51 14.02.2020
2943 Clouds 24 1016 83 16093 6.7 70 07:33 14.02.2020
2944 Clouds 24 1015 65 16093 4.6 50 06:55 14.02.2020
2945 Clouds 24 1015 65 16093 4.6 50 06:23 14.02.2020
2946 Clouds 25 1015 83 16093 5.1 80 05:44 14.02.2020
2947 Clouds 27 1014 45 16093 3.6 160 03:52 14.02.2020
2948 Clouds 27 1014 45 16093 3.6 160 03:28 14.02.2020
2949 Clouds 28 1013 48 16093 4.6 160 02:19 14.02.2020
2950 Clouds 28 1014 45 16093 6.7 120 01:21 14.02.2020
2951 Clouds 27 1014 51 16093 6.7 120 00:37 14.02.2020
2952 Clouds 27 1014 51 16093 6.7 120 00:18 14.02.2020
2953 Clouds 28 1015 45 16093 5.1 110 23:41 13.02.2020
2954 Clouds 28 1015 45 16093 5.1 110 23:19 13.02.2020
2955 Clouds 28 1015 48 16093 5.1 90 22:41 13.02.2020
2956 Clouds 27 1015 48 16093 5.1 90 22:20 13.02.2020
2957 Clouds 27 1015 54 16093 4.6 140 21:59 13.02.2020
2958 Clouds 27 1015 54 16093 4.6 140 21:40 13.02.2020
2959 Clouds 27 1015 54 16093 4.6 140 21:21 13.02.2020
2960 Clouds 26 1015 74 16093 4.1 120 20:43 13.02.2020
2961 Clouds 25 1015 65 16093 2.6 160 20:23 13.02.2020
2962 Clouds 24 1014 69 16093 3.1 80 19:58 13.02.2020
2963 Clouds 24 1014 69 16093 3.1 80 19:40 13.02.2020
2964 Clouds 24 1014 69 16093 3.1 80 19:21 13.02.2020
2965 Clouds 24 1014 78 16093 4.1 90 18:59 13.02.2020
2966 Clouds 23 1013 78 16093 3.1 50 18:41 13.02.2020
2967 Clouds 23 1013 78 16093 3.1 50 18:22 13.02.2020
2968 Clouds 23 1013 78 16093 4.6 100 17:57 13.02.2020
2969 Clouds 23 1012 78 16093 4.1 70 17:37 13.02.2020
2970 Clouds 23 1012 78 16093 4.1 70 17:19 13.02.2020
2971 Clouds 23 1012 73 16093 2.6 60 16:43 13.02.2020
2972 Clouds 23 1012 73 16093 2.6 60 16:21 13.02.2020
2973 Clouds 23 1011 88 16093 4.1 80 15:58 13.02.2020
2974 Clouds 23 1012 73 16093 3.1 70 15:40 13.02.2020
2975 Clouds 23 1012 73 16093 3.1 70 15:20 13.02.2020
2976 Clouds 23 1012 78 16093 3.6 70 14:59 13.02.2020
2977 Clouds 23 1012 78 16093 3.6 70 14:40 13.02.2020
2978 Clouds 23 1012 78 16093 3.6 70 14:22 13.02.2020
2979 Clouds 22 1012 78 16093 4.6 70 13:59 13.02.2020
2980 Clouds 22 1012 78 16093 4.6 70 13:41 13.02.2020
2981 Drizzle 21 1013 93 16093 2.1 330 13:18 13.02.2020
2982 Clouds 21 1012 78 16093 4.6 80 12:48 13.02.2020
2983 Clouds 21 1013 83 16093 2.1 340 12:30 13.02.2020
2984 Clouds 21 1013 83 16093 2.1 340 12:30 13.02.2020
2985 Clouds 21 1014 78 16093 2.1 360 11:58 13.02.2020
2986 Clouds 21 1014 78 16093 2.1 360 11:40 13.02.2020
2987 Rain 21 1014 78 16093 2.1 360 11:19 13.02.2020
2988 Rain 21 1013 83 9656 1.27 71 10:43 13.02.2020
2989 Rain 21 1013 83 9656 1.27 71 10:24 13.02.2020
2990 Clouds 22 1014 73 16093 2.1 50 09:47 13.02.2020
2991 Clouds 22 1014 73 16093 2.1 50 09:24 13.02.2020
2992 Clouds 22 1014 73 16093 2.1 50 09:24 13.02.2020
2993 Clouds 22 1013 73 16093 2.1 80 08:48 13.02.2020
2994 Clouds 22 1013 73 16093 2.1 80 08:20 13.02.2020
2995 Clouds 22 1012 69 16093 3.6 70 07:44 13.02.2020
2996 Clouds 22 1012 69 16093 3.6 70 07:44 13.02.2020
2997 Clouds 22 1012 69 16093 3.6 70 07:24 13.02.2020
2998 Clouds 22 1012 69 16093 3.6 70 07:24 13.02.2020
2999 Clouds 23 1012 69 16093 4.1 60 06:54 13.02.2020
3000 Clouds 23 1012 69 16093 4.1 60 06:36 13.02.2020
3001 Clouds 24 1011 61 16093 4.6 50 05:52 13.02.2020
3002 Clouds 24 1010 61 16093 5.1 110 04:48 13.02.2020
3003 Clouds 24 1010 61 16093 5.1 110 04:23 13.02.2020
3004 Clouds 25 1010 57 16093 5.1 60 03:41 13.02.2020
3005 Clouds 26 1009 69 16093 3.1 90 02:58 13.02.2020
3006 Clouds 26 1009 69 16093 3.1 90 02:20 13.02.2020
3007 Clouds 25 1009 73 16093 4.6 80 01:41 13.02.2020
3008 Clouds 25 1009 73 16093 4.6 80 01:41 13.02.2020
3009 Clouds 25 1011 54 16093 6.2 90 00:57 13.02.2020
3010 Clouds 26 1011 54 16093 6.2 90 00:27 13.02.2020
3011 Clouds 25 1011 64 16093 5.7 100 23:43 12.02.2020
3012 Clouds 25 1011 83 16093 3.6 90 23:23 12.02.2020
3013 Rain 24 1012 54 16093 4.6 60 22:57 12.02.2020
3014 Rain 24 1012 54 16093 4.6 60 22:39 12.02.2020
3015 Rain 24 1012 54 16093 4.6 60 22:21 12.02.2020
3016 Clouds 23 1012 78 16093 4.6 70 21:55 12.02.2020
3017 Clouds 23 1012 69 16093 2.1 0 21:36 12.02.2020
3018 Clouds 23 1012 69 16093 2.1 0 21:18 12.02.2020
3019 Clouds 22 1011 78 16093 3.72 84 20:42 12.02.2020
3020 Clouds 22 1011 78 16093 2.81 95 20:24 12.02.2020
3021 Clear 20 1011 88 16093 1.16 95 19:57 12.02.2020
3022 Clear 20 1011 88 16093 1.51 98 19:38 12.02.2020
3023 Clear 20 1011 88 16093 1.16 95 19:20 12.02.2020
3024 Clouds 18 1010 93 16093 2.1 20 18:49 12.02.2020
3025 Clouds 18 1010 93 16093 2.1 20 18:20 12.02.2020
3026 Clouds 18 1009 93 16093 1.5 310 17:58 12.02.2020
3027 Clouds 18 1009 93 16093 1.5 310 17:38 12.02.2020
3028 Clouds 18 1009 93 16093 1.5 310 17:38 12.02.2020
3029 Clouds 18 1009 93 16093 1.5 310 17:19 12.02.2020
3030 Rain 18 1009 93 16093 1.4 58 16:40 12.02.2020
3031 Rain 19 1009 93 16093 1.57 54 16:22 12.02.2020
3032 Rain 18 1009 88 16093 1.5 320 15:58 12.02.2020
3033 Rain 18 1009 88 16093 1.5 320 15:58 12.02.2020
3034 Rain 18 1009 88 16093 1.5 320 15:37 12.02.2020
3035 Rain 18 1009 88 16093 1.5 320 15:18 12.02.2020
3036 Rain 18 1009 88 16093 2.6 320 14:42 12.02.2020
3037 Rain 18 1009 88 16093 2.6 320 14:21 12.02.2020
3038 Rain 19 1009 88 16093 2.13 33 13:58 12.02.2020
3039 Rain 19 1009 88 16093 2.13 33 13:40 12.02.2020
3040 Clouds 18 1009 88 16093 2.13 33 13:20 12.02.2020
3041 Rain 19 1010 82 16093 2.1 0 12:57 12.02.2020
3042 Rain 19 1010 82 16093 2.1 0 12:57 12.02.2020
3043 Rain 19 1010 82 16093 2.1 0 12:38 12.02.2020
3044 Rain 19 1010 82 16093 2.1 0 12:18 12.02.2020
3045 Rain 19 1009 77 16093 3.1 340 11:57 12.02.2020
3046 Rain 20 1009 77 16093 3.1 340 11:39 12.02.2020
3047 Clouds 19 1009 77 16093 3.1 340 11:20 12.02.2020
3048 Clouds 20 1010 77 16093 2.1 300 10:55 12.02.2020
3049 Clouds 20 1010 77 16093 2.1 300 10:36 12.02.2020
3050 Clouds 20 1010 77 16093 2.1 300 10:18 12.02.2020
3051 Clouds 20 1010 77 16093 2.1 300 10:18 12.02.2020
3052 Clouds 20 1009 73 16093 2.1 320 09:42 12.02.2020
3053 Clouds 20 1009 73 16093 2.1 320 09:22 12.02.2020
3054 Clouds 20 1009 77 16093 4.1 360 08:57 12.02.2020
3055 Clouds 20 1009 77 16093 4.1 360 08:37 12.02.2020
3056 Clouds 21 1009 77 16093 4.1 360 08:19 12.02.2020
3057 Clouds 20 1009 100 16093 2.1 340 07:44 12.02.2020
3058 Drizzle 21 1009 100 16093 2.6 340 07:23 12.02.2020
3059 Clouds 21 1008 56 16093 2.6 10 06:56 12.02.2020
3060 Clouds 21 1008 56 16093 2.6 10 06:23 12.02.2020
3061 Clouds 22 1008 57 16093 4.1 30 05:38 12.02.2020
3062 Clouds 23 1007 57 16093 5.1 340 04:58 12.02.2020
3063 Clouds 23 1007 57 16093 5.1 340 04:39 12.02.2020
3064 Clouds 23 1007 83 16093 4.1 320 03:33 12.02.2020
3065 Clouds 23 1008 94 16093 3.6 330 02:58 12.02.2020
3066 Rain 24 1008 83 16093 5.1 340 02:29 12.02.2020
3067 Clouds 24 1008 88 16093 5.7 330 01:50 12.02.2020
3068 Rain 23 1009 83 16093 6.7 340 00:45 12.02.2020
3069 Clouds 23 1009 54 16093 5.7 320 00:26 12.02.2020
3070 Drizzle 23 1009 78 16093 7.7 10 23:55 11.02.2020
3071 Rain 23 1010 60 16093 4.1 10 23:37 11.02.2020
3072 Rain 23 1010 60 16093 4.1 10 23:37 11.02.2020
3073 Rain 23 1010 60 16093 4.1 10 23:18 11.02.2020
3074 Rain 22 1010 94 16093 3.1 350 22:55 11.02.2020
3075 Rain 22 1011 69 16093 4.1 350 22:36 11.02.2020
3076 Rain 22 1011 69 16093 4.1 350 22:18 11.02.2020
3077 Rain 22 1011 93 11265 5.7 360 21:55 11.02.2020
3078 Rain 22 1010 88 14484 5.1 10 21:36 11.02.2020
3079 Rain 23 1010 88 14484 5.1 10 21:18 11.02.2020
3080 Rain 23 1010 88 14484 5.1 10 21:18 11.02.2020
3081 Rain 21 1010 93 16093 3.6 340 20:39 11.02.2020
3082 Rain 21 1010 93 16093 3.6 340 20:39 11.02.2020
3083 Rain 21 1010 93 16093 3.6 340 20:20 11.02.2020
3084 Clouds 20 1009 100 16093 7.2 340 19:59 11.02.2020
3085 Rain 20 1009 100 14484 4.1 350 19:41 11.02.2020
3086 Rain 20 1009 100 14484 4.1 350 19:23 11.02.2020
3087 Rain 19 1008 82 16093 5.1 340 18:55 11.02.2020
3088 Rain 19 1008 82 16093 5.1 340 18:37 11.02.2020
3089 Rain 19 1008 82 16093 5.1 340 18:18 11.02.2020
3090 Rain 19 1008 93 16093 4.6 350 17:40 11.02.2020
3091 Rain 19 1008 93 16093 4.6 350 17:21 11.02.2020
3092 Rain 19 1008 93 16093 4.6 350 17:21 11.02.2020
3093 Rain 19 1007 82 16093 3.1 350 16:59 11.02.2020
3094 Rain 19 1007 82 16093 3.1 350 16:40 11.02.2020
3095 Rain 19 1007 82 16093 3.1 350 16:22 11.02.2020
3096 Rain 19 1007 93 16093 7.2 340 15:58 11.02.2020
3097 Rain 19 1007 82 16093 6.2 340 15:39 11.02.2020
3098 Rain 19 1007 82 16093 6.2 340 15:21 11.02.2020
3099 Rain 19 1007 93 16093 3.6 350 14:42 11.02.2020
3100 Rain 19 1007 93 16093 3.6 350 14:19 11.02.2020
3101 Rain 19 1007 93 16093 3.6 350 14:19 11.02.2020
3102 Rain 19 1007 93 16093 3.1 350 13:57 11.02.2020
3103 Rain 19 1008 82 16093 3.6 10 13:38 11.02.2020
3104 Rain 19 1008 82 16093 3.6 10 13:20 11.02.2020
3105 Rain 19 1008 88 16093 4.6 340 12:55 11.02.2020
3106 Rain 19 1008 88 16093 4.6 340 12:36 11.02.2020
3107 Rain 19 1008 88 16093 4.6 340 12:18 11.02.2020
3108 Clouds 20 1008 82 16093 3.1 320 11:41 11.02.2020
3109 Clouds 19 1008 82 16093 3.1 320 11:19 11.02.2020
3110 Clouds 19 1008 82 16093 3.1 320 11:19 11.02.2020
3111 Rain 19 1008 82 16093 2.1 40 10:54 11.02.2020
3112 Rain 19 1008 82 16093 2.1 40 10:36 11.02.2020
3113 Rain 19 1008 82 16093 2.1 40 10:18 11.02.2020
3114 Drizzle 19 1008 93 16093 7.2 350 09:43 11.02.2020
3115 Drizzle 19 1008 93 16093 7.2 350 09:22 11.02.2020
3116 Clouds 19 1008 93 16093 2.6 350 08:55 11.02.2020
3117 Rain 19 1008 88 16093 4.1 360 08:37 11.02.2020
3118 Rain 19 1008 88 16093 4.1 360 08:18 11.02.2020
3119 Clouds 19 1007 93 16093 3.6 340 07:41 11.02.2020
3120 Clouds 19 1007 93 16093 3.6 340 07:19 11.02.2020
3121 Clouds 19 1007 93 16093 3.6 340 07:19 11.02.2020
3122 Clouds 20 1007 77 16093 4.6 330 06:40 11.02.2020
3123 Clouds 20 1007 77 16093 4.6 330 06:20 11.02.2020
3124 Rain 20 1006 73 16093 4.6 320 05:47 11.02.2020
3125 Rain 20 1006 73 16093 4.6 320 05:47 11.02.2020
3126 Rain 20 1006 73 16093 4.6 320 05:20 11.02.2020
3127 Rain 20 1006 93 16093 4.6 320 04:34 11.02.2020
3128 Rain 19 1006 77 12874 5.1 330 02:38 11.02.2020
3129 Rain 20 1005 100 12874 5.1 340 01:59 11.02.2020
3130 Rain 20 1006 82 1609 2.6 340 01:31 11.02.2020
3131 Rain 21 1007 68 16093 8.2 330 00:26 11.02.2020
3132 Rain 21 1008 56 16093 8.7 310 23:48 10.02.2020
3133 Rain 21 1008 56 16093 8.7 310 23:30 10.02.2020
3134 Rain 20 1007 82 16093 11.3 310 22:58 10.02.2020
3135 Clouds 21 1008 56 16093 8.7 310 22:37 10.02.2020
3136 Rain 20 1008 56 16093 8.7 310 22:37 10.02.2020
3137 Clouds 21 1008 56 16093 8.7 310 22:19 10.02.2020
3138 Rain 21 1008 77 16093 8.7 310 21:41 10.02.2020
3139 Rain 21 1008 77 16093 8.7 310 21:23 10.02.2020
3140 Rain 20 1007 82 16093 9.3 320 20:56 10.02.2020
3141 Rain 19 1007 88 16093 8.2 310 20:38 10.02.2020
3142 Rain 19 1007 88 16093 8.2 310 20:38 10.02.2020
3143 Rain 19 1007 88 16093 8.2 310 20:19 10.02.2020
3144 Drizzle 18 1007 93 16093 7.2 320 19:58 10.02.2020
3145 Rain 18 1008 77 16093 3.1 330 19:37 10.02.2020
3146 Rain 18 1008 77 16093 3.1 330 19:18 10.02.2020
3147 Rain 18 1008 77 16093 3.1 290 18:58 10.02.2020
3148 Rain 18 1008 77 16093 3.1 290 18:38 10.02.2020
3149 Rain 18 1008 77 16093 3.1 290 18:20 10.02.2020
3150 Clouds 17 1007 72 16093 3.1 290 17:54 10.02.2020
3151 Clouds 17 1007 72 16093 3.1 290 17:54 10.02.2020
3152 Clouds 18 1007 72 16093 3.1 290 17:36 10.02.2020
3153 Clouds 18 1007 72 16093 3.1 290 17:18 10.02.2020
3154 Rain 17 1007 77 16093 2.6 300 16:41 10.02.2020
3155 Rain 17 1007 77 16093 2.6 300 16:41 10.02.2020
3156 Rain 17 1007 77 16093 2.6 300 16:20 10.02.2020
3157 Drizzle 17 1007 87 16093 6.7 320 15:59 10.02.2020
3158 Drizzle 17 1007 87 16093 6.7 320 15:59 10.02.2020
3159 Drizzle 17 1007 87 16093 6.7 320 15:41 10.02.2020
3160 Drizzle 17 1007 82 16093 6.2 320 15:22 10.02.2020
3161 Rain 16 1007 87 16093 7.2 310 14:58 10.02.2020
3162 Rain 16 1007 87 4426 6.7 300 14:39 10.02.2020
3163 Rain 16 1007 87 4426 6.7 300 14:19 10.02.2020
3164 Rain 17 1008 87 16093 4.1 330 13:45 10.02.2020
3165 Rain 17 1008 93 16093 3.6 290 13:26 10.02.2020
3166 Clouds 17 1008 82 16093 8.2 280 12:59 10.02.2020
3167 Rain 18 1009 63 16093 8.2 300 12:41 10.02.2020
3168 Rain 18 1009 63 16093 8.2 300 12:22 10.02.2020
3169 Clouds 18 1009 63 16093 6.2 300 11:46 10.02.2020
3170 Clouds 18 1009 77 16093 6.7 320 11:46 10.02.2020
3171 Clouds 18 1009 77 16093 6.7 320 11:22 10.02.2020
3172 Rain 19 1009 68 16093 7.7 300 10:58 10.02.2020
3173 Rain 19 1009 64 16093 6.7 320 10:39 10.02.2020
3174 Rain 19 1009 64 16093 6.7 320 10:21 10.02.2020
3175 Rain 18 1009 72 16093 8.2 330 09:42 10.02.2020
3176 Rain 18 1009 72 16093 8.2 330 09:23 10.02.2020
3177 Rain 18 1010 88 12874 8.2 330 08:41 10.02.2020
3178 Rain 19 1010 88 12874 8.2 330 08:22 10.02.2020
3179 Rain 21 1009 72 16093 10.3 280 07:55 10.02.2020
3180 Rain 22 1009 60 16093 8.7 260 07:35 10.02.2020
3181 Clouds 22 1009 64 16093 5.7 260 06:50 10.02.2020
3182 Clouds 22 1009 53 16093 7.7 270 05:38 10.02.2020
3183 Clouds 23 1010 50 16093 7.7 230 03:55 10.02.2020
3184 Clouds 24 1010 50 16093 7.7 230 03:22 10.02.2020
3185 Clouds 25 1010 41 16093 10.3 260 02:44 10.02.2020
3186 Clouds 25 1011 39 16093 4.1 350 01:25 10.02.2020
3187 Clouds 25 1012 41 16093 7.7 350 00:40 10.02.2020
3188 Clouds 25 1012 41 16093 7.7 350 00:21 10.02.2020
3189 Clouds 24 1014 44 16093 5.7 350 23:41 09.02.2020
3190 Clouds 24 1014 44 16093 5.7 350 23:23 09.02.2020
3191 Clouds 24 1014 56 16093 6.2 300 22:44 09.02.2020
3192 Clouds 24 1014 44 16093 4.6 330 22:22 09.02.2020
3193 Clouds 23 1014 46 16093 4.6 330 21:55 09.02.2020
3194 Clouds 23 1014 46 16093 4.6 330 21:36 09.02.2020
3195 Clouds 23 1014 46 16093 4.6 330 21:36 09.02.2020
3196 Clouds 23 1014 46 16093 4.6 330 21:18 09.02.2020
3197 Clouds 21 1014 56 16093 2.6 20 20:44 09.02.2020
3198 Clouds 21 1014 56 16093 2.6 20 20:21 09.02.2020
3199 Clouds 20 1014 72 16093 2.1 350 19:54 09.02.2020
3200 Clouds 19 1014 72 16093 2.1 350 19:36 09.02.2020
3201 Clouds 18 1014 72 16093 2.1 350 19:18 09.02.2020
3202 Clouds 18 1014 77 16093 2.1 310 18:41 09.02.2020
3203 Clouds 18 1014 77 16093 2.1 310 18:23 09.02.2020
3204 Clouds 18 1014 72 16093 2.19 327 17:44 09.02.2020
3205 Clouds 18 1014 72 16093 2.19 327 17:24 09.02.2020
3206 Clouds 19 1013 72 16093 2.6 310 16:59 09.02.2020
3207 Clouds 19 1013 72 16093 2.6 310 16:40 09.02.2020
3208 Clouds 19 1013 72 16093 2.6 310 16:21 09.02.2020
3209 Clouds 19 1013 68 16093 3.1 320 15:57 09.02.2020
3210 Clouds 19 1013 68 16093 3.1 320 15:57 09.02.2020
3211 Clouds 20 1013 68 16093 3.1 320 15:39 09.02.2020
3212 Clouds 19 1013 68 16093 3.1 320 15:20 09.02.2020
3213 Clouds 19 1013 72 16093 3.1 300 14:42 09.02.2020
3214 Clouds 19 1013 72 16093 3.1 300 14:42 09.02.2020
3215 Clouds 19 1013 72 16093 3.1 300 14:23 09.02.2020
3216 Clouds 19 1013 72 16093 1.5 320 13:55 09.02.2020
3217 Clouds 19 1013 72 16093 1.5 320 13:37 09.02.2020
3218 Clouds 19 1013 72 16093 1.5 320 13:18 09.02.2020
3219 Clouds 19 1014 72 16093 3.1 310 12:42 09.02.2020
3220 Clouds 19 1014 72 16093 3.1 310 12:42 09.02.2020
3221 Clouds 19 1014 72 16093 3.1 310 12:20 09.02.2020
3222 Clouds 18 1013 77 16093 3.1 340 11:57 09.02.2020
3223 Clouds 18 1014 72 16093 2.1 260 11:38 09.02.2020
3224 Clouds 18 1014 72 16093 2.1 260 11:18 09.02.2020
3225 Clouds 18 1014 72 16093 2.1 260 11:18 09.02.2020
3226 Clouds 20 1013 77 16093 4.1 340 10:42 09.02.2020
3227 Clouds 20 1013 77 16093 4.1 340 10:42 09.02.2020
3228 Clouds 20 1014 60 16093 3.1 360 10:23 09.02.2020
3229 Clouds 20 1014 60 16093 3.1 360 10:23 09.02.2020
3230 Clouds 19 1013 82 16093 3.1 10 09:56 09.02.2020
3231 Clouds 19 1014 82 16093 2.1 350 09:37 09.02.2020
3232 Clouds 19 1014 82 16093 2.1 350 09:18 09.02.2020
3233 Clouds 20 1014 60 16093 2.6 300 08:39 09.02.2020
3234 Clouds 20 1014 60 16093 2.6 300 08:20 09.02.2020
3235 Clouds 20 1013 77 16093 2.6 340 07:49 09.02.2020
3236 Clouds 20 1012 53 16093 4.6 330 06:54 09.02.2020
3237 Clouds 20 1012 53 16093 4.6 330 06:36 09.02.2020
3238 Clear 21 1011 49 16093 7.7 330 05:49 09.02.2020
3239 Clear 21 1011 49 16093 7.7 330 05:31 09.02.2020
3240 Clouds 23 1010 41 16093 6.2 340 03:58 09.02.2020
3241 Clouds 23 1010 39 16093 7.2 340 02:47 09.02.2020
3242 Clouds 24 1010 39 16093 7.2 340 02:27 09.02.2020
3243 Clouds 24 1010 39 16093 6.7 350 01:35 09.02.2020
3244 Rain 23 1011 41 16093 7.7 350 00:52 09.02.2020
3245 Rain 23 1011 41 16093 7.7 350 00:28 09.02.2020
3246 Clouds 23 1012 68 16093 4.6 320 23:45 08.02.2020
3247 Rain 23 1012 53 16093 10.3 320 23:23 08.02.2020
3248 Rain 22 1012 82 16093 5.7 350 22:55 08.02.2020
3249 Rain 22 1012 60 16093 5.1 330 22:37 08.02.2020
3250 Rain 22 1012 60 16093 5.1 330 22:19 08.02.2020
3251 Clouds 22 1012 64 16093 4.1 300 21:42 08.02.2020
3252 Clouds 21 1012 64 16093 4.1 300 21:24 08.02.2020
3253 Rain 19 1012 68 16093 4.6 320 20:58 08.02.2020
3254 Rain 19 1012 68 16093 4.6 320 20:39 08.02.2020
3255 Rain 19 1012 68 16093 4.6 320 20:19 08.02.2020
3256 Clouds 18 1012 100 16093 2.6 360 19:55 08.02.2020
3257 Rain 18 1012 77 16093 5.1 320 19:37 08.02.2020
3258 Rain 18 1012 77 16093 5.1 320 19:19 08.02.2020
3259 Rain 17 1011 93 16093 2.1 330 18:43 08.02.2020
3260 Rain 17 1011 93 16093 2.1 330 18:43 08.02.2020
3261 Rain 17 1011 93 16093 2.1 330 18:24 08.02.2020
3262 Clouds 17 1010 93 16093 2.1 350 17:44 08.02.2020
3263 Clouds 16 1010 82 16093 3.1 310 17:22 08.02.2020
3264 Drizzle 16 1010 93 16093 3.6 340 16:59 08.02.2020
3265 Drizzle 17 1009 93 16093 2.6 360 16:40 08.02.2020
3266 Drizzle 17 1009 93 16093 2.6 360 16:21 08.02.2020
3267 Drizzle 17 1009 93 16093 2.6 360 16:21 08.02.2020
3268 Clouds 17 1010 88 16093 2.6 340 15:43 08.02.2020
3269 Clouds 17 1010 88 16093 2.6 340 15:19 08.02.2020
3270 Clouds 17 1010 93 16093 3.1 330 14:59 08.02.2020
3271 Clouds 17 1010 88 16093 3.1 310 14:40 08.02.2020
3272 Clouds 17 1010 88 16093 3.1 310 14:19 08.02.2020
3273 Drizzle 16 1009 100 16093 3.1 310 13:43 08.02.2020
3274 Drizzle 16 1009 100 16093 3.1 310 13:43 08.02.2020
3275 Rain 16 1010 88 16093 2.6 310 13:23 08.02.2020
3276 Drizzle 16 1010 93 16093 4.1 300 12:57 08.02.2020
3277 Rain 16 1010 88 16093 2.6 270 12:37 08.02.2020
3278 Rain 16 1010 88 16093 2.6 270 12:19 08.02.2020
3279 Rain 17 1010 93 16093 3.1 310 11:43 08.02.2020
3280 Rain 17 1011 82 16093 5.7 320 11:21 08.02.2020
3281 Rain 17 1011 100 16093 3.6 360 10:55 08.02.2020
3282 Rain 17 1011 100 16093 3.6 360 10:37 08.02.2020
3283 Rain 17 1011 100 16093 3.6 360 10:19 08.02.2020
3284 Rain 18 1011 100 16093 2.6 330 09:46 08.02.2020
3285 Rain 18 1011 100 16093 2.6 340 09:23 08.02.2020
3286 Rain 19 1010 93 16093 2.1 320 08:40 08.02.2020
3287 Rain 19 1010 93 16093 2.1 320 08:22 08.02.2020
3288 Clouds 19 1010 93 16093 2.6 330 07:51 08.02.2020
3289 Drizzle 19 1009 93 16093 3.6 330 07:32 08.02.2020
3290 Clouds 19 1009 88 16093 2.32 346 06:49 08.02.2020
3291 Clouds 19 1009 93 16093 3.1 330 06:18 08.02.2020
3292 Rain 20 1009 56 16093 6.7 340 05:33 08.02.2020
3293 Drizzle 21 1008 82 16093 4.6 320 04:53 08.02.2020
3294 Clouds 22 1008 46 16093 6.2 330 04:18 08.02.2020
3295 Clouds 23 1008 47 16093 6.2 330 03:20 08.02.2020
3296 Clouds 23 1008 47 16093 6.2 350 02:28 08.02.2020
3297 Rain 22 1008 68 16093 6.7 300 01:28 08.02.2020
3298 Clouds 23 1009 47 16093 6.2 330 00:46 08.02.2020
3299 Clouds 23 1009 47 16093 6.2 330 00:24 08.02.2020
3300 Clouds 22 1010 88 16093 4.1 310 23:56 07.02.2020
3301 Clouds 23 1011 53 16093 6.2 330 23:37 07.02.2020
3302 Clouds 23 1011 53 16093 6.2 330 23:19 07.02.2020
3303 Clouds 23 1011 47 16093 5.7 330 22:41 07.02.2020
3304 Clouds 23 1011 47 16093 5.7 330 22:19 07.02.2020
3305 Drizzle 21 1011 68 16093 6.2 300 21:44 07.02.2020
3306 Clouds 22 1012 53 16093 3.6 320 21:23 07.02.2020
3307 Clouds 21 1012 60 16093 2.1 310 20:59 07.02.2020
3308 Clouds 20 1012 60 16093 2.1 310 20:38 07.02.2020
3309 Clouds 20 1012 60 16093 2.1 310 20:18 07.02.2020
3310 Clouds 20 1012 60 16093 2.1 310 20:18 07.02.2020
3311 Clouds 18 1011 68 16093 1.5 360 19:43 07.02.2020
3312 Clouds 17 1011 68 16093 1.5 360 19:22 07.02.2020
3313 Clouds 17 1011 72 16093 2.6 310 18:58 07.02.2020
3314 Clouds 17 1011 72 16093 2.6 310 18:40 07.02.2020
3315 Clouds 17 1011 72 16093 2.6 310 18:21 07.02.2020
3316 Clouds 18 1011 59 16093 2.6 340 17:43 07.02.2020
3317 Clouds 18 1011 59 16093 2.6 340 17:22 07.02.2020
3318 Clouds 19 1011 63 16093 3.6 340 16:57 07.02.2020
3319 Clouds 19 1011 63 16093 3.6 340 16:39 07.02.2020
3320 Clouds 18 1011 63 16093 3.6 340 16:20 07.02.2020
3321 Clouds 18 1011 68 16093 3.1 340 15:48 07.02.2020
3322 Clouds 18 1011 68 16093 3.1 340 15:27 07.02.2020
3323 Clouds 18 1011 72 16093 3.6 320 14:46 07.02.2020
3324 Clouds 18 1011 72 16093 3.6 320 14:26 07.02.2020
3325 Clouds 19 1012 68 16093 3.1 350 13:58 07.02.2020
3326 Clouds 19 1012 68 16093 3.1 350 13:39 07.02.2020
3327 Clouds 19 1012 68 16093 3.1 350 13:21 07.02.2020
3328 Clouds 19 1012 68 16093 3.1 350 13:21 07.02.2020
3329 Clear 19 1012 68 16093 2.6 30 12:55 07.02.2020
3330 Clear 19 1012 68 16093 2.6 30 12:37 07.02.2020
3331 Clear 19 1012 68 16093 2.6 30 12:19 07.02.2020
3332 Clouds 20 1013 60 16093 3.1 10 11:42 07.02.2020
3333 Clouds 20 1013 60 16093 3.1 10 11:20 07.02.2020
3334 Clouds 20 1013 60 16093 6.2 350 10:42 07.02.2020
3335 Clouds 20 1013 60 16093 6.2 350 10:24 07.02.2020
3336 Clouds 20 1013 56 16093 4.6 350 09:56 07.02.2020
3337 Clouds 20 1013 56 16093 4.6 350 09:37 07.02.2020
3338 Clouds 20 1013 56 16093 4.6 350 09:19 07.02.2020
3339 Rain 20 1013 60 16093 4.1 20 08:42 07.02.2020
3340 Rain 20 1013 60 16093 4.1 20 08:20 07.02.2020
3341 Clouds 20 1012 64 16093 3.6 350 07:44 07.02.2020
3342 Clouds 20 1012 64 16093 3.6 350 07:26 07.02.2020
3343 Rain 21 1012 64 16093 9.8 20 06:45 07.02.2020
3344 Rain 21 1012 64 16093 9.8 20 06:25 07.02.2020
3345 Clouds 21 1011 60 16093 5.7 360 05:44 07.02.2020
3346 Rain 20 1011 73 16093 11.3 20 04:33 07.02.2020
3347 Rain 21 1011 88 16093 6.7 10 02:32 07.02.2020
3348 Rain 20 1011 100 16093 5.1 340 01:35 07.02.2020
3349 Rain 20 1012 93 2012 7.7 10 00:39 07.02.2020
3350 Rain 20 1013 100 8047 3.1 10 23:57 06.02.2020
3351 Rain 21 1013 69 16093 6.2 10 23:36 06.02.2020
3352 Rain 21 1013 69 16093 6.2 10 23:18 06.02.2020
3353 Rain 20 1014 93 12874 4.1 340 22:42 06.02.2020
3354 Rain 20 1014 93 12874 4.1 340 22:42 06.02.2020
3355 Rain 20 1013 78 16093 4.6 20 22:23 06.02.2020
3356 Rain 20 1014 77 16093 4.1 350 21:37 06.02.2020
3357 Rain 20 1014 77 16093 4.1 350 21:19 06.02.2020
3358 Drizzle 20 1014 93 16093 4.1 340 20:56 06.02.2020
3359 Rain 20 1014 100 12874 5.7 330 20:37 06.02.2020
3360 Rain 20 1014 100 12874 5.7 330 20:18 06.02.2020
3361 Rain 20 1014 100 4828 4.1 330 19:58 06.02.2020
3362 Rain 20 1014 100 3017 3.1 350 19:39 06.02.2020
3363 Rain 20 1014 100 3017 3.1 350 19:20 06.02.2020
3364 Rain 20 1013 100 6437 4.1 340 18:57 06.02.2020
3365 Rain 20 1013 100 14484 4.1 320 18:38 06.02.2020
3366 Rain 20 1013 100 14484 4.1 320 18:19 06.02.2020
3367 Clouds 20 1013 100 16093 3.6 320 17:42 06.02.2020
3368 Rain 20 1013 93 12874 3.6 310 17:20 06.02.2020
3369 Rain 20 1012 100 16093 3.6 320 16:45 06.02.2020
3370 Rain 20 1012 77 16093 5.1 330 16:27 06.02.2020
3371 Clouds 20 1012 77 16093 4.1 360 15:58 06.02.2020
3372 Clouds 20 1012 77 16093 4.1 360 15:40 06.02.2020
3373 Clouds 20 1012 77 16093 4.1 360 15:20 06.02.2020
3374 Drizzle 20 1012 100 16093 2.6 330 14:46 06.02.2020
3375 Clouds 20 1012 77 16093 3.1 330 14:25 06.02.2020
3376 Clouds 20 1013 83 16093 6.2 330 13:46 06.02.2020
3377 Clouds 20 1013 83 16093 6.2 330 13:27 06.02.2020
3378 Drizzle 20 1014 100 11265 3.6 350 12:56 06.02.2020
3379 Clouds 20 1014 100 11265 4.6 350 12:37 06.02.2020
3380 Clouds 20 1014 100 11265 4.6 350 12:37 06.02.2020
3381 Clouds 20 1014 100 11265 4.6 350 12:18 06.02.2020
3382 Clouds 20 1014 88 16093 2.26 335 11:41 06.02.2020
3383 Clouds 20 1014 88 16093 2.26 335 11:23 06.02.2020
3384 Rain 20 1014 100 16093 3.1 350 10:59 06.02.2020
3385 Rain 20 1015 83 16093 1.5 30 10:41 06.02.2020
3386 Rain 20 1015 83 16093 1.5 30 10:21 06.02.2020
3387 Rain 20 1015 93 16093 2.6 10 09:59 06.02.2020
3388 Rain 20 1015 93 16093 3.1 10 09:40 06.02.2020
3389 Rain 20 1015 93 16093 3.1 10 09:20 06.02.2020
3390 Rain 21 1014 83 16093 4.6 340 08:43 06.02.2020
3391 Rain 21 1014 83 16093 4.6 340 08:23 06.02.2020
3392 Rain 21 1015 100 16093 2.1 330 07:55 06.02.2020
3393 Rain 21 1015 100 16093 2.1 330 07:55 06.02.2020
3394 Rain 22 1013 78 16093 5.1 350 07:29 06.02.2020
3395 Clouds 22 1013 83 16093 4.6 360 06:47 06.02.2020
3396 Rain 22 1013 73 16093 0.37 100 06:19 06.02.2020
3397 Drizzle 23 1013 88 16093 2.1 290 05:24 06.02.2020
3398 Clouds 24 1013 78 16093 1.91 180 03:47 06.02.2020
3399 Rain 25 1013 65 16093 3.6 150 02:58 06.02.2020
3400 Clouds 24 1013 65 16093 3.1 160 01:45 06.02.2020
3401 Rain 25 1013 100 3219 2.81 215 00:59 06.02.2020
3402 Clouds 25 1014 100 16093 2.81 215 00:28 06.02.2020
3403 Rain 24 1014 100 8047 2.81 215 23:55 05.02.2020
3404 Rain 24 1014 100 8047 2.81 215 23:55 05.02.2020
3405 Rain 24 1015 100 8047 1.5 160 23:36 05.02.2020
3406 Rain 24 1015 100 8047 1.5 160 23:18 05.02.2020
3407 Rain 24 1015 83 16093 4.6 120 22:40 05.02.2020
3408 Rain 24 1015 83 16093 4.6 120 22:22 05.02.2020
3409 Drizzle 23 1016 83 16093 3.6 140 21:57 05.02.2020
3410 Rain 23 1016 78 16093 3.1 80 21:39 05.02.2020
3411 Rain 23 1016 78 16093 3.1 80 21:19 05.02.2020
3412 Rain 22 1016 83 16093 1.5 10 20:39 05.02.2020
3413 Rain 22 1016 83 16093 1.5 10 20:20 05.02.2020
3414 Rain 21 1016 100 16093 1.5 190 19:59 05.02.2020
3415 Rain 21 1015 83 16093 1.06 189 19:40 05.02.2020
3416 Rain 21 1015 83 16093 1.06 189 19:19 05.02.2020
3417 Rain 19 1015 83 12874 1.5 0 18:56 05.02.2020
3418 Rain 19 1015 83 12874 1.5 0 18:38 05.02.2020
3419 Rain 19 1015 83 12874 1.5 0 18:18 05.02.2020
3420 Clouds 19 1014 77 16093 1.5 320 17:38 05.02.2020
3421 Clouds 19 1014 77 16093 1.5 320 17:38 05.02.2020
3422 Clouds 19 1014 77 16093 1.5 320 17:20 05.02.2020
3423 Clouds 19 1014 100 16093 0.77 177 16:57 05.02.2020
3424 Clouds 19 1014 100 16093 0.77 177 16:38 05.02.2020
3425 Clouds 19 1014 100 16093 0.77 177 16:19 05.02.2020
3426 Clouds 19 1014 100 16093 0.77 177 15:45 05.02.2020
3427 Clouds 19 1014 77 16093 2.1 350 15:20 05.02.2020
3428 Clouds 19 1014 73 16093 2.6 340 14:57 05.02.2020
3429 Clouds 19 1014 73 16093 2.6 340 14:38 05.02.2020
3430 Clouds 19 1014 73 16093 2.6 340 14:20 05.02.2020
3431 Clouds 20 1015 77 16093 0.73 168 13:43 05.02.2020
3432 Clouds 20 1015 77 16093 0.44 152 13:22 05.02.2020
3433 Clouds 20 1015 73 16093 2.1 340 12:55 05.02.2020
3434 Clouds 20 1015 73 16093 2.1 340 12:36 05.02.2020
3435 Clouds 20 1015 73 16093 2.1 340 12:18 05.02.2020
3436 Clouds 20 1015 73 16093 2.1 360 11:41 05.02.2020
3437 Clouds 20 1015 73 16093 2.1 360 11:22 05.02.2020
3438 Clouds 20 1016 78 16093 0.93 162 10:44 05.02.2020
3439 Clouds 20 1016 78 16093 0.93 162 10:26 05.02.2020
3440 Clouds 20 1016 73 16093 1.5 80 09:59 05.02.2020
3441 Clouds 20 1016 73 16093 1.5 80 09:38 05.02.2020
3442 Clouds 20 1016 73 16093 1.5 80 09:20 05.02.2020
3443 Clouds 21 1016 73 16093 2.1 20 08:46 05.02.2020
3444 Clouds 21 1016 73 16093 2.1 20 08:24 05.02.2020
3445 Clouds 22 1016 69 16093 0.38 260 07:55 05.02.2020
3446 Clouds 22 1016 69 16093 0.38 260 07:36 05.02.2020
3447 Clouds 23 1015 65 16093 1.5 200 06:54 05.02.2020
3448 Clouds 23 1015 65 16093 1.5 200 06:36 05.02.2020
3449 Clouds 23 1015 65 16093 1.5 200 06:18 05.02.2020
3450 Rain 24 1015 57 16093 3.6 230 05:19 05.02.2020
3451 Rain 24 1015 57 16093 3.6 230 04:54 05.02.2020
3452 Clouds 25 1014 54 16093 3.1 210 03:56 05.02.2020
3453 Clouds 26 1014 57 16093 4.1 190 02:28 05.02.2020
3454 Clouds 26 1015 57 16093 4.1 170 01:53 05.02.2020
3455 Clouds 26 1015 65 16093 4.1 50 00:53 05.02.2020
3456 Clouds 27 1016 57 16093 4.1 160 23:58 04.02.2020
3457 Clouds 27 1016 57 16093 4.1 160 23:39 04.02.2020
3458 Clouds 26 1016 57 16093 4.1 160 23:18 04.02.2020
3459 Clouds 26 1017 57 16093 3.1 200 22:55 04.02.2020
3460 Clouds 26 1017 57 16093 3.1 200 22:37 04.02.2020
3461 Clouds 26 1017 57 16093 3.1 200 22:19 04.02.2020
3462 Clouds 26 1017 61 16093 2.1 350 21:41 04.02.2020
3463 Clouds 26 1017 61 16093 2.1 350 21:19 04.02.2020
3464 Clouds 25 1017 69 16093 1.5 340 20:59 04.02.2020
3465 Clouds 24 1017 69 16093 1.5 340 20:41 04.02.2020
3466 Clouds 24 1017 69 16093 1.5 340 20:20 04.02.2020
3467 Clouds 22 1017 83 16093 2.6 340 19:57 04.02.2020
3468 Clouds 22 1017 83 16093 2.6 340 19:39 04.02.2020
3469 Clouds 21 1017 83 16093 2.6 340 19:21 04.02.2020
3470 Clouds 21 1016 82 16093 1.14 89 18:55 04.02.2020
3471 Clouds 20 1016 82 16093 1.14 89 18:36 04.02.2020
3472 Clouds 20 1016 82 16093 1.14 89 18:18 04.02.2020
3473 Clouds 20 1015 82 16093 2.1 330 17:42 04.02.2020
3474 Clouds 20 1015 82 16093 2.1 330 17:20 04.02.2020
3475 Clouds 20 1014 78 16093 2.6 130 16:54 04.02.2020
3476 Clouds 20 1015 82 16093 2.6 310 16:36 04.02.2020
3477 Clouds 20 1015 82 16093 2.6 310 16:18 04.02.2020
3478 Clouds 19 1015 82 16093 2.1 320 15:55 04.02.2020
3479 Clouds 19 1015 82 16093 2.1 320 15:37 04.02.2020
3480 Clouds 19 1015 82 16093 2.1 320 15:18 04.02.2020
3481 Clouds 19 1015 82 16093 2.1 20 14:41 04.02.2020
3482 Clouds 19 1015 82 16093 2.1 20 14:20 04.02.2020
3483 Clouds 20 1016 82 16093 1.5 0 13:55 04.02.2020
3484 Clouds 20 1016 82 16093 1.5 0 13:36 04.02.2020
3485 Clouds 20 1016 82 16093 1.5 0 13:18 04.02.2020
3486 Clouds 20 1016 77 16093 1.5 340 12:42 04.02.2020
3487 Clouds 20 1016 77 16093 1.5 340 12:42 04.02.2020
3488 Clouds 20 1016 77 16093 1.5 340 12:24 04.02.2020
3489 Clouds 21 1016 78 16093 2.1 340 11:57 04.02.2020
3490 Clouds 21 1016 78 16093 2.1 340 11:38 04.02.2020
3491 Clouds 21 1016 78 16093 2.1 340 11:19 04.02.2020
3492 Clouds 21 1017 78 16093 2.1 310 10:46 04.02.2020
3493 Clouds 21 1017 78 16093 2.1 310 10:26 04.02.2020
3494 Clouds 22 1017 69 16093 1.59 99 09:57 04.02.2020
3495 Clouds 22 1017 69 16093 1.59 99 09:39 04.02.2020
3496 Clouds 22 1017 69 16093 1.59 99 09:20 04.02.2020
3497 Clouds 22 1016 69 16093 1.59 99 08:46 04.02.2020
3498 Clouds 22 1016 69 16093 1.59 99 08:27 04.02.2020
3499 Clear 23 1015 64 16093 2.1 80 07:52 04.02.2020
3500 Clear 23 1015 64 16093 2.1 80 07:25 04.02.2020
3501 Clear 23 1015 64 16093 2.1 80 07:25 04.02.2020
3502 Clouds 23 1015 64 16093 4.1 80 06:54 04.02.2020
3503 Clouds 23 1015 64 16093 4.1 80 06:36 04.02.2020
3504 Clouds 24 1014 57 16093 6.2 60 05:34 04.02.2020
3505 Rain 25 1014 54 16093 6.2 40 04:27 04.02.2020
3506 Clouds 25 1014 54 16093 5.1 100 03:46 04.02.2020
3507 Clouds 26 1014 54 16093 5.1 100 03:27 04.02.2020
3508 Clouds 26 1014 54 16093 6.2 130 02:37 04.02.2020
3509 Clouds 26 1014 54 16093 6.7 130 01:58 04.02.2020
3510 Clouds 26 1014 54 16093 6.7 130 01:39 04.02.2020
3511 Clouds 27 1015 48 16093 6.2 70 00:52 04.02.2020
3512 Clouds 27 1015 48 16093 6.2 70 00:23 04.02.2020
3513 Clouds 26 1016 48 16093 6.2 100 23:45 03.02.2020
3514 Clouds 26 1016 48 16093 6.2 100 23:26 03.02.2020
3515 Clouds 26 1017 51 16093 5.1 90 22:40 03.02.2020
3516 Clouds 26 1017 51 16093 5.1 90 22:22 03.02.2020
3517 Clouds 25 1017 69 16093 4.1 110 21:59 03.02.2020
3518 Clouds 26 1017 69 16093 4.1 110 21:40 03.02.2020
3519 Clouds 26 1017 69 16093 4.1 110 21:19 03.02.2020
3520 Clouds 25 1017 57 16093 4.6 70 20:42 03.02.2020
3521 Clouds 24 1017 57 16093 4.6 70 20:20 03.02.2020
3522 Clouds 22 1017 64 16093 3.1 60 19:58 03.02.2020
3523 Clouds 22 1017 64 16093 3.1 60 19:58 03.02.2020
3524 Clouds 22 1017 64 16093 3.1 60 19:40 03.02.2020
3525 Clouds 22 1017 64 16093 3.1 60 19:20 03.02.2020
3526 Clouds 22 1017 88 16093 3.34 100 18:56 03.02.2020
3527 Clouds 22 1016 73 16093 4.1 70 18:37 03.02.2020
3528 Clouds 21 1016 73 16093 4.1 70 18:18 03.02.2020
3529 Clouds 21 1016 73 16093 2.1 50 17:40 03.02.2020
3530 Clouds 21 1016 73 16093 2.1 50 17:20 03.02.2020
3531 Clouds 21 1016 68 16093 3.1 70 16:59 03.02.2020
3532 Clouds 22 1016 68 16093 3.1 70 16:39 03.02.2020
3533 Clouds 22 1016 68 16093 3.1 70 16:20 03.02.2020
3534 Clouds 22 1016 68 16093 3.1 80 15:56 03.02.2020
3535 Clouds 22 1016 68 16093 3.1 80 15:37 03.02.2020
3536 Clouds 22 1016 68 16093 3.1 80 15:18 03.02.2020
3537 Clouds 22 1016 64 16093 4.1 70 14:42 03.02.2020
3538 Clouds 22 1016 64 16093 4.1 70 14:23 03.02.2020
3539 Clouds 22 1017 77 16093 2.6 70 13:56 03.02.2020
3540 Clouds 22 1017 64 16093 4.6 60 13:37 03.02.2020
3541 Clouds 22 1017 64 16093 4.6 60 13:37 03.02.2020
3542 Clouds 22 1017 64 16093 4.6 60 13:19 03.02.2020
3543 Clouds 22 1017 64 16093 4.6 60 12:42 03.02.2020
3544 Clouds 22 1017 64 16093 4.6 60 12:23 03.02.2020
3545 Clouds 22 1017 69 16093 3.6 70 11:59 03.02.2020
3546 Clouds 22 1017 69 16093 3.6 70 11:38 03.02.2020
3547 Clouds 22 1017 69 16093 3.6 70 11:19 03.02.2020
3548 Clouds 22 1017 64 16093 4.1 40 10:55 03.02.2020
3549 Clouds 22 1017 64 16093 4.1 40 10:55 03.02.2020
3550 Clouds 22 1017 64 16093 4.1 40 10:37 03.02.2020
3551 Clouds 22 1017 64 16093 4.1 40 10:18 03.02.2020
3552 Clouds 23 1017 64 16093 6.2 60 09:38 03.02.2020
3553 Clouds 23 1017 64 16093 6.2 60 09:38 03.02.2020
3554 Clouds 23 1017 64 16093 6.2 60 09:19 03.02.2020
3555 Clouds 23 1017 64 16093 5.7 60 08:40 03.02.2020
3556 Clouds 23 1017 64 16093 5.7 60 08:22 03.02.2020
3557 Clouds 23 1017 64 16093 4.1 70 07:42 03.02.2020
3558 Clouds 23 1017 64 16093 4.1 70 07:23 03.02.2020
3559 Clouds 23 1016 88 16093 3.1 60 06:56 03.02.2020
3560 Clouds 23 1016 88 16093 3.1 60 06:31 03.02.2020
3561 Clouds 24 1015 73 16093 4.1 80 05:51 03.02.2020
3562 Clouds 24 1015 73 16093 4.1 80 05:31 03.02.2020
3563 Rain 24 1015 57 16093 6.7 60 04:44 03.02.2020
3564 Clouds 25 1014 69 16093 6.2 60 02:42 03.02.2020
3565 Clouds 25 1014 69 16093 6.2 60 02:20 03.02.2020
3566 Clouds 26 1016 48 16093 6.7 60 00:49 03.02.2020
3567 Clouds 26 1016 48 16093 6.7 60 00:26 03.02.2020
3568 Clouds 25 1016 69 16093 5.1 70 23:55 02.02.2020
3569 Clouds 26 1017 51 16093 6.2 50 23:36 02.02.2020
3570 Clouds 26 1017 51 16093 6.2 50 23:18 02.02.2020
3571 Clouds 25 1017 65 16093 4.6 60 22:39 02.02.2020
3572 Clouds 25 1017 65 16093 4.6 60 22:21 02.02.2020
3573 Clouds 24 1017 69 16093 4.6 50 21:57 02.02.2020
3574 Clouds 24 1018 61 16093 4.6 70 21:38 02.02.2020
3575 Clouds 24 1018 61 16093 4.6 70 21:20 02.02.2020
3576 Clouds 23 1018 64 16093 2.1 330 20:57 02.02.2020
3577 Clouds 23 1018 64 16093 2.1 330 20:57 02.02.2020
3578 Clouds 23 1018 64 16093 2.1 330 20:38 02.02.2020
3579 Clouds 23 1018 64 16093 2.1 330 20:20 02.02.2020
3580 Clouds 21 1017 78 16093 2.55 63 19:56 02.02.2020
3581 Clouds 20 1017 78 16093 2.55 63 19:38 02.02.2020
3582 Clouds 20 1017 78 16093 2.55 63 19:38 02.02.2020
3583 Clouds 20 1017 78 16093 2.55 63 19:19 02.02.2020
3584 Clouds 19 1016 88 16093 2.55 63 18:39 02.02.2020
3585 Clouds 19 1016 88 16093 2.55 63 18:21 02.02.2020
3586 Clouds 19 1016 93 16093 2.55 63 17:58 02.02.2020
3587 Clouds 19 1016 93 16093 2.55 63 17:38 02.02.2020
3588 Clouds 19 1016 93 16093 3.19 72 17:19 02.02.2020
3589 Clouds 19 1016 93 16093 3.19 72 17:19 02.02.2020
3590 Clouds 19 1016 88 16093 1.5 310 16:59 02.02.2020
3591 Clouds 19 1016 88 16093 1.5 310 16:39 02.02.2020
3592 Clouds 19 1016 88 16093 1.5 310 16:19 02.02.2020
3593 Clouds 19 1016 82 16093 2.6 350 15:59 02.02.2020
3594 Clouds 19 1016 82 16093 2.6 350 15:39 02.02.2020
3595 Clouds 19 1016 82 16093 2.6 350 15:20 02.02.2020
3596 Clouds 19 1016 82 16093 2.1 310 14:57 02.02.2020
3597 Clouds 19 1016 82 16093 2.1 310 14:39 02.02.2020
3598 Clouds 19 1016 82 16093 2.1 310 14:18 02.02.2020
3599 Clouds 20 1017 82 16093 1.5 350 13:55 02.02.2020
3600 Clouds 20 1017 82 16093 1.5 350 13:36 02.02.2020
3601 Clouds 20 1017 82 16093 1.5 350 13:18 02.02.2020
3602 Clouds 20 1018 93 16093 2.1 320 12:42 02.02.2020
3603 Clouds 20 1018 93 16093 2.1 320 12:22 02.02.2020
3604 Clouds 21 1017 73 16093 3.6 40 11:56 02.02.2020
3605 Clouds 21 1017 73 16093 3.6 40 11:38 02.02.2020
3606 Clouds 21 1017 73 16093 3.6 40 11:18 02.02.2020
3607 Clouds 21 1018 68 16093 2.1 350 10:55 02.02.2020
3608 Clouds 21 1018 68 16093 2.1 350 10:55 02.02.2020
3609 Clouds 21 1018 68 16093 2.1 350 10:36 02.02.2020
3610 Clouds 21 1018 68 16093 2.1 350 10:18 02.02.2020
3611 Clouds 21 1018 68 16093 1.5 310 09:41 02.02.2020
3612 Clouds 21 1018 68 16093 1.5 310 09:21 02.02.2020
3613 Clouds 21 1018 64 16093 1.5 0 08:56 02.02.2020
3614 Clouds 22 1018 64 16093 1.5 0 08:38 02.02.2020
3615 Clouds 22 1018 64 16093 1.5 0 08:19 02.02.2020
3616 Clouds 21 1018 68 16093 3.1 20 07:44 02.02.2020
3617 Clouds 21 1018 68 16093 3.1 20 07:25 02.02.2020
3618 Clouds 22 1018 64 16093 3.6 40 06:38 02.02.2020
3619 Clouds 22 1018 64 16093 3.6 40 06:19 02.02.2020
3620 Clouds 22 1017 64 16093 3.1 40 05:23 02.02.2020
3621 Rain 22 1017 73 16093 6.2 60 04:30 02.02.2020
3622 Rain 22 1017 69 16093 4.6 50 03:24 02.02.2020
3623 Rain 22 1017 69 16093 4.1 50 02:22 02.02.2020
3624 Rain 22 1016 88 9656 6.2 70 01:51 02.02.2020
3625 Rain 24 1017 65 16093 9.3 60 00:56 02.02.2020
3626 Rain 25 1017 78 16093 9.8 60 00:37 02.02.2020
3627 Rain 25 1017 78 16093 9.8 60 00:18 02.02.2020
3628 Clouds 24 1019 83 16093 3.6 110 23:41 01.02.2020
3629 Clouds 25 1019 57 16093 6.7 20 23:21 01.02.2020
3630 Clouds 25 1019 78 16093 4.6 80 22:45 01.02.2020
3631 Haze 25 1019 73 9656 5.1 40 22:19 01.02.2020
3632 Clouds 25 1019 61 16093 2.6 40 21:42 01.02.2020
3633 Clouds 25 1019 61 16093 2.6 40 21:19 01.02.2020
3634 Clouds 24 1019 69 16093 3.1 330 20:56 01.02.2020
3635 Clouds 23 1019 69 16093 3.1 330 20:37 01.02.2020
3636 Clouds 23 1019 69 16093 3.1 330 20:18 01.02.2020
3637 Clouds 22 1019 100 16093 2.1 280 19:55 01.02.2020
3638 Clouds 23 1018 73 16093 3.1 340 19:37 01.02.2020
3639 Clouds 23 1018 73 16093 3.1 340 19:37 01.02.2020
3640 Clouds 23 1018 73 16093 3.1 340 19:18 01.02.2020
3641 Drizzle 21 1018 100 16093 2.6 330 18:55 01.02.2020
3642 Clouds 22 1018 78 16093 3.6 10 18:36 01.02.2020
3643 Clouds 22 1018 78 16093 3.6 10 18:18 01.02.2020
3644 Clouds 22 1018 94 16093 2.72 81 17:45 01.02.2020
3645 Clouds 22 1017 69 16093 2.6 30 17:21 01.02.2020
3646 Clouds 22 1017 69 16093 2.6 30 17:21 01.02.2020
3647 Clouds 22 1017 64 16093 4.1 40 16:59 01.02.2020
3648 Clouds 22 1017 64 16093 4.1 40 16:39 01.02.2020
3649 Clouds 22 1017 64 16093 4.1 40 16:20 01.02.2020
3650 Clouds 22 1017 73 16093 1.5 90 15:43 01.02.2020
3651 Clouds 22 1017 73 16093 1.5 90 15:25 01.02.2020
3652 Clouds 22 1018 73 16093 1.5 10 14:58 01.02.2020
3653 Clouds 22 1018 73 16093 1.5 10 14:39 01.02.2020
3654 Rain 22 1018 73 16093 1.5 10 14:20 01.02.2020
3655 Drizzle 23 1018 100 16093 1.5 100 13:45 01.02.2020
3656 Drizzle 23 1018 100 16093 1.5 100 13:21 01.02.2020
3657 Drizzle 23 1019 100 16093 1.5 350 12:44 01.02.2020
3658 Drizzle 22 1019 100 16093 1.5 290 12:26 01.02.2020
3659 Rain 22 1019 94 16093 2.41 88 11:56 01.02.2020
3660 Clouds 23 1019 94 16093 2.41 88 11:37 01.02.2020
3661 Clouds 23 1019 94 16093 3.41 92 11:18 01.02.2020
3662 Clouds 22 1019 94 16093 1.5 280 10:55 01.02.2020
3663 Clouds 23 1019 64 16093 4.1 80 10:37 01.02.2020
3664 Clouds 23 1019 64 16093 4.1 80 10:18 01.02.2020
3665 Clouds 23 1019 64 16093 4.1 70 09:41 01.02.2020
3666 Clouds 23 1019 64 16093 4.1 70 09:22 01.02.2020
3667 Rain 23 1019 88 16093 2.6 70 08:58 01.02.2020
3668 Clouds 23 1019 64 16093 4.6 60 08:27 01.02.2020
3669 Clouds 23 1019 94 16093 1.5 340 07:46 01.02.2020
3670 Clouds 23 1018 61 16093 5.1 60 07:24 01.02.2020
3671 Clouds 24 1017 61 16093 3.6 60 06:49 01.02.2020
3672 Clouds 24 1017 54 16093 4.1 80 05:54 01.02.2020
3673 Clouds 24 1017 54 16093 3.1 30 04:58 01.02.2020
3674 Clouds 25 1017 50 16093 4.6 50 03:26 01.02.2020
3675 Clouds 25 1016 47 16093 4.6 50 02:59 01.02.2020
3676 Clouds 25 1016 47 16093 4.6 50 02:40 01.02.2020
3677 Clouds 25 1016 47 16093 4.6 50 02:20 01.02.2020
3678 Clouds 26 1017 42 16093 5.1 30 01:46 01.02.2020
3679 Clouds 26 1017 42 16093 5.1 30 01:27 01.02.2020
3680 Clouds 26 1017 39 16093 5.1 60 00:24 01.02.2020
3681 Clouds 27 1018 45 16093 5.1 50 23:41 31.01.2020
3682 Clouds 27 1018 45 16093 5.1 50 23:19 31.01.2020
3683 Clouds 27 1018 45 16093 5.1 50 23:19 31.01.2020
3684 Clouds 25 1019 51 16093 3.1 0 22:56 31.01.2020
3685 Clouds 25 1019 51 16093 3.1 0 22:38 31.01.2020
3686 Clouds 25 1019 51 16093 3.1 0 22:20 31.01.2020
3687 Clouds 25 1019 61 16093 5.1 60 21:40 31.01.2020
3688 Clouds 24 1019 61 16093 5.1 60 21:21 31.01.2020
3689 Clouds 24 1018 69 16093 2.6 100 20:58 31.01.2020
3690 Clouds 23 1019 69 16093 2.6 360 20:40 31.01.2020
3691 Clouds 22 1018 83 16093 1.5 330 20:22 31.01.2020
3692 Clouds 22 1018 83 16093 1.5 330 20:00 31.01.2020
3693 Clouds 21 1019 83 16093 2.6 340 19:40 31.01.2020
3694 Clouds 21 1019 83 16093 2.6 340 19:22 31.01.2020
3695 Clouds 20 1017 88 16093 1.85 71 18:56 31.01.2020
3696 Clouds 20 1017 88 16093 1.85 71 18:36 31.01.2020
3697 Clouds 20 1017 88 16093 1.85 71 18:18 31.01.2020
3698 Clouds 20 1017 77 16093 2.1 340 17:43 31.01.2020
3699 Clouds 20 1017 77 16093 2.1 340 17:24 31.01.2020
3700 Clouds 20 1017 77 16093 2.1 350 16:56 31.01.2020
3701 Clouds 20 1017 77 16093 2.1 350 16:38 31.01.2020
3702 Clouds 20 1017 77 16093 2.1 350 16:19 31.01.2020
3703 Clouds 20 1016 88 16093 1.59 60 15:57 31.01.2020
3704 Clouds 20 1017 77 16093 2.6 300 15:38 31.01.2020
3705 Clouds 20 1017 77 16093 2.6 300 15:38 31.01.2020
3706 Clouds 20 1017 77 16093 2.6 300 15:19 31.01.2020
3707 Clouds 20 1017 73 16093 1.5 290 14:42 31.01.2020
3708 Clouds 20 1016 88 16093 1.59 60 14:42 31.01.2020
3709 Clouds 21 1017 73 16093 1.5 290 14:23 31.01.2020
3710 Clouds 21 1017 83 16093 1.66 63 13:52 31.01.2020
3711 Clouds 21 1017 83 16093 1.66 63 13:32 31.01.2020
3712 Rain 21 1017 88 16093 1.28 72 12:56 31.01.2020
3713 Clouds 20 1018 73 16093 2.1 320 12:38 31.01.2020
3714 Clouds 20 1018 73 16093 2.1 320 12:38 31.01.2020
3715 Clouds 21 1018 73 16093 2.1 320 12:20 31.01.2020
3716 Clear 22 1018 73 16093 1.5 320 11:41 31.01.2020
3717 Clear 21 1018 73 16093 1.5 320 11:23 31.01.2020
3718 Clouds 21 1018 83 16093 1.62 71 10:58 31.01.2020
3719 Clouds 21 1018 83 16093 1.62 71 10:38 31.01.2020
3720 Clouds 21 1018 83 16093 1.62 71 10:20 31.01.2020
3721 Clouds 22 1018 64 16093 2.1 340 09:55 31.01.2020
3722 Clouds 22 1018 64 16093 2.1 340 09:55 31.01.2020
3723 Clouds 22 1018 64 16093 2.1 340 09:37 31.01.2020
3724 Clouds 22 1018 64 16093 2.1 340 09:37 31.01.2020
3725 Clouds 22 1018 64 16093 2.1 340 09:18 31.01.2020
3726 Clouds 22 1018 69 16093 2.1 360 08:42 31.01.2020
3727 Clouds 22 1018 69 16093 2.1 360 08:23 31.01.2020
3728 Clouds 23 1018 57 16093 2.1 20 07:52 31.01.2020
3729 Clouds 24 1018 57 16093 2.1 20 07:20 31.01.2020
3730 Clouds 24 1017 54 16093 3.1 30 06:38 31.01.2020
3731 Clouds 24 1016 54 16093 5.1 40 05:58 31.01.2020
3732 Clouds 25 1016 54 16093 5.1 40 05:33 31.01.2020
3733 Clouds 25 1016 57 16093 4.1 140 04:41 31.01.2020
3734 Clouds 25 1016 57 16093 4.1 140 04:41 31.01.2020
3735 Clouds 26 1016 54 16093 4.6 160 02:50 31.01.2020
3736 Clouds 26 1016 57 16093 5.1 150 01:32 31.01.2020
3737 Clouds 27 1017 57 16093 4.1 150 00:41 31.01.2020
3738 Clouds 27 1017 57 16093 4.1 150 00:23 31.01.2020
3739 Clouds 27 1018 54 16093 4.6 160 23:42 30.01.2020
3740 Clouds 26 1018 54 16093 4.6 160 23:23 30.01.2020
3741 Clouds 26 1019 54 16093 3.1 150 22:39 30.01.2020
3742 Clouds 26 1019 54 16093 3.1 150 22:21 30.01.2020
3743 Clouds 26 1019 54 16093 2.6 150 21:59 30.01.2020
3744 Clouds 25 1019 54 16093 2.6 150 21:40 30.01.2020
3745 Clouds 26 1019 54 16093 2.6 150 21:19 30.01.2020
3746 Clouds 23 1019 69 16093 1.5 330 20:57 30.01.2020
3747 Clouds 23 1019 69 16093 1.5 330 20:38 30.01.2020
3748 Clouds 22 1019 69 16093 1.5 330 20:20 30.01.2020
3749 Clouds 20 1019 73 16093 2.1 350 19:44 30.01.2020
3750 Clouds 20 1019 73 16093 2.1 350 19:19 30.01.2020
3751 Clouds 20 1018 73 16093 2.1 320 18:59 30.01.2020
3752 Clouds 21 1018 73 16093 2.1 320 18:37 30.01.2020
3753 Clouds 20 1018 73 16093 2.1 320 18:18 30.01.2020
3754 Clouds 20 1017 73 16093 1.5 330 17:41 30.01.2020
3755 Clouds 20 1017 73 16093 1.5 330 17:19 30.01.2020
3756 Clouds 19 1017 73 16093 1.5 330 16:58 30.01.2020
3757 Clouds 20 1017 73 16093 1.5 330 16:39 30.01.2020
3758 Clouds 20 1017 73 16093 1.5 330 16:21 30.01.2020
3759 Clouds 20 1017 77 16093 1.5 340 15:44 30.01.2020
3760 Clouds 20 1017 77 16093 1.5 340 15:21 30.01.2020
3761 Clouds 20 1017 73 16093 2.1 340 14:57 30.01.2020
3762 Clouds 20 1017 73 16093 2.1 340 14:37 30.01.2020
3763 Clouds 20 1017 73 16093 2.1 340 14:19 30.01.2020
3764 Clouds 20 1017 73 16093 1.5 310 13:41 30.01.2020
3765 Clouds 20 1017 73 16093 1.5 310 13:23 30.01.2020
3766 Clouds 20 1018 68 16093 1.5 330 12:55 30.01.2020
3767 Clouds 20 1018 68 16093 1.5 330 12:37 30.01.2020
3768 Clouds 20 1018 68 16093 1.5 330 12:37 30.01.2020
3769 Clouds 20 1018 68 16093 1.5 330 12:18 30.01.2020
3770 Clouds 21 1018 68 16093 1.5 10 11:40 30.01.2020
3771 Clouds 21 1018 68 16093 1.5 10 11:22 30.01.2020
3772 Clouds 21 1018 68 16093 1.5 10 11:22 30.01.2020
3773 Clouds 21 1019 73 16093 1.5 340 10:58 30.01.2020
3774 Clouds 21 1019 73 16093 1.5 340 10:38 30.01.2020
3775 Clouds 21 1019 73 16093 1.5 340 10:19 30.01.2020
3776 Clouds 22 1019 69 16093 1.5 350 09:44 30.01.2020
3777 Clouds 22 1019 69 16093 1.5 350 09:24 30.01.2020
3778 Clouds 22 1019 69 16093 1.5 30 08:42 30.01.2020
3779 Clouds 22 1019 69 16093 1.5 30 08:22 30.01.2020
3780 Clouds 23 1018 78 16093 0.46 50 07:56 30.01.2020
3781 Clouds 23 1018 57 16093 2.1 360 07:37 30.01.2020
3782 Clouds 24 1018 57 16093 4.1 330 06:56 30.01.2020
3783 Clouds 24 1018 57 16093 4.1 330 06:33 30.01.2020
3784 Clouds 25 1017 51 16093 4.6 240 05:53 30.01.2020
3785 Clouds 25 1017 51 16093 4.6 240 05:28 30.01.2020
3786 Clouds 26 1017 51 16093 5.1 230 04:40 30.01.2020
3787 Clouds 26 1016 48 16093 5.1 220 03:47 30.01.2020
3788 Clouds 26 1016 54 16093 5.7 220 02:54 30.01.2020
3789 Clouds 27 1018 57 16093 3.6 210 00:56 30.01.2020
3790 Clouds 27 1018 57 16093 3.6 210 00:26 30.01.2020
3791 Clouds 27 1018 54 16093 3.6 200 23:51 29.01.2020
3792 Clouds 26 1018 54 16093 3.6 200 23:23 29.01.2020
3793 Clouds 26 1019 54 16093 3.1 150 22:59 29.01.2020
3794 Clouds 27 1019 54 16093 3.1 150 22:40 29.01.2020
3795 Clouds 26 1019 54 16093 3.1 150 22:20 29.01.2020
3796 Clouds 26 1019 61 16093 3.6 150 21:59 29.01.2020
3797 Clouds 26 1019 61 16093 3.6 150 21:40 29.01.2020
3798 Clouds 26 1019 61 16093 3.6 150 21:20 29.01.2020
3799 Clouds 24 1019 69 16093 1.5 70 20:59 29.01.2020
3800 Clouds 24 1019 69 16093 1.5 70 20:39 29.01.2020
3801 Clouds 23 1019 69 16093 1.5 70 20:21 29.01.2020
3802 Clouds 21 1019 77 16093 1.5 330 19:57 29.01.2020
3803 Clouds 21 1019 77 16093 1.5 330 19:37 29.01.2020
3804 Clouds 20 1019 77 16093 1.5 330 19:19 29.01.2020
3805 Clouds 20 1018 77 16093 2.6 330 18:54 29.01.2020
3806 Clouds 20 1018 77 16093 2.6 330 18:36 29.01.2020
3807 Clouds 20 1018 77 16093 2.6 330 18:18 29.01.2020
3808 Clouds 20 1018 73 16093 1.5 20 17:39 29.01.2020
3809 Clouds 20 1018 73 16093 1.5 20 17:39 29.01.2020
3810 Clouds 20 1018 73 16093 1.5 20 17:21 29.01.2020
3811 Clouds 20 1017 77 16093 1.5 166 16:41 29.01.2020
3812 Clouds 20 1017 77 16093 1.5 166 16:23 29.01.2020
3813 Clouds 20 1018 83 16093 2.6 340 15:56 29.01.2020
3814 Clouds 20 1018 83 16093 2.6 340 15:37 29.01.2020
3815 Clouds 20 1018 83 16093 2.6 340 15:19 29.01.2020
3816 Clouds 21 1017 78 16093 1.5 166 14:43 29.01.2020
3817 Clouds 21 1017 78 16093 0.59 124 14:20 29.01.2020
3818 Clouds 22 1018 73 16093 0.59 124 13:55 29.01.2020
3819 Clouds 22 1018 73 16093 0.59 124 13:36 29.01.2020
3820 Clouds 22 1018 73 16093 0.59 124 13:36 29.01.2020
3821 Clouds 22 1018 73 16093 1.64 183 13:18 29.01.2020
3822 Clouds 22 1018 73 16093 1.64 183 12:55 29.01.2020
3823 Clouds 22 1018 73 16093 1.64 183 12:36 29.01.2020
3824 Clouds 22 1018 73 16093 1.64 183 12:18 29.01.2020
3825 Clouds 22 1019 73 16093 1.5 360 11:44 29.01.2020
3826 Clouds 22 1019 73 16093 1.5 360 11:20 29.01.2020
3827 Clouds 22 1019 73 16093 2.1 20 10:46 29.01.2020
3828 Clouds 21 1019 73 16093 1.5 130 10:25 29.01.2020
3829 Clouds 22 1019 69 16093 2.6 310 09:58 29.01.2020
3830 Clouds 22 1019 69 16093 2.6 310 09:39 29.01.2020
3831 Clouds 22 1019 69 16093 2.6 310 09:19 29.01.2020
3832 Clouds 23 1019 69 16093 1.5 330 08:45 29.01.2020
3833 Clouds 23 1019 69 16093 1.5 330 08:24 29.01.2020
3834 Clouds 24 1019 61 16093 1.28 105 07:45 29.01.2020
3835 Clouds 24 1019 61 16093 1.28 105 07:26 29.01.2020
3836 Clouds 23 1018 69 16093 2.6 30 06:56 29.01.2020
3837 Clouds 23 1018 69 16093 2.6 30 06:37 29.01.2020
3838 Clouds 23 1018 69 16093 2.6 30 06:19 29.01.2020
3839 Clouds 24 1018 61 16093 3.1 10 05:50 29.01.2020
3840 Clouds 24 1018 61 16093 3.1 10 05:31 29.01.2020
3841 Clouds 25 1017 74 16093 4.6 100 04:38 29.01.2020
3842 Clouds 26 1017 69 16093 4.1 80 03:59 29.01.2020
3843 Clouds 25 1014 68 0 1.32 178 02:34 29.01.2020
3844 Clouds 26 1019 54 16093 5.1 140 00:59 29.01.2020
3845 Clouds 26 1019 54 16093 5.1 140 00:36 29.01.2020
3846 Clouds 27 1019 54 16093 5.1 140 00:18 29.01.2020
3847 Clouds 26 1020 57 16093 4.6 150 23:39 28.01.2020
3848 Clouds 26 1020 57 16093 4.6 150 23:19 28.01.2020
3849 Clouds 25 1021 57 16093 0.48 47 22:49 28.01.2020
3850 Clouds 25 1021 57 16093 0.48 47 22:27 28.01.2020
3851 Clouds 25 1021 61 16093 2.1 310 21:55 28.01.2020
3852 Clouds 25 1021 61 16093 2.1 310 21:36 28.01.2020
3853 Clouds 25 1021 61 16093 2.1 310 21:18 28.01.2020
3854 Drizzle 22 1022 73 16093 0.48 47 20:45 28.01.2020
3855 Clouds 21 1021 73 16093 2.6 340 20:25 28.01.2020
3856 Clouds 20 1021 82 16093 2.1 320 19:55 28.01.2020
3857 Clouds 19 1021 82 16093 2.1 320 19:37 28.01.2020
3858 Clouds 19 1021 82 16093 2.1 320 19:18 28.01.2020
3859 Clouds 19 1021 82 16093 2.1 320 19:18 28.01.2020
3860 Clouds 19 1020 82 16093 0.83 349 18:41 28.01.2020
3861 Clouds 19 1020 82 16093 0.83 349 18:23 28.01.2020
3862 Clouds 19 1020 82 16093 0.83 349 18:23 28.01.2020
3863 Clouds 18 1019 88 16093 3.1 330 17:59 28.01.2020
3864 Clouds 18 1019 88 16093 3.1 330 17:39 28.01.2020
3865 Clouds 18 1019 88 16093 3.1 330 17:39 28.01.2020
3866 Clouds 18 1019 88 16093 3.1 330 17:21 28.01.2020
3867 Clear 18 1019 82 16093 1.5 320 16:56 28.01.2020
3868 Clear 18 1019 82 16093 1.5 320 16:37 28.01.2020
3869 Clear 18 1019 82 16093 1.5 320 16:19 28.01.2020
3870 Clear 18 1019 82 16093 1.5 310 15:44 28.01.2020
3871 Clear 18 1019 82 16093 1.5 310 15:19 28.01.2020
3872 Clear 18 1019 77 16093 2.1 340 14:57 28.01.2020
3873 Clear 18 1019 77 16093 2.1 340 14:38 28.01.2020
3874 Clear 18 1019 77 16093 2.1 340 14:38 28.01.2020
3875 Clear 18 1019 77 16093 2.1 340 14:38 28.01.2020
3876 Clear 18 1019 77 16093 2.1 340 14:18 28.01.2020
3877 Clear 18 1020 82 16093 2.1 330 13:40 28.01.2020
3878 Clear 18 1020 82 16093 2.1 330 13:22 28.01.2020
3879 Clear 19 1020 68 16093 2.1 320 12:43 28.01.2020
3880 Clear 19 1020 68 16093 2.1 320 12:24 28.01.2020
3881 Clouds 20 1020 64 16093 1.5 350 11:55 28.01.2020
3882 Clouds 20 1020 64 16093 1.5 350 11:55 28.01.2020
3883 Clouds 20 1020 64 16093 1.5 350 11:37 28.01.2020
3884 Clouds 20 1020 64 16093 1.5 350 11:18 28.01.2020
3885 Clouds 20 1019 73 16093 0.2 310 10:40 28.01.2020
3886 Clouds 20 1019 73 16093 0.2 310 10:22 28.01.2020
3887 Clouds 20 1020 73 16093 2.1 80 09:55 28.01.2020
3888 Clouds 20 1020 73 16093 2.1 80 09:37 28.01.2020
3889 Clouds 20 1020 73 16093 2.1 80 09:18 28.01.2020
3890 Clouds 22 1021 69 16093 1.5 50 08:41 28.01.2020
3891 Clouds 22 1021 69 16093 1.5 50 08:19 28.01.2020
3892 Clouds 22 1020 69 16093 1.5 20 07:38 28.01.2020
3893 Clouds 22 1019 69 16093 0.69 63 06:51 28.01.2020
3894 Clouds 23 1019 69 16093 0.69 63 06:28 28.01.2020
3895 Clouds 24 1018 57 16093 4.1 140 05:55 28.01.2020
3896 Clouds 24 1018 57 16093 4.1 140 05:27 28.01.2020
3897 Clouds 25 1018 51 16093 4.6 70 04:30 28.01.2020
3898 Clouds 26 1018 48 16093 4.1 60 02:58 28.01.2020
3899 Clouds 26 1018 48 16093 4.1 60 02:25 28.01.2020
3900 Clouds 27 1019 54 16093 5.7 150 01:57 28.01.2020
3901 Clouds 27 1019 54 16093 5.7 150 01:26 28.01.2020
3902 Clouds 26 1020 54 16093 6.7 140 00:51 28.01.2020
3903 Clouds 26 1020 54 16093 6.7 140 00:29 28.01.2020
3904 Clouds 26 1021 48 16093 5.7 60 23:51 27.01.2020
3905 Clouds 26 1021 48 16093 5.7 60 23:30 27.01.2020
3906 Clouds 26 1021 44 16093 4.1 90 22:56 27.01.2020
3907 Clouds 26 1021 44 16093 4.1 90 22:38 27.01.2020
3908 Clouds 26 1021 44 16093 4.1 90 22:18 27.01.2020
3909 Clouds 26 1022 51 16093 5.7 50 21:54 27.01.2020
3910 Clouds 26 1022 51 16093 5.7 50 21:36 27.01.2020
3911 Clouds 25 1022 51 16093 5.7 50 21:18 27.01.2020
3912 Clouds 24 1021 64 16093 2.6 70 20:42 27.01.2020
3913 Clouds 23 1021 64 16093 2.6 70 20:21 27.01.2020
3914 Rain 22 1022 88 16093 1.23 94 19:59 27.01.2020
3915 Clouds 21 1021 78 16093 1.23 94 19:40 27.01.2020
3916 Clouds 21 1021 78 16093 1.23 94 19:21 27.01.2020
3917 Clouds 22 1021 93 16093 1.23 94 18:55 27.01.2020
3918 Clouds 22 1020 73 16093 1.5 90 18:37 27.01.2020
3919 Clouds 22 1020 73 16093 1.5 90 18:37 27.01.2020
3920 Clouds 21 1020 73 16093 1.5 90 18:19 27.01.2020
3921 Clouds 21 1018 73 16093 3.6 110 17:39 27.01.2020
3922 Clouds 21 1018 73 16093 3.6 110 17:19 27.01.2020
3923 Clouds 21 1018 73 16093 3.6 110 16:57 27.01.2020
3924 Clouds 21 1019 77 16093 2.29 91 16:37 27.01.2020
3925 Clouds 20 1019 77 16093 2.29 91 16:19 27.01.2020
3926 Clouds 21 1020 73 16093 2.1 350 15:42 27.01.2020
3927 Clouds 21 1020 73 16093 2.1 350 15:20 27.01.2020
3928 Clear 20 1020 77 16093 2.29 91 14:59 27.01.2020
3929 Clear 20 1020 77 16093 2.29 91 14:40 27.01.2020
3930 Clear 20 1020 77 16093 2.51 96 14:21 27.01.2020
3931 Clouds 20 1021 73 16093 1.5 320 13:46 27.01.2020
3932 Clouds 20 1021 73 16093 1.5 320 13:24 27.01.2020
3933 Clouds 20 1022 73 16093 2.31 92 12:58 27.01.2020
3934 Clouds 20 1022 73 16093 2.31 92 12:39 27.01.2020
3935 Clouds 21 1022 73 16093 2.31 92 12:21 27.01.2020
3936 Clouds 21 1022 77 16093 2.1 310 11:43 27.01.2020
3937 Clouds 21 1022 77 16093 2.1 310 11:22 27.01.2020
3938 Clouds 21 1021 64 16093 2.1 0 10:57 27.01.2020
3939 Clouds 23 1021 64 16093 2.1 0 10:39 27.01.2020
3940 Clouds 21 1021 64 16093 2.1 0 10:20 27.01.2020
3941 Clouds 21 1021 64 16093 3.6 80 09:39 27.01.2020
3942 Clouds 21 1021 64 16093 3.6 80 09:19 27.01.2020
3943 Clouds 22 1021 69 16093 4.1 70 08:55 27.01.2020
3944 Clouds 22 1021 69 16093 4.1 70 08:37 27.01.2020
3945 Clouds 23 1021 69 16093 4.1 70 08:18 27.01.2020
3946 Clouds 22 1020 64 16093 3.6 70 07:45 27.01.2020
3947 Clouds 22 1020 64 16093 3.6 70 07:25 27.01.2020
3948 Clouds 23 1019 64 16093 4.6 80 06:37 27.01.2020
3949 Clouds 23 1019 64 16093 4.6 80 06:37 27.01.2020
3950 Clouds 24 1019 57 16093 7.2 70 05:38 27.01.2020
3951 Clouds 25 1018 54 16093 7.2 70 04:37 27.01.2020
3952 Clouds 26 1018 65 16093 4.6 60 03:35 27.01.2020
3953 Clouds 27 1018 65 16093 4.6 100 01:47 27.01.2020
3954 Clouds 27 1018 45 16093 6.7 70 01:22 27.01.2020
3955 Clouds 27 1019 61 16093 3.6 80 00:40 27.01.2020
3956 Clouds 27 1019 61 16093 3.6 80 00:21 27.01.2020
3957 Clouds 27 1020 51 16093 4.1 50 23:43 26.01.2020
3958 Clouds 27 1020 51 16093 4.1 50 23:21 26.01.2020
3959 Clouds 26 1020 65 16093 5.1 90 22:57 26.01.2020
3960 Clouds 26 1020 65 16093 4.6 70 22:38 26.01.2020
3961 Clouds 26 1020 65 16093 4.6 70 22:19 26.01.2020
3962 Clouds 26 1021 65 16093 5.1 110 21:57 26.01.2020
3963 Clouds 26 1021 57 16093 5.7 80 21:38 26.01.2020
3964 Clouds 26 1021 57 16093 5.7 80 21:20 26.01.2020
3965 Clouds 24 1020 65 16093 4.1 90 20:57 26.01.2020
3966 Clouds 24 1021 73 16093 2.6 320 20:38 26.01.2020
3967 Clouds 24 1021 73 16093 2.6 320 20:18 26.01.2020
3968 Clouds 24 1020 78 16093 1.5 350 19:57 26.01.2020
3969 Clouds 22 1020 78 16093 1.5 350 19:37 26.01.2020
3970 Clouds 22 1020 78 16093 1.5 350 19:18 26.01.2020
3971 Clear 21 1020 83 16093 2.1 330 18:41 26.01.2020
3972 Clear 21 1020 83 16093 2.1 330 18:22 26.01.2020
3973 Clouds 21 1019 83 16093 1.8 82 17:59 26.01.2020
3974 Clouds 21 1019 83 16093 1.8 82 17:39 26.01.2020
3975 Clouds 20 1019 83 16093 1.92 88 17:20 26.01.2020
3976 Clouds 21 1018 78 16093 1.92 88 16:58 26.01.2020
3977 Clouds 21 1018 83 16093 1.5 330 16:40 26.01.2020
3978 Clouds 21 1018 83 16093 1.5 330 16:21 26.01.2020
3979 Rain 21 1015 80 0 1.92 88 15:58 26.01.2020
3980 Rain 22 1015 80 0 1.92 88 15:39 26.01.2020
3981 Rain 21 1017 78 0 2.24 70 15:18 26.01.2020
3982 Rain 21 1015 80 0 1.92 88 14:40 26.01.2020
3983 Rain 21 1015 80 0 1.92 88 14:40 26.01.2020
3984 Rain 21 1015 80 0 2.18 69 14:21 26.01.2020
3985 Rain 22 1016 80 0 2.18 69 13:55 26.01.2020
3986 Rain 22 1016 79 0 2.18 69 13:37 26.01.2020
3987 Rain 22 1019 73 0 1.79 310 13:18 26.01.2020
3988 Rain 22 1017 79 0 2.12 78 12:41 26.01.2020
3989 Rain 22 1017 79 0 2.12 78 12:23 26.01.2020
3990 Rain 22 1020 73 0 3.58 60 11:57 26.01.2020
3991 Rain 22 1017 78 0 2.12 78 11:39 26.01.2020
3992 Clouds 22 1021 69 16093 3.6 70 11:18 26.01.2020
3993 Clouds 22 1021 69 16093 3.6 70 10:58 26.01.2020
3994 Clouds 22 1021 69 16093 3.6 70 10:38 26.01.2020
3995 Clouds 22 1021 69 16093 3.6 70 10:20 26.01.2020
3996 Clouds 22 1020 73 16093 3.6 90 09:56 26.01.2020
3997 Clouds 23 1020 73 16093 3.6 90 09:38 26.01.2020
3998 Clouds 23 1020 73 16093 3.6 90 09:20 26.01.2020
3999 Clouds 23 1020 73 16093 2.1 100 08:42 26.01.2020
4000 Clouds 23 1020 73 16093 2.1 100 08:22 26.01.2020
4001 Clouds 23 1020 69 16093 1.5 120 07:54 26.01.2020
4002 Clouds 23 1020 69 16093 1.5 120 07:36 26.01.2020
4003 Clouds 23 1020 69 16093 1.5 120 07:36 26.01.2020
4004 Clouds 23 1020 69 16093 1.5 120 07:18 26.01.2020
4005 Clouds 23 1019 69 16093 3.1 60 06:26 26.01.2020
4006 Clouds 24 1019 61 16093 4.1 50 05:29 26.01.2020
4007 Clouds 25 1018 78 16093 3.6 70 04:43 26.01.2020
4008 Clouds 26 1018 51 16093 4.1 50 02:38 26.01.2020
4009 Clouds 26 1018 54 16093 5.1 60 01:45 26.01.2020
4010 Clouds 26 1018 54 16093 5.1 60 01:23 26.01.2020
4011 Clouds 26 1019 51 16093 3.6 50 00:43 26.01.2020
4012 Clouds 26 1019 51 16093 3.6 50 00:25 26.01.2020
4013 Clear 26 1016 67 0 3.5 86 23:40 25.01.2020
4014 Rain 26 1016 69 0 4.01 82 23:21 25.01.2020
4015 Rain 26 1017 68 0 4.01 82 22:56 25.01.2020
4016 Rain 26 1017 68 0 4.01 82 22:56 25.01.2020
4017 Rain 26 1017 69 0 4.01 82 22:36 25.01.2020
4018 Rain 26 1020 54 0 4.01 82 22:18 25.01.2020
4019 Rain 26 1020 54 0 4.01 82 22:18 25.01.2020
4020 Rain 25 1018 75 0 4.01 82 21:41 25.01.2020
4021 Rain 24 1018 77 0 4.01 82 21:23 25.01.2020
4022 Rain 24 1018 77 0 4.01 82 21:23 25.01.2020
4023 Rain 23 1018 72 0 4.01 82 20:56 25.01.2020
4024 Rain 23 1021 68 0 4.01 82 20:38 25.01.2020
4025 Rain 24 1018 73 0 2.3 68 20:19 25.01.2020
4026 Rain 22 1017 73 0 2.64 68 19:43 25.01.2020
4027 Rain 20 1016 79 0 2.64 68 19:20 25.01.2020
4028 Rain 20 1016 79 0 2.64 68 18:57 25.01.2020
4029 Rain 20 1016 79 0 2.64 68 18:38 25.01.2020
4030 Rain 20 1016 79 0 2.64 68 18:20 25.01.2020
4031 Rain 20 1018 77 0 2.64 68 17:40 25.01.2020
4032 Rain 21 1016 78 0 1.84 55 17:20 25.01.2020
4033 Rain 21 1015 77 0 1.84 55 16:58 25.01.2020
4034 Rain 21 1015 77 0 2.16 56 16:38 25.01.2020
4035 Rain 21 1015 77 0 2.16 56 16:19 25.01.2020
4036 Rain 21 1015 78 0 2.16 56 15:47 25.01.2020
4037 Rain 21 1015 78 0 2.16 56 15:25 25.01.2020
4038 Rain 21 1015 79 0 2.16 56 14:57 25.01.2020
4039 Rain 21 1015 78 0 2.16 56 14:39 25.01.2020
4040 Rain 21 1015 77 0 1.6 49 14:18 25.01.2020
4041 Rain 20 1018 77 0 1.6 49 13:42 25.01.2020
4042 Rain 20 1015 80 0 2.4 46 13:23 25.01.2020
4043 Clouds 20 1019 93 16093 1.5 320 12:45 25.01.2020
4044 Clouds 20 1019 93 16093 1.5 320 12:25 25.01.2020
4045 Clouds 21 1019 93 16093 1.5 320 11:45 25.01.2020
4046 Clouds 22 1019 73 16093 2.6 0 11:22 25.01.2020
4047 Clouds 21 1019 73 16093 2.1 320 10:58 25.01.2020
4048 Clouds 21 1019 73 16093 2.1 320 10:40 25.01.2020
4049 Clouds 21 1019 73 16093 2.1 320 10:20 25.01.2020
4050 Clouds 22 1019 69 16093 3.1 330 09:41 25.01.2020
4051 Clouds 21 1019 69 16093 3.1 330 09:22 25.01.2020
4052 Clouds 22 1019 69 16093 1.86 37 08:44 25.01.2020
4053 Clouds 22 1019 69 16093 1.87 49 08:22 25.01.2020
4054 Clouds 23 1019 64 16093 2.1 360 07:49 25.01.2020
4055 Clouds 23 1018 64 16093 2.6 20 06:51 25.01.2020
4056 Clouds 23 1018 64 16093 2.6 20 06:51 25.01.2020
4057 Clouds 23 1018 64 16093 2.6 20 06:27 25.01.2020
4058 Clouds 24 1018 78 16093 3.1 310 05:46 25.01.2020
4059 Clouds 24 1017 61 16093 2.6 210 04:43 25.01.2020
4060 Clouds 26 1017 57 16093 3.1 190 03:51 25.01.2020
4061 Clouds 26 1017 57 16093 3.1 190 03:51 25.01.2020
4062 Clouds 26 1017 65 16093 4.1 190 02:54 25.01.2020
4063 Clouds 26 1017 65 16093 4.1 190 02:18 25.01.2020
4064 Clouds 27 1018 61 16093 4.6 200 01:37 25.01.2020
4065 Clouds 26 1018 57 16093 4.6 210 00:43 25.01.2020
4066 Clouds 27 1018 57 16093 4.6 210 00:24 25.01.2020
4067 Clouds 26 1019 54 16093 4.6 210 23:57 24.01.2020
4068 Clouds 26 1019 54 16093 4.6 210 23:38 24.01.2020
4069 Clouds 26 1019 54 16093 4.6 210 23:38 24.01.2020
4070 Clouds 27 1019 54 16093 4.6 210 23:20 24.01.2020
4071 Clouds 26 1020 57 16093 3.1 200 22:42 24.01.2020
4072 Clouds 26 1020 57 16093 3.1 200 22:24 24.01.2020
4073 Clear 25 1020 65 16093 2.6 300 21:42 24.01.2020
4074 Clear 25 1020 65 16093 2.6 300 21:20 24.01.2020
4075 Clouds 23 1019 69 16093 1.5 20 20:56 24.01.2020
4076 Clouds 23 1019 69 16093 1.5 20 20:37 24.01.2020
4077 Clouds 23 1019 69 16093 1.5 20 20:18 24.01.2020
4078 Clouds 20 1019 82 16093 3.1 330 19:55 24.01.2020
4079 Clouds 20 1019 82 16093 3.1 330 19:37 24.01.2020
4080 Clouds 19 1019 82 16093 3.1 330 19:19 24.01.2020
4081 Clouds 19 1018 77 16093 1.5 320 18:42 24.01.2020
4082 Clouds 19 1018 77 16093 1.5 320 18:42 24.01.2020
4083 Clouds 19 1018 77 16093 1.5 320 18:22 24.01.2020
4084 Clouds 19 1018 77 16093 1.5 320 18:22 24.01.2020
4085 Clouds 18 1017 88 16093 2.1 340 17:45 24.01.2020
4086 Clouds 18 1017 88 16093 2.1 340 17:45 24.01.2020
4087 Clouds 18 1017 88 16093 2.1 340 17:22 24.01.2020
4088 Clouds 18 1017 88 16093 1.5 290 16:57 24.01.2020
4089 Clouds 19 1017 88 16093 1.5 290 16:38 24.01.2020
4090 Clouds 19 1017 88 16093 1.5 290 16:19 24.01.2020
4091 Clouds 19 1017 77 16093 1.5 330 15:41 24.01.2020
4092 Clouds 19 1017 77 16093 1.5 330 15:21 24.01.2020
4093 Clouds 19 1017 77 16093 0.38 90 14:42 24.01.2020
4094 Clouds 19 1017 77 16093 0.85 113 14:24 24.01.2020
4095 Clouds 20 1017 77 16093 2.1 330 13:58 24.01.2020
4096 Clouds 19 1017 77 16093 2.1 330 13:40 24.01.2020
4097 Clouds 19 1017 77 16093 2.1 330 13:21 24.01.2020
4098 Clouds 19 1018 77 16093 1.5 330 12:42 24.01.2020
4099 Clouds 19 1018 77 16093 1.5 330 12:19 24.01.2020
4100 Clouds 19 1018 77 16093 1.5 350 11:44 24.01.2020
4101 Clouds 19 1018 77 16093 1.5 350 11:19 24.01.2020
4102 Clouds 19 1018 73 16093 0.16 115 10:43 24.01.2020
4103 Clouds 20 1018 73 16093 0.16 115 10:23 24.01.2020
4104 Clouds 20 1018 73 16093 0.16 115 10:23 24.01.2020
4105 Clouds 20 1018 68 16093 1.5 350 09:57 24.01.2020
4106 Clouds 20 1018 68 16093 1.5 350 09:57 24.01.2020
4107 Clouds 20 1018 68 16093 1.5 350 09:57 24.01.2020
4108 Clouds 20 1018 68 16093 1.5 350 09:39 24.01.2020
4109 Clouds 20 1018 68 16093 1.5 350 09:21 24.01.2020
4110 Clear 21 1017 69 16093 2.6 50 08:41 24.01.2020
4111 Clear 21 1017 69 16093 2.6 50 08:20 24.01.2020
4112 Clouds 21 1017 69 16093 0.37 277 07:51 24.01.2020
4113 Clouds 21 1017 69 16093 0.37 277 07:32 24.01.2020
4114 Clear 22 1016 64 16093 0.37 277 06:48 24.01.2020
4115 Clear 22 1016 64 16093 0.37 277 06:29 24.01.2020
4116 Clear 24 1016 61 16093 2.1 0 05:58 24.01.2020
4117 Clear 26 1016 57 16093 2.6 210 04:54 24.01.2020
4118 Clouds 26 1015 57 16093 3.1 190 02:53 24.01.2020
4119 Clouds 26 1015 57 16093 3.1 190 02:24 24.01.2020
4120 Clouds 26 1016 57 16093 3.6 170 01:42 24.01.2020
4121 Clouds 26 1016 57 16093 3.6 170 01:24 24.01.2020
4122 Clouds 26 1017 54 16093 3.1 170 00:20 24.01.2020
4123 Clouds 25 1018 54 16093 3.6 170 23:48 23.01.2020
4124 Clouds 25 1018 54 16093 3.6 170 23:30 23.01.2020
4125 Clear 25 1019 54 16093 2.6 160 22:59 23.01.2020
4126 Clear 25 1019 54 16093 2.6 160 22:37 23.01.2020
4127 Clear 25 1019 54 16093 2.6 160 22:19 23.01.2020
4128 Clear 25 1019 54 16093 3.7 183 21:57 23.01.2020
4129 Clear 25 1019 54 16093 3.7 183 21:38 23.01.2020
4130 Clear 25 1019 54 16093 3.7 183 21:20 23.01.2020
4131 Clear 23 1018 64 16093 1.5 350 20:57 23.01.2020
4132 Clear 23 1018 64 16093 1.5 350 20:38 23.01.2020
4133 Clear 22 1018 64 16093 1.5 350 20:19 23.01.2020
4134 Clear 18 1018 82 16093 2.1 340 19:44 23.01.2020
4135 Clear 18 1018 82 16093 2.1 340 19:44 23.01.2020
4136 Clear 18 1018 82 16093 2.1 340 19:24 23.01.2020
4137 Clouds 18 1017 82 16093 2.1 350 18:59 23.01.2020
4138 Clouds 17 1017 82 16093 2.1 350 18:40 23.01.2020
4139 Clouds 17 1017 82 16093 2.1 350 18:20 23.01.2020
4140 Clear 17 1017 77 16093 2.1 340 17:57 23.01.2020
4141 Clear 17 1017 77 16093 2.1 340 17:39 23.01.2020
4142 Clear 17 1017 77 16093 2.1 340 17:19 23.01.2020
4143 Clear 17 1016 77 16093 1.5 340 16:39 23.01.2020
4144 Clear 17 1016 77 16093 1.5 340 16:20 23.01.2020
4145 Clear 18 1016 82 16093 1.5 330 15:58 23.01.2020
4146 Clear 18 1016 82 16093 1.5 330 15:40 23.01.2020
4147 Clear 18 1016 82 16093 1.5 330 15:19 23.01.2020
4148 Clear 18 1016 77 16093 2.1 330 14:59 23.01.2020
4149 Clear 18 1016 77 16093 2.1 330 14:41 23.01.2020
4150 Clear 18 1016 77 16093 2.1 330 14:23 23.01.2020
4151 Clear 19 1017 72 16093 1.5 330 13:59 23.01.2020
4152 Clear 18 1017 72 16093 1.5 330 13:37 23.01.2020
4153 Clear 18 1017 72 16093 1.5 330 13:19 23.01.2020
4154 Clear 19 1018 72 16093 2.1 340 12:44 23.01.2020
4155 Clear 18 1018 72 16093 2.1 340 12:25 23.01.2020
4156 Clear 19 1018 73 16093 2.1 340 11:56 23.01.2020
4157 Clear 19 1018 73 16093 2.1 340 11:37 23.01.2020
4158 Clear 19 1018 73 16093 2.1 340 11:37 23.01.2020
4159 Clear 19 1018 73 16093 2.1 340 11:18 23.01.2020
4160 Clouds 20 1018 77 16093 2.6 330 10:43 23.01.2020
4161 Clouds 20 1018 77 16093 2.6 330 10:19 23.01.2020
4162 Clouds 19 1018 73 16093 2.6 350 09:43 23.01.2020
4163 Clouds 19 1018 73 16093 2.6 350 09:25 23.01.2020
4164 Clouds 20 1018 68 16093 2.1 30 08:58 23.01.2020
4165 Clouds 20 1018 68 16093 2.1 30 08:58 23.01.2020
4166 Clouds 20 1018 68 16093 2.1 30 08:40 23.01.2020
4167 Clouds 20 1018 68 16093 2.1 30 08:21 23.01.2020
4168 Clouds 21 1018 69 16093 0.88 185 07:44 23.01.2020
4169 Clouds 21 1018 69 16093 0.88 185 07:24 23.01.2020
4170 Clouds 22 1017 64 16093 1.5 160 06:51 23.01.2020
4171 Clouds 22 1017 64 16093 1.5 160 06:51 23.01.2020
4172 Clouds 22 1017 64 16093 1.5 160 06:20 23.01.2020
4173 Clouds 23 1016 57 16093 2.6 150 05:37 23.01.2020
4174 Clouds 25 1016 54 16093 3.6 160 04:22 23.01.2020
4175 Clouds 25 1016 50 16093 4.6 150 02:31 23.01.2020
4176 Clouds 26 1018 51 16093 4.1 170 00:56 23.01.2020
4177 Clouds 26 1018 51 16093 4.1 170 00:26 23.01.2020
4178 Clouds 26 1019 54 16093 3.6 160 23:47 22.01.2020
4179 Clouds 26 1019 54 16093 3.6 160 23:29 22.01.2020
4180 Clouds 26 1019 54 16093 3.6 200 22:56 22.01.2020
4181 Clouds 25 1019 54 16093 3.6 200 22:38 22.01.2020
4182 Clouds 25 1019 54 16093 3.6 200 22:20 22.01.2020
4183 Clear 24 1019 64 16093 1.62 73 21:39 22.01.2020
4184 Clear 24 1019 64 16093 1.62 73 21:21 22.01.2020
4185 Clear 22 1019 73 16093 2.6 340 20:56 22.01.2020
4186 Clear 21 1019 73 16093 2.6 340 20:56 22.01.2020
4187 Clear 21 1019 73 16093 2.6 340 20:36 22.01.2020
4188 Clear 21 1019 73 16093 2.6 340 20:36 22.01.2020
4189 Clear 21 1019 73 16093 2.6 340 20:36 22.01.2020
4190 Clear 21 1019 73 16093 2.6 340 20:18 22.01.2020
4191 Clear 21 1019 73 16093 2.6 340 20:18 22.01.2020
4192 Clear 19 1019 77 16093 3.1 350 19:55 22.01.2020
4193 Clear 19 1019 77 16093 3.1 350 19:36 22.01.2020
4194 Clear 19 1019 77 16093 3.1 350 19:36 22.01.2020
4195 Clear 19 1019 77 16093 3.1 350 19:18 22.01.2020
4196 Clear 18 1018 82 16093 2.1 10 18:54 22.01.2020
4197 Clear 18 1018 82 16093 2.1 10 18:36 22.01.2020
4198 Clear 18 1018 82 16093 2.1 10 18:18 22.01.2020
4199 Clear 18 1018 82 16093 2.1 340 17:39 22.01.2020
4200 Clear 18 1018 82 16093 2.1 340 17:20 22.01.2020
4201 Clear 18 1018 82 16093 1.5 340 16:56 22.01.2020
4202 Clear 18 1018 82 16093 1.5 340 16:37 22.01.2020
4203 Clear 18 1018 82 16093 1.5 340 16:37 22.01.2020
4204 Clear 18 1018 82 16093 1.5 340 16:18 22.01.2020
4205 Clear 18 1018 82 16093 0.98 77 15:43 22.01.2020
4206 Clear 18 1018 82 16093 0.98 77 15:24 22.01.2020
4207 Clear 18 1018 77 16093 2.6 340 14:59 22.01.2020
4208 Clear 19 1018 77 16093 2.6 340 14:38 22.01.2020
4209 Clear 19 1018 77 16093 2.6 340 14:20 22.01.2020
4210 Clear 19 1019 82 16093 2.1 350 13:56 22.01.2020
4211 Clear 19 1019 82 16093 2.1 350 13:37 22.01.2020
4212 Clear 19 1019 82 16093 2.1 350 13:19 22.01.2020
4213 Clear 19 1019 77 16093 1.5 330 12:56 22.01.2020
4214 Clear 19 1019 77 16093 1.5 330 12:56 22.01.2020
4215 Clear 19 1019 77 16093 1.5 330 12:38 22.01.2020
4216 Clear 19 1019 77 16093 1.5 330 12:19 22.01.2020
4217 Clear 20 1020 77 16093 1.5 340 11:56 22.01.2020
4218 Clear 20 1020 77 16093 1.5 340 11:38 22.01.2020
4219 Clear 20 1020 77 16093 1.5 340 11:19 22.01.2020
4220 Clear 20 1020 77 16093 1.03 106 10:44 22.01.2020
4221 Clear 20 1020 77 16093 1.03 106 10:21 22.01.2020
4222 Clouds 21 1020 69 16093 1.5 360 09:45 22.01.2020
4223 Clouds 21 1020 69 16093 1.5 360 09:26 22.01.2020
4224 Clouds 22 1020 69 16093 1.03 106 08:59 22.01.2020
4225 Clouds 22 1020 69 16093 1.03 106 08:40 22.01.2020
4226 Clouds 22 1020 69 16093 0.54 231 08:21 22.01.2020
4227 Clouds 22 1020 69 16093 2.1 20 07:58 22.01.2020
4228 Clouds 22 1020 69 16093 2.1 20 07:58 22.01.2020
4229 Clouds 22 1020 69 16093 2.1 20 07:40 22.01.2020
4230 Clouds 22 1020 69 16093 2.1 20 07:21 22.01.2020
4231 Clouds 23 1019 60 16093 2.1 270 06:31 22.01.2020
4232 Clouds 24 1018 54 16093 2.1 200 05:42 22.01.2020
4233 Clouds 25 1017 51 16093 4.1 170 04:20 22.01.2020
4234 Clouds 25 1017 51 16093 4.1 170 03:23 22.01.2020
4235 Clouds 25 1017 51 16093 4.1 170 03:23 22.01.2020
4236 Clouds 26 1017 54 16093 4.1 170 02:27 22.01.2020
4237 Clouds 26 1018 54 16093 4.6 160 00:45 22.01.2020
4238 Clouds 26 1018 54 16093 4.6 160 00:26 22.01.2020
4239 Clouds 26 1020 47 16093 2.6 300 23:39 21.01.2020
4240 Clouds 26 1020 47 16093 2.6 300 23:21 21.01.2020
4241 Clouds 26 1020 44 16093 0.63 233 22:59 21.01.2020
4242 Clouds 26 1020 44 16093 0.63 233 22:39 21.01.2020
4243 Clouds 26 1020 44 16093 0.63 233 22:20 21.01.2020
4244 Clouds 26 1021 57 16093 0.63 233 21:56 21.01.2020
4245 Clouds 26 1021 57 16093 0.63 233 21:37 21.01.2020
4246 Clouds 26 1021 57 16093 0.63 233 21:19 21.01.2020
4247 Clouds 26 1021 57 16093 0.63 233 21:19 21.01.2020
4248 Clouds 23 1021 69 16093 2.1 0 20:55 21.01.2020
4249 Clouds 23 1021 69 16093 2.1 0 20:37 21.01.2020
4250 Clouds 22 1021 69 16093 2.1 0 20:18 21.01.2020
4251 Clouds 22 1021 69 16093 2.1 0 20:18 21.01.2020
4252 Clouds 20 1020 82 16093 2.1 0 19:55 21.01.2020
4253 Clouds 20 1020 82 16093 2.1 0 19:36 21.01.2020
4254 Clouds 20 1020 82 16093 2.1 0 19:18 21.01.2020
4255 Clouds 19 1020 88 16093 0.86 131 18:54 21.01.2020
4256 Clouds 19 1020 88 16093 0.86 131 18:36 21.01.2020
4257 Clouds 19 1020 88 16093 0.86 131 18:18 21.01.2020
4258 Clouds 19 1019 82 16093 1.5 330 17:42 21.01.2020
4259 Clouds 19 1019 82 16093 1.5 330 17:19 21.01.2020
4260 Clear 19 1019 82 16093 2.6 350 16:56 21.01.2020
4261 Clear 19 1019 82 16093 2.6 350 16:36 21.01.2020
4262 Clear 19 1019 82 16093 2.6 350 16:18 21.01.2020
4263 Clouds 19 1019 82 16093 1.5 10 15:40 21.01.2020
4264 Clouds 19 1019 82 16093 1.5 10 15:20 21.01.2020
4265 Clouds 20 1019 82 16093 2.6 340 14:55 21.01.2020
4266 Clouds 20 1019 82 16093 2.6 340 14:36 21.01.2020
4267 Clouds 20 1019 82 16093 2.6 340 14:18 21.01.2020
4268 Clear 20 1019 68 16093 1.5 330 13:38 21.01.2020
4269 Clear 20 1019 68 16093 1.5 330 13:18 21.01.2020
4270 Clear 21 1020 68 16093 2.1 40 12:43 21.01.2020
4271 Clear 21 1020 68 16093 2.1 40 12:43 21.01.2020
4272 Clear 21 1020 68 16093 2.1 40 12:24 21.01.2020
4273 Clouds 21 1020 73 16093 2.6 30 11:56 21.01.2020
4274 Clouds 21 1020 73 16093 2.6 30 11:38 21.01.2020
4275 Clouds 21 1020 73 16093 2.6 30 11:38 21.01.2020
4276 Clouds 21 1020 73 16093 2.6 30 11:19 21.01.2020
4277 Clouds 22 1020 69 16093 1.5 30 10:43 21.01.2020
4278 Clouds 22 1020 69 16093 1.5 30 10:23 21.01.2020
4279 Clouds 22 1021 64 16093 2.1 30 09:57 21.01.2020
4280 Clouds 22 1021 64 16093 2.1 30 09:39 21.01.2020
4281 Clouds 22 1021 64 16093 2.1 30 09:21 21.01.2020
4282 Clouds 22 1020 64 16093 3.6 60 08:45 21.01.2020
4283 Clouds 22 1020 64 16093 3.6 60 08:27 21.01.2020
4284 Clouds 23 1020 64 16093 4.1 50 07:45 21.01.2020
4285 Clouds 23 1020 64 16093 4.1 50 07:26 21.01.2020
4286 Clouds 23 1019 64 16093 5.1 70 06:58 21.01.2020
4287 Clouds 23 1019 64 16093 5.1 70 06:39 21.01.2020
4288 Clouds 23 1019 64 16093 5.1 70 06:20 21.01.2020
4289 Clouds 23 1019 61 16093 4.6 60 05:40 21.01.2020
4290 Clouds 24 1018 57 16093 4.1 50 04:38 21.01.2020
4291 Clouds 25 1018 65 16093 5.1 90 02:29 21.01.2020
4292 Rain 25 1019 61 16093 5.1 70 01:36 21.01.2020
4293 Clouds 25 1019 65 16093 5.7 100 00:51 21.01.2020
4294 Rain 25 1019 73 16093 6.2 70 00:28 21.01.2020
4295 Rain 24 1019 73 16093 6.2 90 23:56 20.01.2020
4296 Rain 24 1021 61 16093 5.7 40 23:36 20.01.2020
4297 Rain 24 1021 61 16093 5.7 40 23:18 20.01.2020
4298 Rain 24 1021 57 16093 7.2 40 22:40 20.01.2020
4299 Rain 24 1021 57 16093 7.2 40 22:21 20.01.2020
4300 Rain 24 1021 69 16093 4.6 80 21:58 20.01.2020
4301 Rain 24 1021 69 16093 4.6 80 21:38 20.01.2020
4302 Rain 24 1021 69 16093 4.6 80 21:20 20.01.2020
4303 Rain 23 1022 88 16093 6.27 84 20:59 20.01.2020
4304 Rain 23 1020 78 11265 4.6 110 20:41 20.01.2020
4305 Rain 23 1020 78 11265 4.6 110 20:20 20.01.2020
4306 Clouds 22 1019 73 16093 5.1 80 19:58 20.01.2020
4307 Rain 22 1021 100 16093 1.5 110 19:40 20.01.2020
4308 Rain 21 1021 100 16093 1.5 110 19:19 20.01.2020
4309 Rain 21 1021 93 16093 1.5 210 18:54 20.01.2020
4310 Rain 21 1020 78 16093 2.6 60 18:36 20.01.2020
4311 Rain 21 1020 78 16093 2.6 60 18:18 20.01.2020
4312 Rain 21 1020 78 9656 2.6 60 17:38 20.01.2020
4313 Rain 21 1020 78 9656 2.6 60 17:19 20.01.2020
4314 Clouds 21 1019 78 16093 4.6 80 16:46 20.01.2020
4315 Rain 21 1019 78 16093 4.6 80 16:26 20.01.2020
4316 Rain 21 1019 93 16093 2.1 320 15:59 20.01.2020
4317 Clouds 21 1018 78 16093 7.2 80 15:40 20.01.2020
4318 Clouds 21 1018 78 16093 7.2 80 15:21 20.01.2020
4319 Clouds 21 1019 69 16093 3.6 40 14:56 20.01.2020
4320 Clouds 21 1019 69 16093 3.6 40 14:37 20.01.2020
4321 Clouds 21 1019 69 16093 3.6 40 14:19 20.01.2020
4322 Clouds 21 1020 69 16093 4.6 50 13:42 20.01.2020
4323 Clouds 21 1020 69 16093 4.6 50 13:23 20.01.2020
4324 Clouds 22 1020 93 16093 2.1 300 12:56 20.01.2020
4325 Clouds 22 1021 93 16093 1.5 290 12:38 20.01.2020
4326 Clouds 22 1021 93 16093 1.5 290 12:19 20.01.2020
4327 Drizzle 22 1021 93 16093 2.6 290 11:43 20.01.2020
4328 Clouds 22 1020 69 16093 5.1 50 11:24 20.01.2020
4329 Clouds 22 1021 64 16093 6.7 60 10:57 20.01.2020
4330 Clouds 22 1021 64 16093 6.7 60 10:39 20.01.2020
4331 Clouds 23 1021 64 16093 6.7 60 10:19 20.01.2020
4332 Clouds 22 1020 69 16093 5.7 60 09:41 20.01.2020
4333 Clouds 22 1021 82 16093 2.99 65 09:41 20.01.2020
4334 Clouds 22 1020 69 16093 5.7 60 09:21 20.01.2020
4335 Clouds 23 1021 77 16093 2.99 65 08:49 20.01.2020
4336 Clouds 22 1021 82 16093 2.99 65 08:30 20.01.2020
4337 Clouds 22 1020 64 16093 3.1 40 07:54 20.01.2020
4338 Clouds 22 1020 64 16093 3.1 40 07:30 20.01.2020
4339 Clouds 22 1019 60 16093 6.7 70 06:59 20.01.2020
4340 Clouds 22 1019 60 16093 6.7 70 06:30 20.01.2020
4341 Clouds 23 1018 57 16093 5.1 60 05:44 20.01.2020
4342 Clouds 23 1018 57 16093 5.1 60 05:25 20.01.2020
4343 Clouds 24 1018 53 16093 8.7 80 04:58 20.01.2020
4344 Clouds 24 1018 47 16093 5.1 40 03:30 20.01.2020
4345 Clouds 25 1019 42 16093 7.2 60 01:57 20.01.2020
4346 Clouds 25 1019 42 16093 7.2 60 01:37 20.01.2020
4347 Clouds 25 1020 42 16093 7.2 50 00:45 20.01.2020
4348 Clouds 25 1020 42 16093 7.2 50 00:25 20.01.2020
4349 Clouds 24 1021 42 16093 6.2 50 23:40 19.01.2020
4350 Clouds 25 1021 42 16093 6.2 50 23:20 19.01.2020
4351 Clouds 25 1019 50 16093 6.7 60 22:58 19.01.2020
4352 Clouds 25 1019 50 16093 6.7 60 22:40 19.01.2020
4353 Clouds 25 1019 50 16093 6.7 60 22:21 19.01.2020
4354 Clouds 24 1022 50 16093 6.2 50 21:57 19.01.2020
4355 Clouds 24 1022 50 16093 6.2 50 21:57 19.01.2020
4356 Clouds 24 1022 50 16093 6.2 50 21:57 19.01.2020
4357 Clouds 23 1022 50 16093 6.2 50 21:39 19.01.2020
4358 Clouds 23 1022 50 16093 6.2 50 21:39 19.01.2020
4359 Clouds 23 1022 50 16093 6.2 50 21:21 19.01.2020
4360 Clouds 23 1021 53 16093 3.6 30 20:58 19.01.2020
4361 Clouds 23 1021 53 16093 3.6 30 20:39 19.01.2020
4362 Clouds 23 1021 53 16093 3.6 30 20:21 19.01.2020
4363 Clouds 22 1020 53 16093 2.6 0 19:58 19.01.2020
4364 Clouds 22 1020 53 16093 2.6 0 19:39 19.01.2020
4365 Clouds 22 1020 53 16093 2.6 0 19:39 19.01.2020
4366 Clouds 22 1020 53 16093 2.6 0 19:21 19.01.2020
4367 Clouds 22 1019 56 16093 1.5 40 18:59 19.01.2020
4368 Clouds 21 1019 56 16093 1.5 40 18:41 19.01.2020
4369 Clouds 21 1019 56 16093 1.5 40 18:21 19.01.2020
4370 Clouds 21 1018 60 16093 5.1 60 17:59 19.01.2020
4371 Clouds 21 1018 60 16093 5.1 60 17:40 19.01.2020
4372 Clouds 21 1018 60 16093 5.1 60 17:40 19.01.2020
4373 Clouds 21 1018 60 16093 5.1 60 17:22 19.01.2020
4374 Clouds 21 1018 72 16093 1.5 10 16:59 19.01.2020
4375 Clouds 21 1018 72 16093 3.78 59 16:40 19.01.2020
4376 Clouds 21 1018 72 16093 3.78 59 16:40 19.01.2020
4377 Clouds 21 1018 72 16093 3.78 59 16:22 19.01.2020
4378 Clouds 20 1018 60 16093 3.1 40 15:59 19.01.2020
4379 Clouds 20 1018 60 16093 3.1 40 15:40 19.01.2020
4380 Clouds 20 1018 60 16093 3.1 40 15:21 19.01.2020
4381 Clouds 21 1019 72 16093 2.6 360 14:59 19.01.2020
4382 Clouds 21 1019 56 16093 3.6 50 14:39 19.01.2020
4383 Clouds 21 1019 56 16093 3.6 50 14:19 19.01.2020
4384 Clouds 21 1019 56 16093 3.6 50 13:58 19.01.2020
4385 Clouds 21 1019 56 16093 3.6 50 13:38 19.01.2020
4386 Clouds 21 1019 56 16093 3.6 50 13:20 19.01.2020
4387 Clouds 21 1019 56 16093 3.1 40 12:55 19.01.2020
4388 Clouds 21 1019 56 16093 3.1 40 12:37 19.01.2020
4389 Clouds 21 1019 56 16093 3.1 40 12:37 19.01.2020
4390 Clouds 21 1019 56 16093 3.1 40 12:19 19.01.2020
4391 Clouds 21 1020 72 16093 5.1 10 11:42 19.01.2020
4392 Clouds 21 1019 60 16093 5.7 50 11:21 19.01.2020
4393 Clouds 21 1020 68 16093 3.6 350 10:57 19.01.2020
4394 Clouds 21 1020 56 16093 3.1 40 10:39 19.01.2020
4395 Clouds 21 1020 56 16093 3.1 40 10:19 19.01.2020
4396 Clouds 21 1019 56 16093 5.7 40 09:56 19.01.2020
4397 Clouds 21 1019 56 16093 5.7 40 09:56 19.01.2020
4398 Clouds 21 1019 56 16093 5.7 40 09:56 19.01.2020
4399 Clouds 21 1019 56 16093 5.7 40 09:56 19.01.2020
4400 Clouds 21 1019 56 16093 5.7 40 09:56 19.01.2020
4401 Clouds 21 1019 56 16093 5.7 40 09:37 19.01.2020
4402 Clouds 22 1019 56 16093 5.7 40 09:18 19.01.2020
4403 Clouds 22 1020 77 16093 3.1 330 08:48 19.01.2020
4404 Clouds 22 1019 60 16093 3.6 40 08:28 19.01.2020
4405 Clouds 22 1019 60 16093 4.1 40 07:42 19.01.2020
4406 Clouds 22 1019 60 16093 4.1 40 07:22 19.01.2020
4407 Clouds 22 1018 60 16093 3.1 40 06:53 19.01.2020
4408 Clouds 22 1018 60 16093 3.1 40 06:21 19.01.2020
4409 Clouds 25 1016 47 16093 5.7 20 02:44 19.01.2020
4410 Clouds 25 1016 47 16093 5.7 20 02:21 19.01.2020
4411 Clouds 25 1017 47 16093 8.2 30 01:25 19.01.2020
4412 Clouds 25 1018 44 16093 6.7 30 00:50 19.01.2020
4413 Clouds 24 1014 64 0 0.45 92 00:29 19.01.2020
4414 Clouds 25 1019 44 16093 5.7 30 23:58 18.01.2020
4415 Clouds 25 1019 44 16093 5.7 30 23:40 18.01.2020
4416 Clouds 25 1019 44 16093 5.7 30 23:21 18.01.2020
4417 Clouds 24 1019 68 16093 3.1 30 22:55 18.01.2020
4418 Clouds 24 1019 44 16093 5.7 60 22:37 18.01.2020
4419 Clouds 24 1019 44 16093 5.7 60 22:19 18.01.2020
4420 Clouds 23 1019 50 16093 7.7 50 21:56 18.01.2020
4421 Clouds 23 1019 50 16093 7.7 50 21:37 18.01.2020
4422 Clouds 23 1019 50 16093 7.7 50 21:18 18.01.2020
4423 Clouds 22 1018 53 16093 5.7 50 20:42 18.01.2020
4424 Clouds 22 1018 53 16093 5.7 50 20:21 18.01.2020
4425 Clouds 22 1018 53 16093 3.1 40 19:55 18.01.2020
4426 Clouds 22 1018 53 16093 3.1 40 19:37 18.01.2020
4427 Clouds 22 1018 53 16093 3.1 40 19:37 18.01.2020
4428 Clouds 22 1018 53 16093 3.1 40 19:19 18.01.2020
4429 Clouds 21 1017 60 16093 3.6 50 18:42 18.01.2020
4430 Clouds 21 1017 60 16093 3.6 50 18:21 18.01.2020
4431 Clouds 21 1016 60 16093 2.6 20 17:41 18.01.2020
4432 Clouds 21 1016 60 16093 2.6 20 17:21 18.01.2020
4433 Clouds 21 1016 60 16093 2.6 20 17:21 18.01.2020
4434 Clear 21 1016 53 16093 3.6 30 16:59 18.01.2020
4435 Clear 21 1016 53 16093 3.6 30 16:41 18.01.2020
4436 Clear 21 1016 53 16093 3.6 30 16:22 18.01.2020
4437 Clouds 21 1015 56 16093 7.2 50 15:58 18.01.2020
4438 Clouds 21 1015 56 16093 7.2 50 15:58 18.01.2020
4439 Clouds 21 1015 56 16093 7.2 50 15:40 18.01.2020
4440 Clouds 21 1015 56 16093 7.2 50 15:21 18.01.2020
4441 Clouds 21 1015 60 16093 7.2 50 14:44 18.01.2020
4442 Clouds 21 1015 60 16093 3.6 30 14:24 18.01.2020
4443 Clouds 21 1016 64 16093 2.6 30 13:59 18.01.2020
4444 Clouds 21 1016 64 16093 2.6 30 13:41 18.01.2020
4445 Clouds 21 1016 64 16093 2.6 30 13:20 18.01.2020
4446 Clouds 21 1016 68 16093 3.6 30 12:55 18.01.2020
4447 Clouds 21 1016 68 16093 3.6 30 12:36 18.01.2020
4448 Clouds 21 1016 68 16093 3.6 30 12:18 18.01.2020
4449 Rain 21 1017 68 16093 3.1 10 11:43 18.01.2020
4450 Rain 21 1017 68 16093 3.1 10 11:21 18.01.2020
4451 Rain 21 1017 56 16093 4.1 30 10:43 18.01.2020
4452 Rain 21 1017 56 16093 4.1 30 10:22 18.01.2020
4453 Clouds 22 1017 60 16093 4.1 10 09:57 18.01.2020
4454 Clouds 22 1017 60 16093 4.1 10 09:39 18.01.2020
4455 Clouds 22 1017 60 16093 4.1 10 09:19 18.01.2020
4456 Clouds 22 1016 56 16093 6.2 30 08:42 18.01.2020
4457 Clouds 22 1016 56 16093 6.2 30 08:20 18.01.2020
4458 Clouds 22 1016 56 16093 6.2 30 08:20 18.01.2020
4459 Clouds 22 1015 56 16093 5.1 10 07:58 18.01.2020
4460 Clouds 22 1015 56 16093 5.1 10 07:37 18.01.2020
4461 Clouds 22 1015 60 16093 4.1 20 06:50 18.01.2020
4462 Clouds 22 1015 60 16093 4.1 20 06:27 18.01.2020
4463 Clouds 22 1014 64 16093 6.2 20 05:49 18.01.2020
4464 Clouds 23 1014 61 16093 7.7 30 04:24 18.01.2020
4465 Rain 23 1013 61 16093 7.2 30 02:33 18.01.2020
4466 Clouds 24 1013 61 16093 6.7 30 01:36 18.01.2020
4467 Haze 24 1014 73 9656 10.3 30 00:39 18.01.2020
4468 Haze 24 1014 73 9656 10.3 30 00:19 18.01.2020
4469 Clouds 24 1014 69 16093 8.2 30 23:56 17.01.2020
4470 Rain 24 1015 61 16093 5.7 20 23:38 17.01.2020
4471 Rain 24 1015 61 16093 5.7 20 23:18 17.01.2020
4472 Rain 23 1015 61 16093 6.7 360 22:40 17.01.2020
4473 Clouds 24 1015 61 16093 6.7 360 22:19 17.01.2020
4474 Clouds 24 1015 61 16093 6.7 360 22:19 17.01.2020
4475 Rain 23 1015 65 16093 6.2 10 21:43 17.01.2020
4476 Rain 23 1015 65 16093 6.2 10 21:24 17.01.2020
4477 Clouds 23 1016 100 16093 4.1 350 20:59 17.01.2020
4478 Clouds 23 1015 69 16093 4.6 360 20:41 17.01.2020
4479 Clouds 23 1015 69 16093 4.6 360 20:20 17.01.2020
4480 Clouds 22 1014 73 16093 4.6 320 19:57 17.01.2020
4481 Clouds 22 1014 73 16093 4.6 320 19:38 17.01.2020
4482 Clouds 22 1014 73 16093 4.6 320 19:19 17.01.2020
4483 Clouds 21 1013 78 16093 3.6 310 18:57 17.01.2020
4484 Clouds 21 1013 78 16093 3.6 310 18:37 17.01.2020
4485 Clouds 21 1013 78 16093 3.6 310 18:19 17.01.2020
4486 Clouds 22 1013 78 16093 3.1 330 17:39 17.01.2020
4487 Clouds 22 1013 78 16093 3.1 330 17:21 17.01.2020
4488 Clouds 21 1012 78 16093 5.1 330 16:44 17.01.2020
4489 Clouds 21 1012 78 16093 5.1 330 16:21 17.01.2020
4490 Clouds 21 1012 83 16093 4.6 320 15:58 17.01.2020
4491 Clouds 21 1012 83 16093 4.6 320 15:40 17.01.2020
4492 Clouds 21 1012 83 16093 4.6 320 15:22 17.01.2020
4493 Clouds 21 1011 78 16093 4.1 360 14:43 17.01.2020
4494 Clouds 21 1011 78 16093 4.1 360 14:25 17.01.2020
4495 Clouds 21 1012 83 16093 3.1 340 13:46 17.01.2020
4496 Clouds 21 1012 83 16093 3.1 340 13:23 17.01.2020
4497 Clouds 21 1012 94 16093 1.96 12 12:48 17.01.2020
4498 Clouds 21 1012 88 16093 1.5 300 12:24 17.01.2020
4499 Rain 21 1013 83 16093 2.1 330 11:56 17.01.2020
4500 Rain 22 1013 83 16093 2.1 330 11:37 17.01.2020
4501 Rain 22 1013 83 16093 2.1 330 11:18 17.01.2020
4502 Clouds 22 1013 78 16093 2.1 330 10:42 17.01.2020
4503 Clouds 22 1013 78 16093 2.1 330 10:42 17.01.2020
4504 Clouds 22 1013 78 16093 2.1 330 10:22 17.01.2020
4505 Clouds 22 1012 83 16093 4.1 30 09:56 17.01.2020
4506 Clouds 22 1013 83 16093 2.1 330 09:37 17.01.2020
4507 Clouds 22 1013 83 16093 2.1 330 09:18 17.01.2020
4508 Clouds 22 1013 78 16093 1.46 13 08:42 17.01.2020
4509 Clouds 22 1013 78 16093 1.64 33 08:23 17.01.2020
4510 Clouds 22 1013 94 16093 1.1 57 07:51 17.01.2020
4511 Clouds 22 1012 78 16093 2.6 10 07:31 17.01.2020
4512 Clouds 23 1012 83 16093 1.5 50 06:56 17.01.2020
4513 Clouds 23 1012 83 16093 1.5 50 06:37 17.01.2020
4514 Rain 23 1011 78 16093 1.1 57 05:27 17.01.2020
4515 Rain 24 1008 79 0 0.9 52 03:38 17.01.2020
4516 Rain 24 1007 79 0 0.9 52 02:43 17.01.2020
4517 Rain 25 1010 65 0 3.58 180 01:45 17.01.2020
4518 Rain 25 1007 74 0 1.17 129 01:27 17.01.2020
4519 Rain 25 1007 77 0 0.64 163 00:43 17.01.2020
4520 Clouds 25 1012 94 16093 0.64 163 00:19 17.01.2020
4521 Clouds 26 1012 65 16093 2.6 210 23:41 16.01.2020
4522 Clouds 26 1012 65 16093 2.6 210 23:41 16.01.2020
4523 Clouds 25 1012 94 16093 0.33 9 23:23 16.01.2020
4524 Clouds 26 1012 74 16093 4.1 80 22:43 16.01.2020
4525 Clouds 26 1012 74 16093 4.1 80 22:22 16.01.2020
4526 Clouds 25 1012 69 16093 4.1 80 21:57 16.01.2020
4527 Clouds 24 1013 69 16093 0.33 9 21:38 16.01.2020
4528 Clouds 24 1013 69 16093 0.33 9 21:19 16.01.2020
4529 Clouds 23 1013 94 16093 3.1 350 20:58 16.01.2020
4530 Clouds 23 1013 94 16093 2.6 360 20:39 16.01.2020
4531 Rain 23 1013 94 16093 2.6 360 20:19 16.01.2020
4532 Rain 22 1012 78 16093 2.1 350 19:56 16.01.2020
4533 Rain 22 1012 78 16093 2.1 350 19:38 16.01.2020
4534 Rain 22 1012 78 16093 2.1 350 19:19 16.01.2020
4535 Rain 21 1012 83 16093 1.5 360 18:55 16.01.2020
4536 Rain 21 1012 83 16093 1.5 360 18:37 16.01.2020
4537 Clouds 21 1012 83 16093 1.5 360 18:18 16.01.2020
4538 Clouds 21 1012 83 16093 1.5 360 18:18 16.01.2020
4539 Clouds 21 1012 83 16093 3.1 360 17:42 16.01.2020
4540 Clouds 21 1012 83 16093 3.1 360 17:23 16.01.2020
4541 Clouds 21 1011 78 16093 0.87 127 16:57 16.01.2020
4542 Clouds 21 1011 78 16093 0.87 127 16:39 16.01.2020
4543 Clouds 21 1011 78 16093 0.87 127 16:19 16.01.2020
4544 Clouds 22 1011 78 16093 0.87 127 15:44 16.01.2020
4545 Clouds 22 1011 78 16093 0.87 127 15:23 16.01.2020
4546 Clouds 22 1011 73 16093 3.1 100 14:57 16.01.2020
4547 Clouds 22 1011 73 16093 3.1 100 14:39 16.01.2020
4548 Clouds 22 1011 73 16093 3.1 100 14:20 16.01.2020
4549 Clouds 22 1011 100 16093 1.5 320 13:44 16.01.2020
4550 Clouds 22 1011 73 16093 5.1 90 13:25 16.01.2020
4551 Clouds 22 1013 73 16093 2.6 80 12:47 16.01.2020
4552 Clouds 22 1013 73 16093 2.6 80 12:28 16.01.2020
4553 Clouds 22 1013 73 16093 2.6 90 11:58 16.01.2020
4554 Clouds 22 1013 73 16093 2.6 90 11:39 16.01.2020
4555 Clouds 22 1013 73 16093 2.6 90 11:21 16.01.2020
4556 Rain 22 1014 73 16093 3.1 90 10:40 16.01.2020
4557 -273 0 0 0 0 0 10:22 16.01.2020
4558 Rain 23 1014 69 16093 4.1 50 09:58 16.01.2020
4559 Rain 23 1014 69 16093 4.1 50 09:40 16.01.2020
4560 Rain 23 1014 69 16093 4.1 50 09:22 16.01.2020
4561 Clouds 24 1014 69 16093 4.6 40 08:53 16.01.2020
4562 Clouds 23 1014 69 16093 4.6 40 08:35 16.01.2020
4563 Clouds 23 1014 69 16093 4.1 80 07:59 16.01.2020
4564 Rain 23 1014 69 16093 4.1 80 07:39 16.01.2020
4565 Rain 23 1014 69 16093 4.1 80 07:21 16.01.2020
4566 Rain 23 1013 73 16093 4.1 70 06:43 16.01.2020
4567 Clouds 23 1013 73 16093 4.1 70 06:22 16.01.2020
4568 Clouds 23 1013 69 16093 4.6 80 05:46 16.01.2020
4569 Clouds 24 1013 78 16093 2.6 150 04:40 16.01.2020
4570 Clouds 25 1012 57 16093 3.6 70 03:28 16.01.2020
4571 Clouds 25 1012 73 16093 4.1 60 02:43 16.01.2020
4572 Clouds 25 1013 73 16093 4.6 70 01:24 16.01.2020
4573 Rain 25 1014 61 16093 7.2 70 00:24 16.01.2020
4574 Rain 24 1015 65 16093 7.2 80 23:51 15.01.2020
4575 Rain 24 1015 65 16093 7.2 80 23:23 15.01.2020
4576 Rain 24 1015 83 16093 5.1 80 22:59 15.01.2020
4577 Rain 24 1015 69 16093 5.7 80 22:41 15.01.2020
4578 Rain 24 1015 69 16093 5.7 80 22:20 15.01.2020
4579 Rain 24 1015 69 16093 5.7 80 22:20 15.01.2020
4580 Rain 23 1015 73 9656 6.7 70 21:58 15.01.2020
4581 Mist 23 1015 73 9656 6.7 70 21:40 15.01.2020
4582 Mist 23 1015 73 9656 6.7 70 21:21 15.01.2020
4583 Rain 23 1015 69 16093 5.1 70 20:58 15.01.2020
4584 Rain 23 1015 69 16093 5.1 70 20:58 15.01.2020
4585 Rain 23 1015 69 16093 5.1 70 20:58 15.01.2020
4586 Rain 23 1015 69 16093 5.1 70 20:40 15.01.2020
4587 Rain 23 1015 69 16093 5.1 70 20:21 15.01.2020
4588 Rain 23 1014 69 16093 6.2 40 19:55 15.01.2020
4589 Rain 23 1014 69 16093 6.2 40 19:37 15.01.2020
4590 Rain 23 1014 69 16093 6.2 40 19:19 15.01.2020
4591 Clouds 22 1014 73 16093 4.6 70 18:57 15.01.2020
4592 Clouds 22 1014 73 16093 4.6 70 18:57 15.01.2020
4593 Rain 22 1014 73 16093 4.6 70 18:38 15.01.2020
4594 Rain 22 1014 73 16093 4.6 70 18:20 15.01.2020
4595 Rain 22 1014 94 16093 1.5 110 17:58 15.01.2020
4596 Rain 22 1014 78 16093 6.7 80 17:38 15.01.2020
4597 Clouds 22 1014 78 16093 6.7 80 17:20 15.01.2020
4598 Clouds 22 1014 78 16093 2.6 70 16:41 15.01.2020
4599 Clouds 22 1014 78 16093 2.6 70 16:41 15.01.2020
4600 Rain 22 1014 78 16093 2.6 70 16:22 15.01.2020
4601 Rain 22 1013 73 16093 6.2 80 15:59 15.01.2020
4602 Rain 22 1014 78 16093 4.1 60 15:41 15.01.2020
4603 Rain 22 1014 78 16093 4.1 60 15:20 15.01.2020
4604 Clouds 22 1014 73 16093 7.7 80 14:44 15.01.2020
4605 Clouds 22 1014 73 16093 6.2 80 14:21 15.01.2020
4606 Clouds 23 1015 78 16093 2.6 60 13:55 15.01.2020
4607 Clouds 23 1015 78 16093 2.6 60 13:37 15.01.2020
4608 Clouds 23 1015 78 16093 2.6 60 13:18 15.01.2020
4609 Clouds 23 1015 73 16093 6.2 90 12:41 15.01.2020
4610 Clouds 23 1015 73 16093 5.7 100 12:20 15.01.2020
4611 Drizzle 22 1016 100 14484 2.6 130 11:58 15.01.2020
4612 Clouds 23 1016 100 16093 1.5 200 11:37 15.01.2020
4613 Clouds 23 1016 100 16093 1.5 200 11:19 15.01.2020
4614 Clouds 23 1016 78 16093 4.1 60 10:46 15.01.2020
4615 Clouds 23 1016 78 16093 4.1 60 10:27 15.01.2020
4616 Drizzle 23 1016 94 16093 2.6 110 09:46 15.01.2020
4617 Rain 23 1016 94 14484 2.1 120 09:26 15.01.2020
4618 Drizzle 23 1016 94 16093 2.6 130 08:59 15.01.2020
4619 Drizzle 23 1016 94 16093 2.6 130 08:59 15.01.2020
4620 Drizzle 23 1016 88 16093 2.6 120 08:41 15.01.2020
4621 Drizzle 23 1016 88 16093 2.6 120 08:22 15.01.2020
4622 Clouds 24 1015 69 16093 6.7 60 07:52 15.01.2020
4623 Clouds 24 1015 69 16093 6.7 60 07:32 15.01.2020
4624 Clouds 24 1016 83 16093 8.24 91 06:46 15.01.2020
4625 Drizzle 24 1016 83 16093 2.1 100 06:20 15.01.2020
4626 Clouds 25 1015 73 16093 6.2 90 04:44 15.01.2020
4627 Clouds 25 1014 61 16093 8.2 50 02:38 15.01.2020
4628 Clouds 25 1014 61 16093 8.7 80 01:28 15.01.2020
4629 Clouds 26 1015 73 16093 5.1 90 00:46 15.01.2020
4630 Clouds 25 1015 61 16093 9.3 60 00:27 15.01.2020
4631 Clouds 25 1016 83 16093 3.6 120 23:56 14.01.2020
4632 Clouds 25 1016 61 16093 7.7 60 23:38 14.01.2020
4633 Clouds 26 1016 61 16093 7.7 60 23:19 14.01.2020
4634 Clouds 25 1016 69 16093 5.7 90 22:41 14.01.2020
4635 Clouds 25 1016 69 16093 5.7 90 22:19 14.01.2020
4636 Drizzle 24 1018 88 16093 2.6 130 21:58 14.01.2020
4637 Rain 24 1017 65 16093 5.1 80 21:40 14.01.2020
4638 Rain 24 1017 65 16093 5.1 80 21:21 14.01.2020
4639 Rain 24 1017 65 16093 5.1 80 21:21 14.01.2020
4640 Clouds 24 1017 88 16093 3.6 160 20:59 14.01.2020
4641 Clouds 24 1016 73 16093 5.1 90 20:40 14.01.2020
4642 Clouds 24 1016 73 16093 5.1 90 20:20 14.01.2020
4643 Clouds 24 1016 73 16093 5.1 90 19:56 14.01.2020
4644 Clouds 24 1016 65 16093 5.7 60 19:37 14.01.2020
4645 Clouds 24 1016 65 16093 5.7 60 19:18 14.01.2020
4646 Mist 24 1016 73 9656 4.1 90 18:41 14.01.2020
4647 Mist 24 1016 73 9656 4.1 90 18:21 14.01.2020
4648 Mist 24 1016 73 9656 4.1 90 17:59 14.01.2020
4649 Clouds 24 1015 69 16093 5.7 70 17:37 14.01.2020
4650 Clouds 23 1015 69 16093 5.7 70 17:19 14.01.2020
4651 Clouds 23 1016 78 16093 2.1 120 16:55 14.01.2020
4652 Mist 23 1015 73 16093 3.6 80 16:37 14.01.2020
4653 Mist 24 1015 73 16093 3.6 80 16:18 14.01.2020
4654 Mist 24 1015 73 16093 4.6 80 15:42 14.01.2020
4655 Clouds 24 1015 64 16093 8.7 80 15:19 14.01.2020
4656 Clouds 24 1015 65 16093 7.2 60 14:46 14.01.2020
4657 Clouds 24 1015 65 16093 7.2 60 14:23 14.01.2020
4658 Clouds 24 1016 78 16093 5.1 120 13:58 14.01.2020
4659 Clouds 24 1016 69 16093 7.2 70 13:39 14.01.2020
4660 Clouds 24 1016 69 16093 7.2 70 13:19 14.01.2020
4661 Clouds 24 1016 69 16093 4.6 50 12:42 14.01.2020
4662 Clouds 24 1016 69 16093 4.6 50 12:22 14.01.2020
4663 Clouds 24 1016 83 16093 3.1 130 11:56 14.01.2020
4664 Clouds 24 1017 83 16093 4.1 110 11:37 14.01.2020
4665 Clouds 24 1017 83 16093 4.1 110 11:37 14.01.2020
4666 Clouds 24 1017 83 16093 4.1 110 11:19 14.01.2020
4667 Mist 24 1017 69 16093 6.2 80 10:41 14.01.2020
4668 Clouds 24 1017 65 16093 4.6 50 10:20 14.01.2020
4669 Clouds 24 1019 78 16093 2.1 120 09:58 14.01.2020
4670 Clouds 24 1019 78 16093 1.5 140 09:40 14.01.2020
4671 Clouds 25 1019 78 16093 1.5 140 09:21 14.01.2020
4672 Clouds 25 1016 57 16093 6.7 70 08:48 14.01.2020
4673 Clouds 25 1016 57 16093 6.7 70 08:26 14.01.2020
4674 Clouds 25 1017 73 16093 4.6 130 07:56 14.01.2020
4675 Clouds 24 1016 65 16093 8.2 80 07:34 14.01.2020
4676 Clouds 24 1015 65 16093 8.2 80 06:57 14.01.2020
4677 Clouds 24 1015 65 16093 8.2 80 06:39 14.01.2020
4678 Clouds 24 1015 65 16093 8.2 80 06:39 14.01.2020
4679 Clouds 25 1015 65 16093 6.2 70 05:28 14.01.2020
4680 Mist 25 1015 65 9656 7.7 70 03:57 14.01.2020
4681 Clouds 25 1015 65 16093 6.7 60 03:35 14.01.2020
4682 Clouds 25 1014 65 16093 7.7 50 01:58 14.01.2020
4683 Mist 26 1014 69 16093 5.1 90 00:53 14.01.2020
4684 Rain 26 1015 65 16093 5.1 60 00:35 14.01.2020
4685 Clouds 26 1016 83 16093 6.2 100 23:55 13.01.2020
4686 Clouds 26 1016 83 16093 6.7 100 23:37 13.01.2020
4687 Clouds 26 1016 83 16093 6.7 100 23:18 13.01.2020
4688 Mist 25 1016 69 9656 4.6 80 22:42 13.01.2020
4689 Rain 25 1016 74 16093 7.2 50 22:21 13.01.2020
4690 Clouds 25 1017 74 16093 4.6 40 21:57 13.01.2020
4691 Clouds 25 1017 74 16093 4.6 40 21:38 13.01.2020
4692 Clouds 25 1017 74 16093 4.6 40 21:38 13.01.2020
4693 Clouds 25 1017 74 16093 4.6 40 21:38 13.01.2020
4694 Clouds 25 1017 74 16093 4.6 40 21:19 13.01.2020
4695 Clouds 25 1017 74 16093 4.6 40 21:19 13.01.2020
4696 Rain 24 1016 73 14484 6.7 80 20:58 13.01.2020
4697 Rain 24 1016 73 14484 6.7 80 20:40 13.01.2020
4698 Rain 24 1016 73 14484 6.7 80 20:22 13.01.2020
4699 Mist 24 1015 78 9656 5.7 90 19:58 13.01.2020
4700 Mist 24 1015 78 9656 5.7 90 19:39 13.01.2020
4701 Mist 24 1015 78 9656 5.7 90 19:20 13.01.2020
4702 Rain 24 1015 78 16093 3.6 70 18:56 13.01.2020
4703 Rain 24 1015 78 16093 3.6 70 18:37 13.01.2020
4704 Rain 24 1015 78 16093 3.6 70 18:18 13.01.2020
4705 Rain 24 1015 78 16093 3.6 70 18:18 13.01.2020
4706 Clouds 24 1015 88 16093 7.83 93 17:40 13.01.2020
4707 Clouds 24 1015 88 16093 7.83 93 17:22 13.01.2020
4708 Clouds 24 1015 88 16093 8.29 96 17:22 13.01.2020
4709 Clouds 24 1014 73 16093 4.1 60 16:56 13.01.2020
4710 Rain 24 1013 73 0 2.68 80 16:38 13.01.2020
4711 Rain 24 1013 73 0 2.68 80 16:19 13.01.2020
4712 Rain 24 1013 82 0 0.45 266 15:44 13.01.2020
4713 Rain 24 1013 83 0 1.79 90 15:23 13.01.2020
4714 Rain 24 1013 83 0 1.79 90 14:58 13.01.2020
4715 Rain 24 1013 83 0 1.79 90 14:38 13.01.2020
4716 Clouds 24 1013 83 0 1.79 90 14:19 13.01.2020
4717 Clouds 24 1013 73 0 5.36 80 13:41 13.01.2020
4718 Rain 24 1013 73 0 5.36 80 13:23 13.01.2020
4719 Rain 24 1013 73 0 5.36 80 12:58 13.01.2020
4720 Rain 24 1014 81 0 0.89 47 12:40 13.01.2020
4721 Clouds 24 1014 69 16093 9.8 50 12:22 13.01.2020
4722 Clouds 24 1014 69 16093 9.8 50 11:56 13.01.2020
4723 Clouds 24 1014 69 16093 9.8 50 11:37 13.01.2020
4724 Clouds 24 1014 69 16093 9.8 50 11:18 13.01.2020
4725 Clouds 24 1014 73 16093 9.3 50 10:55 13.01.2020
4726 Clouds 23 1014 73 16093 9.3 50 10:36 13.01.2020
4727 Clouds 23 1014 73 16093 9.3 50 10:18 13.01.2020
4728 Clouds 23 1015 78 16093 9.3 40 09:40 13.01.2020
4729 Clouds 23 1015 78 16093 9.3 40 09:22 13.01.2020
4730 Clouds 23 1015 94 16093 7.3 94 08:42 13.01.2020
4731 Clouds 23 1015 94 16093 6.68 97 08:21 13.01.2020
4732 Clouds 24 1014 83 16093 5.1 70 07:54 13.01.2020
4733 Clouds 24 1014 83 16093 5.1 70 07:35 13.01.2020
4734 Drizzle 23 1014 100 16093 6.68 97 06:44 13.01.2020
4735 Drizzle 23 1014 100 16093 6.68 97 06:22 13.01.2020
4736 Rain 23 1013 83 14484 4.6 100 05:36 13.01.2020
4737 Rain 23 1014 88 2414 5.7 110 03:57 13.01.2020
4738 Rain 23 1013 83 12874 2.6 80 03:25 13.01.2020
4739 Rain 23 1012 83 11265 5.7 100 02:47 13.01.2020
4740 Rain 23 1013 100 16093 3.6 120 02:28 13.01.2020
4741 Rain 23 1013 83 16093 5.7 70 01:22 13.01.2020
4742 Rain 23 1013 83 16093 5.7 70 01:22 13.01.2020
4743 Rain 23 1013 83 16093 6.2 90 00:41 13.01.2020
4744 Rain 23 1013 100 16093 3.6 130 00:23 13.01.2020
4745 Rain 23 1014 88 9656 7.7 90 23:54 12.01.2020
4746 Rain 23 1014 88 9656 7.7 90 23:36 12.01.2020
4747 Rain 23 1014 88 9656 7.7 90 23:18 12.01.2020
4748 Rain 23 1016 83 16093 2.1 80 22:42 12.01.2020
4749 Rain 23 1016 83 16093 2.1 80 22:23 12.01.2020
4750 Rain 23 1015 88 14484 5.1 90 21:56 12.01.2020
4751 Rain 23 1015 88 14484 5.1 90 21:38 12.01.2020
4752 Rain 23 1015 88 14484 5.1 90 21:38 12.01.2020
4753 Rain 23 1015 88 14484 5.1 90 21:19 12.01.2020
4754 Rain 23 1015 88 16093 2.6 90 20:56 12.01.2020
4755 Rain 23 1015 88 16093 2.6 90 20:56 12.01.2020
4756 Rain 23 1015 88 16093 2.6 90 20:38 12.01.2020
4757 Rain 23 1015 88 16093 2.6 90 20:20 12.01.2020
4758 Rain 23 1015 100 14484 3.6 120 19:56 12.01.2020
4759 Rain 23 1014 83 16093 5.1 60 19:37 12.01.2020
4760 Rain 23 1014 83 16093 5.1 60 19:18 12.01.2020
4761 Rain 23 1014 83 16093 7.2 90 18:57 12.01.2020
4762 Rain 23 1013 88 16093 6.7 90 18:38 12.01.2020
4763 Rain 23 1013 88 16093 6.7 90 18:20 12.01.2020
4764 Rain 23 1014 100 16093 1.5 130 17:42 12.01.2020
4765 Rain 23 1013 78 16093 3.1 70 17:23 12.01.2020
4766 Clouds 23 1013 100 16093 5.7 110 16:59 12.01.2020
4767 Rain 23 1012 78 16093 3.1 60 16:39 12.01.2020
4768 Rain 23 1012 78 16093 3.1 60 16:20 12.01.2020
4769 Rain 23 1013 100 9656 3.6 110 15:56 12.01.2020
4770 Clouds 23 1012 83 16093 6.7 90 15:38 12.01.2020
4771 Clouds 24 1012 83 16093 6.7 90 15:20 12.01.2020
4772 Clouds 24 1013 94 16093 3.6 110 14:42 12.01.2020
4773 Clouds 24 1012 78 16093 6.2 70 14:23 12.01.2020
4774 Clouds 24 1013 73 16093 5.1 80 13:57 12.01.2020
4775 Clouds 24 1013 73 16093 5.1 80 13:39 12.01.2020
4776 Clouds 24 1013 73 16093 5.1 80 13:20 12.01.2020
4777 Clouds 24 1013 73 16093 7.2 80 12:56 12.01.2020
4778 Clouds 24 1013 73 16093 7.2 80 12:37 12.01.2020
4779 Clouds 24 1013 73 16093 7.2 80 12:18 12.01.2020
4780 Clouds 24 1013 78 16093 6.2 60 11:41 12.01.2020
4781 Clouds 24 1013 78 16093 6.2 60 11:22 12.01.2020
4782 Clouds 24 1013 83 16093 4.6 90 10:56 12.01.2020
4783 Clouds 24 1013 83 16093 4.6 90 10:37 12.01.2020
4784 Clouds 24 1013 83 16093 4.6 90 10:18 12.01.2020
4785 Clouds 24 1013 73 16093 5.1 80 09:41 12.01.2020
4786 Clouds 24 1013 73 16093 5.1 80 09:22 12.01.2020
4787 Clouds 24 1014 94 16093 4.1 90 08:48 12.01.2020
4788 Rain 24 1014 94 16093 4.1 90 08:22 12.01.2020
4789 Rain 23 1013 83 16093 8.7 80 07:46 12.01.2020
4790 Rain 24 1012 83 16093 4.6 50 07:25 12.01.2020
4791 Rain 23 1013 94 8047 2.6 0 06:50 12.01.2020
4792 Rain 23 1013 100 3219 2.1 160 06:32 12.01.2020
4793 Rain 24 1013 94 3621 2.6 150 05:49 12.01.2020
4794 Clouds 24 1012 94 16093 3.1 120 04:53 12.01.2020
4795 Clouds 24 1011 83 16093 6.2 80 03:33 12.01.2020
4796 Clouds 25 1011 69 16093 6.2 60 02:43 12.01.2020
4797 Clouds 25 1011 69 16093 6.2 60 02:22 12.01.2020
4798 Clouds 26 1011 73 16093 6.2 80 01:30 12.01.2020
4799 Clouds 25 1012 88 16093 4.1 80 00:45 12.01.2020
4800 Clouds 26 1012 65 16093 6.2 80 00:22 12.01.2020
4801 Clouds 26 1013 65 16093 6.2 60 23:56 11.01.2020
4802 Clouds 26 1013 65 16093 6.2 60 23:37 11.01.2020
4803 Clouds 26 1013 65 16093 6.2 60 23:18 11.01.2020
4804 Rain 25 1014 88 16093 7.2 80 22:56 11.01.2020
4805 Clouds 25 1014 78 16093 6.2 110 22:37 11.01.2020
4806 Clouds 25 1014 78 16093 6.2 110 22:18 11.01.2020
4807 Rain 24 1014 69 16093 8.7 60 21:42 11.01.2020
4808 Rain 24 1014 69 16093 8.7 60 21:18 11.01.2020
4809 Clouds 25 1015 78 16093 7.2 90 20:55 11.01.2020
4810 Clouds 25 1014 69 16093 8.7 70 20:36 11.01.2020
4811 Clouds 25 1014 69 16093 8.7 70 20:18 11.01.2020
4812 Clouds 25 1014 69 16093 8.7 70 20:18 11.01.2020
4813 Clouds 24 1014 88 16093 5.1 90 19:54 11.01.2020
4814 Drizzle 24 1014 88 16093 4.1 110 19:36 11.01.2020
4815 Drizzle 24 1014 88 16093 4.1 110 19:18 11.01.2020
4816 Clouds 24 1013 73 16093 8.2 60 18:39 11.01.2020
4817 Clouds 24 1013 73 16093 8.2 60 18:20 11.01.2020
4818 Clouds 24 1013 73 16093 8.2 60 18:20 11.01.2020
4819 Rain 23 1014 88 16093 6.7 90 17:58 11.01.2020
4820 Rain 23 1014 88 16093 6.7 90 17:58 11.01.2020
4821 Rain 23 1013 88 16093 5.1 100 17:40 11.01.2020
4822 Rain 23 1013 88 16093 5.1 100 17:20 11.01.2020
4823 Rain 23 1013 88 16093 7.7 90 16:46 11.01.2020
4824 Rain 23 1013 78 16093 4.1 80 16:28 11.01.2020
4825 Rain 23 1013 94 12874 4.1 110 15:59 11.01.2020
4826 Rain 23 1013 94 12874 4.1 110 15:41 11.01.2020
4827 Clouds 23 1013 73 16093 6.2 90 15:22 11.01.2020
4828 Rain 23 1013 94 12874 4.6 90 14:57 11.01.2020
4829 Drizzle 23 1013 94 16093 5.7 90 14:38 11.01.2020
4830 Rain 23 1013 78 16093 5.7 60 14:20 11.01.2020
4831 Rain 23 1013 73 16093 9.8 50 13:41 11.01.2020
4832 Rain 23 1013 73 16093 9.8 50 13:20 11.01.2020
4833 Rain 23 1014 94 14484 3.6 110 12:58 11.01.2020
4834 Rain 23 1013 83 16093 7.2 60 12:40 11.01.2020
4835 Rain 23 1013 83 16093 7.2 60 12:21 11.01.2020
4836 Drizzle 23 1014 94 12874 6.2 90 11:48 11.01.2020
4837 Rain 23 1015 94 16093 9.8 90 11:26 11.01.2020
4838 Rain 23 1014 78 16093 9.8 80 10:51 11.01.2020
4839 Rain 23 1014 83 16093 9.3 80 10:30 11.01.2020
4840 Clouds 23 1015 88 16093 5.7 100 09:57 11.01.2020
4841 Clouds 23 1014 88 16093 6.7 80 09:37 11.01.2020
4842 Clouds 24 1014 88 16093 6.7 80 09:19 11.01.2020
4843 Rain 23 1014 78 16093 8.7 80 08:41 11.01.2020
4844 Rain 24 1014 83 16093 9.8 70 08:21 11.01.2020
4845 Rain 24 1014 88 16093 5.7 80 07:44 11.01.2020
4846 Rain 24 1014 73 16093 10.8 70 07:25 11.01.2020
4847 Rain 23 1014 100 11265 3.6 70 06:48 11.01.2020
4848 Rain 24 1013 69 16093 7.2 60 05:34 11.01.2020
4849 Rain 23 1013 83 16093 7.7 70 04:46 11.01.2020
4850 Rain 23 1013 73 16093 6.7 60 04:27 11.01.2020
4851 Rain 25 1013 94 16093 3.6 40 02:49 11.01.2020
4852 Rain 25 1013 88 4023 7.7 80 01:57 11.01.2020
4853 Rain 25 1013 61 16093 7.2 50 01:38 11.01.2020
4854 Rain 25 1013 61 16093 7.2 50 01:18 11.01.2020
4855 Rain 25 1014 65 16093 9.3 60 00:38 11.01.2020
4856 Rain 25 1015 94 14484 3.6 50 23:59 10.01.2020
4857 Clouds 25 1015 74 16093 8.7 60 23:39 10.01.2020
4858 Clouds 25 1015 74 16093 8.7 60 23:21 10.01.2020
4859 Drizzle 25 1016 94 16093 2.6 40 22:55 10.01.2020
4860 Rain 24 1016 94 16093 4.6 50 22:37 10.01.2020
4861 Rain 25 1016 94 16093 4.6 50 22:18 10.01.2020
4862 Clouds 24 1016 73 16093 7.7 80 21:41 10.01.2020
4863 Clouds 24 1016 73 16093 7.7 80 21:22 10.01.2020
4864 Clouds 24 1016 73 16093 6.7 80 21:00 10.01.2020
4865 Rain 23 1015 78 14484 8.2 60 20:41 10.01.2020
4866 Rain 23 1015 78 14484 8.2 60 20:23 10.01.2020
4867 Rain 23 1016 94 16093 1.5 20 19:42 10.01.2020
4868 Clouds 22 1015 73 16093 5.7 80 19:21 10.01.2020
4869 Rain 22 1015 100 14484 1.5 130 18:58 10.01.2020
4870 Rain 22 1015 100 4426 3.1 90 18:40 10.01.2020
4871 Rain 22 1015 100 4426 3.1 90 18:18 10.01.2020
4872 Rain 22 1014 83 16093 8.7 80 17:56 10.01.2020
4873 Rain 22 1015 94 14484 2.1 50 17:38 10.01.2020
4874 Rain 23 1014 78 11265 7.2 60 17:19 10.01.2020
4875 Clouds 22 1014 94 16093 2.1 310 16:43 10.01.2020
4876 Clouds 23 1014 94 16093 2.1 310 16:22 10.01.2020
4877 Rain 22 1014 100 16093 8.93 73 15:58 10.01.2020
4878 Drizzle 22 1014 94 14484 3.1 70 15:39 10.01.2020
4879 Drizzle 22 1014 94 14484 3.1 70 15:21 10.01.2020
4880 Drizzle 22 1014 94 11265 5.7 60 14:59 10.01.2020
4881 Mist 22 1014 94 9656 5.1 50 14:41 10.01.2020
4882 Mist 22 1014 94 9656 5.1 50 14:20 10.01.2020
4883 Drizzle 22 1015 94 16093 2.1 270 13:58 10.01.2020
4884 Rain 22 1015 94 16093 5.7 60 13:39 10.01.2020
4885 Rain 22 1015 94 16093 5.7 60 13:21 10.01.2020
4886 Rain 22 1016 94 3621 9.35 72 12:57 10.01.2020
4887 Rain 23 1015 78 16093 9.8 80 12:38 10.01.2020
4888 Rain 22 1015 78 16093 9.8 80 12:18 10.01.2020
4889 Rain 23 1015 78 8047 9.8 90 11:42 10.01.2020
4890 Rain 23 1015 78 8047 9.8 90 11:42 10.01.2020
4891 Clouds 23 1015 73 16093 6.7 60 11:22 10.01.2020
4892 Rain 23 1016 73 14484 7.7 50 10:59 10.01.2020
4893 Rain 23 1016 73 14484 7.7 50 10:39 10.01.2020
4894 Rain 23 1016 73 14484 7.7 50 10:21 10.01.2020
4895 Drizzle 23 1016 94 11265 4.6 70 09:55 10.01.2020
4896 Clouds 23 1016 78 16093 11.3 70 09:36 10.01.2020
4897 Clouds 23 1016 78 16093 11.3 70 09:18 10.01.2020
4898 Clouds 23 1016 73 16093 7.7 60 08:40 10.01.2020
4899 Clouds 23 1016 73 16093 7.7 60 08:21 10.01.2020
4900 Rain 23 1016 73 12874 8.2 50 07:44 10.01.2020
4901 Rain 24 1016 73 12874 8.2 50 07:22 10.01.2020
4902 Rain 23 1015 69 16093 8.7 50 06:43 10.01.2020
4903 Rain 24 1015 69 16093 8.7 50 06:24 10.01.2020
4904 Rain 24 1015 64 16093 10.8 60 05:33 10.01.2020
4905 Rain 24 1015 64 16093 10.8 60 05:33 10.01.2020
4906 Clouds 25 1014 65 14484 7.7 70 03:34 10.01.2020
4907 Clouds 25 1014 78 16093 9.8 70 02:54 10.01.2020
4908 Clouds 25 1014 78 16093 9.8 70 02:33 10.01.2020
4909 Rain 25 1015 83 16093 5.7 70 01:33 10.01.2020
4910 Rain 24 1015 83 4023 4.6 80 00:53 10.01.2020
4911 Rain 25 1015 78 16093 7.2 50 00:35 10.01.2020
4912 Clouds 25 1017 65 16093 6.7 70 23:57 09.01.2020
4913 Rain 25 1017 88 16093 5.1 70 23:37 09.01.2020
4914 Rain 25 1017 88 16093 5.1 70 23:19 09.01.2020
4915 Clouds 25 1017 83 16093 8.2 70 22:56 09.01.2020
4916 Rain 24 1017 61 16093 8.2 60 22:37 09.01.2020
4917 Rain 24 1017 61 16093 8.2 60 22:18 09.01.2020
4918 Clouds 23 1018 88 16093 5.1 70 21:55 09.01.2020
4919 Rain 23 1019 83 8047 6.7 90 21:37 09.01.2020
4920 Rain 23 1019 83 8047 6.7 90 21:18 09.01.2020
4921 Clouds 23 1018 78 16093 2.1 330 20:55 09.01.2020
4922 Clouds 23 1018 78 16093 2.1 330 20:36 09.01.2020
4923 Rain 23 1017 69 16093 9.3 70 20:18 09.01.2020
4924 Drizzle 22 1018 94 12874 3.6 40 19:39 09.01.2020
4925 Rain 22 1017 78 16093 5.1 100 19:20 09.01.2020
4926 Rain 21 1018 83 6437 5.7 80 18:57 09.01.2020
4927 Rain 21 1018 83 6437 5.7 80 18:39 09.01.2020
4928 Rain 22 1017 78 11265 6.7 70 18:20 09.01.2020
4929 Clouds 22 1017 88 16093 5.7 70 17:41 09.01.2020
4930 Clouds 22 1017 73 16093 8.7 80 17:19 09.01.2020
4931 Clouds 22 1017 88 16093 7.06 68 16:58 09.01.2020
4932 Clouds 22 1017 88 16093 7.06 68 16:40 09.01.2020
4933 Clouds 22 1017 88 16093 3.1 60 16:20 09.01.2020
4934 Drizzle 22 1017 94 16093 1.5 160 15:43 09.01.2020
4935 Rain 22 1017 94 16093 1.5 170 15:22 09.01.2020
4936 Drizzle 22 1017 88 16093 2.6 20 14:58 09.01.2020
4937 Drizzle 22 1017 88 16093 2.6 20 14:39 09.01.2020
4938 Rain 22 1017 78 12874 7.7 70 14:19 09.01.2020
4939 Rain 22 1017 78 16093 6.7 40 13:55 09.01.2020
4940 Rain 22 1017 78 16093 6.7 40 13:37 09.01.2020
4941 Rain 22 1017 78 16093 6.7 40 13:18 09.01.2020
4942 Drizzle 23 1018 88 16093 6.48 70 12:43 09.01.2020
4943 Rain 23 1017 69 16093 7.2 50 12:24 09.01.2020
4944 Clouds 23 1018 82 16093 3.1 50 11:59 09.01.2020
4945 Clouds 23 1018 82 16093 3.1 50 11:41 09.01.2020
4946 Clouds 23 1019 88 16093 3.6 50 11:23 09.01.2020
4947 Clouds 23 1019 83 16093 3.1 120 10:57 09.01.2020
4948 Clouds 23 1019 83 16093 3.1 120 10:39 09.01.2020
4949 Clouds 23 1019 83 16093 3.1 120 10:20 09.01.2020
4950 Rain 23 1019 77 16093 3.1 70 09:41 09.01.2020
4951 Rain 23 1019 77 16093 3.1 70 09:41 09.01.2020
4952 Clouds 23 1018 60 16093 4.6 360 09:23 09.01.2020
4953 Drizzle 23 1019 83 16093 5.7 30 08:57 09.01.2020
4954 Clouds 23 1018 64 16093 2.1 0 08:38 09.01.2020
4955 Clouds 23 1018 64 16093 2.1 0 08:19 09.01.2020
4956 Clouds 23 1019 83 16093 4.6 70 07:45 09.01.2020
4957 Clouds 23 1019 83 16093 2.6 70 07:27 09.01.2020
4958 Clouds 24 1019 83 16093 2.6 50 06:39 09.01.2020
4959 Clouds 24 1017 60 16093 2.6 0 06:21 09.01.2020
4960 Clouds 24 1018 73 16093 2.1 40 05:50 09.01.2020
4961 Clouds 25 1017 78 16093 3.1 70 04:46 09.01.2020
4962 Rain 25 1016 51 16093 8.7 50 03:55 09.01.2020
4963 Rain 25 1016 51 16093 8.7 50 03:26 09.01.2020
4964 Rain 26 1016 47 16093 11.3 70 02:31 09.01.2020
4965 Clouds 25 1016 54 16093 7.7 60 01:40 09.01.2020
4966 Drizzle 25 1017 73 16093 4.6 60 00:44 09.01.2020
4967 Drizzle 25 1017 78 16093 6.7 60 00:22 09.01.2020
4968 Rain 26 1018 73 16093 7.2 80 23:56 08.01.2020
4969 Rain 26 1018 73 16093 7.2 80 23:37 08.01.2020
4970 Rain 26 1018 54 16093 10.3 70 23:19 08.01.2020
4971 Drizzle 24 1019 88 16093 6.7 70 22:39 08.01.2020
4972 Rain 23 1019 73 16093 6.7 60 22:21 08.01.2020
4973 Drizzle 23 1019 94 16093 4.6 70 21:58 08.01.2020
4974 Drizzle 23 1019 94 16093 4.6 70 21:38 08.01.2020
4975 Clouds 23 1019 94 14484 5.1 60 21:20 08.01.2020
4976 Clouds 22 1019 94 16093 4.1 80 20:58 08.01.2020
4977 Clouds 22 1019 94 16093 4.1 80 20:39 08.01.2020
4978 Rain 22 1019 73 16093 8.2 70 20:20 08.01.2020
4979 Rain 22 1018 94 14484 6.2 60 19:56 08.01.2020
4980 Rain 22 1018 78 16093 8.2 50 19:37 08.01.2020
4981 Rain 22 1018 78 16093 8.2 50 19:19 08.01.2020
4982 Rain 22 1017 73 16093 8.2 90 18:55 08.01.2020
4983 Rain 22 1018 78 16093 7.2 50 18:37 08.01.2020
4984 Rain 22 1018 78 16093 7.2 50 18:18 08.01.2020
4985 Clouds 22 1017 78 16093 7.7 70 17:48 08.01.2020
4986 Rain 22 1018 78 14484 4.6 70 17:24 08.01.2020
4987 Drizzle 22 1018 94 16093 7.33 68 16:57 08.01.2020
4988 Drizzle 22 1018 94 16093 7.33 68 16:39 08.01.2020
4989 Drizzle 22 1018 94 16093 7.33 68 16:39 08.01.2020
4990 Drizzle 22 1018 94 16093 7.33 68 16:19 08.01.2020
4991 Clouds 22 1018 88 16093 4.1 40 15:58 08.01.2020
4992 Clouds 22 1018 88 16093 4.1 40 15:39 08.01.2020
4993 Clouds 22 1017 69 16093 7.7 70 15:19 08.01.2020
4994 Clouds 23 1018 77 16093 3.6 40 14:55 08.01.2020
4995 Clouds 23 1018 77 16093 3.6 40 14:37 08.01.2020
4996 Clouds 23 1017 60 16093 6.7 50 14:19 08.01.2020
4997 Clouds 23 1018 60 16093 8.7 50 13:39 08.01.2020
4998 Clouds 23 1018 60 16093 8.7 50 13:18 08.01.2020
4999 Clouds 23 1019 64 16093 9.3 50 12:41 08.01.2020
5000 Clouds 23 1019 64 16093 9.3 50 12:19 08.01.2020
5001 Clouds 23 1019 64 16093 9.3 50 12:19 08.01.2020
5002 Rain 23 1020 69 16093 10.3 50 11:55 08.01.2020
5003 Rain 23 1020 69 16093 10.3 50 11:55 08.01.2020
5004 Rain 23 1020 69 16093 10.3 50 11:37 08.01.2020
5005 Rain 23 1020 69 16093 10.3 50 11:18 08.01.2020
5006 Clouds 23 1020 83 16093 4.6 60 10:42 08.01.2020
5007 Drizzle 23 1020 83 16093 3.6 50 10:22 08.01.2020
5008 Clouds 23 1020 73 16093 9.3 60 09:59 08.01.2020
5009 Clouds 23 1020 73 16093 9.3 60 09:41 08.01.2020
5010 Clouds 23 1020 73 16093 9.3 60 09:19 08.01.2020
5011 Clouds 23 1021 83 16093 5.1 70 08:43 08.01.2020
5012 Rain 23 1020 73 16093 7.2 60 08:24 08.01.2020
5013 Clouds 23 1020 83 16093 4.6 50 07:59 08.01.2020
5014 Clouds 23 1020 83 16093 4.6 50 07:41 08.01.2020
5015 Rain 23 1020 64 16093 8.7 50 07:23 08.01.2020
5016 Rain 24 1019 64 16093 10.8 50 06:44 08.01.2020
5017 Clouds 24 1019 60 16093 12.3 50 05:59 08.01.2020
5018 Clouds 24 1019 60 16093 12.3 50 05:27 08.01.2020
5019 Clouds 24 1018 57 16093 13.9 40 04:39 08.01.2020
5020 Clouds 24 1017 54 16093 15.4 60 03:31 08.01.2020
5021 Clouds 25 1018 54 16093 13.4 60 02:36 08.01.2020
5022 Clouds 26 1018 54 16093 13.4 60 02:18 08.01.2020
5023 Clouds 26 1018 54 16093 13.4 60 02:18 08.01.2020
5024 Clouds 26 1018 51 16093 8.7 50 01:39 08.01.2020
5025 Clouds 26 1019 51 16093 10.3 60 00:52 08.01.2020
5026 Clouds 26 1019 51 16093 10.3 60 00:24 08.01.2020
5027 Clouds 26 1020 61 16093 8.2 70 23:46 07.01.2020
5028 Clouds 26 1020 51 16093 12.9 70 23:21 07.01.2020
5029 Clouds 26 1021 51 16093 9.8 70 22:56 07.01.2020
5030 Clouds 26 1021 51 16093 9.8 70 22:37 07.01.2020
5031 Clouds 26 1021 51 16093 9.8 70 22:18 07.01.2020
5032 Rain 26 1021 61 16093 12.3 60 21:42 07.01.2020
5033 Rain 26 1021 61 16093 12.3 60 21:22 07.01.2020
5034 Rain 25 1021 65 16093 7.7 60 20:58 07.01.2020
5035 Rain 25 1021 65 16093 7.7 60 20:39 07.01.2020
5036 Rain 25 1021 65 16093 7.7 60 20:21 07.01.2020
5037 Rain 24 1020 69 16093 7.7 50 19:57 07.01.2020
5038 Rain 24 1020 69 16093 7.7 50 19:37 07.01.2020
5039 Rain 24 1020 69 16093 7.7 50 19:19 07.01.2020
5040 Clouds 23 1020 64 16093 5.7 60 18:56 07.01.2020
5041 Clouds 23 1020 64 16093 5.7 60 18:37 07.01.2020
5042 Clouds 24 1020 64 16093 5.7 60 18:18 07.01.2020
5043 Clouds 24 1020 64 16093 5.7 70 17:41 07.01.2020
5044 Clouds 24 1020 69 16093 7.2 60 17:23 07.01.2020
5045 Clouds 24 1020 69 16093 7.7 50 16:58 07.01.2020
5046 Clouds 24 1020 69 16093 7.7 50 16:38 07.01.2020
5047 Clouds 24 1020 69 16093 7.7 50 16:19 07.01.2020
5048 Clouds 24 1020 73 16093 7.2 80 15:59 07.01.2020
5049 Clouds 24 1020 73 16093 7.2 80 15:41 07.01.2020
5050 Clouds 24 1020 73 16093 7.2 80 15:23 07.01.2020
5051 Clouds 24 1020 73 16093 7.2 90 14:56 07.01.2020
5052 Clouds 24 1020 69 16093 1.5 0 14:37 07.01.2020
5053 Clouds 24 1020 69 16093 1.5 0 14:19 07.01.2020
5054 Clouds 24 1020 69 16093 5.1 70 13:40 07.01.2020
5055 Rain 23 1020 69 16093 5.1 70 13:19 07.01.2020
5056 Clouds 24 1021 69 16093 5.7 70 12:42 07.01.2020
5057 Clouds 24 1021 69 16093 5.7 70 12:21 07.01.2020
5058 Clouds 24 1021 73 16093 6.2 80 11:59 07.01.2020
5059 Clouds 24 1021 73 16093 6.2 80 11:40 07.01.2020
5060 Clouds 24 1021 69 16093 4.6 60 11:21 07.01.2020
5061 Drizzle 23 1022 94 16093 2.6 50 10:42 07.01.2020
5062 Drizzle 23 1022 94 16093 2.6 50 10:42 07.01.2020
5063 Rain 24 1021 73 16093 7.2 50 10:24 07.01.2020
5064 Clouds 24 1021 69 16093 7.2 70 09:59 07.01.2020
5065 Clouds 24 1021 69 16093 7.2 70 09:38 07.01.2020
5066 Clouds 24 1021 69 16093 7.2 70 09:20 07.01.2020
5067 Clouds 25 1021 78 16093 4.1 80 08:46 07.01.2020
5068 Clouds 25 1021 65 16093 5.1 60 08:27 07.01.2020
5069 Clouds 24 1021 88 16093 3.6 80 07:54 07.01.2020
5070 Drizzle 24 1021 83 16093 6.7 70 07:29 07.01.2020
5071 Clouds 24 1020 65 16093 5.7 50 06:54 07.01.2020
5072 Clouds 24 1020 65 16093 5.7 50 06:54 07.01.2020
5073 Clouds 24 1020 65 16093 5.7 50 06:35 07.01.2020
5074 Clouds 25 1021 83 16093 3.1 60 05:57 07.01.2020
5075 Clouds 25 1021 83 16093 3.1 60 05:35 07.01.2020
5076 Clouds 26 1020 73 16093 6.2 80 03:29 07.01.2020
5077 Clouds 27 1019 51 16093 8.2 50 02:24 07.01.2020
5078 Clouds 26 1019 61 16093 6.7 70 01:57 07.01.2020
5079 Clouds 26 1019 61 16093 6.7 70 01:31 07.01.2020
5080 Clouds 27 1020 69 16093 8.2 80 00:37 07.01.2020
5081 Clouds 26 1019 57 16093 6.7 60 00:18 07.01.2020
5082 Clouds 26 1021 78 16093 8.2 90 23:55 06.01.2020
5083 Clouds 26 1021 78 16093 8.2 90 23:36 06.01.2020
5084 Clouds 26 1021 78 16093 8.2 90 23:18 06.01.2020
5085 Rain 25 1022 83 16093 5.1 60 22:42 06.01.2020
5086 Rain 25 1021 57 16093 6.2 60 22:22 06.01.2020
5087 Rain 25 1022 94 16093 2.1 50 21:56 06.01.2020
5088 Rain 25 1022 94 16093 2.1 50 21:38 06.01.2020
5089 Rain 25 1022 78 9656 6.2 70 21:19 06.01.2020
5090 Rain 24 1022 88 16093 4.1 60 20:56 06.01.2020
5091 Rain 24 1022 88 16093 4.1 60 20:37 06.01.2020
5092 Clouds 24 1021 73 16093 7.7 50 20:19 06.01.2020
5093 Clouds 24 1020 73 16093 6.7 70 19:55 06.01.2020
5094 Clouds 24 1020 73 16093 6.7 70 19:37 06.01.2020
5095 Clouds 24 1020 73 16093 6.7 70 19:18 06.01.2020
5096 Clouds 24 1020 73 16093 7.2 90 18:45 06.01.2020
5097 Clouds 24 1020 73 16093 7.2 90 18:21 06.01.2020
5098 Clouds 24 1020 78 16093 6.7 80 17:40 06.01.2020
5099 Clouds 24 1020 78 16093 6.7 80 17:40 06.01.2020
5100 Clouds 23 1020 78 16093 6.7 80 17:20 06.01.2020
5101 Clouds 24 1020 69 16093 2.1 70 16:58 06.01.2020
5102 Clouds 24 1020 69 16093 2.1 70 16:40 06.01.2020
5103 Clouds 24 1020 69 16093 2.1 70 16:22 06.01.2020
5104 Rain 24 1020 78 16093 2.1 140 15:59 06.01.2020
5105 Rain 23 1020 69 16093 4.1 60 15:37 06.01.2020
5106 Rain 23 1020 69 16093 4.1 60 15:18 06.01.2020
5107 Clouds 23 1020 78 16093 5.1 100 14:41 06.01.2020
5108 Clouds 23 1020 78 16093 5.1 100 14:41 06.01.2020
5109 Clouds 23 1020 69 16093 5.1 60 14:22 06.01.2020
5110 Clouds 23 1021 69 16093 5.1 60 13:59 06.01.2020
5111 Clouds 23 1021 69 16093 5.1 60 13:39 06.01.2020
5112 Clouds 23 1021 69 16093 5.1 60 13:20 06.01.2020
5113 Clouds 24 1021 64 16093 4.1 60 12:55 06.01.2020
5114 Clouds 24 1021 64 16093 4.1 60 12:37 06.01.2020
5115 Clouds 24 1021 64 16093 4.1 60 12:18 06.01.2020
5116 Clouds 24 1021 64 16093 4.1 60 11:41 06.01.2020
5117 Clouds 24 1021 64 16093 4.1 60 11:23 06.01.2020
5118 Clouds 24 1022 69 16093 4.1 60 10:59 06.01.2020
5119 Clouds 24 1022 69 16093 4.1 60 10:40 06.01.2020
5120 Clouds 24 1022 69 16093 4.1 60 10:20 06.01.2020
5121 Clear 24 1022 64 16093 6.7 60 09:39 06.01.2020
5122 Clouds 24 1021 69 16093 9.3 70 09:20 06.01.2020
5123 Clouds 24 1020 64 16093 5.1 60 08:51 06.01.2020
5124 Clouds 24 1020 64 16093 5.1 60 08:33 06.01.2020
5125 Clouds 24 1020 73 16093 2.6 70 07:56 06.01.2020
5126 Clouds 24 1020 73 16093 2.6 70 07:33 06.01.2020
5127 Clouds 24 1020 73 16093 6.7 80 06:46 06.01.2020
5128 Clouds 24 1020 69 16093 5.7 60 06:23 06.01.2020
5129 Clouds 24 1020 69 16093 4.6 60 05:45 06.01.2020
5130 Clouds 25 1020 69 16093 6.2 60 04:38 06.01.2020
5131 Clouds 25 1020 69 16093 6.2 60 04:19 06.01.2020
5132 Clouds 27 1020 69 16093 5.1 60 02:46 06.01.2020
5133 Clouds 27 1019 58 16093 7.2 60 02:24 06.01.2020
5134 Clouds 26 1020 57 16093 7.7 70 01:44 06.01.2020
5135 Clouds 26 1020 57 16093 7.7 70 01:26 06.01.2020
5136 Clouds 26 1021 61 16093 6.2 80 00:42 06.01.2020
5137 Clouds 27 1021 61 16093 5.7 60 00:23 06.01.2020
5138 Clouds 26 1022 73 16093 3.1 40 23:42 05.01.2020
5139 Clouds 26 1022 73 16093 3.1 40 23:42 05.01.2020
5140 Clouds 26 1022 61 16093 5.1 70 23:22 05.01.2020
5141 Clouds 26 1023 78 16093 3.1 40 22:56 05.01.2020
5142 Clouds 26 1024 83 16093 1.5 90 22:38 05.01.2020
5143 Clouds 25 1024 83 16093 1.5 90 22:19 05.01.2020
5144 Rain 25 1024 83 16093 6.92 77 21:54 05.01.2020
5145 Rain 25 1024 83 16093 6.92 77 21:36 05.01.2020
5146 Rain 25 1023 74 16093 6.7 60 21:18 05.01.2020
5147 Drizzle 24 1024 83 16093 2.1 90 20:55 05.01.2020
5148 Drizzle 24 1024 83 16093 2.1 90 20:55 05.01.2020
5149 Drizzle 24 1024 83 16093 2.1 90 20:36 05.01.2020
5150 Rain 24 1023 73 16093 4.6 60 20:18 05.01.2020
5151 Rain 23 1023 83 11265 6.7 70 19:54 05.01.2020
5152 Rain 23 1023 83 11265 6.7 70 19:54 05.01.2020
5153 Rain 23 1022 78 16093 4.1 60 19:36 05.01.2020
5154 Rain 23 1022 78 16093 4.1 60 19:18 05.01.2020
5155 Clouds 23 1023 94 16093 5.94 76 18:54 05.01.2020
5156 Clouds 23 1022 83 16093 6.7 60 18:36 05.01.2020
5157 Clouds 23 1022 83 16093 6.7 60 18:18 05.01.2020
5158 Clouds 23 1022 100 16093 5.94 76 17:39 05.01.2020
5159 Rain 23 1022 83 16093 4.1 90 17:20 05.01.2020
5160 Rain 23 1021 83 16093 4.1 90 16:57 05.01.2020
5161 Rain 23 1021 83 16093 4.1 90 16:39 05.01.2020
5162 Rain 23 1021 83 16093 4.1 90 16:20 05.01.2020
5163 Clouds 23 1021 83 16093 4.6 70 15:41 05.01.2020
5164 Rain 23 1021 83 16093 4.1 90 15:22 05.01.2020
5165 Rain 23 1021 83 16093 4.1 90 15:22 05.01.2020
5166 Rain 23 1021 83 16093 4.1 90 15:22 05.01.2020
5167 Rain 23 1022 94 16093 3.6 90 14:57 05.01.2020
5168 Rain 23 1022 94 16093 3.6 90 14:39 05.01.2020
5169 Rain 23 1021 83 16093 4.1 90 14:21 05.01.2020
5170 Rain 23 1022 100 16093 3.6 50 13:58 05.01.2020
5171 Rain 23 1022 100 16093 3.6 50 13:38 05.01.2020
5172 Rain 23 1022 83 16093 4.1 80 13:20 05.01.2020
5173 Rain 23 1022 88 4023 5.1 80 12:57 05.01.2020
5174 Rain 23 1022 88 4023 5.1 80 12:38 05.01.2020
5175 Rain 23 1022 78 16093 4.1 60 12:19 05.01.2020
5176 Rain 24 1022 83 16093 5.1 90 11:54 05.01.2020
5177 Rain 24 1022 83 16093 5.1 90 11:54 05.01.2020
5178 Rain 24 1022 83 16093 5.1 90 11:36 05.01.2020
5179 Rain 24 1022 78 16093 4.1 60 11:36 05.01.2020
5180 Rain 23 1023 100 8047 3.6 70 11:18 05.01.2020
5181 Rain 24 1023 78 16093 4.1 60 10:40 05.01.2020
5182 Rain 24 1023 78 16093 4.1 60 10:20 05.01.2020
5183 Rain 23 1023 94 16093 3.1 80 09:43 05.01.2020
5184 Rain 24 1023 78 16093 4.6 70 09:23 05.01.2020
5185 Rain 23 1023 94 14484 4.1 70 08:56 05.01.2020
5186 Rain 23 1023 94 14484 4.1 70 08:38 05.01.2020
5187 Rain 24 1022 83 16093 3.6 60 08:20 05.01.2020
5188 Rain 24 1022 83 16093 4.6 90 07:39 05.01.2020
5189 Clouds 24 1022 83 16093 3.1 60 07:21 05.01.2020
5190 Clouds 24 1022 83 16093 7.2 70 06:47 05.01.2020
5191 Drizzle 23 1022 100 12874 1.5 250 05:39 05.01.2020
5192 Clouds 25 1021 100 16093 2.6 20 04:56 05.01.2020
5193 Clouds 25 1021 83 16093 6.2 70 04:18 05.01.2020
5194 Clouds 25 1020 88 14484 6.7 70 03:27 05.01.2020
5195 Rain 25 1020 88 2816 8.2 70 02:32 05.01.2020
5196 Drizzle 25 1020 100 12874 4.6 40 01:49 05.01.2020
5197 Rain 25 1020 78 16093 5.1 60 01:20 05.01.2020
5198 Rain 25 1021 88 6437 7.2 70 00:57 05.01.2020
5199 Rain 25 1021 88 6437 7.2 70 00:57 05.01.2020
5200 Rain 25 1021 88 6437 7.2 70 00:57 05.01.2020
5201 Rain 25 1021 88 6437 7.2 70 00:39 05.01.2020
5202 Rain 25 1021 88 4828 6.7 70 00:19 05.01.2020
5203 Rain 24 1022 94 9656 7.2 70 23:41 04.01.2020
5204 Rain 24 1022 94 9656 7.2 70 23:41 04.01.2020
5205 Rain 24 1023 78 9656 8.2 60 23:20 04.01.2020
5206 Rain 24 1023 94 16093 6.7 70 22:55 04.01.2020
5207 Rain 24 1023 88 16093 7.2 60 22:37 04.01.2020
5208 Rain 24 1023 88 16093 7.2 60 22:19 04.01.2020
5209 Clouds 23 1024 88 16093 8.7 60 21:55 04.01.2020
5210 Clouds 23 1024 88 16093 8.7 60 21:36 04.01.2020
5211 Rain 23 1024 88 11265 5.7 60 21:18 04.01.2020
5212 Rain 23 1024 88 6437 10.3 70 20:41 04.01.2020
5213 Rain 23 1023 88 9656 6.2 60 20:22 04.01.2020
5214 Rain 22 1023 88 4023 7.7 70 19:57 04.01.2020
5215 Rain 22 1023 94 3219 6.7 80 19:38 04.01.2020
5216 Rain 23 1023 94 3219 6.7 80 19:20 04.01.2020
5217 Rain 23 1022 88 9656 9.3 60 18:56 04.01.2020
5218 Drizzle 23 1022 94 16093 2.6 350 18:37 04.01.2020
5219 Drizzle 23 1022 94 16093 2.6 350 18:19 04.01.2020
5220 Rain 23 1021 83 16093 4.1 50 17:41 04.01.2020
5221 Rain 23 1021 83 16093 4.1 50 17:23 04.01.2020
5222 Rain 23 1021 94 4828 7.2 70 16:59 04.01.2020
5223 Rain 23 1021 94 4828 7.2 70 16:40 04.01.2020
5224 Rain 23 1021 83 16093 3.1 50 16:21 04.01.2020
5225 Drizzle 22 1021 94 16093 2.1 360 15:56 04.01.2020
5226 Rain 22 1021 83 16093 3.1 50 15:38 04.01.2020
5227 Rain 22 1021 83 16093 3.1 50 15:18 04.01.2020
5228 Rain 22 1022 94 16093 1.5 50 14:42 04.01.2020
5229 Drizzle 23 1022 94 16093 6.29 67 14:20 04.01.2020
5230 Rain 22 1021 88 8047 6.7 70 13:59 04.01.2020
5231 Rain 22 1021 88 8047 6.7 70 13:38 04.01.2020
5232 Rain 22 1022 83 16093 4.1 60 13:19 04.01.2020
5233 Rain 22 1022 88 4023 7.2 80 12:57 04.01.2020
5234 Rain 23 1022 88 4023 7.2 80 12:39 04.01.2020
5235 Rain 23 1022 78 16093 5.7 80 12:18 04.01.2020
5236 Rain 23 1022 78 16093 5.7 80 12:18 04.01.2020
5237 Rain 23 1022 88 9656 7.2 70 11:56 04.01.2020
5238 Rain 23 1022 88 9656 7.2 70 11:37 04.01.2020
5239 Rain 23 1022 78 16093 10.3 60 11:18 04.01.2020
5240 Rain 23 1022 94 16093 7.12 66 10:40 04.01.2020
5241 Rain 24 1022 78 16093 6.2 60 10:21 04.01.2020
5242 Rain 23 1022 88 14484 7.7 70 09:47 04.01.2020
5243 Clouds 23 1022 78 16093 6.2 60 09:26 04.01.2020
5244 Clouds 23 1022 83 16093 7.7 60 08:49 04.01.2020
5245 Rain 23 1022 83 16093 10.3 70 08:29 04.01.2020
5246 Rain 23 1021 73 16093 6.2 30 07:57 04.01.2020
5247 Rain 23 1021 73 16093 6.2 30 07:39 04.01.2020
5248 Drizzle 24 1022 83 16093 3.6 10 06:44 04.01.2020
5249 Clouds 24 1020 78 16093 6.7 60 05:59 04.01.2020
5250 Clouds 24 1021 88 16093 6.22 65 04:52 04.01.2020
5251 Rain 24 1019 61 16093 8.2 80 04:31 04.01.2020
5252 Clouds 24 1019 57 16093 8.7 60 03:30 04.01.2020
5253 Clouds 25 1020 88 16093 6.22 65 02:52 04.01.2020
5254 Rain 25 1019 57 16093 6.2 50 02:18 04.01.2020
5255 Rain 25 1019 57 16093 7.2 50 01:51 04.01.2020
5256 Rain 25 1019 57 16093 7.2 50 01:30 04.01.2020
5257 Rain 25 1020 65 16093 7.2 70 00:29 04.01.2020
5258 Rain 25 1020 65 16093 7.2 70 00:29 04.01.2020
5259 Rain 24 1021 73 16093 6.7 60 23:59 03.01.2020
5260 Rain 24 1021 73 16093 6.7 60 23:59 03.01.2020
5261 Rain 24 1021 73 16093 6.7 60 23:37 03.01.2020
5262 Rain 25 1021 73 16093 6.7 60 23:18 03.01.2020
5263 Drizzle 25 1022 94 12874 1.5 20 22:40 03.01.2020
5264 Rain 25 1022 65 16093 5.1 50 22:19 03.01.2020
5265 Rain 24 1023 94 6437 1.5 40 21:57 03.01.2020
5266 Rain 24 1023 94 6437 1.5 40 21:38 03.01.2020
5267 Rain 24 1022 73 16093 6.7 60 21:19 03.01.2020
5268 Clouds 24 1022 83 16093 3.1 50 20:55 03.01.2020
5269 Clouds 24 1022 83 16093 3.1 50 20:37 03.01.2020
5270 Rain 23 1022 69 16093 6.2 60 20:18 03.01.2020
5271 Rain 22 1021 73 16093 4.1 50 19:54 03.01.2020
5272 Rain 22 1021 73 16093 4.1 50 19:36 03.01.2020
5273 Rain 22 1021 73 16093 4.1 50 19:18 03.01.2020
5274 Rain 22 1020 78 16093 1.5 100 18:39 03.01.2020
5275 Rain 22 1020 78 16093 1.5 100 18:39 03.01.2020
5276 Rain 22 1020 78 16093 1.5 100 18:20 03.01.2020
5277 Rain 22 1020 78 16093 2.1 60 17:42 03.01.2020
5278 Rain 22 1020 78 16093 2.1 60 17:22 03.01.2020
5279 Rain 22 1020 78 16093 4.6 70 16:59 03.01.2020
5280 Rain 22 1020 78 16093 4.6 70 16:40 03.01.2020
5281 Rain 22 1020 78 16093 4.6 70 16:21 03.01.2020
5282 Clouds 22 1019 78 16093 8.7 60 15:42 03.01.2020
5283 Rain 22 1019 73 16093 6.7 50 15:19 03.01.2020
5284 Drizzle 22 1020 100 16093 2.1 320 14:40 03.01.2020
5285 Rain 22 1019 78 16093 3.1 40 14:21 03.01.2020
5286 Drizzle 22 1019 100 16093 2.1 360 13:59 03.01.2020
5287 Drizzle 22 1019 100 16093 2.1 360 13:40 03.01.2020
5288 Rain 22 1019 83 16093 9.3 50 13:22 03.01.2020
5289 Rain 22 1019 83 16093 9.8 50 12:41 03.01.2020
5290 Rain 22 1019 83 9656 1.5 290 12:22 03.01.2020
5291 Rain 22 1019 88 9656 10.8 50 11:57 03.01.2020
5292 Rain 22 1019 88 9656 10.8 50 11:57 03.01.2020
5293 Rain 22 1019 88 9656 10.8 50 11:39 03.01.2020
5294 Rain 22 1019 88 9656 10.8 50 11:18 03.01.2020
5295 Rain 23 1019 88 12874 9.8 50 10:43 03.01.2020
5296 Rain 22 1020 73 16093 3.1 50 10:24 03.01.2020
5297 Rain 23 1020 73 16093 3.6 40 09:56 03.01.2020
5298 Rain 23 1020 73 16093 3.6 40 09:38 03.01.2020
5299 Clouds 23 1020 69 16093 3.6 40 09:20 03.01.2020
5300 Clouds 24 1019 69 16093 5.1 60 08:45 03.01.2020
5301 Clouds 24 1019 69 16093 5.1 60 08:23 03.01.2020
5302 Rain 24 1019 69 16093 2.6 20 07:57 03.01.2020
5303 Rain 24 1019 69 16093 2.6 20 07:38 03.01.2020
5304 Rain 24 1019 69 16093 2.6 20 07:18 03.01.2020
5305 Clouds 24 1018 69 16093 2.6 30 06:42 03.01.2020
5306 Clouds 24 1018 69 16093 2.6 30 06:23 03.01.2020
5307 Clouds 24 1017 65 16093 4.1 40 05:20 03.01.2020
5308 Rain 25 1016 61 16093 3.6 60 03:42 03.01.2020
5309 Rain 24 1016 88 16093 1.5 70 02:54 03.01.2020
5310 Clouds 24 1016 94 16093 3.6 360 01:51 03.01.2020
5311 Clouds 24 1016 57 16093 3.6 30 01:33 03.01.2020
5312 Clouds 24 1015 78 16093 4.6 40 00:43 03.01.2020
5313 Clouds 24 1016 88 16093 3.1 330 00:24 03.01.2020
5314 Rain 24 1016 88 12874 4.1 350 23:39 02.01.2020
5315 Rain 24 1017 57 16093 4.6 50 23:20 02.01.2020
5316 Rain 24 1017 94 6437 2.1 290 22:59 02.01.2020
5317 Rain 24 1017 94 6437 2.1 290 22:41 02.01.2020
5318 Rain 24 1018 57 16093 2.6 50 22:20 02.01.2020
5319 Clouds 24 1018 83 16093 2.1 220 21:56 02.01.2020
5320 Clouds 24 1018 83 16093 2.1 220 21:38 02.01.2020
5321 Rain 24 1018 73 16093 2.1 310 21:19 02.01.2020
5322 Rain 23 1018 88 3219 1.5 40 20:56 02.01.2020
5323 Rain 23 1018 88 3219 1.5 40 20:37 02.01.2020
5324 Rain 23 1018 88 3219 1.5 40 20:18 02.01.2020
5325 Rain 22 1017 88 4023 1.61 44 19:54 02.01.2020
5326 Rain 22 1017 88 4023 1.61 44 19:36 02.01.2020
5327 Clouds 21 1017 78 16093 2.1 350 19:18 02.01.2020
5328 Clouds 20 1017 94 16093 1.61 44 18:43 02.01.2020
5329 Clouds 21 1016 88 16093 3.6 20 18:24 02.01.2020
5330 Clouds 21 1017 94 16093 2.1 360 17:58 02.01.2020
5331 Clouds 21 1017 94 16093 2.1 360 17:39 02.01.2020
5332 Clouds 21 1017 94 16093 2.1 10 17:20 02.01.2020
5333 Clouds 21 1016 93 16093 3.1 310 16:58 02.01.2020
5334 Clouds 21 1016 93 16093 3.1 310 16:40 02.01.2020
5335 Clouds 20 1016 83 16093 2.1 310 16:20 02.01.2020
5336 Clouds 20 1016 83 16093 2.1 310 16:20 02.01.2020
5337 Clouds 21 1015 88 16093 1.63 25 15:57 02.01.2020
5338 Rain 21 1016 78 16093 2.6 330 15:39 02.01.2020
5339 Rain 21 1016 78 16093 2.6 330 15:20 02.01.2020
5340 Clouds 21 1016 78 16093 1.5 350 14:56 02.01.2020
5341 Clouds 21 1016 78 16093 1.5 350 14:36 02.01.2020
5342 Clouds 21 1016 78 16093 1.5 350 14:18 02.01.2020
5343 Clouds 22 1015 83 16093 2.6 70 13:47 02.01.2020
5344 Clouds 22 1016 78 16093 2.1 10 13:29 02.01.2020
5345 Clouds 21 1017 78 16093 2.1 280 12:45 02.01.2020
5346 Clouds 21 1018 78 16093 2.1 340 12:25 02.01.2020
5347 Clouds 21 1018 94 16093 2.1 330 12:25 02.01.2020
5348 Clouds 21 1018 78 16093 2.1 340 11:57 02.01.2020
5349 Clouds 21 1018 78 16093 2.1 340 11:37 02.01.2020
5350 Clouds 21 1018 78 16093 2.1 340 11:19 02.01.2020
5351 Clouds 22 1018 73 16093 2.1 330 10:43 02.01.2020
5352 Clouds 22 1018 73 16093 2.1 330 10:25 02.01.2020
5353 Clouds 21 1018 73 16093 1.5 330 09:46 02.01.2020
5354 Clouds 22 1018 73 16093 1.5 330 09:28 02.01.2020
5355 Clouds 23 1017 73 16093 2.6 70 08:45 02.01.2020
5356 Clouds 23 1017 73 16093 2.6 70 08:27 02.01.2020
5357 Clouds 23 1017 69 16093 3.6 90 07:51 02.01.2020
5358 Clouds 24 1017 69 16093 3.6 90 07:30 02.01.2020
5359 Clouds 23 1017 64 16093 3.6 60 06:45 02.01.2020
5360 Clouds 23 1017 64 16093 3.6 60 06:26 02.01.2020
5361 Clouds 25 1016 54 16093 3.1 120 04:53 02.01.2020
5362 Clouds 25 1016 54 16093 3.1 120 04:30 02.01.2020
5363 Clouds 26 1015 51 16093 2.1 0 02:32 02.01.2020
5364 Clouds 26 1016 54 16093 3.6 160 01:58 02.01.2020
5365 Clouds 26 1016 54 16093 3.6 160 01:33 02.01.2020
5366 Clouds 26 1017 57 16093 3.1 160 00:57 02.01.2020
5367 Clouds 26 1017 57 16093 3.1 160 00:33 02.01.2020
5368 Clouds 26 1017 57 16093 3.1 160 00:33 02.01.2020
5369 Clouds 26 1018 54 16093 3.1 210 23:49 01.01.2020
5370 Clouds 26 1018 54 16093 3.1 210 23:26 01.01.2020
5371 Clouds 26 1019 57 16093 2.1 0 22:56 01.01.2020
5372 Clouds 26 1019 57 16093 2.1 0 22:37 01.01.2020
5373 Clouds 26 1019 57 16093 2.1 0 22:19 01.01.2020
5374 Clouds 25 1019 57 16093 2.1 170 21:42 01.01.2020
5375 Clouds 25 1019 57 16093 2.1 170 21:21 01.01.2020
5376 Clouds 24 1019 69 16093 0.93 165 20:59 01.01.2020
5377 Clouds 24 1019 69 16093 0.93 165 20:39 01.01.2020
5378 Clouds 24 1019 69 16093 0.83 100 20:21 01.01.2020
5379 Clouds 22 1018 73 16093 3.1 350 19:58 01.01.2020
5380 Clouds 21 1018 73 16093 3.1 350 19:39 01.01.2020
5381 Clouds 21 1018 73 16093 3.1 350 19:20 01.01.2020
5382 Clouds 21 1018 73 16093 3.1 350 19:20 01.01.2020
5383 Clouds 20 1018 73 16093 3.6 20 18:57 01.01.2020
5384 Clouds 20 1018 73 16093 3.6 20 18:57 01.01.2020
5385 Clouds 20 1018 73 16093 3.6 20 18:39 01.01.2020
5386 Clouds 20 1018 73 16093 3.6 20 18:20 01.01.2020
5387 Clouds 21 1018 68 16093 2.6 350 17:59 01.01.2020
5388 Clouds 21 1018 68 16093 2.6 350 17:40 01.01.2020
5389 Clouds 21 1018 68 16093 2.6 350 17:40 01.01.2020
5390 Clouds 21 1018 68 16093 2.6 350 17:20 01.01.2020
5391 Clouds 21 1018 64 16093 2.6 30 16:58 01.01.2020
5392 Clouds 21 1018 64 16093 2.6 30 16:38 01.01.2020
5393 Clouds 21 1018 64 16093 2.6 30 16:38 01.01.2020
5394 Clouds 23 1018 64 16093 2.6 30 16:19 01.01.2020
5395 Clouds 23 1018 64 16093 2.1 10 15:57 01.01.2020
5396 Clouds 23 1018 64 16093 2.1 10 15:57 01.01.2020
5397 Clouds 23 1018 64 16093 2.1 10 15:37 01.01.2020
5398 Clouds 22 1018 64 16093 2.1 10 15:19 01.01.2020
5399 Clouds 22 1018 64 16093 4.1 50 14:55 01.01.2020
5400 Clouds 22 1018 64 16093 4.1 50 14:37 01.01.2020
5401 Clouds 23 1018 64 16093 4.1 50 14:19 01.01.2020
5402 Clouds 22 1018 64 16093 2.6 50 13:55 01.01.2020
5403 Clouds 22 1018 64 16093 2.6 50 13:55 01.01.2020
5404 Clouds 22 1018 64 16093 2.6 50 13:36 01.01.2020
5405 Clouds 23 1018 64 16093 2.6 50 13:18 01.01.2020
5406 Clouds 22 1019 64 16093 3.6 80 12:40 01.01.2020
5407 Clouds 22 1019 64 16093 3.6 80 12:19 01.01.2020
5408 Clouds 22 1019 64 16093 3.6 80 12:19 01.01.2020
5409 Clouds 23 1019 69 16093 3.1 60 11:56 01.01.2020
5410 Clouds 23 1019 69 16093 3.1 60 11:38 01.01.2020
5411 Clouds 23 1019 69 16093 3.1 60 11:19 01.01.2020
5412 Clouds 23 1019 64 16093 4.1 80 10:54 01.01.2020
5413 Clouds 24 1019 64 16093 4.1 80 10:36 01.01.2020
5414 Clouds 24 1019 64 16093 4.1 80 10:18 01.01.2020
5415 Clouds 24 1019 64 16093 5.1 60 09:40 01.01.2020
5416 Clouds 24 1019 64 16093 5.1 60 09:20 01.01.2020
5417 Clouds 24 1019 64 16093 5.1 60 08:57 01.01.2020
5418 Clouds 24 1019 64 16093 5.1 60 08:37 01.01.2020
5419 Clouds 24 1019 64 16093 5.1 60 08:37 01.01.2020
5420 Clouds 24 1019 64 16093 5.1 60 08:19 01.01.2020
5421 Clouds 24 1019 64 16093 7.7 60 07:55 01.01.2020
5422 Clouds 24 1019 64 16093 7.7 60 07:37 01.01.2020
5423 Clouds 24 1019 64 16093 7.7 60 07:37 01.01.2020
5424 Clouds 24 1019 61 16093 6.2 70 06:45 01.01.2020
5425 Clouds 24 1019 61 16093 6.2 70 06:22 01.01.2020
5426 Clouds 25 1019 54 16093 6.7 60 05:23 01.01.2020
5427 Clouds 26 1018 54 16093 8.7 70 03:47 01.01.2020
5428 Clouds 26 1018 54 16093 8.7 70 03:24 01.01.2020
5429 Clouds 26 1019 73 16093 5.1 80 02:57 01.01.2020
5430 Clouds 26 1019 73 16093 5.1 80 02:37 01.01.2020
5431 Clouds 26 1018 65 16093 6.7 80 01:59 01.01.2020
5432 Clouds 26 1018 65 16093 6.7 80 01:38 01.01.2020
5433 Clouds 27 1018 54 16093 6.7 70 01:20 01.01.2020
5434 Clouds 27 1019 65 16093 5.1 80 00:44 01.01.2020
5435 Clouds 27 1020 73 16093 5.7 110 00:25 01.01.2020
5436 Clouds 27 1021 54 16093 5.7 100 23:41 31.12.2019
5437 Clouds 27 1021 54 16093 5.7 100 23:22 31.12.2019
5438 Clouds 26 1022 69 16093 5.7 90 22:58 31.12.2019
5439 Clouds 26 1022 69 16093 5.7 90 22:39 31.12.2019
5440 Clouds 26 1022 69 16093 5.7 90 22:20 31.12.2019
5441 Clouds 26 1022 73 16093 3.1 110 21:58 31.12.2019
5442 Clouds 26 1022 73 16093 3.1 110 21:40 31.12.2019
5443 Clouds 26 1022 57 16093 5.7 70 21:21 31.12.2019
5444 Clouds 26 1022 69 16093 4.1 90 20:56 31.12.2019
5445 Clouds 26 1022 69 16093 4.1 90 20:37 31.12.2019
5446 Rain 25 1022 61 16093 5.7 60 20:18 31.12.2019
5447 Clouds 24 1022 78 16093 3.6 70 19:43 31.12.2019
5448 Clouds 24 1021 69 16093 5.1 60 19:24 31.12.2019
5449 Clouds 24 1021 69 16093 6.7 60 18:59 31.12.2019
5450 Clouds 24 1021 69 16093 6.7 60 18:40 31.12.2019
5451 Clouds 24 1021 69 16093 6.7 60 18:21 31.12.2019
5452 Clouds 24 1020 69 16093 3.6 80 17:57 31.12.2019
5453 Clouds 24 1020 69 16093 3.6 80 17:39 31.12.2019
5454 Clouds 23 1020 69 16093 3.6 80 17:19 31.12.2019
5455 Clouds 23 1020 69 16093 3.6 80 17:19 31.12.2019
5456 Clouds 22 1020 73 16093 4.6 70 16:57 31.12.2019
5457 Clouds 22 1020 73 16093 4.6 70 16:57 31.12.2019
5458 Clouds 22 1020 73 16093 4.6 70 16:39 31.12.2019
5459 Clouds 22 1020 73 16093 4.6 70 16:19 31.12.2019
5460 Clear 23 1020 69 16093 3.1 80 15:57 31.12.2019
5461 Clear 23 1020 69 16093 3.1 80 15:39 31.12.2019
5462 Clear 23 1020 69 16093 3.1 80 15:21 31.12.2019
5463 Clouds 24 1020 64 16093 3.99 95 14:58 31.12.2019
5464 Clouds 23 1020 64 16093 3.99 95 14:39 31.12.2019
5465 Clouds 23 1020 64 16093 4.01 90 14:19 31.12.2019
5466 Clouds 23 1021 64 16093 3.1 80 13:58 31.12.2019
5467 Clouds 23 1021 64 16093 3.1 80 13:40 31.12.2019
5468 Clouds 23 1021 64 16093 3.1 80 13:40 31.12.2019
5469 Clouds 23 1021 64 16093 3.1 80 13:21 31.12.2019
5470 Clouds 24 1021 64 16093 4.1 60 12:58 31.12.2019
5471 Clouds 24 1021 64 16093 4.1 60 12:40 31.12.2019
5472 Clouds 24 1021 64 16093 4.1 60 12:20 31.12.2019
5473 Clouds 24 1021 64 16093 8.2 90 11:56 31.12.2019
5474 Clouds 24 1021 64 16093 8.2 90 11:38 31.12.2019
5475 Clouds 24 1021 64 16093 8.2 90 11:20 31.12.2019
5476 Clouds 24 1021 64 16093 5.7 70 10:57 31.12.2019
5477 Clouds 24 1021 64 16093 5.7 70 10:38 31.12.2019
5478 Clouds 24 1021 64 16093 5.7 70 10:20 31.12.2019
5479 Clouds 24 1021 73 16093 4.6 100 09:58 31.12.2019
5480 Clouds 24 1021 73 16093 4.6 100 09:39 31.12.2019
5481 Clouds 24 1021 65 16093 6.7 60 09:20 31.12.2019
5482 Clouds 24 1021 78 16093 3.6 100 08:57 31.12.2019
5483 Clouds 24 1021 78 16093 3.6 100 08:37 31.12.2019
5484 Clouds 24 1020 61 16093 7.7 60 08:19 31.12.2019
5485 Clouds 24 1020 61 16093 6.7 60 07:42 31.12.2019
5486 Clouds 24 1020 61 16093 6.7 60 07:20 31.12.2019
5487 Clouds 24 1020 61 16093 6.2 60 06:49 31.12.2019
5488 Clouds 25 1020 57 16093 6.2 60 05:57 31.12.2019
5489 Clouds 26 1019 54 16093 6.7 50 04:28 31.12.2019
5490 Clouds 26 1019 69 16093 5.7 70 03:27 31.12.2019
5491 Clouds 27 1018 54 16093 8.2 50 02:54 31.12.2019
5492 Clouds 27 1019 65 16093 6.2 90 01:55 31.12.2019
5493 Clouds 27 1019 65 16093 6.2 90 01:35 31.12.2019
5494 Clouds 27 1019 54 16093 8.2 80 00:59 31.12.2019
5495 Clouds 27 1019 54 16093 8.2 80 00:41 31.12.2019
5496 Clouds 27 1019 54 16093 8.2 80 00:21 31.12.2019
5497 Clouds 28 1020 61 16093 5.1 70 23:56 30.12.2019
5498 Clouds 28 1020 51 16093 6.7 50 23:37 30.12.2019
5499 Clouds 27 1020 51 16093 6.7 50 23:19 30.12.2019
5500 Clouds 27 1021 54 16093 5.7 60 22:56 30.12.2019
5501 Clouds 27 1021 54 16093 5.7 60 22:37 30.12.2019
5502 Clouds 27 1021 54 16093 5.7 60 22:37 30.12.2019
5503 Clouds 27 1021 54 16093 5.7 60 22:18 30.12.2019
5504 Clouds 26 1021 57 16093 6.2 70 21:55 30.12.2019
5505 Clouds 27 1021 57 16093 6.2 70 21:37 30.12.2019
5506 Clouds 27 1021 57 16093 6.2 70 21:18 30.12.2019
5507 Clouds 26 1021 57 16093 6.2 70 20:55 30.12.2019
5508 Clouds 25 1021 57 16093 6.2 70 20:55 30.12.2019
5509 Clouds 26 1021 57 16093 6.2 70 20:37 30.12.2019
5510 Clouds 25 1021 57 16093 6.2 70 20:18 30.12.2019
5511 Clouds 24 1020 64 16093 4.1 50 19:55 30.12.2019
5512 Clouds 24 1020 64 16093 4.1 50 19:36 30.12.2019
5513 Clouds 24 1020 64 16093 4.1 50 19:18 30.12.2019
5514 Clouds 24 1020 69 16093 3.1 40 18:41 30.12.2019
5515 Clouds 24 1020 69 16093 3.1 40 18:21 30.12.2019
5516 Clouds 23 1019 73 16093 2.38 90 17:59 30.12.2019
5517 Clouds 22 1019 73 16093 2.38 90 17:41 30.12.2019
5518 Clouds 23 1019 73 16093 2.31 97 17:20 30.12.2019
5519 Clouds 22 1019 77 16093 2.31 97 16:59 30.12.2019
5520 Clouds 22 1019 77 16093 2.31 97 16:40 30.12.2019
5521 Clouds 22 1019 77 16093 2.31 97 16:20 30.12.2019
5522 Clouds 23 1019 73 16093 3.6 110 15:56 30.12.2019
5523 Clouds 23 1019 73 16093 2.31 97 15:38 30.12.2019
5524 Clouds 23 1019 73 16093 2.31 97 15:19 30.12.2019
5525 Clouds 23 1019 69 16093 3.1 40 14:54 30.12.2019
5526 Clouds 23 1019 69 16093 3.1 40 14:36 30.12.2019
5527 Clouds 23 1019 69 16093 3.1 40 14:18 30.12.2019
5528 Clouds 24 1019 73 16093 4.6 110 13:41 30.12.2019
5529 Clouds 24 1020 69 16093 3.1 90 13:23 30.12.2019
5530 Clouds 24 1020 69 16093 3.1 90 13:23 30.12.2019
5531 Clouds 24 1020 64 16093 2.6 70 12:58 30.12.2019
5532 Clouds 24 1020 64 16093 2.6 70 12:39 30.12.2019
5533 Clouds 24 1020 64 16093 2.6 70 12:19 30.12.2019
5534 Clouds 25 1019 69 16093 4.1 100 11:56 30.12.2019
5535 Clouds 25 1019 69 16093 4.1 100 11:37 30.12.2019
5536 Clouds 25 1020 61 16093 8.7 80 11:18 30.12.2019
5537 Clouds 24 1020 69 16093 3.6 80 10:42 30.12.2019
5538 Clouds 24 1020 69 16093 3.6 80 10:20 30.12.2019
5539 Clouds 25 1020 69 16093 5.1 100 09:44 30.12.2019
5540 Clouds 25 1020 65 16093 4.1 70 09:21 30.12.2019
5541 Clouds 25 1020 73 16093 5.7 90 08:57 30.12.2019
5542 Clouds 25 1020 73 16093 5.7 90 08:39 30.12.2019
5543 Clouds 25 1020 65 16093 4.6 50 08:20 30.12.2019
5544 Clouds 25 1020 69 16093 4.6 60 07:48 30.12.2019
5545 Clouds 25 1020 69 16093 4.6 60 07:23 30.12.2019
5546 Clouds 25 1019 65 16093 4.1 50 06:32 30.12.2019
5547 Clouds 26 1018 57 16093 5.7 60 04:31 30.12.2019
5548 Clouds 27 1018 58 16093 5.7 60 03:50 30.12.2019
5549 Clouds 27 1017 58 16093 5.7 50 02:47 30.12.2019
5550 Clouds 27 1017 58 16093 5.7 50 02:26 30.12.2019
5551 Clouds 28 1017 54 16093 6.7 70 01:29 30.12.2019
5552 Clouds 28 1018 65 16093 6.7 70 00:59 30.12.2019
5553 Clouds 28 1018 65 16093 6.7 70 00:39 30.12.2019
5554 Clouds 27 1019 54 16093 6.7 60 23:55 29.12.2019
5555 Clouds 27 1019 54 16093 6.7 60 23:36 29.12.2019
5556 Clouds 27 1019 54 16093 6.7 60 23:18 29.12.2019
5557 Clouds 27 1020 58 16093 5.1 70 22:40 29.12.2019
5558 Clouds 27 1020 58 16093 5.1 70 22:21 29.12.2019
5559 Clouds 27 1020 61 16093 5.1 70 21:56 29.12.2019
5560 Clouds 27 1020 61 16093 5.1 70 21:38 29.12.2019
5561 Clouds 27 1020 61 16093 5.1 70 21:19 29.12.2019
5562 Clouds 26 1020 74 16093 2.6 80 20:55 29.12.2019
5563 Clouds 26 1020 74 16093 2.6 80 20:37 29.12.2019
5564 Clouds 26 1020 74 16093 2.6 80 20:18 29.12.2019
5565 Clouds 24 1019 83 16093 2.1 350 19:55 29.12.2019
5566 Clouds 24 1019 83 16093 2.1 350 19:37 29.12.2019
5567 Clouds 23 1019 83 16093 2.1 350 19:18 29.12.2019
5568 Clouds 22 1019 78 16093 4.6 80 18:54 29.12.2019
5569 Clouds 22 1019 78 16093 4.6 80 18:54 29.12.2019
5570 Clouds 22 1019 83 16093 2.1 330 18:36 29.12.2019
5571 Clouds 22 1019 83 16093 2.1 330 18:18 29.12.2019
5572 Clouds 23 1018 83 16093 2.1 360 17:54 29.12.2019
5573 Clouds 23 1018 83 16093 2.1 360 17:36 29.12.2019
5574 Clouds 23 1018 83 16093 2.1 360 17:18 29.12.2019
5575 Clouds 22 1018 83 16093 2.1 350 16:54 29.12.2019
5576 Clouds 22 1018 83 16093 2.1 350 16:54 29.12.2019
5577 Clouds 22 1018 83 16093 2.1 350 16:36 29.12.2019
5578 Clouds 22 1018 83 16093 2.1 350 16:18 29.12.2019
5579 Rain 22 1018 78 16093 4.1 80 15:54 29.12.2019
5580 Clouds 22 1018 83 16093 1.57 76 15:36 29.12.2019
5581 Clouds 23 1018 83 16093 1.57 76 15:18 29.12.2019
5582 Clouds 23 1018 78 16093 2.1 110 14:46 29.12.2019
5583 Clouds 23 1018 78 16093 2.1 320 14:19 29.12.2019
5584 Clouds 23 1018 78 16093 2.1 300 13:59 29.12.2019
5585 Clouds 23 1018 78 16093 2.1 300 13:40 29.12.2019
5586 Clouds 23 1018 78 16093 2.1 300 13:22 29.12.2019
5587 Clouds 23 1018 78 16093 4.1 80 12:57 29.12.2019
5588 Clouds 22 1018 78 16093 4.1 80 12:38 29.12.2019
5589 Clouds 22 1018 83 16093 1.41 99 12:20 29.12.2019
5590 Clouds 23 1018 78 16093 4.1 90 11:41 29.12.2019
5591 Clouds 23 1019 83 16093 2.1 340 11:21 29.12.2019
5592 Clouds 23 1019 83 16093 1.5 340 10:57 29.12.2019
5593 Clouds 23 1019 83 16093 1.5 340 10:38 29.12.2019
5594 Clouds 23 1019 83 16093 1.5 340 10:18 29.12.2019
5595 Clear 24 1019 78 16093 1.84 77 09:45 29.12.2019
5596 Clear 24 1019 78 16093 1.84 77 09:27 29.12.2019
5597 Clouds 24 1018 78 16093 3.6 80 08:55 29.12.2019
5598 Clouds 24 1018 78 16093 3.6 80 08:37 29.12.2019
5599 Clouds 24 1018 78 16093 3.6 80 08:18 29.12.2019
5600 Clouds 24 1018 69 16093 3.1 60 07:33 29.12.2019
5601 Clouds 25 1017 69 16093 4.1 60 06:59 29.12.2019
5602 Clouds 25 1017 69 16093 4.1 60 06:27 29.12.2019
5603 Clouds 26 1016 78 16093 2.6 0 05:55 29.12.2019
5604 Clouds 27 1016 78 16093 4.1 80 04:47 29.12.2019
5605 Clouds 27 1016 58 16093 5.1 50 04:28 29.12.2019
5606 Clouds 27 1016 58 16093 4.6 50 03:28 29.12.2019
5607 Clouds 28 1016 54 16093 5.1 70 02:27 29.12.2019
5608 Clouds 28 1016 54 16093 6.7 70 01:42 29.12.2019
5609 Clouds 28 1016 54 16093 6.7 70 01:23 29.12.2019
5610 Clouds 27 1017 58 16093 6.2 50 00:44 29.12.2019
5611 Clouds 27 1017 58 16093 6.2 50 00:24 29.12.2019
5612 Clouds 27 1018 69 16093 5.7 80 23:45 28.12.2019
5613 Clouds 27 1018 78 16093 5.7 60 23:18 28.12.2019
5614 Rain 27 1019 58 16093 6.7 70 22:40 28.12.2019
5615 Rain 27 1019 58 16093 6.7 70 22:21 28.12.2019
5616 Clouds 26 1019 78 16093 5.1 70 21:59 28.12.2019
5617 Clouds 27 1019 78 16093 5.1 70 21:40 28.12.2019
5618 Clouds 27 1019 78 16093 5.1 70 21:40 28.12.2019
5619 Clouds 27 1019 61 16093 6.7 70 21:22 28.12.2019
5620 Clouds 26 1019 69 16093 6.2 70 20:59 28.12.2019
5621 Clouds 25 1019 69 16093 6.2 70 20:38 28.12.2019
5622 Clouds 25 1019 69 16093 6.2 70 20:20 28.12.2019
5623 Clouds 24 1018 88 16093 4.1 70 19:58 28.12.2019
5624 Clouds 24 1018 88 16093 4.1 70 19:58 28.12.2019
5625 Clouds 24 1018 88 16093 4.1 70 19:39 28.12.2019
5626 Clouds 24 1018 88 16093 4.1 70 19:21 28.12.2019
5627 Clouds 23 1019 94 16093 1.5 360 18:58 28.12.2019
5628 Clouds 23 1019 94 16093 1.5 360 18:40 28.12.2019
5629 Clouds 23 1018 78 16093 5.7 60 18:19 28.12.2019
5630 Rain 23 1018 88 16093 2.1 60 17:55 28.12.2019
5631 Rain 23 1018 78 16093 2.6 90 17:36 28.12.2019
5632 Rain 23 1018 78 16093 2.6 90 17:18 28.12.2019
5633 Clouds 23 1018 100 16093 1.5 270 16:46 28.12.2019
5634 Drizzle 23 1018 100 16093 2.1 330 16:26 28.12.2019
5635 Clouds 23 1017 90 16093 8.7 50 15:46 28.12.2019
5636 Clouds 23 1017 83 16093 2.1 10 15:24 28.12.2019
5637 Drizzle 23 1018 100 16093 3.1 310 14:59 28.12.2019
5638 Drizzle 23 1018 100 16093 3.1 310 14:39 28.12.2019
5639 Rain 23 1017 78 16093 5.9 66 14:20 28.12.2019
5640 Clouds 23 1018 100 16093 3.6 300 13:43 28.12.2019
5641 Clouds 23 1017 73 16093 5.7 10 13:24 28.12.2019
5642 Rain 23 1018 94 4828 6.7 50 12:59 28.12.2019
5643 Rain 23 1018 94 4828 6.7 50 12:41 28.12.2019
5644 Rain 23 1018 73 16093 3.1 20 12:23 28.12.2019
5645 Rain 23 1018 94 8047 3.1 90 11:55 28.12.2019
5646 Mist 23 1018 94 8047 5.7 60 11:37 28.12.2019
5647 Mist 23 1018 94 8047 5.7 60 11:18 28.12.2019
5648 Mist 23 1018 94 8047 5.7 60 11:18 28.12.2019
5649 Clouds 24 1018 88 16093 5.1 60 10:43 28.12.2019
5650 Clouds 24 1018 88 16093 5.1 60 10:20 28.12.2019
5651 Clouds 24 1018 88 16093 5.7 70 09:56 28.12.2019
5652 Clouds 24 1018 88 16093 5.7 70 09:38 28.12.2019
5653 Rain 24 1018 73 16093 3.1 30 09:18 28.12.2019
5654 Rain 24 1018 73 16093 3.1 30 09:18 28.12.2019
5655 Clouds 24 1018 73 16093 3.1 40 08:43 28.12.2019
5656 Clouds 24 1018 73 16093 2.6 20 08:25 28.12.2019
5657 Clouds 24 1017 69 16093 3.6 30 07:49 28.12.2019
5658 Clouds 24 1017 69 16093 3.6 30 07:25 28.12.2019
5659 Clouds 24 1016 88 16093 6.2 50 05:52 28.12.2019
5660 Rain 26 1015 88 14484 6.2 30 03:49 28.12.2019
5661 Clouds 26 1015 83 16093 4.6 20 02:52 28.12.2019
5662 Clouds 26 1015 74 16093 7.7 50 02:31 28.12.2019
5663 Clouds 26 1015 88 14484 4.6 30 01:56 28.12.2019
5664 Clouds 26 1015 88 14484 4.6 30 01:56 28.12.2019
5665 Rain 27 1015 78 8047 7.2 60 01:24 28.12.2019
5666 Clouds 27 1015 69 16093 6.7 50 00:51 28.12.2019
5667 Clouds 27 1015 69 16093 6.7 50 00:32 28.12.2019
5668 Clouds 26 1016 88 16093 3.1 350 23:59 27.12.2019
5669 Clouds 26 1016 88 16093 3.1 350 23:39 27.12.2019
5670 Rain 27 1016 65 16093 5.1 60 23:19 27.12.2019
5671 Clouds 26 1016 74 16093 7.2 50 22:57 27.12.2019
5672 Clouds 26 1016 74 16093 7.2 50 22:38 27.12.2019
5673 Clouds 26 1016 74 16093 7.2 50 22:38 27.12.2019
5674 Clouds 27 1017 74 16093 6.7 40 22:19 27.12.2019
5675 Clouds 26 1018 94 16093 3.6 360 21:43 27.12.2019
5676 Clouds 26 1018 94 16093 3.6 360 21:43 27.12.2019
5677 Clouds 26 1017 78 16093 8.2 50 21:25 27.12.2019
5678 Clouds 25 1018 94 16093 3.1 360 20:58 27.12.2019
5679 Clouds 24 1018 94 16093 3.1 360 20:40 27.12.2019
5680 Clouds 24 1018 94 16093 3.1 360 20:21 27.12.2019
5681 Clouds 23 1017 100 16093 2.6 340 19:41 27.12.2019
5682 Rain 24 1016 88 16093 3.1 70 19:20 27.12.2019
5683 Clouds 23 1017 100 16093 2.6 330 18:57 27.12.2019
5684 Clouds 23 1017 100 16093 2.6 330 18:37 27.12.2019
5685 Rain 23 1016 94 16093 1.5 10 18:19 27.12.2019
5686 Drizzle 23 1016 100 16093 3.6 330 17:55 27.12.2019
5687 Drizzle 23 1016 100 16093 3.6 330 17:37 27.12.2019
5688 Rain 22 1015 88 16093 1.5 320 17:18 27.12.2019
5689 Clouds 22 1015 100 16093 3.6 320 16:44 27.12.2019
5690 Clouds 22 1014 88 16093 3.6 40 16:26 27.12.2019
5691 Drizzle 22 1015 100 16093 2.1 320 15:58 27.12.2019
5692 Drizzle 22 1015 100 16093 2.1 320 15:40 27.12.2019
5693 Clear 22 1015 83 16093 2.86 42 15:19 27.12.2019
5694 Clouds 23 1014 83 16093 3.1 30 14:56 27.12.2019
5695 Clouds 23 1014 83 16093 3.1 30 14:38 27.12.2019
5696 Clouds 22 1015 78 16093 1.5 10 14:19 27.12.2019
5697 Clouds 23 1015 83 16093 2.1 360 13:47 27.12.2019
5698 Clouds 23 1015 78 16093 1.5 10 13:24 27.12.2019
5699 Clouds 23 1016 78 16093 2.6 330 12:49 27.12.2019
5700 Clouds 23 1016 78 16093 2.6 330 12:29 27.12.2019
5701 Clouds 23 1016 100 16093 3.1 360 11:59 27.12.2019
5702 Clouds 23 1016 100 16093 3.1 360 11:41 27.12.2019
5703 Clouds 23 1016 78 16093 2.1 330 11:20 27.12.2019
5704 Rain 23 1016 73 16093 2.1 10 10:47 27.12.2019
5705 Rain 23 1016 73 16093 2.1 10 10:24 27.12.2019
5706 Clouds 24 1015 78 16093 3.1 330 09:57 27.12.2019
5707 Clouds 24 1015 78 16093 3.1 330 09:38 27.12.2019
5708 Clouds 24 1016 73 16093 2.1 360 09:20 27.12.2019
5709 Clouds 24 1016 100 16093 2.1 330 08:46 27.12.2019
5710 Clouds 24 1015 69 16093 3.6 340 08:27 27.12.2019
5711 Clouds 25 1015 100 16093 1.5 340 07:41 27.12.2019
5712 Clouds 25 1014 65 16093 4.1 330 07:22 27.12.2019
5713 Clouds 25 1014 65 16093 3.6 340 06:27 27.12.2019
5714 Clouds 27 1012 58 16093 5.1 250 04:40 27.12.2019
5715 Rain 27 1011 69 16093 5.7 230 02:29 27.12.2019
5716 Clouds 28 1011 65 16093 5.1 220 01:48 27.12.2019
5717 Clouds 28 1011 65 16093 5.1 220 01:23 27.12.2019
5718 Clouds 28 1012 69 16093 5.7 230 00:51 27.12.2019
5719 Clouds 28 1012 69 16093 5.7 230 00:33 27.12.2019
5720 Clouds 27 1012 69 16093 5.7 240 23:56 26.12.2019
5721 Clouds 27 1012 69 16093 5.7 240 23:38 26.12.2019
5722 Clouds 27 1012 69 16093 5.7 240 23:20 26.12.2019
5723 Clouds 27 1013 74 16093 3.1 220 22:41 26.12.2019
5724 Clouds 27 1013 74 16093 3.1 220 22:19 26.12.2019
5725 Clouds 26 1013 78 16093 3.1 230 21:40 26.12.2019
5726 Clouds 26 1013 78 16093 3.1 230 21:21 26.12.2019
5727 Rain 25 1012 94 16093 2.1 310 20:58 26.12.2019
5728 Rain 25 1012 94 16093 2.1 310 20:39 26.12.2019
5729 Rain 25 1012 94 16093 2.1 310 20:39 26.12.2019
5730 Rain 25 1012 94 16093 2.1 310 20:21 26.12.2019
5731 Rain 23 1013 100 16093 1.14 207 19:56 26.12.2019
5732 -273 0 0 0 0 0 19:38 26.12.2019
5733 Clouds 23 1012 88 16093 1.5 20 19:19 26.12.2019
5734 Rain 22 1012 100 16093 2.1 310 18:57 26.12.2019
5735 Clouds 22 1011 83 16093 1.14 207 18:36 26.12.2019
5736 Clouds 22 1011 83 16093 1.14 207 18:18 26.12.2019
5737 Clouds 22 1011 83 16093 1.5 120 17:41 26.12.2019
5738 Clouds 22 1011 83 16093 1.5 120 17:41 26.12.2019
5739 Clouds 22 1011 83 16093 1.5 120 17:21 26.12.2019
5740 Clouds 22 1010 88 16093 1.56 217 16:50 26.12.2019
5741 Clouds 22 1010 88 16093 1.56 217 16:27 26.12.2019
5742 Clouds 22 1009 88 16093 1.5 350 15:57 26.12.2019
5743 Clouds 22 1009 88 16093 1.5 350 15:39 26.12.2019
5744 Clouds 22 1009 88 16093 1.5 350 15:19 26.12.2019
5745 Clouds 22 1009 88 16093 1.56 217 14:41 26.12.2019
5746 Clouds 22 1009 88 16093 1.59 206 14:23 26.12.2019
5747 Clouds 22 1009 88 16093 1.59 206 14:23 26.12.2019
5748 Mist 22 1010 100 9656 1.59 206 13:55 26.12.2019
5749 Clouds 22 1010 88 16093 1.26 219 13:36 26.12.2019
5750 Clouds 23 1010 88 16093 1.26 219 13:18 26.12.2019
5751 Clouds 23 1010 88 16093 1.26 219 12:45 26.12.2019
5752 Clouds 23 1010 88 16093 1.26 219 12:25 26.12.2019
5753 Mist 23 1011 100 6437 1.26 219 11:59 26.12.2019
5754 Mist 23 1011 100 6437 1.26 219 11:40 26.12.2019
5755 Clouds 23 1011 88 16093 1.64 210 11:21 26.12.2019
5756 Clouds 23 1011 94 16093 1.64 210 10:50 26.12.2019
5757 Clouds 23 1011 94 16093 2.1 80 10:26 26.12.2019
5758 Clouds 23 1011 94 16093 1.64 210 09:55 26.12.2019
5759 Clouds 24 1011 88 16093 2.6 80 09:33 26.12.2019
5760 Clouds 24 1010 88 16093 2.1 110 08:59 26.12.2019
5761 Clouds 24 1010 88 16093 2.1 110 08:39 26.12.2019
5762 Clouds 24 1010 88 16093 2.1 110 08:20 26.12.2019
5763 Mist 23 1010 94 9656 2.23 213 07:38 26.12.2019
5764 Clouds 23 1010 94 16093 2.23 213 07:19 26.12.2019
5765 Clouds 24 1009 83 16093 2.23 213 06:37 26.12.2019
5766 Clouds 24 1009 83 16093 2.23 213 06:19 26.12.2019
5767 Clouds 24 1009 88 16093 2.1 240 05:40 26.12.2019
5768 Rain 25 1008 88 16093 2.1 160 04:33 26.12.2019
5769 Rain 24 1007 94 16093 3.1 0 03:31 26.12.2019
5770 Rain 24 1007 94 4828 4.1 260 02:46 26.12.2019
5771 Rain 25 1007 83 14484 5.1 180 02:25 26.12.2019
5772 Rain 25 1007 83 14484 5.1 180 02:25 26.12.2019
5773 Rain 25 1006 83 16093 2.1 0 01:44 26.12.2019
5774 Rain 25 1006 83 16093 2.1 0 01:44 26.12.2019
5775 Rain 26 1007 78 8047 2.6 0 01:24 26.12.2019
5776 Rain 26 1008 83 8047 9.3 200 00:43 26.12.2019
5777 Rain 25 1008 94 6437 8.2 190 00:23 26.12.2019
5778 Rain 25 1007 78 3219 6.7 200 23:57 25.12.2019
5779 Rain 25 1006 78 4023 6.7 190 23:36 25.12.2019
5780 Rain 25 1006 78 4023 6.7 190 23:18 25.12.2019
5781 Rain 25 1006 78 9656 7.7 170 22:55 25.12.2019
5782 Rain 25 1006 78 9656 7.7 170 22:55 25.12.2019
5783 Rain 25 1009 88 11265 10.8 160 22:36 25.12.2019
5784 Rain 25 1009 88 11265 10.8 160 22:18 25.12.2019
5785 Rain 25 1010 78 6437 9.3 180 21:40 25.12.2019
5786 Rain 25 1009 69 16093 10.8 160 21:22 25.12.2019
5787 Rain 25 1007 88 4828 8.2 170 20:58 25.12.2019
5788 Rain 25 1007 88 4828 8.2 170 20:40 25.12.2019
5789 Rain 25 1009 74 16093 11.3 160 20:18 25.12.2019
5790 Rain 26 1008 74 16093 9.8 160 19:44 25.12.2019
5791 Rain 26 1008 74 16093 9.8 160 19:25 25.12.2019
5792 Rain 25 1008 94 16093 5.7 160 18:59 25.12.2019
5793 Rain 25 1008 94 16093 5.7 160 18:39 25.12.2019
5794 Rain 25 1007 94 16093 6.2 150 18:20 25.12.2019
5795 Rain 25 1007 69 16093 10.3 150 17:43 25.12.2019
5796 Rain 25 1007 69 16093 10.3 150 17:21 25.12.2019
5797 Clouds 26 1007 74 16093 9.3 150 16:59 25.12.2019
5798 Clouds 26 1007 74 16093 9.3 150 16:39 25.12.2019
5799 Clouds 26 1007 74 16093 9.3 150 16:19 25.12.2019
5800 Rain 25 1008 69 16093 8.2 150 15:57 25.12.2019
5801 Rain 25 1008 69 16093 8.2 150 15:39 25.12.2019
5802 Rain 25 1008 69 16093 8.2 150 15:20 25.12.2019
5803 Clouds 25 1008 94 16093 5.1 150 14:58 25.12.2019
5804 Clouds 25 1008 94 16093 5.1 150 14:39 25.12.2019
5805 Clouds 25 1008 94 16093 5.1 150 14:39 25.12.2019
5806 Clouds 25 1008 94 16093 5.1 150 14:39 25.12.2019
5807 Clouds 25 1008 94 16093 5.1 150 14:39 25.12.2019
5808 Clouds 25 1008 74 16093 8.2 150 14:20 25.12.2019
5809 Clouds 25 1009 88 16093 4.1 170 13:45 25.12.2019
5810 Rain 25 1009 74 16093 7.7 140 13:22 25.12.2019
5811 Rain 25 1010 65 16093 8.2 150 12:58 25.12.2019
5812 Rain 25 1010 65 16093 8.2 150 12:38 25.12.2019
5813 Rain 25 1010 65 16093 8.2 150 12:20 25.12.2019
5814 Rain 25 1010 69 16093 6.2 140 11:43 25.12.2019
5815 Rain 25 1010 69 16093 6.2 140 11:23 25.12.2019
5816 Rain 26 1011 74 16093 4.1 150 10:59 25.12.2019
5817 Rain 25 1011 74 16093 4.1 150 10:37 25.12.2019
5818 Rain 25 1011 74 16093 4.1 150 10:37 25.12.2019
5819 Rain 25 1011 74 16093 4.1 150 10:19 25.12.2019
5820 Clouds 26 1011 69 16093 5.1 140 09:45 25.12.2019
5821 Clouds 26 1011 69 16093 5.1 140 09:27 25.12.2019
5822 Clouds 26 1011 83 16093 4.6 180 08:47 25.12.2019
5823 Clouds 26 1011 69 16093 6.7 160 08:28 25.12.2019
5824 Clouds 26 1011 78 16093 3.6 160 07:48 25.12.2019
5825 Clouds 26 1010 65 16093 5.1 140 07:29 25.12.2019
5826 Clouds 26 1011 65 16093 5.1 140 06:49 25.12.2019
5827 Clouds 26 1011 65 16093 5.1 140 06:22 25.12.2019
5828 Clouds 26 1009 73 16093 4.6 170 04:50 25.12.2019
5829 Rain 27 1009 65 16093 6.2 150 04:26 25.12.2019
5830 Clouds 26 1009 69 16093 5.1 160 03:58 25.12.2019
5831 Clouds 26 1009 69 16093 5.1 160 03:39 25.12.2019
5832 Clouds 27 1009 58 16093 6.2 140 02:32 25.12.2019
5833 Clouds 27 1009 58 16093 5.7 170 01:55 25.12.2019
5834 Clouds 27 1009 58 16093 5.7 170 01:24 25.12.2019
5835 Clouds 28 1009 58 16093 5.7 150 00:48 25.12.2019
5836 Clouds 28 1009 58 16093 5.7 150 00:28 25.12.2019
5837 Clouds 28 1011 51 16093 3.6 150 23:55 24.12.2019
5838 Clouds 28 1011 51 16093 3.6 150 23:36 24.12.2019
5839 Clouds 27 1011 51 16093 3.6 150 23:18 24.12.2019
5840 Clouds 27 1012 54 16093 3.1 90 22:38 24.12.2019
5841 Clouds 27 1012 54 16093 3.1 90 22:20 24.12.2019
5842 Clouds 27 1012 54 16093 3.1 90 22:20 24.12.2019
5843 Clouds 28 1013 54 16093 5.1 110 21:42 24.12.2019
5844 Clouds 27 1013 54 16093 5.1 110 21:22 24.12.2019
5845 Clouds 26 1013 61 16093 3.6 70 20:45 24.12.2019
5846 Clouds 26 1013 61 16093 3.6 70 20:24 24.12.2019
5847 Clouds 26 1012 65 16093 2.6 80 19:57 24.12.2019
5848 Clouds 26 1012 65 16093 2.6 80 19:38 24.12.2019
5849 Clouds 24 1012 65 16093 2.6 80 19:18 24.12.2019
5850 Drizzle 24 1012 94 16093 2.1 180 18:42 24.12.2019
5851 Clouds 24 1012 88 16093 2.1 150 18:19 24.12.2019
5852 Clouds 23 1012 78 16093 3.1 80 17:45 24.12.2019
5853 Clouds 23 1012 78 16093 3.1 80 17:23 24.12.2019
5854 Clouds 22 1011 73 16093 1.33 82 16:59 24.12.2019
5855 Clouds 22 1011 73 16093 1.33 82 16:59 24.12.2019
5856 Clouds 22 1011 73 16093 1.33 82 16:40 24.12.2019
5857 Clouds 22 1011 78 16093 1.33 82 16:22 24.12.2019
5858 Clouds 23 1011 73 16093 2.6 40 15:58 24.12.2019
5859 Clouds 23 1011 73 16093 2.6 40 15:38 24.12.2019
5860 Clouds 23 1011 73 16093 2.6 40 15:20 24.12.2019
5861 Clouds 24 1011 73 16093 2.6 60 14:58 24.12.2019
5862 Clouds 24 1011 73 16093 2.6 60 14:40 24.12.2019
5863 Clouds 23 1011 73 16093 2.6 60 14:22 24.12.2019
5864 Clouds 24 1012 69 16093 2.6 70 13:56 24.12.2019
5865 Clouds 24 1012 69 16093 2.6 70 13:38 24.12.2019
5866 Clouds 24 1012 69 16093 2.6 70 13:20 24.12.2019
5867 Rain 24 1012 69 16093 2.6 30 12:57 24.12.2019
5868 Rain 24 1012 69 16093 2.6 30 12:38 24.12.2019
5869 Rain 24 1012 69 16093 2.6 30 12:19 24.12.2019
5870 Rain 25 1013 65 16093 3.1 70 11:57 24.12.2019
5871 Rain 25 1013 65 16093 3.1 70 11:37 24.12.2019
5872 Rain 25 1013 65 16093 3.1 70 11:19 24.12.2019
5873 Rain 24 1013 65 16093 3.6 80 10:56 24.12.2019
5874 Rain 24 1013 65 16093 3.6 80 10:38 24.12.2019
5875 Rain 24 1013 65 16093 3.6 80 10:19 24.12.2019
5876 Rain 24 1013 65 16093 3.6 80 10:19 24.12.2019
5877 Clouds 25 1013 65 16093 3.6 80 09:55 24.12.2019
5878 Clouds 25 1013 65 16093 3.6 80 09:37 24.12.2019
5879 Clouds 25 1013 65 16093 3.6 80 09:19 24.12.2019
5880 Clouds 25 1013 65 16093 2.6 90 08:46 24.12.2019
5881 Clouds 25 1013 65 16093 2.6 90 08:24 24.12.2019
5882 Clouds 25 1013 65 16093 2.1 80 07:46 24.12.2019
5883 Clouds 25 1013 65 16093 2.1 80 07:28 24.12.2019
5884 Clouds 25 1013 69 16093 4.1 90 06:59 24.12.2019
5885 Clouds 25 1013 69 16093 4.1 90 06:39 24.12.2019
5886 Clouds 25 1013 69 16093 4.1 90 06:19 24.12.2019
5887 Rain 26 1012 61 16093 4.1 70 05:46 24.12.2019
5888 Rain 26 1012 61 16093 4.1 70 05:18 24.12.2019
5889 Rain 26 1011 51 16093 5.1 30 03:55 24.12.2019
5890 Rain 26 1011 51 16093 5.1 30 03:25 24.12.2019
5891 Rain 27 1011 54 16093 2.6 150 02:25 24.12.2019
5892 Clouds 27 1012 51 16093 3.6 170 01:52 24.12.2019
5893 Clouds 27 1012 51 16093 3.6 170 01:23 24.12.2019
5894 Clouds 27 1012 51 16093 3.6 180 00:47 24.12.2019
5895 Clouds 27 1012 51 16093 3.6 180 00:26 24.12.2019
5896 Clouds 27 1013 54 16093 3.1 180 23:59 23.12.2019
5897 Clouds 27 1013 54 16093 3.1 180 23:59 23.12.2019
5898 Clouds 27 1013 54 16093 3.1 180 23:41 23.12.2019
5899 Clouds 27 1013 54 16093 3.1 180 23:23 23.12.2019
5900 Clouds 27 1014 73 16093 3.1 50 22:56 23.12.2019
5901 Clouds 27 1014 73 16093 3.1 50 22:56 23.12.2019
5902 Clouds 27 1014 73 16093 2.1 50 22:37 23.12.2019
5903 Clouds 27 1014 73 16093 3.1 50 22:37 23.12.2019
5904 Clouds 27 1014 73 16093 2.1 50 22:19 23.12.2019
5905 Clouds 26 1014 74 16093 5.1 90 21:55 23.12.2019
5906 Clouds 27 1014 74 16093 5.1 90 21:36 23.12.2019
5907 Clouds 26 1014 74 16093 5.1 90 21:18 23.12.2019
5908 Drizzle 25 1015 88 16093 1.5 109 20:57 23.12.2019
5909 Drizzle 25 1015 88 16093 1.5 109 20:39 23.12.2019
5910 Rain 24 1014 73 16093 2.1 300 20:18 23.12.2019
5911 Clouds 23 1014 78 16093 1.5 0 19:55 23.12.2019
5912 Clouds 23 1014 78 16093 1.5 0 19:37 23.12.2019
5913 Clouds 23 1014 78 16093 1.5 0 19:19 23.12.2019
5914 Clouds 22 1013 83 16093 1.16 62 18:55 23.12.2019
5915 Clouds 22 1013 83 16093 1.16 62 18:37 23.12.2019
5916 Clouds 22 1013 83 16093 1.16 62 18:19 23.12.2019
5917 Clouds 22 1013 83 16093 1.5 280 17:55 23.12.2019
5918 Clouds 21 1013 83 16093 1.5 280 17:37 23.12.2019
5919 Clouds 21 1013 83 16093 1.5 280 17:18 23.12.2019
5920 Clouds 22 1013 78 16093 2.1 340 16:42 23.12.2019
5921 Clouds 22 1013 78 16093 2.1 340 16:19 23.12.2019
5922 Clouds 22 1013 78 16093 1.5 320 15:59 23.12.2019
5923 Clouds 22 1013 78 16093 1.5 320 15:38 23.12.2019
5924 Clouds 22 1013 78 16093 1.5 320 15:20 23.12.2019
5925 Clouds 22 1013 78 16093 2.6 360 14:59 23.12.2019
5926 Clouds 22 1013 78 16093 2.6 360 14:39 23.12.2019
5927 Clouds 22 1013 78 16093 2.6 360 14:39 23.12.2019
5928 Clouds 22 1013 78 16093 2.6 360 14:21 23.12.2019
5929 Clouds 22 1014 78 16093 0.73 234 13:58 23.12.2019
5930 Clouds 22 1014 78 16093 0.73 234 13:40 23.12.2019
5931 Clouds 22 1014 78 16093 0.57 25 13:22 23.12.2019
5932 Clouds 23 1014 73 16093 1.5 100 12:56 23.12.2019
5933 Clouds 23 1014 73 16093 1.5 100 12:37 23.12.2019
5934 Clouds 23 1014 73 16093 1.5 100 12:19 23.12.2019
5935 Clouds 23 1014 69 16093 5.1 60 11:44 23.12.2019
5936 Clouds 23 1014 69 16093 5.1 60 11:25 23.12.2019
5937 Clouds 24 1015 88 16093 2.1 130 10:57 23.12.2019
5938 Clouds 24 1015 88 16093 2.1 130 10:39 23.12.2019
5939 Clouds 24 1015 69 16093 3.1 90 10:20 23.12.2019
5940 Clouds 24 1014 69 16093 4.6 70 09:59 23.12.2019
5941 Clouds 24 1014 69 16093 4.6 70 09:39 23.12.2019
5942 Clouds 24 1014 69 16093 4.6 70 09:20 23.12.2019
5943 Clouds 24 1015 73 16093 5.1 90 08:55 23.12.2019
5944 Clouds 24 1015 73 16093 5.1 90 08:37 23.12.2019
5945 Clear 24 1015 69 16093 5.1 70 08:18 23.12.2019
5946 Clouds 24 1015 69 16093 2.6 40 07:43 23.12.2019
5947 Clouds 24 1015 69 16093 2.6 40 07:20 23.12.2019
5948 Clouds 24 1015 69 16093 5.1 80 06:50 23.12.2019
5949 Clouds 24 1015 69 16093 5.1 80 06:23 23.12.2019
5950 Clouds 24 1014 61 16093 3.6 90 05:49 23.12.2019
5951 Clouds 24 1014 61 16093 3.6 90 05:19 23.12.2019
5952 Clouds 24 1013 61 16093 7.7 80 04:19 23.12.2019
5953 Clouds 25 1014 57 16093 7.2 60 02:49 23.12.2019
5954 Clouds 24 1014 57 16093 7.2 60 02:25 23.12.2019
5955 Clouds 25 1015 73 16093 2.6 130 01:53 23.12.2019
5956 Clouds 25 1015 57 16093 7.7 90 01:32 23.12.2019
5957 Clouds 25 1015 69 16093 3.6 100 00:55 23.12.2019
5958 Clouds 26 1015 57 16093 8.7 60 00:35 23.12.2019
5959 Clouds 25 1017 57 16093 8.7 70 23:57 22.12.2019
5960 Clouds 25 1017 57 16093 8.7 70 23:57 22.12.2019
5961 Clouds 25 1017 57 16093 8.7 70 23:39 22.12.2019
5962 Clouds 25 1017 57 16093 8.7 70 23:20 22.12.2019
5963 Clouds 25 1017 73 16093 6.7 90 22:57 22.12.2019
5964 Clouds 25 1017 73 16093 6.7 90 22:38 22.12.2019
5965 Clouds 25 1017 73 16093 6.7 90 22:38 22.12.2019
5966 Clouds 25 1017 61 16093 6.7 60 22:19 22.12.2019
5967 Clouds 25 1018 61 16093 5.1 60 21:56 22.12.2019
5968 Clouds 24 1018 73 16093 2.6 100 21:38 22.12.2019
5969 Clouds 24 1018 73 16093 2.6 100 21:38 22.12.2019
5970 Clouds 25 1018 61 16093 5.1 60 21:20 22.12.2019
5971 Clouds 24 1018 64 16093 7.7 70 20:43 22.12.2019
5972 Clouds 24 1018 64 16093 7.7 70 20:20 22.12.2019
5973 Clouds 24 1018 64 16093 7.7 70 20:20 22.12.2019
5974 Clouds 24 1017 60 16093 8.7 80 19:58 22.12.2019
5975 Clouds 24 1017 60 16093 8.7 80 19:40 22.12.2019
5976 Clouds 24 1017 60 16093 8.7 80 19:20 22.12.2019
5977 Clouds 24 1016 64 16093 6.7 70 18:58 22.12.2019
5978 Clouds 24 1016 64 16093 6.7 70 18:38 22.12.2019
5979 Clouds 24 1016 64 16093 6.7 70 18:19 22.12.2019
5980 Clouds 24 1016 64 16093 7.2 70 17:55 22.12.2019
5981 Clouds 24 1016 64 16093 7.2 70 17:36 22.12.2019
5982 Clouds 24 1016 64 16093 7.2 70 17:18 22.12.2019
5983 Clouds 24 1016 64 16093 7.7 60 16:42 22.12.2019
5984 Clouds 24 1016 64 16093 7.7 60 16:42 22.12.2019
5985 Clouds 24 1016 64 16093 7.7 60 16:23 22.12.2019
5986 Clouds 24 1017 64 16093 8.2 50 15:57 22.12.2019
5987 Clouds 24 1017 64 16093 8.2 50 15:39 22.12.2019
5988 Clouds 24 1017 64 16093 8.2 50 15:21 22.12.2019
5989 Clouds 24 1016 64 16093 7.2 60 14:56 22.12.2019
5990 Clouds 24 1016 64 16093 7.2 60 14:38 22.12.2019
5991 Clouds 24 1016 64 16093 7.2 60 14:19 22.12.2019
5992 Clouds 24 1016 64 16093 7.2 60 14:19 22.12.2019
5993 Clouds 24 1016 60 16093 8.7 60 13:56 22.12.2019
5994 Clouds 24 1016 60 16093 8.7 60 13:38 22.12.2019
5995 Clouds 23 1016 60 16093 8.7 60 13:19 22.12.2019
5996 Clouds 23 1016 60 16093 8.7 60 13:19 22.12.2019
5997 Clouds 23 1017 60 16093 7.2 70 12:56 22.12.2019
5998 Clouds 24 1017 60 16093 7.2 70 12:38 22.12.2019
5999 Clouds 24 1017 60 16093 7.2 70 12:19 22.12.2019
6000 Clouds 23 1018 60 16093 8.7 50 11:56 22.12.2019
6001 Clouds 23 1018 60 16093 8.7 50 11:56 22.12.2019
6002 Clouds 23 1018 60 16093 8.7 50 11:38 22.12.2019
6003 Clouds 24 1018 60 16093 8.7 50 11:19 22.12.2019
6004 Clouds 24 1018 60 16093 9.3 50 10:55 22.12.2019
6005 Clouds 24 1018 60 16093 9.3 50 10:37 22.12.2019
6006 Clouds 24 1018 60 16093 9.3 50 10:18 22.12.2019
6007 Clouds 24 1018 60 16093 9.8 70 09:57 22.12.2019
6008 Clouds 24 1018 60 16093 9.8 70 09:38 22.12.2019
6009 Clouds 24 1018 60 16093 9.8 70 09:20 22.12.2019
6010 Clouds 24 1018 60 16093 8.7 60 08:42 22.12.2019
6011 Clouds 24 1018 60 16093 8.7 60 08:22 22.12.2019
6012 Clouds 24 1018 60 16093 8.2 60 07:42 22.12.2019
6013 Clouds 24 1018 60 16093 8.2 60 07:21 22.12.2019
6014 Clouds 24 1017 64 16093 7.2 70 06:52 22.12.2019
6015 Clouds 24 1017 64 16093 7.2 70 06:22 22.12.2019
6016 Clouds 23 1017 69 16093 10.8 70 05:29 22.12.2019
6017 Clouds 24 1017 83 16093 3.6 150 04:45 22.12.2019
6018 Rain 24 1017 78 11265 6.2 70 04:22 22.12.2019
6019 Rain 25 1016 57 16093 8.2 60 02:43 22.12.2019
6020 Rain 25 1016 57 16093 8.2 60 02:43 22.12.2019
6021 Rain 25 1016 57 16093 8.2 60 02:43 22.12.2019
6022 Rain 25 1016 54 16093 7.7 60 01:57 22.12.2019
6023 Rain 25 1016 54 16093 7.7 60 01:31 22.12.2019
6024 Clouds 25 1017 83 16093 3.1 80 00:48 22.12.2019
6025 Rain 25 1017 57 16093 9.8 70 00:26 22.12.2019
6026 Rain 25 1018 65 16093 10.3 70 23:57 21.12.2019
6027 Rain 24 1018 65 16093 10.3 70 23:38 21.12.2019
6028 Rain 24 1018 65 16093 10.3 70 23:19 21.12.2019
6029 Rain 24 1019 65 16093 10.8 60 22:45 21.12.2019
6030 Rain 24 1019 65 16093 10.8 60 22:20 21.12.2019
6031 Clouds 24 1019 73 16093 9.8 70 21:57 21.12.2019
6032 Clouds 24 1019 73 16093 9.8 70 21:38 21.12.2019
6033 Rain 23 1019 69 11265 9.3 70 21:20 21.12.2019
6034 Clouds 23 1019 69 16093 9.3 60 20:59 21.12.2019
6035 Clouds 22 1019 69 16093 9.3 60 20:39 21.12.2019
6036 Rain 23 1019 73 11265 8.2 60 20:21 21.12.2019
6037 Drizzle 22 1019 94 16093 9.38 72 19:58 21.12.2019
6038 Drizzle 22 1019 94 16093 9.38 72 19:40 21.12.2019
6039 Drizzle 22 1019 94 16093 9.38 72 19:40 21.12.2019
6040 Rain 23 1018 73 11265 5.7 50 19:19 21.12.2019
6041 Rain 23 1018 73 11265 5.7 50 19:19 21.12.2019
6042 Rain 22 1017 78 16093 8.2 60 18:45 21.12.2019
6043 Rain 23 1017 78 16093 8.2 60 18:24 21.12.2019
6044 Clouds 23 1017 73 16093 8.2 70 17:58 21.12.2019
6045 Clouds 23 1017 73 16093 8.2 70 17:39 21.12.2019
6046 Clouds 23 1017 78 16093 8.2 60 17:21 21.12.2019
6047 Clouds 22 1017 78 16093 8.7 70 16:59 21.12.2019
6048 Clouds 22 1017 78 16093 8.7 70 16:41 21.12.2019
6049 Clouds 22 1016 78 16093 9.3 60 16:19 21.12.2019
6050 Rain 22 1017 94 16093 6.7 90 15:57 21.12.2019
6051 Rain 22 1017 94 16093 6.7 90 15:38 21.12.2019
6052 Rain 22 1017 78 16093 8.7 60 15:19 21.12.2019
6053 Clouds 22 1018 94 16093 3.6 100 14:56 21.12.2019
6054 Clouds 22 1018 94 16093 3.6 100 14:56 21.12.2019
6055 Clouds 22 1018 94 16093 3.6 100 14:37 21.12.2019
6056 Clouds 23 1017 78 16093 5.7 40 14:18 21.12.2019
6057 Clouds 22 1017 78 16093 8.7 60 13:55 21.12.2019
6058 Clouds 22 1017 78 16093 8.7 60 13:37 21.12.2019
6059 Clouds 22 1017 83 16093 7.2 60 13:18 21.12.2019
6060 Rain 23 1018 78 16093 9.8 70 12:54 21.12.2019
6061 Rain 23 1018 78 16093 9.3 60 12:36 21.12.2019
6062 Rain 23 1018 78 16093 9.3 60 12:18 21.12.2019
6063 Clouds 23 1018 78 16093 8.2 70 11:41 21.12.2019
6064 Drizzle 22 1018 100 16093 2.1 60 11:23 21.12.2019
6065 Drizzle 22 1019 100 16093 8.77 76 10:54 21.12.2019
6066 Rain 22 1018 83 14484 9.8 60 10:36 21.12.2019
6067 Rain 22 1018 83 14484 9.8 60 10:18 21.12.2019
6068 Drizzle 22 1019 100 14484 8.77 76 09:42 21.12.2019
6069 Rain 22 1018 83 16093 7.7 60 09:20 21.12.2019
6070 Rain 22 1019 88 9656 7.2 80 08:56 21.12.2019
6071 Rain 23 1018 88 11265 8.2 60 08:37 21.12.2019
6072 Rain 23 1018 88 11265 8.2 60 08:18 21.12.2019
6073 Rain 22 1018 100 6437 6.2 80 07:41 21.12.2019
6074 Rain 22 1018 83 12874 10.8 60 07:21 21.12.2019
6075 Rain 23 1018 94 6437 4.1 70 06:43 21.12.2019
6076 Clouds 24 1017 69 16093 7.7 50 06:25 21.12.2019
6077 Haze 24 1017 78 8047 8.2 60 05:47 21.12.2019
6078 Rain 24 1016 94 4828 4.1 50 04:57 21.12.2019
6079 Drizzle 26 1015 69 16093 5.1 90 03:56 21.12.2019
6080 Clouds 26 1014 48 16093 9.8 80 02:40 21.12.2019
6081 Clouds 26 1015 61 16093 6.2 120 01:55 21.12.2019
6082 Clouds 26 1015 51 16093 8.7 50 01:27 21.12.2019
6083 Clouds 26 1016 51 16093 8.7 70 00:51 21.12.2019
6084 Clouds 26 1016 51 16093 8.7 70 00:31 21.12.2019
6085 Clouds 26 1017 78 16093 5.7 90 23:55 20.12.2019
6086 Clouds 26 1017 48 16093 8.7 60 23:37 20.12.2019
6087 Clouds 27 1017 48 16093 8.7 60 23:18 20.12.2019
6088 Clouds 26 1017 78 16093 3.6 70 22:40 20.12.2019
6089 Clouds 27 1017 65 16093 7.7 80 22:21 20.12.2019
6090 Clouds 25 1017 65 16093 5.7 80 21:57 20.12.2019
6091 Clouds 25 1017 65 16093 5.7 80 21:39 20.12.2019
6092 Clouds 25 1017 65 16093 5.7 80 21:39 20.12.2019
6093 Clouds 25 1017 65 16093 6.2 70 21:18 20.12.2019
6094 Clouds 25 1018 78 16093 4.6 90 20:39 20.12.2019
6095 Clouds 25 1017 61 16093 7.2 100 20:19 20.12.2019
6096 Clouds 24 1017 83 16093 3.1 90 19:57 20.12.2019
6097 Clouds 24 1017 83 16093 3.1 90 19:39 20.12.2019
6098 Rain 24 1016 65 16093 4.1 90 19:19 20.12.2019
6099 Clouds 23 1016 69 16093 5.1 100 18:42 20.12.2019
6100 Clouds 23 1016 69 16093 5.1 100 18:42 20.12.2019
6101 Clouds 23 1016 69 16093 5.1 100 18:23 20.12.2019
6102 Clouds 23 1015 69 16093 2.6 70 17:58 20.12.2019
6103 Clouds 23 1015 69 16093 2.6 70 17:40 20.12.2019
6104 Clouds 23 1015 69 16093 2.6 70 17:20 20.12.2019
6105 Clouds 23 1015 69 16093 3.1 60 16:57 20.12.2019
6106 Clouds 23 1015 69 16093 3.1 60 16:38 20.12.2019
6107 Clouds 24 1015 69 16093 3.1 60 16:19 20.12.2019
6108 Rain 23 1015 73 16093 5.1 60 15:55 20.12.2019
6109 Rain 23 1015 73 16093 5.1 60 15:37 20.12.2019
6110 Rain 23 1015 73 16093 5.1 60 15:37 20.12.2019
6111 Rain 23 1015 73 16093 5.1 60 15:19 20.12.2019
6112 Clouds 23 1016 69 16093 5.1 60 14:42 20.12.2019
6113 Drizzle 23 1016 100 16093 1.5 250 14:24 20.12.2019
6114 Rain 22 1016 88 16093 1.5 330 13:57 20.12.2019
6115 Rain 22 1016 88 16093 1.5 330 13:37 20.12.2019
6116 Rain 23 1016 88 16093 1.5 330 13:19 20.12.2019
6117 Rain 23 1016 88 16093 4.1 80 12:55 20.12.2019
6118 Rain 23 1016 88 4828 4.6 120 12:36 20.12.2019
6119 Rain 23 1016 88 4828 4.6 120 12:36 20.12.2019
6120 Rain 23 1016 88 4828 4.6 120 12:18 20.12.2019
6121 Clouds 23 1017 88 16093 3.6 360 11:57 20.12.2019
6122 Clouds 23 1016 69 16093 5.7 50 11:38 20.12.2019
6123 Clouds 23 1016 69 16093 5.7 50 11:18 20.12.2019
6124 Clouds 24 1016 64 16093 5.7 40 10:55 20.12.2019
6125 Clouds 24 1016 64 16093 5.7 40 10:37 20.12.2019
6126 Clouds 24 1016 64 16093 5.7 40 10:19 20.12.2019
6127 Clouds 24 1016 65 16093 6.2 60 09:42 20.12.2019
6128 Clouds 24 1016 65 16093 6.2 60 09:21 20.12.2019
6129 Clouds 25 1016 65 16093 3.6 20 08:54 20.12.2019
6130 Clouds 25 1016 65 16093 3.6 20 08:54 20.12.2019
6131 Clouds 25 1016 65 16093 3.6 20 08:36 20.12.2019
6132 Clouds 25 1016 65 16093 3.6 20 08:18 20.12.2019
6133 Clouds 25 1016 61 16093 3.6 70 07:42 20.12.2019
6134 Clouds 25 1016 61 16093 3.6 70 07:23 20.12.2019
6135 Clouds 25 1015 61 16093 3.6 50 06:55 20.12.2019
6136 Clouds 25 1015 61 16093 3.6 50 06:36 20.12.2019
6137 Clouds 25 1015 61 16093 3.6 50 06:18 20.12.2019
6138 Clouds 25 1015 57 16093 4.1 20 05:45 20.12.2019
6139 Clouds 26 1014 51 16093 6.2 40 04:57 20.12.2019
6140 Clouds 27 1014 51 16093 7.2 40 03:48 20.12.2019
6141 Clouds 27 1013 48 16093 7.7 50 02:45 20.12.2019
6142 Clouds 27 1014 48 16093 7.7 30 01:55 20.12.2019
6143 Clouds 27 1014 48 16093 7.7 30 01:35 20.12.2019
6144 Clear 28 1014 57 16093 8.2 90 00:53 20.12.2019
6145 Clouds 28 1014 42 16093 8.2 30 00:34 20.12.2019
6146 Clouds 28 1016 42 16093 6.7 40 23:57 19.12.2019
6147 Clouds 28 1016 42 16093 6.7 40 23:38 19.12.2019
6148 Clouds 28 1016 42 16093 6.7 40 23:19 19.12.2019
6149 Clouds 27 1016 48 16093 6.7 80 22:38 19.12.2019
6150 Clouds 27 1016 48 16093 6.7 80 22:20 19.12.2019
6151 Clouds 26 1017 65 16093 4.52 73 21:56 19.12.2019
6152 Clouds 27 1017 54 16093 6.2 80 21:38 19.12.2019
6153 Clouds 27 1017 54 16093 6.2 80 21:19 19.12.2019
6154 Clouds 25 1017 61 16093 2.1 20 20:56 19.12.2019
6155 Clouds 25 1017 61 16093 2.1 20 20:37 19.12.2019
6156 Clouds 25 1017 61 16093 2.1 20 20:18 19.12.2019
6157 Clouds 23 1016 73 16093 1.5 340 19:57 19.12.2019
6158 Clouds 23 1016 73 16093 1.5 340 19:57 19.12.2019
6159 Clouds 23 1016 73 16093 1.5 340 19:39 19.12.2019
6160 Clouds 23 1016 73 16093 1.5 340 19:39 19.12.2019
6161 Clouds 22 1016 73 16093 1.5 340 19:19 19.12.2019
6162 Clouds 21 1016 77 16093 3.27 62 18:41 19.12.2019
6163 Clouds 21 1016 77 16093 3.27 62 18:23 19.12.2019
6164 Clouds 21 1016 73 16093 1.5 290 17:58 19.12.2019
6165 Clouds 22 1016 73 16093 1.5 290 17:39 19.12.2019
6166 Clouds 22 1016 73 16093 1.5 290 17:19 19.12.2019
6167 Clouds 22 1015 78 16093 1.5 330 16:58 19.12.2019
6168 Clouds 22 1015 78 16093 1.5 330 16:40 19.12.2019
6169 Clouds 23 1015 78 16093 1.5 330 16:22 19.12.2019
6170 Clouds 23 1015 73 16093 3.1 60 15:59 19.12.2019
6171 Clouds 23 1015 73 16093 3.1 60 15:39 19.12.2019
6172 Clouds 23 1015 73 16093 3.1 60 15:20 19.12.2019
6173 Clouds 23 1015 73 16093 3.1 60 15:20 19.12.2019
6174 Clear 23 1015 69 16093 3.6 50 14:59 19.12.2019
6175 Clear 23 1015 69 16093 3.6 50 14:40 19.12.2019
6176 Clear 23 1015 69 16093 3.6 50 14:19 19.12.2019
6177 Clouds 23 1015 73 16093 4.1 80 13:56 19.12.2019
6178 Clouds 23 1015 73 16093 4.1 80 13:37 19.12.2019
6179 Clouds 23 1015 73 16093 4.1 80 13:18 19.12.2019
6180 Clouds 23 1016 64 16093 2.1 20 12:54 19.12.2019
6181 Clouds 23 1016 64 16093 2.1 20 12:36 19.12.2019
6182 Clouds 23 1016 64 16093 2.1 20 12:18 19.12.2019
6183 Clouds 23 1016 64 16093 2.1 20 12:18 19.12.2019
6184 Clouds 23 1016 88 16093 1.5 310 11:42 19.12.2019
6185 Clouds 23 1016 88 16093 1.5 310 11:20 19.12.2019
6186 Clouds 23 1016 88 16093 1.5 310 11:20 19.12.2019
6187 Clouds 24 1016 65 16093 4.1 50 10:59 19.12.2019
6188 Clouds 24 1016 65 16093 4.1 50 10:39 19.12.2019
6189 Clouds 24 1016 65 16093 4.1 50 10:20 19.12.2019
6190 Clouds 24 1017 83 16093 1.5 310 09:57 19.12.2019
6191 Clouds 24 1016 65 16093 6.7 70 09:38 19.12.2019
6192 Clouds 24 1016 65 16093 6.7 70 09:20 19.12.2019
6193 Rain 24 1016 88 16093 1.5 190 08:55 19.12.2019
6194 Rain 24 1016 69 16093 3.6 60 08:37 19.12.2019
6195 Rain 25 1016 69 16093 3.6 60 08:18 19.12.2019
6196 Clouds 25 1016 65 16093 6.2 50 07:54 19.12.2019
6197 Clouds 25 1016 65 16093 6.2 50 07:36 19.12.2019
6198 Clouds 25 1016 65 16093 6.2 50 07:18 19.12.2019
6199 Clouds 25 1015 65 16093 5.7 50 06:42 19.12.2019
6200 Clouds 25 1015 65 16093 5.7 50 06:23 19.12.2019
6201 Rain 25 1015 65 16093 6.7 70 05:45 19.12.2019
6202 Rain 25 1015 65 16093 6.7 70 05:20 19.12.2019
6203 Clouds 27 1015 78 16093 1.5 90 03:54 19.12.2019
6204 Clouds 27 1014 54 16093 6.7 70 02:29 19.12.2019
6205 Clouds 28 1015 51 16093 7.2 60 01:26 19.12.2019
6206 Clouds 27 1015 51 16093 8.2 50 00:58 19.12.2019
6207 Clouds 28 1015 51 16093 8.2 50 00:39 19.12.2019
6208 Clouds 28 1015 51 16093 8.2 50 00:19 19.12.2019
6209 Clouds 27 1016 54 16093 7.7 50 23:44 18.12.2019
6210 Clouds 27 1016 54 16093 7.7 50 23:19 18.12.2019
6211 Clouds 27 1017 54 16093 7.7 60 22:57 18.12.2019
6212 Clouds 27 1017 54 16093 7.7 60 22:38 18.12.2019
6213 Clouds 27 1018 57 16093 6.7 60 22:20 18.12.2019
6214 Clouds 27 1018 57 16093 6.7 60 21:58 18.12.2019
6215 Clouds 27 1018 57 16093 6.7 60 21:39 18.12.2019
6216 Clouds 27 1018 57 16093 6.7 60 21:20 18.12.2019
6217 Clouds 27 1018 57 16093 8.2 80 20:57 18.12.2019
6218 Clouds 27 1018 57 16093 8.2 80 20:38 18.12.2019
6219 Clouds 27 1018 57 16093 8.2 80 20:19 18.12.2019
6220 Clouds 26 1017 61 16093 5.7 80 19:56 18.12.2019
6221 Clouds 25 1017 61 16093 5.7 80 19:38 18.12.2019
6222 Clouds 25 1017 61 16093 5.7 80 19:18 18.12.2019
6223 Clouds 25 1017 69 16093 8.2 60 18:45 18.12.2019
6224 Clouds 25 1017 69 16093 8.2 60 18:45 18.12.2019
6225 Clouds 25 1017 69 16093 8.2 60 18:26 18.12.2019
6226 Clouds 25 1017 69 16093 5.7 80 17:58 18.12.2019
6227 Clouds 24 1017 65 16093 5.7 60 17:40 18.12.2019
6228 Clouds 25 1017 65 16093 5.7 60 17:20 18.12.2019
6229 Clouds 25 1016 65 16093 3.6 90 16:58 18.12.2019
6230 Clouds 25 1016 65 16093 3.6 90 16:40 18.12.2019
6231 Clouds 25 1016 65 16093 3.6 90 16:40 18.12.2019
6232 Clouds 25 1016 65 16093 3.6 90 16:21 18.12.2019
6233 Clouds 25 1017 65 16093 5.1 70 15:56 18.12.2019
6234 Clouds 25 1017 65 16093 5.1 70 15:38 18.12.2019
6235 Clouds 25 1017 65 16093 5.1 70 15:20 18.12.2019
6236 Clouds 25 1016 65 16093 5.1 80 14:43 18.12.2019
6237 Clouds 25 1018 88 16093 1.5 170 14:22 18.12.2019
6238 Clouds 25 1017 78 16093 3.6 90 13:58 18.12.2019
6239 Rain 25 1017 69 16093 3.6 70 13:39 18.12.2019
6240 Rain 25 1017 69 16093 3.6 70 13:21 18.12.2019
6241 Clouds 25 1018 88 16093 2.6 90 12:59 18.12.2019
6242 Clouds 25 1018 88 16093 2.6 90 12:39 18.12.2019
6243 Rain 25 1018 69 16093 5.1 60 12:20 18.12.2019
6244 Clouds 26 1017 65 16093 5.7 70 11:56 18.12.2019
6245 Rain 26 1018 65 16093 5.1 60 11:38 18.12.2019
6246 Rain 26 1018 65 16093 5.1 60 11:38 18.12.2019
6247 Rain 26 1018 65 16093 5.1 60 11:19 18.12.2019
6248 Clouds 26 1018 65 16093 5.1 60 10:57 18.12.2019
6249 Clouds 26 1018 65 16093 5.1 60 10:39 18.12.2019
6250 Clouds 26 1018 65 16093 5.1 60 10:20 18.12.2019
6251 Clouds 26 1018 69 16093 5.7 80 09:52 18.12.2019
6252 Clouds 26 1018 61 16093 5.7 80 09:19 18.12.2019
6253 Clouds 26 1018 65 16093 6.7 60 08:41 18.12.2019
6254 Clouds 26 1018 65 16093 6.7 60 08:41 18.12.2019
6255 Clouds 26 1018 65 16093 6.7 60 08:23 18.12.2019
6256 Clouds 26 1018 65 16093 8.2 60 07:55 18.12.2019
6257 Clouds 26 1018 65 16093 8.2 60 07:36 18.12.2019
6258 Clouds 26 1018 65 16093 8.2 60 07:18 18.12.2019
6259 Rain 26 1017 65 16093 6.2 50 06:49 18.12.2019
6260 Rain 25 1017 65 16093 6.2 50 06:22 18.12.2019
6261 Clouds 26 1017 65 16093 8.7 50 05:22 18.12.2019
6262 Rain 26 1016 61 16093 6.2 70 03:31 18.12.2019
6263 Rain 27 1016 61 16093 8.2 50 02:38 18.12.2019
6264 Rain 27 1016 61 16093 8.2 50 02:20 18.12.2019
6265 Clouds 27 1017 74 16093 4.6 60 01:42 18.12.2019
6266 Clouds 27 1016 58 16093 7.2 70 01:22 18.12.2019
6267 Clouds 27 1016 58 16093 7.2 70 01:22 18.12.2019
6268 Clouds 28 1017 69 16093 6.7 70 00:41 18.12.2019
6269 Clouds 28 1017 74 16093 6.2 80 00:23 18.12.2019
6270 Clouds 27 1018 69 16093 5.1 70 23:57 17.12.2019
6271 Clouds 27 1018 51 16093 7.2 80 23:38 17.12.2019
6272 Clouds 27 1018 51 16093 7.2 80 23:19 17.12.2019
6273 Clouds 27 1019 54 16093 9.3 50 22:56 17.12.2019
6274 Clouds 27 1019 54 16093 9.3 50 22:38 17.12.2019
6275 Clouds 27 1019 54 16093 9.3 50 22:19 17.12.2019
6276 Clouds 26 1019 57 16093 6.7 50 21:55 17.12.2019
6277 Clouds 26 1019 57 16093 6.7 50 21:37 17.12.2019
6278 Clouds 26 1019 57 16093 6.7 50 21:37 17.12.2019
6279 Clouds 27 1019 57 16093 6.7 50 21:19 17.12.2019
6280 Clouds 27 1019 57 16093 9.3 70 20:56 17.12.2019
6281 Clouds 27 1019 57 16093 9.3 70 20:38 17.12.2019
6282 Clouds 26 1019 57 16093 9.3 70 20:18 17.12.2019
6283 Clouds 26 1019 61 16093 7.7 50 19:55 17.12.2019
6284 Clouds 26 1019 61 16093 7.7 50 19:37 17.12.2019
6285 Clouds 25 1019 61 16093 7.7 50 19:18 17.12.2019
6286 Clouds 25 1018 69 16093 6.2 50 18:42 17.12.2019
6287 Clouds 25 1018 69 16093 6.2 50 18:42 17.12.2019
6288 Clouds 25 1018 69 16093 6.2 50 18:22 17.12.2019
6289 Clouds 25 1018 69 16093 8.2 80 17:59 17.12.2019
6290 Clouds 25 1018 69 16093 8.2 80 17:59 17.12.2019
6291 Rain 25 1017 69 16093 5.7 50 17:41 17.12.2019
6292 Rain 25 1017 69 16093 5.7 50 17:19 17.12.2019
6293 Clouds 24 1018 88 16093 5.7 80 16:56 17.12.2019
6294 Rain 24 1017 69 16093 5.1 70 16:37 17.12.2019
6295 Rain 24 1017 69 16093 5.1 70 16:37 17.12.2019
6296 Rain 25 1017 69 16093 5.1 70 16:19 17.12.2019
6297 Clouds 25 1017 65 16093 7.2 70 15:56 17.12.2019
6298 Clouds 25 1017 65 16093 7.2 70 15:37 17.12.2019
6299 Clouds 25 1017 65 16093 7.2 70 15:37 17.12.2019
6300 Clouds 25 1017 65 16093 7.2 70 15:19 17.12.2019
6301 Clouds 25 1017 65 16093 7.2 70 15:19 17.12.2019
6302 Clouds 25 1017 73 16093 8.2 80 14:55 17.12.2019
6303 Clouds 25 1017 73 16093 8.2 80 14:36 17.12.2019
6304 Clouds 25 1017 73 16093 6.7 70 14:18 17.12.2019
6305 Clouds 25 1017 73 16093 5.7 80 13:55 17.12.2019
6306 Clouds 25 1017 73 16093 5.7 80 13:55 17.12.2019
6307 Clouds 25 1017 73 16093 5.7 80 13:37 17.12.2019
6308 Clouds 25 1017 73 16093 5.7 80 13:18 17.12.2019
6309 Clouds 25 1018 69 16093 7.7 90 12:41 17.12.2019
6310 Clouds 25 1018 61 16093 7.7 70 12:19 17.12.2019
6311 Clouds 25 1018 61 16093 7.7 70 12:19 17.12.2019
6312 Clouds 25 1018 61 16093 6.2 90 11:59 17.12.2019
6313 Clouds 25 1018 61 16093 6.2 90 11:37 17.12.2019
6314 Clouds 25 1018 61 16093 6.2 90 11:19 17.12.2019
6315 Clouds 25 1019 73 16093 2.1 70 10:59 17.12.2019
6316 Clouds 25 1019 73 16093 2.1 70 10:40 17.12.2019
6317 Clouds 26 1018 61 16093 3.1 0 10:21 17.12.2019
6318 Clouds 26 1019 69 16093 6.2 80 09:59 17.12.2019
6319 Clouds 25 1018 61 16093 6.2 60 09:40 17.12.2019
6320 Clouds 25 1018 61 16093 6.2 60 09:19 17.12.2019
6321 Clouds 25 1019 73 16093 8.2 70 08:55 17.12.2019
6322 Clouds 25 1019 73 16093 8.2 70 08:37 17.12.2019
6323 Clouds 25 1018 61 16093 6.2 60 08:19 17.12.2019
6324 Clouds 26 1018 61 16093 7.2 70 07:45 17.12.2019
6325 Clouds 26 1018 61 16093 7.2 70 07:24 17.12.2019
6326 Clouds 25 1017 61 16093 8.7 60 06:55 17.12.2019
6327 Clouds 25 1017 61 16093 8.7 60 06:32 17.12.2019
6328 Clouds 25 1016 61 16093 8.2 60 05:52 17.12.2019
6329 Clouds 25 1016 61 16093 8.2 60 05:32 17.12.2019
6330 Clouds 26 1016 57 16093 6.2 60 04:19 17.12.2019
6331 Rain 26 1016 65 16093 6.7 70 02:27 17.12.2019
6332 Clouds 26 1016 65 16093 5.7 40 01:34 17.12.2019
6333 Rain 26 1016 78 14484 7.2 60 00:48 17.12.2019
6334 Rain 25 1016 78 14484 7.2 60 00:22 17.12.2019
6335 Rain 25 1017 78 16093 5.7 50 23:58 16.12.2019
6336 Rain 25 1017 78 16093 5.7 50 23:40 16.12.2019
6337 Rain 25 1017 78 16093 5.7 50 23:18 16.12.2019
6338 Rain 26 1017 88 6437 5.1 60 22:54 16.12.2019
6339 Rain 26 1018 65 16093 5.7 40 22:36 16.12.2019
6340 Rain 26 1018 65 16093 5.7 40 22:18 16.12.2019
6341 Clouds 26 1018 83 16093 5.1 30 21:54 16.12.2019
6342 Rain 26 1018 65 16093 1.5 0 21:36 16.12.2019
6343 Rain 26 1018 65 16093 1.5 0 21:18 16.12.2019
6344 Clouds 25 1018 88 16093 2.6 40 20:54 16.12.2019
6345 Rain 25 1018 74 16093 5.7 20 20:36 16.12.2019
6346 Rain 25 1018 74 16093 5.7 20 20:18 16.12.2019
6347 Clouds 24 1018 88 16093 3.6 340 19:54 16.12.2019
6348 Clouds 24 1016 83 16093 6.2 70 19:36 16.12.2019
6349 Clouds 24 1016 83 16093 6.2 70 19:18 16.12.2019
6350 Clouds 24 1016 83 16093 6.2 70 19:18 16.12.2019
6351 Rain 24 1016 73 16093 5.18 65 18:42 16.12.2019
6352 Rain 23 1016 73 16093 5.18 65 18:20 16.12.2019
6353 Rain 23 1016 73 16093 5.18 65 18:20 16.12.2019
6354 Clouds 23 1016 78 16093 5.18 65 17:59 16.12.2019
6355 Clouds 23 1016 78 16093 5.18 65 17:40 16.12.2019
6356 Clouds 23 1016 78 16093 5.18 65 17:40 16.12.2019
6357 Clouds 23 1016 78 16093 3.55 55 17:21 16.12.2019
6358 Rain 23 1015 83 16093 1.5 80 16:57 16.12.2019
6359 Rain 23 1015 83 16093 1.5 80 16:39 16.12.2019
6360 Rain 23 1015 83 16093 1.5 80 16:20 16.12.2019
6361 Rain 23 1016 83 16093 3.1 80 15:59 16.12.2019
6362 Rain 23 1016 83 16093 3.1 80 15:59 16.12.2019
6363 Rain 23 1015 78 16093 2.1 0 15:39 16.12.2019
6364 Rain 23 1015 78 16093 2.1 0 15:20 16.12.2019
6365 Drizzle 23 1016 88 16093 3.1 360 14:57 16.12.2019
6366 Drizzle 23 1016 88 16093 3.1 360 14:37 16.12.2019
6367 Drizzle 23 1016 88 16093 3.1 360 14:37 16.12.2019
6368 Rain 23 1016 78 16093 2.6 50 14:19 16.12.2019
6369 Rain 23 1016 78 16093 2.6 50 14:19 16.12.2019
6370 Rain 23 1016 78 16093 2.6 50 14:19 16.12.2019
6371 Clouds 23 1016 94 16093 1.5 10 13:56 16.12.2019
6372 Clouds 23 1016 94 16093 1.5 10 13:37 16.12.2019
6373 Rain 24 1016 65 16093 3.6 70 13:19 16.12.2019
6374 Clouds 25 1016 65 16093 5.7 60 12:57 16.12.2019
6375 Clouds 25 1016 65 16093 5.7 60 12:39 16.12.2019
6376 Clouds 25 1016 65 16093 5.7 60 12:18 16.12.2019
6377 Clouds 25 1016 73 16093 6.2 60 11:58 16.12.2019
6378 Clouds 25 1016 73 16093 6.2 60 11:40 16.12.2019
6379 Clouds 24 1016 73 16093 6.2 60 11:20 16.12.2019
6380 Clouds 24 1016 73 16093 6.2 60 11:20 16.12.2019
6381 Clouds 24 1016 65 16093 4.6 60 10:56 16.12.2019
6382 Clouds 24 1016 65 16093 4.6 60 10:36 16.12.2019
6383 Clouds 24 1016 65 16093 4.6 60 10:18 16.12.2019
6384 Clouds 24 1017 65 16093 7.7 50 09:44 16.12.2019
6385 Clouds 24 1017 65 16093 7.7 50 09:44 16.12.2019
6386 Clouds 25 1017 65 16093 7.7 50 09:26 16.12.2019
6387 Clouds 25 1016 65 16093 6.7 40 08:41 16.12.2019
6388 Clouds 25 1016 65 16093 6.7 40 08:21 16.12.2019
6389 Clouds 25 1015 69 16093 4.6 40 07:53 16.12.2019
6390 Clouds 25 1015 69 16093 4.6 40 07:33 16.12.2019
6391 Clouds 25 1015 61 16093 2.1 10 06:59 16.12.2019
6392 Clouds 25 1015 61 16093 2.1 10 06:40 16.12.2019
6393 Clouds 25 1015 61 16093 2.1 10 06:21 16.12.2019
6394 Clouds 25 1014 61 16093 2.6 40 05:41 16.12.2019
6395 Clouds 25 1014 61 16093 2.6 40 05:23 16.12.2019
6396 Clouds 26 1013 58 16093 5.1 70 03:29 16.12.2019
6397 Rain 27 1013 58 16093 6.2 70 01:51 16.12.2019
6398 Rain 27 1013 58 16093 6.2 70 01:33 16.12.2019
6399 Clouds 27 1014 58 16093 5.7 70 00:39 16.12.2019
6400 Clouds 27 1014 58 16093 5.7 70 00:20 16.12.2019
6401 Rain 27 1015 65 16093 5.7 80 23:44 15.12.2019
6402 Rain 27 1015 65 16093 5.7 80 23:25 15.12.2019
6403 Clouds 27 1015 74 14484 5.7 70 22:57 15.12.2019
6404 Clouds 27 1015 74 14484 5.7 70 22:39 15.12.2019
6405 Rain 27 1016 58 16093 5.7 80 22:20 15.12.2019
6406 Clouds 27 1016 61 16093 3.6 30 21:59 15.12.2019
6407 Clouds 27 1016 61 16093 3.6 30 21:39 15.12.2019
6408 Clouds 27 1016 61 16093 3.6 30 21:39 15.12.2019
6409 Clouds 26 1016 61 16093 3.6 30 21:20 15.12.2019
6410 Clouds 26 1016 61 16093 5.7 40 20:58 15.12.2019
6411 Clouds 26 1016 61 16093 5.7 40 20:40 15.12.2019
6412 Clouds 26 1016 61 16093 5.7 40 20:22 15.12.2019
6413 Clouds 24 1016 73 16093 3.6 40 19:58 15.12.2019
6414 Clouds 24 1016 73 16093 3.6 40 19:40 15.12.2019
6415 Clouds 24 1016 73 16093 3.6 40 19:20 15.12.2019
6416 Rain 23 1015 73 16093 5.1 40 18:58 15.12.2019
6417 Rain 23 1015 73 16093 5.1 40 18:58 15.12.2019
6418 Rain 24 1015 73 16093 5.1 40 18:39 15.12.2019
6419 Rain 24 1015 73 16093 5.1 40 18:19 15.12.2019
6420 Clouds 23 1016 100 16093 3.84 78 17:57 15.12.2019
6421 Rain 23 1015 78 16093 2.6 10 17:38 15.12.2019
6422 Rain 24 1015 78 16093 2.6 10 17:19 15.12.2019
6423 Rain 24 1015 73 16093 2.6 20 16:58 15.12.2019
6424 Rain 24 1015 73 16093 2.6 20 16:39 15.12.2019
6425 Rain 24 1015 73 16093 2.6 20 16:21 15.12.2019
6426 Clouds 24 1015 73 16093 3.1 70 15:56 15.12.2019
6427 Clouds 24 1015 73 16093 3.1 70 15:38 15.12.2019
6428 Clouds 24 1015 73 16093 3.1 70 15:19 15.12.2019
6429 Rain 24 1014 83 16093 4.6 70 14:56 15.12.2019
6430 Clouds 24 1015 69 16093 4.1 70 14:37 15.12.2019
6431 Clouds 24 1015 69 16093 4.1 70 14:18 15.12.2019
6432 Clouds 24 1015 78 16093 3.6 70 13:58 15.12.2019
6433 Clouds 24 1015 73 16093 3.1 60 13:37 15.12.2019
6434 Clouds 24 1015 73 16093 3.1 60 13:37 15.12.2019
6435 Clouds 25 1015 73 16093 3.1 60 13:19 15.12.2019
6436 Clouds 25 1015 73 16093 3.1 60 13:19 15.12.2019
6437 Clouds 25 1015 73 16093 4.1 70 12:56 15.12.2019
6438 Clouds 24 1015 73 16093 4.1 70 12:38 15.12.2019
6439 Clouds 25 1015 73 16093 4.1 70 12:20 15.12.2019
6440 Clouds 25 1015 83 16093 3.1 80 11:39 15.12.2019
6441 Clouds 25 1015 83 16093 3.1 80 11:20 15.12.2019
6442 Clouds 25 1015 83 16093 4.6 80 10:59 15.12.2019
6443 Clouds 25 1015 83 16093 4.6 80 10:41 15.12.2019
6444 Clouds 24 1015 78 16093 4.1 80 10:20 15.12.2019
6445 Clouds 25 1016 69 16093 4.1 50 09:59 15.12.2019
6446 Clouds 25 1016 69 16093 4.1 50 09:39 15.12.2019
6447 Clouds 24 1016 69 16093 4.1 50 09:20 15.12.2019
6448 Clouds 24 1016 88 16093 1.5 360 08:56 15.12.2019
6449 Clouds 24 1016 88 16093 1.5 360 08:38 15.12.2019
6450 Rain 24 1015 69 16093 5.1 50 08:20 15.12.2019
6451 Clouds 24 1015 83 16093 4.6 70 07:55 15.12.2019
6452 Clouds 24 1015 83 16093 4.6 70 07:33 15.12.2019
6453 Clouds 24 1015 83 16093 4.1 70 06:31 15.12.2019
6454 Clouds 25 1015 88 16093 4.6 50 05:51 15.12.2019
6455 Clouds 25 1014 65 16093 5.7 30 05:25 15.12.2019
6456 Clouds 25 1014 65 16093 4.6 40 04:24 15.12.2019
6457 Clouds 26 1014 61 16093 6.2 60 03:22 15.12.2019
6458 Rain 26 1014 58 16093 6.7 60 02:32 15.12.2019
6459 Rain 26 1015 94 9656 5.7 80 01:43 15.12.2019
6460 Rain 26 1014 61 16093 7.2 60 01:20 15.12.2019
6461 Clouds 25 1014 78 16093 5.7 70 00:53 15.12.2019
6462 Clouds 25 1015 94 16093 4.1 70 00:34 15.12.2019
6463 Clouds 25 1017 100 12874 5.1 80 23:56 14.12.2019
6464 Rain 25 1017 94 6437 3.6 80 23:38 14.12.2019
6465 Rain 25 1017 94 6437 3.6 80 23:18 14.12.2019
6466 Drizzle 24 1017 94 14484 2.1 110 22:56 14.12.2019
6467 Rain 24 1017 74 14484 7.7 80 22:37 14.12.2019
6468 Rain 24 1017 74 14484 7.7 80 22:18 14.12.2019
6469 Drizzle 24 1017 100 14484 3.1 120 21:55 14.12.2019
6470 Drizzle 24 1017 100 14484 3.1 120 21:37 14.12.2019
6471 Rain 24 1017 73 16093 7.2 50 21:18 14.12.2019
6472 Rain 23 1017 94 8047 6.61 81 20:42 14.12.2019
6473 Rain 23 1017 88 12874 5.7 80 20:20 14.12.2019
6474 Rain 23 1016 88 14484 7.2 90 19:59 14.12.2019
6475 Drizzle 23 1017 94 16093 5.66 81 19:39 14.12.2019
6476 Drizzle 23 1017 94 16093 5.66 81 19:21 14.12.2019
6477 Rain 23 1017 94 9656 5.66 81 18:57 14.12.2019
6478 Clouds 24 1016 83 16093 5.1 80 18:38 14.12.2019
6479 Clouds 24 1016 83 16093 5.1 80 18:20 14.12.2019
6480 Clouds 24 1016 94 16093 3.6 60 17:54 14.12.2019
6481 Clouds 24 1015 74 16093 6.2 70 17:36 14.12.2019
6482 Clouds 24 1015 74 16093 6.2 70 17:18 14.12.2019
6483 Clouds 24 1016 65 16093 5.1 50 16:40 14.12.2019
6484 Clouds 24 1016 65 16093 5.1 50 16:19 14.12.2019
6485 Clouds 24 1015 69 16093 6.2 80 15:54 14.12.2019
6486 Clouds 24 1015 69 16093 6.2 80 15:36 14.12.2019
6487 Clouds 24 1015 69 16093 6.2 80 15:36 14.12.2019
6488 Clouds 24 1015 69 16093 6.2 80 15:36 14.12.2019
6489 Clouds 24 1015 69 16093 6.2 80 15:18 14.12.2019
6490 Clouds 25 1016 65 16093 6.2 60 14:40 14.12.2019
6491 Clouds 25 1016 65 16093 6.2 60 14:21 14.12.2019
6492 Clouds 25 1017 65 16093 5.7 50 13:59 14.12.2019
6493 Clouds 25 1017 65 16093 5.7 50 13:41 14.12.2019
6494 Clouds 25 1017 65 16093 5.7 50 13:19 14.12.2019
6495 Clouds 25 1017 65 16093 5.7 50 13:19 14.12.2019
6496 Clouds 25 1017 65 16093 6.7 50 12:56 14.12.2019
6497 Clouds 25 1017 65 16093 6.7 50 12:37 14.12.2019
6498 Clouds 25 1017 65 16093 6.7 50 12:19 14.12.2019
6499 Clouds 25 1017 61 16093 7.7 60 11:56 14.12.2019
6500 Clouds 26 1017 61 16093 7.7 60 11:37 14.12.2019
6501 Clouds 26 1017 61 16093 7.7 60 11:18 14.12.2019
6502 Clouds 26 1017 57 16093 8.7 70 10:55 14.12.2019
6503 Clouds 26 1017 57 16093 8.7 70 10:55 14.12.2019
6504 Clouds 26 1017 57 16093 8.7 70 10:37 14.12.2019
6505 Clouds 25 1017 57 16093 8.7 70 10:19 14.12.2019
6506 Clouds 25 1018 65 16093 4.1 80 09:41 14.12.2019
6507 Clouds 26 1017 65 16093 5.7 50 09:21 14.12.2019
6508 Clouds 26 1017 61 16093 7.7 70 08:45 14.12.2019
6509 Clouds 26 1017 61 16093 7.7 70 08:21 14.12.2019
6510 Clouds 25 1018 78 16093 3.6 110 07:58 14.12.2019
6511 Clouds 25 1018 78 16093 3.6 110 07:38 14.12.2019
6512 Clouds 25 1019 78 16093 6.7 100 07:19 14.12.2019
6513 Rain 25 1017 78 9656 4.6 100 06:41 14.12.2019
6514 Rain 25 1017 69 16093 7.2 40 06:22 14.12.2019
6515 Rain 25 1017 88 16093 5.1 100 05:22 14.12.2019
6516 Drizzle 27 1016 83 16093 3.6 50 02:49 14.12.2019
6517 Rain 27 1016 61 16093 6.2 60 02:22 14.12.2019
6518 Clouds 27 1015 74 16093 6.7 60 01:43 14.12.2019
6519 Clouds 27 1016 74 16093 6.2 60 00:55 14.12.2019
6520 Clouds 27 1016 74 16093 5.7 70 00:37 14.12.2019
6521 Clouds 27 1016 74 16093 5.7 70 00:18 14.12.2019
6522 Rain 27 1017 61 16093 8.7 50 23:39 13.12.2019
6523 Rain 27 1017 61 16093 8.7 50 23:19 13.12.2019
6524 Rain 27 1018 83 16093 4.6 70 22:55 13.12.2019
6525 Rain 27 1018 83 16093 4.6 70 22:36 13.12.2019
6526 Clouds 28 1018 61 16093 8.7 70 22:18 13.12.2019
6527 Clouds 27 1018 65 16093 8.7 60 21:40 13.12.2019
6528 Clouds 27 1018 65 16093 8.7 60 21:21 13.12.2019
6529 Clouds 26 1018 65 16093 6.7 60 20:57 13.12.2019
6530 Clouds 26 1018 65 16093 6.7 60 20:38 13.12.2019
6531 Clouds 25 1017 73 16093 6.7 70 20:19 13.12.2019
6532 Clouds 25 1017 73 16093 6.7 70 19:56 13.12.2019
6533 Clouds 25 1017 73 16093 6.7 70 19:36 13.12.2019
6534 Clouds 24 1017 73 16093 6.7 70 19:18 13.12.2019
6535 Clouds 24 1017 69 16093 6.2 70 18:41 13.12.2019
6536 Clouds 24 1017 69 16093 6.2 70 18:19 13.12.2019
6537 Clouds 23 1017 78 16093 4.1 80 17:57 13.12.2019
6538 Clouds 24 1016 73 16093 3.6 80 17:39 13.12.2019
6539 Clouds 23 1016 73 16093 3.6 80 17:18 13.12.2019
6540 Clouds 23 1016 88 16093 5.7 50 16:54 13.12.2019
6541 Clouds 23 1016 88 16093 5.7 50 16:54 13.12.2019
6542 Clouds 23 1016 88 16093 5.7 50 16:36 13.12.2019
6543 Clouds 23 1016 88 16093 5.7 50 16:18 13.12.2019
6544 Clear 23 1016 94 16093 5.21 72 15:40 13.12.2019
6545 Clear 23 1016 94 16093 5.21 72 15:20 13.12.2019
6546 Rain 23 1016 88 16093 4.1 60 14:55 13.12.2019
6547 Rain 23 1016 88 16093 5.1 50 14:36 13.12.2019
6548 Rain 23 1016 88 16093 5.1 50 14:18 13.12.2019
6549 Rain 23 1016 88 16093 8.7 50 13:41 13.12.2019
6550 Rain 23 1016 88 16093 8.7 50 13:21 13.12.2019
6551 Rain 23 1017 88 4828 5.1 60 12:44 13.12.2019
6552 Rain 23 1017 88 4828 5.1 60 12:24 13.12.2019
6553 Rain 23 1018 94 16093 3.01 69 11:59 13.12.2019
6554 Rain 23 1018 100 12874 2.1 300 11:41 13.12.2019
6555 Rain 23 1018 100 12874 2.1 300 11:23 13.12.2019
6556 Rain 23 1019 100 16093 4.1 320 10:56 13.12.2019
6557 Drizzle 23 1019 100 16093 3.1 330 10:38 13.12.2019
6558 Drizzle 23 1019 100 16093 3.1 330 10:19 13.12.2019
6559 Rain 22 1019 88 16093 3.6 330 09:41 13.12.2019
6560 Rain 23 1019 88 16093 3.6 330 09:20 13.12.2019
6561 Rain 23 1019 88 16093 3.6 330 09:20 13.12.2019
6562 Rain 23 1019 100 16093 1.5 270 08:42 13.12.2019
6563 Rain 23 1019 100 16093 1.5 270 08:24 13.12.2019
6564 Rain 24 1017 94 8047 9.3 40 07:47 13.12.2019
6565 Rain 24 1017 94 8047 9.3 40 07:24 13.12.2019
6566 Drizzle 25 1018 88 16093 2.6 320 06:55 13.12.2019
6567 Rain 25 1017 65 16093 4.1 60 06:29 13.12.2019
6568 Drizzle 25 1018 83 16093 3.1 350 05:47 13.12.2019
6569 Clouds 26 1016 78 16093 5.1 40 05:28 13.12.2019
6570 Rain 26 1016 61 16093 3.6 220 04:46 13.12.2019
6571 Clouds 27 1016 65 16093 4.1 230 03:47 13.12.2019
6572 Clouds 27 1016 73 16093 2.6 290 02:34 13.12.2019
6573 Clouds 28 1016 54 16093 4.1 180 01:47 13.12.2019
6574 Clouds 27 1016 61 16093 4.1 160 00:57 13.12.2019
6575 Clouds 27 1016 61 16093 4.1 160 00:37 13.12.2019
6576 Clouds 27 1018 58 16093 4.1 170 23:59 12.12.2019
6577 Clouds 27 1018 58 16093 4.1 170 23:59 12.12.2019
6578 Clouds 28 1018 58 16093 4.1 170 23:39 12.12.2019
6579 Clouds 28 1018 58 16093 4.1 170 23:21 12.12.2019
6580 Clouds 27 1018 61 16093 3.6 210 22:56 12.12.2019
6581 Clouds 27 1018 61 16093 3.6 210 22:37 12.12.2019
6582 Clouds 27 1018 61 16093 3.6 210 22:18 12.12.2019
6583 Clouds 27 1019 58 16093 1.5 320 21:54 12.12.2019
6584 Clouds 27 1019 58 16093 1.5 320 21:36 12.12.2019
6585 Clouds 27 1019 58 16093 1.5 320 21:18 12.12.2019
6586 Clouds 26 1018 69 16093 1.5 330 20:55 12.12.2019
6587 Clouds 26 1018 69 16093 1.5 330 20:55 12.12.2019
6588 Clouds 26 1018 69 16093 1.5 330 20:55 12.12.2019
6589 Clouds 25 1018 69 16093 1.5 330 20:37 12.12.2019
6590 Clouds 25 1018 69 16093 1.5 330 20:19 12.12.2019
6591 Clouds 23 1018 78 16093 1.5 30 19:42 12.12.2019
6592 Clouds 23 1018 78 16093 1.5 30 19:22 12.12.2019
6593 Clouds 22 1018 88 16093 0.77 89 18:58 12.12.2019
6594 Drizzle 22 1018 88 16093 0.77 89 18:39 12.12.2019
6595 Drizzle 22 1018 88 16093 0.77 89 18:20 12.12.2019
6596 Clouds 22 1017 78 16093 0.77 89 17:57 12.12.2019
6597 Clouds 22 1017 78 16093 0.77 89 17:39 12.12.2019
6598 Clouds 21 1017 78 16093 0.81 92 17:20 12.12.2019
6599 Clouds 21 1017 94 16093 2.6 330 16:57 12.12.2019
6600 Clouds 21 1017 94 16093 1.5 340 16:39 12.12.2019
6601 Clouds 21 1017 94 16093 1.5 340 16:20 12.12.2019
6602 Clouds 22 1016 94 16093 0.81 92 15:56 12.12.2019
6603 Clouds 22 1016 88 16093 0.81 92 15:37 12.12.2019
6604 Clouds 22 1016 88 16093 0.81 92 15:18 12.12.2019
6605 Clouds 22 1016 88 16093 0.81 92 14:38 12.12.2019
6606 Clouds 22 1016 88 16093 0.98 84 14:20 12.12.2019
6607 Clouds 22 1017 78 16093 2.6 330 13:58 12.12.2019
6608 Clouds 23 1017 78 16093 2.6 330 13:39 12.12.2019
6609 Clouds 23 1017 78 16093 2.6 330 13:21 12.12.2019
6610 Clouds 23 1017 88 16093 1.5 220 12:58 12.12.2019
6611 Clouds 23 1018 78 16093 1.04 94 12:40 12.12.2019
6612 Clouds 23 1018 78 16093 1.04 94 12:21 12.12.2019
6613 Clouds 23 1018 73 16093 2.1 310 11:56 12.12.2019
6614 Clouds 23 1018 73 16093 2.1 310 11:37 12.12.2019
6615 Clouds 23 1018 73 16093 2.1 310 11:19 12.12.2019
6616 Clouds 23 1018 69 16093 1.5 280 10:55 12.12.2019
6617 Clouds 23 1018 69 16093 1.5 280 10:37 12.12.2019
6618 Clouds 23 1018 69 16093 1.5 280 10:19 12.12.2019
6619 Clouds 23 1018 65 16093 1.13 98 09:42 12.12.2019
6620 Clouds 23 1018 65 16093 1.13 98 09:23 12.12.2019
6621 Clouds 24 1018 65 16093 1.13 98 08:56 12.12.2019
6622 Clouds 24 1018 65 16093 1.13 98 08:38 12.12.2019
6623 Clouds 24 1019 88 16093 1.5 10 08:20 12.12.2019
6624 Clouds 24 1018 69 16093 1.5 0 07:43 12.12.2019
6625 Clouds 24 1018 69 16093 1.5 0 07:24 12.12.2019
6626 Clouds 24 1017 88 16093 0.75 61 06:50 12.12.2019
6627 Clouds 25 1017 88 16093 0.75 61 06:32 12.12.2019
6628 Clouds 25 1017 83 16093 1.5 180 05:39 12.12.2019
6629 Clouds 26 1016 74 16093 2.6 90 04:51 12.12.2019
6630 Clouds 26 1016 61 16093 4.1 160 03:24 12.12.2019
6631 Clouds 27 1016 69 16093 3.6 100 02:38 12.12.2019
6632 Clouds 27 1016 69 16093 3.6 100 02:19 12.12.2019
6633 Clouds 27 1016 61 16093 6.2 140 01:37 12.12.2019
6634 Clouds 27 1016 61 16093 6.2 140 01:18 12.12.2019
6635 Clouds 28 1017 62 16093 5.7 140 00:40 12.12.2019
6636 Clouds 28 1017 62 16093 5.7 140 00:19 12.12.2019
6637 Clouds 28 1018 61 16093 6.2 140 23:44 11.12.2019
6638 Clouds 28 1018 61 16093 6.2 140 23:20 11.12.2019
6639 Clouds 28 1018 58 16093 2.6 100 22:57 11.12.2019
6640 Clouds 28 1018 58 16093 2.6 100 22:38 11.12.2019
6641 Clouds 28 1018 58 16093 2.6 100 22:19 11.12.2019
6642 Clouds 27 1019 65 16093 2.6 180 21:57 11.12.2019
6643 Clouds 27 1019 65 16093 2.6 180 21:37 11.12.2019
6644 Clouds 27 1019 65 16093 2.6 180 21:19 11.12.2019
6645 Clouds 26 1019 73 16093 1.5 310 20:56 11.12.2019
6646 Clouds 25 1019 73 16093 1.5 310 20:37 11.12.2019
6647 Clouds 25 1019 73 16093 1.5 310 20:19 11.12.2019
6648 Clouds 23 1018 78 16093 3.1 350 19:57 11.12.2019
6649 Clouds 23 1018 78 16093 3.1 350 19:38 11.12.2019
6650 Clouds 22 1018 78 16093 3.1 350 19:18 11.12.2019
6651 Clear 22 1018 83 16093 1.7 90 18:40 11.12.2019
6652 Clear 21 1018 83 16093 1.7 90 18:21 11.12.2019
6653 Clouds 21 1017 83 16093 2.6 350 17:57 11.12.2019
6654 Clouds 21 1017 83 16093 2.6 350 17:38 11.12.2019
6655 Clouds 21 1017 83 16093 2.6 350 17:18 11.12.2019
6656 Clouds 21 1016 88 16093 2.6 250 16:56 11.12.2019
6657 Clouds 21 1016 88 16093 2.6 250 16:56 11.12.2019
6658 Clouds 21 1016 88 16093 2.6 250 16:37 11.12.2019
6659 Clouds 21 1016 88 16093 2.6 250 16:19 11.12.2019
6660 Clear 21 1017 83 16093 1.42 88 15:57 11.12.2019
6661 Clear 21 1017 83 16093 1.42 88 15:57 11.12.2019
6662 Clear 21 1017 83 16093 1.42 88 15:37 11.12.2019
6663 Clear 22 1017 83 16093 1.42 88 15:19 11.12.2019
6664 Clouds 22 1017 83 16093 1.42 88 14:55 11.12.2019
6665 Clouds 22 1017 83 16093 1.42 88 14:37 11.12.2019
6666 Clouds 22 1017 83 16093 1.23 80 14:18 11.12.2019
6667 Clouds 22 1018 83 16093 2.1 340 13:44 11.12.2019
6668 Clouds 22 1018 83 16093 2.1 340 13:23 11.12.2019
6669 Clouds 23 1018 83 16093 1.5 0 12:59 11.12.2019
6670 Clouds 23 1018 83 16093 1.5 0 12:39 11.12.2019
6671 Clouds 23 1018 83 16093 1.5 0 12:21 11.12.2019
6672 Clouds 23 1017 78 16093 2.1 90 11:58 11.12.2019
6673 Clouds 23 1017 78 16093 2.1 90 11:39 11.12.2019
6674 Clouds 23 1017 78 16093 2.1 90 11:19 11.12.2019
6675 Clouds 23 1018 78 16093 1.38 80 10:59 11.12.2019
6676 Clouds 23 1018 78 16093 1.38 80 10:39 11.12.2019
6677 Clouds 23 1018 78 16093 1.38 80 10:21 11.12.2019
6678 Clouds 24 1018 69 16093 1.5 20 09:56 11.12.2019
6679 Clouds 24 1018 69 16093 1.5 20 09:38 11.12.2019
6680 Clouds 24 1018 69 160